Wetterdaten: Samstag, 04.03.2017
Datum Zeit Temp. A. Temp. A. max Feuchte A. Luftdruck Regen Wind Richtung Richtung Sonnenschein ET UV Solar Taupunkt Windchill Windböen
04.03.2017 00:00 12,3 °C 12,3 °C 38 % 1003,4 hPa 0,0 mm 16,4 km/h (3 Bft) W 263 ° 0 min 0,000 mm 0,0 UV-I 0 W/m² -1,6 °C 12,3 °C 33,8 km/h (5 Bft)
04.03.2017 00:01 12,3 °C 12,3 °C 38 % 1003,4 hPa 0,0 mm 11,4 km/h (2 Bft) W-NW 300 ° 0 min 0,000 mm 0,0 UV-I 0 W/m² -1,6 °C 12,3 °C 20,9 km/h (4 Bft)
04.03.2017 00:02 12,3 °C 12,3 °C 38 % 1003,3 hPa 0,0 mm 8,5 km/h (2 Bft) S 184 ° 0 min 0,000 mm 0,0 UV-I 0 W/m² -1,6 °C 12,3 °C 25,7 km/h (4 Bft)
04.03.2017 00:03 12,2 °C 12,3 °C 38 % 1003,3 hPa 0,0 mm 14,3 km/h (3 Bft) S 173 ° 0 min 0,000 mm 0,0 UV-I 0 W/m² -1,7 °C 12,2 °C 29,0 km/h (5 Bft)
04.03.2017 00:04 12,2 °C 12,2 °C 39 % 1003,4 hPa 0,0 mm 8,9 km/h (2 Bft) W-NW 293 ° 0 min 0,000 mm 0,0 UV-I 0 W/m² -1,3 °C 12,2 °C 24,1 km/h (4 Bft)
04.03.2017 00:05 12,2 °C 12,2 °C 38 % 1003,3 hPa 0,0 mm 8,3 km/h (2 Bft) W-SW 249 ° 0 min 0,000 mm 0,0 UV-I 0 W/m² -1,7 °C 12,2 °C 14,5 km/h (3 Bft)
04.03.2017 00:06 12,3 °C 12,3 °C 38 % 1003,3 hPa 0,0 mm 6,1 km/h (2 Bft) W 261 ° 0 min 0,000 mm 0,0 UV-I 0 W/m² -1,6 °C 12,3 °C 14,5 km/h (3 Bft)
04.03.2017 00:07 12,2 °C 12,3 °C 40 % 1003,2 hPa 0,0 mm 6,4 km/h (2 Bft) S-SW 206 ° 0 min 0,000 mm 0,0 UV-I 0 W/m² -1,0 °C 12,2 °C 11,3 km/h (2 Bft)
04.03.2017 00:08 12,1 °C 12,2 °C 38 % 1003,3 hPa 0,0 mm 7,4 km/h (2 Bft) W-SW 254 ° 0 min 0,000 mm 0,0 UV-I 0 W/m² -1,8 °C 12,1 °C 16,1 km/h (3 Bft)
04.03.2017 00:09 12,1 °C 12,1 °C 38 % 1003,1 hPa 0,0 mm 5,2 km/h (1 Bft) W 265 ° 0 min 0,000 mm 0,0 UV-I 0 W/m² -1,8 °C 12,1 °C 6,4 km/h (2 Bft)
04.03.2017 00:10 12,1 °C 12,1 °C 38 % 1002,9 hPa 0,0 mm 7,2 km/h (2 Bft) N-NO 24 ° 0 min 0,000 mm 0,0 UV-I 0 W/m² -1,8 °C 12,1 °C 11,3 km/h (2 Bft)
04.03.2017 00:11 11,9 °C 12,1 °C 40 % 1002,9 hPa 0,0 mm 9,9 km/h (2 Bft) O 98 ° 0 min 0,000 mm 0,0 UV-I 0 W/m² -1,3 °C 11,9 °C 16,1 km/h (3 Bft)
04.03.2017 00:12 11,9 °C 12,0 °C 40 % 1003,1 hPa 0,0 mm 6,8 km/h (2 Bft) S-SW 200 ° 0 min 0,000 mm 0,0 UV-I 0 W/m² -1,3 °C 11,9 °C 9,7 km/h (2 Bft)
04.03.2017 00:13 11,9 °C 11,9 °C 37 % 1003,1 hPa 0,0 mm 9,7 km/h (2 Bft) SW 229 ° 0 min 0,000 mm 0,0 UV-I 0 W/m² -2,3 °C 11,9 °C 17,7 km/h (3 Bft)
04.03.2017 00:14 11,9 °C 12,0 °C 39 % 1003,0 hPa 0,0 mm 6,6 km/h (2 Bft) W-SW 251 ° 0 min 0,000 mm 0,0 UV-I 0 W/m² -1,6 °C 11,9 °C 14,5 km/h (3 Bft)
04.03.2017 00:15 12,0 °C 12,0 °C 40 % 1003,0 hPa 0,0 mm 10,5 km/h (2 Bft) W 279 ° 0 min 0,000 mm 0,0 UV-I 0 W/m² -1,2 °C 12,0 °C 25,7 km/h (4 Bft)
04.03.2017 00:16 12,1 °C 12,1 °C 38 % 1003,0 hPa 0,0 mm 3,6 km/h (1 Bft) N 351 ° 0 min 0,000 mm 0,0 UV-I 0 W/m² -1,8 °C 12,1 °C 6,4 km/h (2 Bft)
04.03.2017 00:17 12,1 °C 12,1 °C 38 % 1002,8 hPa 0,0 mm 15,6 km/h (3 Bft) S-SW 213 ° 0 min 0,000 mm 0,0 UV-I 0 W/m² -1,8 °C 12,1 °C 33,8 km/h (5 Bft)
04.03.2017 00:18 12,2 °C 12,2 °C 38 % 1002,8 hPa 0,0 mm 12,9 km/h (3 Bft) W 259 ° 0 min 0,000 mm 0,0 UV-I 0 W/m² -1,7 °C 12,2 °C 24,1 km/h (4 Bft)
04.03.2017 00:19 12,3 °C 12,3 °C 39 % 1002,8 hPa 0,0 mm 14,0 km/h (3 Bft) S 188 ° 0 min 0,000 mm 0,0 UV-I 0 W/m² -1,2 °C 12,3 °C 22,5 km/h (4 Bft)
04.03.2017 00:20 12,2 °C 12,3 °C 39 % 1002,8 hPa 0,0 mm 5,0 km/h (1 Bft) N 355 ° 0 min 0,000 mm 0,0 UV-I 0 W/m² -1,3 °C 12,2 °C 9,7 km/h (2 Bft)
04.03.2017 00:21 12,1 °C 12,2 °C 40 % 1002,8 hPa 0,0 mm 4,7 km/h (1 Bft) NO 54 ° 0 min 0,000 mm 0,0 UV-I 0 W/m² -1,1 °C 12,1 °C 6,4 km/h (2 Bft)
04.03.2017 00:22 11,9 °C 12,1 °C 40 % 1002,8 hPa 0,0 mm 6,5 km/h (2 Bft) NO 46 ° 0 min 0,000 mm 0,0 UV-I 0 W/m² -1,3 °C 11,9 °C 12,9 km/h (3 Bft)
04.03.2017 00:23 11,8 °C 11,9 °C 40 % 1002,7 hPa 0,0 mm 8,0 km/h (2 Bft) S 181 ° 0 min 0,000 mm 0,0 UV-I 0 W/m² -1,3 °C 11,8 °C 17,7 km/h (3 Bft)
04.03.2017 00:24 11,8 °C 11,9 °C 39 % 1002,7 hPa 0,0 mm 6,4 km/h (2 Bft) N-NW 336 ° 0 min 0,000 mm 0,0 UV-I 0 W/m² -1,7 °C 11,8 °C 14,5 km/h (3 Bft)
04.03.2017 00:25 11,9 °C 11,9 °C 38 % 1002,7 hPa 0,0 mm 6,0 km/h (2 Bft) N-NO 13 ° 0 min 0,000 mm 0,0 UV-I 0 W/m² -2,0 °C 11,9 °C 11,3 km/h (2 Bft)
04.03.2017 00:26 11,9 °C 11,9 °C 38 % 1002,7 hPa 0,0 mm 10,1 km/h (2 Bft) NW 315 ° 0 min 0,000 mm 0,0 UV-I 0 W/m² -2,0 °C 11,9 °C 16,1 km/h (3 Bft)
04.03.2017 00:27 12,1 °C 12,1 °C 38 % 1002,7 hPa 0,0 mm 5,7 km/h (1 Bft) O-NO 71 ° 0 min 0,000 mm 0,0 UV-I 0 W/m² -1,8 °C 12,1 °C 12,9 km/h (3 Bft)
04.03.2017 00:28 12,1 °C 12,1 °C 38 % 1002,6 hPa 0,0 mm 4,8 km/h (1 Bft) N-NW 344 ° 0 min 0,000 mm 0,0 UV-I 0 W/m² -1,8 °C 12,1 °C 8,0 km/h (2 Bft)
04.03.2017 00:29 12,1 °C 12,2 °C 38 % 1002,7 hPa 0,0 mm 3,3 km/h (1 Bft) O 87 ° 0 min 0,000 mm 0,0 UV-I 0 W/m² -1,8 °C 12,1 °C 6,4 km/h (2 Bft)
04.03.2017 00:30 12,1 °C 12,1 °C 37 % 1002,7 hPa 0,0 mm 10,8 km/h (2 Bft) S-SO 153 ° 0 min 0,000 mm 0,0 UV-I 0 W/m² -2,1 °C 12,1 °C 16,1 km/h (3 Bft)
04.03.2017 00:31 12,1 °C 12,2 °C 39 % 1002,5 hPa 0,0 mm 4,4 km/h (1 Bft) O-NO 63 ° 0 min 0,000 mm 0,0 UV-I 0 W/m² -1,4 °C 12,1 °C 9,7 km/h (2 Bft)
04.03.2017 00:32 11,9 °C 12,1 °C 42 % 1002,6 hPa 0,0 mm 5,5 km/h (1 Bft) N-NW 333 ° 0 min 0,000 mm 0,0 UV-I 0 W/m² -0,6 °C 11,9 °C 9,7 km/h (2 Bft)
04.03.2017 00:33 11,8 °C 11,9 °C 40 % 1002,5 hPa 0,0 mm 5,6 km/h (1 Bft) W-NW 290 ° 0 min 0,000 mm 0,0 UV-I 0 W/m² -1,3 °C 11,8 °C 9,7 km/h (2 Bft)
04.03.2017 00:34 11,7 °C 11,8 °C 40 % 1002,5 hPa 0,0 mm 6,8 km/h (2 Bft) W 259 ° 0 min 0,000 mm 0,0 UV-I 0 W/m² -1,4 °C 11,7 °C 11,3 km/h (2 Bft)
04.03.2017 00:35 11,6 °C 11,7 °C 41 % 1002,5 hPa 0,0 mm 4,7 km/h (1 Bft) NW 307 ° 0 min 0,000 mm 0,0 UV-I 0 W/m² -1,2 °C 11,6 °C 8,0 km/h (2 Bft)
04.03.2017 00:36 11,4 °C 11,6 °C 40 % 1002,5 hPa 0,0 mm 4,4 km/h (1 Bft) O 93 ° 0 min 0,000 mm 0,0 UV-I 0 W/m² -1,7 °C 11,4 °C 8,0 km/h (2 Bft)
04.03.2017 00:37 11,5 °C 11,5 °C 40 % 1002,5 hPa 0,0 mm 4,8 km/h (1 Bft) W-NW 290 ° 0 min 0,000 mm 0,0 UV-I 0 W/m² -1,6 °C 11,5 °C 6,4 km/h (2 Bft)
04.03.2017 00:38 11,6 °C 11,6 °C 38 % 1002,4 hPa 0,0 mm 9,9 km/h (2 Bft) W-SW 244 ° 0 min 0,000 mm 0,0 UV-I 0 W/m² -2,2 °C 11,6 °C 20,9 km/h (4 Bft)
04.03.2017 00:39 11,7 °C 11,7 °C 38 % 1002,4 hPa 0,0 mm 6,5 km/h (2 Bft) W 274 ° 0 min 0,000 mm 0,0 UV-I 0 W/m² -2,1 °C 11,7 °C 14,5 km/h (3 Bft)
04.03.2017 00:40 11,8 °C 11,8 °C 39 % 1002,4 hPa 0,0 mm 6,6 km/h (2 Bft) W-NW 294 ° 0 min 0,000 mm 0,0 UV-I 0 W/m² -1,7 °C 11,8 °C 16,1 km/h (3 Bft)
04.03.2017 00:41 11,8 °C 11,8 °C 39 % 1002,4 hPa 0,0 mm 6,1 km/h (2 Bft) S-SW 209 ° 0 min 0,000 mm 0,0 UV-I 0 W/m² -1,7 °C 11,8 °C 11,3 km/h (2 Bft)
04.03.2017 00:42 11,7 °C 11,8 °C 41 % 1002,3 hPa 0,0 mm 8,0 km/h (2 Bft) O-NO 64 ° 0 min 0,000 mm 0,0 UV-I 0 W/m² -1,1 °C 11,7 °C 14,5 km/h (3 Bft)
04.03.2017 00:43 11,7 °C 11,7 °C 40 % 1002,1 hPa 0,0 mm 7,3 km/h (2 Bft) O-NO 75 ° 0 min 0,000 mm 0,0 UV-I 0 W/m² -1,4 °C 11,7 °C 12,9 km/h (3 Bft)
04.03.2017 00:44 11,6 °C 11,7 °C 40 % 1002,2 hPa 0,0 mm 12,1 km/h (2 Bft) S-SO 164 ° 0 min 0,000 mm 0,0 UV-I 0 W/m² -1,5 °C 11,6 °C 16,1 km/h (3 Bft)
04.03.2017 00:45 11,7 °C 11,7 °C 38 % 1002,3 hPa 0,0 mm 9,3 km/h (2 Bft) W-SW 257 ° 0 min 0,000 mm 0,0 UV-I 0 W/m² -2,1 °C 11,7 °C 17,7 km/h (3 Bft)
04.03.2017 00:46 11,8 °C 11,8 °C 40 % 1002,2 hPa 0,0 mm 7,1 km/h (2 Bft) S 182 ° 0 min 0,000 mm 0,0 UV-I 0 W/m² -1,3 °C 11,8 °C 19,3 km/h (3 Bft)
04.03.2017 00:47 11,9 °C 11,9 °C 38 % 1002,3 hPa 0,0 mm 4,1 km/h (1 Bft) W 277 ° 0 min 0,000 mm 0,0 UV-I 0 W/m² -2,0 °C 11,9 °C 11,3 km/h (2 Bft)
04.03.2017 00:48 11,9 °C 11,9 °C 39 % 1002,3 hPa 0,0 mm 6,6 km/h (2 Bft) N 9 ° 0 min 0,000 mm 0,0 UV-I 0 W/m² -1,6 °C 11,9 °C 12,9 km/h (3 Bft)
04.03.2017 00:49 11,9 °C 11,9 °C 39 % 1002,2 hPa 0,0 mm 4,0 km/h (1 Bft) S-SW 207 ° 0 min 0,000 mm 0,0 UV-I 0 W/m² -1,6 °C 11,9 °C 11,3 km/h (2 Bft)
04.03.2017 00:50 12,0 °C 12,0 °C 37 % 1002,3 hPa 0,0 mm 4,1 km/h (1 Bft) O 93 ° 0 min 0,000 mm 0,0 UV-I 0 W/m² -2,2 °C 12,0 °C 9,7 km/h (2 Bft)
04.03.2017 00:51 11,9 °C 12,0 °C 40 % 1002,3 hPa 0,0 mm 2,7 km/h (1 Bft) O 81 ° 0 min 0,000 mm 0,0 UV-I 0 W/m² -1,3 °C 11,9 °C 4,8 km/h (1 Bft)
04.03.2017 00:52 11,6 °C 11,9 °C 42 % 1002,3 hPa 0,0 mm 4,3 km/h (1 Bft) N 355 ° 0 min 0,000 mm 0,0 UV-I 0 W/m² -0,9 °C 11,6 °C 6,4 km/h (2 Bft)
04.03.2017 00:53 11,4 °C 11,6 °C 40 % 1002,3 hPa 0,0 mm 4,0 km/h (1 Bft) NO 36 ° 0 min 0,000 mm 0,0 UV-I 0 W/m² -1,7 °C 11,4 °C 6,4 km/h (2 Bft)
04.03.2017 00:54 11,3 °C 11,4 °C 40 % 1002,3 hPa 0,0 mm 9,7 km/h (2 Bft) O 95 ° 0 min 0,000 mm 0,0 UV-I 0 W/m² -1,8 °C 11,3 °C 17,7 km/h (3 Bft)
04.03.2017 00:55 11,2 °C 11,3 °C 41 % 1002,3 hPa 0,0 mm 5,8 km/h (2 Bft) NO 53 ° 0 min 0,000 mm 0,0 UV-I 0 W/m² -1,6 °C 11,2 °C 11,3 km/h (2 Bft)
04.03.2017 00:56 11,2 °C 11,2 °C 40 % 1002,3 hPa 0,0 mm 3,7 km/h (1 Bft) W-NW 290 ° 0 min 0,000 mm 0,0 UV-I 0 W/m² -1,9 °C 11,2 °C 4,8 km/h (1 Bft)
04.03.2017 00:57 11,2 °C 11,2 °C 41 % 1002,3 hPa 0,0 mm 4,8 km/h (1 Bft) S 191 ° 0 min 0,000 mm 0,0 UV-I 0 W/m² -1,6 °C 11,2 °C 11,3 km/h (2 Bft)
04.03.2017 00:58 11,3 °C 11,3 °C 40 % 1002,2 hPa 0,0 mm 9,3 km/h (2 Bft) S 179 ° 0 min 0,000 mm 0,0 UV-I 0 W/m² -1,8 °C 11,3 °C 12,9 km/h (3 Bft)
04.03.2017 00:59 11,3 °C 11,3 °C 41 % 1002,4 hPa 0,0 mm 8,5 km/h (2 Bft) O-SO 103 ° 0 min 0,000 mm 0,0 UV-I 0 W/m² -1,5 °C 11,3 °C 20,9 km/h (4 Bft)
04.03.2017 01:00 11,4 °C 11,4 °C 39 % 1002,2 hPa 0,0 mm 7,1 km/h (2 Bft) W-NW 291 ° 0 min 0,000 mm 0,0 UV-I 0 W/m² -2,0 °C 11,4 °C 12,9 km/h (3 Bft)
04.03.2017 01:01 11,4 °C 11,5 °C 41 % 1002,2 hPa 0,0 mm 6,7 km/h (2 Bft) N-NW 336 ° 0 min 0,076 mm 0,0 UV-I 0 W/m² -1,4 °C 11,4 °C 11,3 km/h (2 Bft)
04.03.2017 01:02 11,4 °C 11,5 °C 41 % 1002,2 hPa 0,0 mm 6,1 km/h (2 Bft) W 278 ° 0 min 0,000 mm 0,0 UV-I 0 W/m² -1,4 °C 11,4 °C 9,7 km/h (2 Bft)
04.03.2017 01:03 11,4 °C 11,4 °C 41 % 1002,3 hPa 0,0 mm 8,3 km/h (2 Bft) S 169 ° 0 min 0,000 mm 0,0 UV-I 0 W/m² -1,4 °C 11,4 °C 14,5 km/h (3 Bft)
04.03.2017 01:04 11,5 °C 11,5 °C 40 % 1002,2 hPa 0,0 mm 6,1 km/h (2 Bft) S 176 ° 0 min 0,000 mm 0,0 UV-I 0 W/m² -1,6 °C 11,5 °C 11,3 km/h (2 Bft)
04.03.2017 01:05 11,7 °C 11,7 °C 39 % 1002,3 hPa 0,0 mm 2,9 km/h (1 Bft) W-SW 244 ° 0 min 0,000 mm 0,0 UV-I 0 W/m² -1,8 °C 11,7 °C 6,4 km/h (2 Bft)
04.03.2017 01:06 11,8 °C 11,8 °C 38 % 1002,3 hPa 0,0 mm 8,1 km/h (2 Bft) S 186 ° 0 min 0,000 mm 0,0 UV-I 0 W/m² -2,0 °C 11,8 °C 20,9 km/h (4 Bft)
04.03.2017 01:07 11,9 °C 11,9 °C 39 % 1002,2 hPa 0,0 mm 5,2 km/h (1 Bft) W 274 ° 0 min 0,000 mm 0,0 UV-I 0 W/m² -1,6 °C 11,9 °C 9,7 km/h (2 Bft)
04.03.2017 01:08 12,0 °C 12,0 °C 37 % 1002,3 hPa 0,0 mm 11,3 km/h (2 Bft) S-SW 199 ° 0 min 0,000 mm 0,0 UV-I 0 W/m² -2,2 °C 12,0 °C 17,7 km/h (3 Bft)
04.03.2017 01:09 12,1 °C 12,1 °C 37 % 1002,2 hPa 0,0 mm 11,7 km/h (2 Bft) W-SW 246 ° 0 min 0,000 mm 0,0 UV-I 0 W/m² -2,1 °C 12,1 °C 16,1 km/h (3 Bft)
04.03.2017 01:10 12,1 °C 12,1 °C 38 % 1002,3 hPa 0,0 mm 7,1 km/h (2 Bft) S-SW 198 ° 0 min 0,000 mm 0,0 UV-I 0 W/m² -1,8 °C 12,1 °C 11,3 km/h (2 Bft)
04.03.2017 01:11 11,9 °C 12,1 °C 38 % 1002,2 hPa 0,0 mm 3,5 km/h (1 Bft) N-NO 13 ° 0 min 0,000 mm 0,0 UV-I 0 W/m² -2,0 °C 11,9 °C 6,4 km/h (2 Bft)
04.03.2017 01:12 11,9 °C 11,9 °C 39 % 1002,2 hPa 0,0 mm 5,2 km/h (1 Bft) S-SW 213 ° 0 min 0,000 mm 0,0 UV-I 0 W/m² -1,6 °C 11,9 °C 9,7 km/h (2 Bft)
04.03.2017 01:13 11,9 °C 11,9 °C 39 % 1002,2 hPa 0,0 mm 1,5 km/h (1 Bft) S-SW 212 ° 0 min 0,000 mm 0,0 UV-I 0 W/m² -1,6 °C 11,9 °C 3,2 km/h (1 Bft)
04.03.2017 01:14 11,8 °C 11,9 °C 39 % 1002,2 hPa 0,0 mm 4,9 km/h (1 Bft) SW 236 ° 0 min 0,000 mm 0,0 UV-I 0 W/m² -1,7 °C 11,8 °C 8,0 km/h (2 Bft)
04.03.2017 01:15 11,7 °C 11,8 °C 40 % 1002,2 hPa 0,0 mm 5,6 km/h (1 Bft) W-SW 239 ° 0 min 0,000 mm 0,0 UV-I 0 W/m² -1,4 °C 11,7 °C 14,5 km/h (3 Bft)
04.03.2017 01:16 11,6 °C 11,7 °C 39 % 1002,2 hPa 0,0 mm 3,3 km/h (1 Bft) N-NW 335 ° 0 min 0,000 mm 0,0 UV-I 0 W/m² -1,9 °C 11,6 °C 4,8 km/h (1 Bft)
04.03.2017 01:17 11,6 °C 11,6 °C 40 % 1002,1 hPa 0,0 mm 2,5 km/h (1 Bft) NW 313 ° 0 min 0,000 mm 0,0 UV-I 0 W/m² -1,5 °C 11,6 °C 4,8 km/h (1 Bft)
04.03.2017 01:18 11,5 °C 11,6 °C 39 % 1002,1 hPa 0,0 mm 6,4 km/h (2 Bft) W 271 ° 0 min 0,000 mm 0,0 UV-I 0 W/m² -2,0 °C 11,5 °C 11,3 km/h (2 Bft)
04.03.2017 01:19 11,4 °C 11,5 °C 41 % 1002,1 hPa 0,0 mm 3,1 km/h (1 Bft) W-NW 291 ° 0 min 0,000 mm 0,0 UV-I 0 W/m² -1,4 °C 11,4 °C 6,4 km/h (2 Bft)
04.03.2017 01:20 11,4 °C 11,4 °C 39 % 1002,1 hPa 0,0 mm 8,0 km/h (2 Bft) S-SO 162 ° 0 min 0,000 mm 0,0 UV-I 0 W/m² -2,0 °C 11,4 °C 12,9 km/h (3 Bft)
04.03.2017 01:21 11,5 °C 11,5 °C 39 % 1002,1 hPa 0,0 mm 5,9 km/h (2 Bft) S-SW 207 ° 0 min 0,000 mm 0,0 UV-I 0 W/m² -2,0 °C 11,5 °C 11,3 km/h (2 Bft)
04.03.2017 01:22 11,6 °C 11,6 °C 40 % 1002,0 hPa 0,0 mm 7,1 km/h (2 Bft) W 263 ° 0 min 0,000 mm 0,0 UV-I 0 W/m² -1,5 °C 11,6 °C 16,1 km/h (3 Bft)
04.03.2017 01:23 11,4 °C 11,6 °C 40 % 1002,1 hPa 0,0 mm 7,6 km/h (2 Bft) W 259 ° 0 min 0,000 mm 0,0 UV-I 0 W/m² -1,7 °C 11,4 °C 11,3 km/h (2 Bft)
04.03.2017 01:24 11,4 °C 11,4 °C 40 % 1002,1 hPa 0,0 mm 7,2 km/h (2 Bft) O-SO 113 ° 0 min 0,000 mm 0,0 UV-I 0 W/m² -1,7 °C 11,4 °C 12,9 km/h (3 Bft)
04.03.2017 01:25 11,4 °C 11,4 °C 39 % 1002,0 hPa 0,0 mm 5,4 km/h (1 Bft) S-SO 150 ° 0 min 0,000 mm 0,0 UV-I 0 W/m² -2,0 °C 11,4 °C 12,9 km/h (3 Bft)
04.03.2017 01:26 11,6 °C 11,6 °C 38 % 1002,1 hPa 0,0 mm 9,2 km/h (2 Bft) SW 225 ° 0 min 0,000 mm 0,0 UV-I 0 W/m² -2,2 °C 11,6 °C 14,5 km/h (3 Bft)
04.03.2017 01:27 11,7 °C 11,7 °C 38 % 1002,1 hPa 0,0 mm 7,3 km/h (2 Bft) S 187 ° 0 min 0,000 mm 0,0 UV-I 0 W/m² -2,1 °C 11,7 °C 12,9 km/h (3 Bft)
04.03.2017 01:28 11,6 °C 11,7 °C 39 % 1002,0 hPa 0,0 mm 7,1 km/h (2 Bft) S-SW 204 ° 0 min 0,000 mm 0,0 UV-I 0 W/m² -1,9 °C 11,6 °C 12,9 km/h (3 Bft)
04.03.2017 01:29 11,6 °C 11,6 °C 41 % 1002,0 hPa 0,0 mm 7,6 km/h (2 Bft) S-SW 196 ° 0 min 0,000 mm 0,0 UV-I 0 W/m² -1,2 °C 11,6 °C 14,5 km/h (3 Bft)
04.03.2017 01:30 11,5 °C 11,6 °C 41 % 1001,9 hPa 0,0 mm 2,7 km/h (1 Bft) N-NW 346 ° 0 min 0,000 mm 0,0 UV-I 0 W/m² -1,3 °C 11,5 °C 6,4 km/h (2 Bft)
04.03.2017 01:31 11,4 °C 11,5 °C 41 % 1001,9 hPa 0,0 mm 5,6 km/h (1 Bft) S 169 ° 0 min 0,000 mm 0,0 UV-I 0 W/m² -1,4 °C 11,4 °C 19,3 km/h (3 Bft)
04.03.2017 01:32 11,5 °C 11,5 °C 38 % 1001,9 hPa 0,0 mm 6,2 km/h (2 Bft) S-SW 202 ° 0 min 0,000 mm 0,0 UV-I 0 W/m² -2,3 °C 11,5 °C 19,3 km/h (3 Bft)
04.03.2017 01:33 11,6 °C 11,6 °C 39 % 1001,9 hPa 0,0 mm 9,1 km/h (2 Bft) W-SW 244 ° 0 min 0,000 mm 0,0 UV-I 0 W/m² -1,9 °C 11,6 °C 17,7 km/h (3 Bft)
04.03.2017 01:34 11,7 °C 11,7 °C 38 % 1001,8 hPa 0,0 mm 8,6 km/h (2 Bft) S-SW 209 ° 0 min 0,000 mm 0,0 UV-I 0 W/m² -2,1 °C 11,7 °C 14,5 km/h (3 Bft)
04.03.2017 01:35 11,7 °C 11,7 °C 38 % 1001,9 hPa 0,0 mm 9,3 km/h (2 Bft) SW 230 ° 0 min 0,000 mm 0,0 UV-I 0 W/m² -2,1 °C 11,7 °C 22,5 km/h (4 Bft)
04.03.2017 01:36 11,8 °C 11,8 °C 37 % 1001,9 hPa 0,0 mm 8,9 km/h (2 Bft) W-SW 240 ° 0 min 0,000 mm 0,0 UV-I 0 W/m² -2,4 °C 11,8 °C 20,9 km/h (4 Bft)
04.03.2017 01:37 11,9 °C 11,9 °C 37 % 1001,8 hPa 0,0 mm 10,1 km/h (2 Bft) SW 229 ° 0 min 0,000 mm 0,0 UV-I 0 W/m² -2,3 °C 11,9 °C 19,3 km/h (3 Bft)
04.03.2017 01:38 12,0 °C 12,0 °C 37 % 1001,8 hPa 0,0 mm 5,0 km/h (1 Bft) S-SW 198 ° 0 min 0,000 mm 0,0 UV-I 0 W/m² -2,2 °C 12,0 °C 9,7 km/h (2 Bft)
04.03.2017 01:39 12,0 °C 12,0 °C 39 % 1001,8 hPa 0,0 mm 5,2 km/h (1 Bft) O 83 ° 0 min 0,000 mm 0,0 UV-I 0 W/m² -1,5 °C 12,0 °C 12,9 km/h (3 Bft)
04.03.2017 01:40 11,9 °C 12,0 °C 38 % 1001,7 hPa 0,0 mm 3,7 km/h (1 Bft) NW 317 ° 0 min 0,000 mm 0,0 UV-I 0 W/m² -2,0 °C 11,9 °C 4,8 km/h (1 Bft)
04.03.2017 01:41 11,9 °C 11,9 °C 37 % 1001,7 hPa 0,0 mm 10,1 km/h (2 Bft) W-SW 249 ° 0 min 0,000 mm 0,0 UV-I 0 W/m² -2,3 °C 11,9 °C 25,7 km/h (4 Bft)
04.03.2017 01:42 11,9 °C 11,9 °C 37 % 1001,7 hPa 0,0 mm 11,7 km/h (2 Bft) SW 215 ° 0 min 0,000 mm 0,0 UV-I 0 W/m² -2,3 °C 11,9 °C 19,3 km/h (3 Bft)
04.03.2017 01:43 12,0 °C 12,0 °C 36 % 1001,8 hPa 0,0 mm 10,5 km/h (2 Bft) NW 307 ° 0 min 0,000 mm 0,0 UV-I 0 W/m² -2,6 °C 12,0 °C 20,9 km/h (4 Bft)
04.03.2017 01:44 12,1 °C 12,1 °C 37 % 1001,7 hPa 0,0 mm 4,9 km/h (1 Bft) O-NO 61 ° 0 min 0,000 mm 0,0 UV-I 0 W/m² -2,1 °C 12,1 °C 9,7 km/h (2 Bft)
04.03.2017 01:45 12,1 °C 12,1 °C 37 % 1001,7 hPa 0,0 mm 4,5 km/h (1 Bft) W 269 ° 0 min 0,000 mm 0,0 UV-I 0 W/m² -2,1 °C 12,1 °C 6,4 km/h (2 Bft)
04.03.2017 01:46 12,1 °C 12,1 °C 37 % 1001,7 hPa 0,0 mm 10,2 km/h (2 Bft) SW 227 ° 0 min 0,000 mm 0,0 UV-I 0 W/m² -2,1 °C 12,1 °C 19,3 km/h (3 Bft)
04.03.2017 01:47 12,1 °C 12,1 °C 36 % 1001,7 hPa 0,0 mm 12,3 km/h (3 Bft) SO 142 ° 0 min 0,000 mm 0,0 UV-I 0 W/m² -2,5 °C 12,1 °C 20,9 km/h (4 Bft)
04.03.2017 01:48 12,1 °C 12,1 °C 38 % 1001,7 hPa 0,0 mm 6,2 km/h (2 Bft) W-SW 245 ° 0 min 0,000 mm 0,0 UV-I 0 W/m² -1,8 °C 12,1 °C 14,5 km/h (3 Bft)
04.03.2017 01:49 12,2 °C 12,2 °C 36 % 1001,6 hPa 0,0 mm 15,1 km/h (3 Bft) S-SO 155 ° 0 min 0,000 mm 0,0 UV-I 0 W/m² -2,4 °C 12,2 °C 22,5 km/h (4 Bft)
04.03.2017 01:50 12,2 °C 12,2 °C 36 % 1001,6 hPa 0,0 mm 7,6 km/h (2 Bft) S-SW 204 ° 0 min 0,000 mm 0,0 UV-I 0 W/m² -2,4 °C 12,2 °C 9,7 km/h (2 Bft)
04.03.2017 01:51 12,3 °C 12,3 °C 36 % 1001,8 hPa 0,0 mm 8,9 km/h (2 Bft) SW 215 ° 0 min 0,000 mm 0,0 UV-I 0 W/m² -2,3 °C 12,3 °C 12,9 km/h (3 Bft)
04.03.2017 01:52 12,3 °C 12,3 °C 35 % 1001,7 hPa 0,0 mm 5,8 km/h (2 Bft) NW 304 ° 0 min 0,000 mm 0,0 UV-I 0 W/m² -2,7 °C 12,3 °C 8,0 km/h (2 Bft)
04.03.2017 01:53 12,4 °C 12,4 °C 36 % 1001,6 hPa 0,0 mm 5,4 km/h (1 Bft) W 264 ° 0 min 0,000 mm 0,0 UV-I 0 W/m² -2,2 °C 12,4 °C 8,0 km/h (2 Bft)
04.03.2017 01:54 12,2 °C 12,4 °C 40 % 1001,7 hPa 0,0 mm 4,6 km/h (1 Bft) N-NW 344 ° 0 min 0,000 mm 0,0 UV-I 0 W/m² -1,0 °C 12,2 °C 8,0 km/h (2 Bft)
04.03.2017 01:55 12,1 °C 12,2 °C 37 % 1001,7 hPa 0,0 mm 9,7 km/h (2 Bft) S-SW 212 ° 0 min 0,000 mm 0,0 UV-I 0 W/m² -2,1 °C 12,1 °C 20,9 km/h (4 Bft)
04.03.2017 01:56 12,1 °C 12,1 °C 36 % 1001,7 hPa 0,0 mm 9,4 km/h (2 Bft) W-SW 244 ° 0 min 0,000 mm 0,0 UV-I 0 W/m² -2,5 °C 12,1 °C 16,1 km/h (3 Bft)
04.03.2017 01:57 12,1 °C 12,1 °C 35 % 1001,7 hPa 0,0 mm 7,0 km/h (2 Bft) S-SW 205 ° 0 min 0,000 mm 0,0 UV-I 0 W/m² -2,9 °C 12,1 °C 12,9 km/h (3 Bft)
04.03.2017 01:58 12,2 °C 12,2 °C 36 % 1001,7 hPa 0,0 mm 8,4 km/h (2 Bft) W-SW 237 ° 0 min 0,000 mm 0,0 UV-I 0 W/m² -2,4 °C 12,2 °C 16,1 km/h (3 Bft)
04.03.2017 01:59 12,2 °C 12,2 °C 37 % 1001,5 hPa 0,0 mm 4,4 km/h (1 Bft) W-SW 254 ° 0 min 0,000 mm 0,0 UV-I 0 W/m² -2,0 °C 12,2 °C 9,7 km/h (2 Bft)
04.03.2017 02:00 12,2 °C 12,2 °C 36 % 1001,6 hPa 0,0 mm 3,1 km/h (1 Bft) W-SW 252 ° 0 min 0,000 mm 0,0 UV-I 0 W/m² -2,4 °C 12,2 °C 6,4 km/h (2 Bft)
04.03.2017 02:01 12,1 °C 12,2 °C 36 % 1001,6 hPa 0,0 mm 9,1 km/h (2 Bft) S 178 ° 0 min 0,076 mm 0,0 UV-I 0 W/m² -2,5 °C 12,1 °C 14,5 km/h (3 Bft)
04.03.2017 02:02 12,1 °C 12,2 °C 36 % 1001,6 hPa 0,0 mm 4,0 km/h (1 Bft) W-NW 286 ° 0 min 0,000 mm 0,0 UV-I 0 W/m² -2,5 °C 12,1 °C 4,8 km/h (1 Bft)
04.03.2017 02:03 12,2 °C 12,2 °C 35 % 1001,6 hPa 0,0 mm 3,3 km/h (1 Bft) NW 315 ° 0 min 0,000 mm 0,0 UV-I 0 W/m² -2,8 °C 12,2 °C 4,8 km/h (1 Bft)
04.03.2017 02:04 11,9 °C 12,2 °C 38 % 1001,6 hPa 0,0 mm 2,8 km/h (1 Bft) NW 317 ° 0 min 0,000 mm 0,0 UV-I 0 W/m² -2,0 °C 11,9 °C 4,8 km/h (1 Bft)
04.03.2017 02:05 11,8 °C 11,9 °C 38 % 1001,5 hPa 0,0 mm 2,8 km/h (1 Bft) NW 317 ° 0 min 0,000 mm 0,0 UV-I 0 W/m² -2,0 °C 11,8 °C 4,8 km/h (1 Bft)
04.03.2017 02:06 11,6 °C 11,8 °C 38 % 1001,6 hPa 0,0 mm 6,9 km/h (2 Bft) W-NW 284 ° 0 min 0,000 mm 0,0 UV-I 0 W/m² -2,2 °C 11,6 °C 9,7 km/h (2 Bft)
04.03.2017 02:07 11,5 °C 11,6 °C 37 % 1001,5 hPa 0,0 mm 10,9 km/h (2 Bft) W-SW 248 ° 0 min 0,000 mm 0,0 UV-I 0 W/m² -2,7 °C 11,5 °C 16,1 km/h (3 Bft)
04.03.2017 02:08 11,6 °C 11,6 °C 37 % 1001,5 hPa 0,0 mm 5,2 km/h (1 Bft) NW 321 ° 0 min 0,000 mm 0,0 UV-I 0 W/m² -2,6 °C 11,6 °C 8,0 km/h (2 Bft)
04.03.2017 02:09 11,7 °C 11,7 °C 36 % 1001,5 hPa 0,0 mm 5,5 km/h (1 Bft) W-SW 248 ° 0 min 0,000 mm 0,0 UV-I 0 W/m² -2,9 °C 11,7 °C 12,9 km/h (3 Bft)
04.03.2017 02:10 11,8 °C 11,8 °C 37 % 1001,5 hPa 0,0 mm 1,7 km/h (1 Bft) W-SW 251 ° 0 min 0,000 mm 0,0 UV-I 0 W/m² -2,4 °C 11,8 °C 3,2 km/h (1 Bft)
04.03.2017 02:11 11,8 °C 11,8 °C 36 % 1001,4 hPa 0,0 mm 0,7 km/h (0 Bft) W 281 ° 0 min 0,000 mm 0,0 UV-I 0 W/m² -2,8 °C 11,8 °C 4,8 km/h (1 Bft)
04.03.2017 02:12 11,8 °C 11,8 °C 37 % 1001,4 hPa 0,0 mm 7,4 km/h (2 Bft) SW 221 ° 0 min 0,000 mm 0,0 UV-I 0 W/m² -2,4 °C 11,8 °C 9,7 km/h (2 Bft)
04.03.2017 02:13 11,9 °C 11,9 °C 36 % 1001,4 hPa 0,0 mm 3,6 km/h (1 Bft) W-SW 244 ° 0 min 0,000 mm 0,0 UV-I 0 W/m² -2,7 °C 11,9 °C 11,3 km/h (2 Bft)
04.03.2017 02:14 11,9 °C 11,9 °C 36 % 1001,4 hPa 0,0 mm 3,8 km/h (1 Bft) NW 325 ° 0 min 0,000 mm 0,0 UV-I 0 W/m² -2,7 °C 11,9 °C 11,3 km/h (2 Bft)
04.03.2017 02:15 12,0 °C 12,0 °C 35 % 1001,4 hPa 0,0 mm 2,5 km/h (1 Bft) W 281 ° 0 min 0,000 mm 0,0 UV-I 0 W/m² -3,0 °C 12,0 °C 3,2 km/h (1 Bft)
04.03.2017 02:16 11,9 °C 12,0 °C 37 % 1001,4 hPa 0,0 mm 1,3 km/h (1 Bft) W 281 ° 0 min 0,000 mm 0,0 UV-I 0 W/m² -2,3 °C 11,9 °C 3,2 km/h (1 Bft)
04.03.2017 02:17 11,6 °C 11,9 °C 40 % 1001,3 hPa 0,0 mm 1,7 km/h (1 Bft) W-NW 294 ° 0 min 0,000 mm 0,0 UV-I 0 W/m² -1,5 °C 11,6 °C 3,2 km/h (1 Bft)
04.03.2017 02:18 11,4 °C 11,6 °C 38 % 1001,4 hPa 0,0 mm 4,4 km/h (1 Bft) S-SO 159 ° 0 min 0,000 mm 0,0 UV-I 0 W/m² -2,4 °C 11,4 °C 6,4 km/h (2 Bft)
04.03.2017 02:19 11,3 °C 11,4 °C 38 % 1001,4 hPa 0,0 mm 4,7 km/h (1 Bft) SO 138 ° 0 min 0,000 mm 0,0 UV-I 0 W/m² -2,5 °C 11,3 °C 6,4 km/h (2 Bft)
04.03.2017 02:20 11,3 °C 11,3 °C 38 % 1001,4 hPa 0,0 mm 2,6 km/h (1 Bft) NO 44 ° 0 min 0,000 mm 0,0 UV-I 0 W/m² -2,5 °C 11,3 °C 4,8 km/h (1 Bft)
04.03.2017 02:21 11,1 °C 11,3 °C 38 % 1001,3 hPa 0,0 mm 3,1 km/h (1 Bft) S-SO 150 ° 0 min 0,000 mm 0,0 UV-I 0 W/m² -2,7 °C 11,1 °C 4,8 km/h (1 Bft)
04.03.2017 02:22 11,1 °C 11,1 °C 39 % 1001,3 hPa 0,0 mm 2,8 km/h (1 Bft) SO 131 ° 0 min 0,000 mm 0,0 UV-I 0 W/m² -2,3 °C 11,1 °C 4,8 km/h (1 Bft)
04.03.2017 02:23 11,0 °C 11,1 °C 39 % 1001,4 hPa 0,0 mm 1,2 km/h (1 Bft) SO 131 ° 0 min 0,000 mm 0,0 UV-I 0 W/m² -2,4 °C 11,0 °C 3,2 km/h (1 Bft)
04.03.2017 02:24 11,0 °C 11,0 °C 38 % 1001,2 hPa 0,0 mm 10,7 km/h (2 Bft) W 269 ° 0 min 0,000 mm 0,0 UV-I 0 W/m² -2,8 °C 11,0 °C 17,7 km/h (3 Bft)
04.03.2017 02:25 11,0 °C 11,1 °C 40 % 1001,2 hPa 0,0 mm 6,0 km/h (2 Bft) S 183 ° 0 min 0,000 mm 0,0 UV-I 0 W/m² -2,1 °C 11,0 °C 11,3 km/h (2 Bft)
04.03.2017 02:26 11,0 °C 11,1 °C 38 % 1001,3 hPa 0,0 mm 3,4 km/h (1 Bft) S-SO 147 ° 0 min 0,000 mm 0,0 UV-I 0 W/m² -2,8 °C 11,0 °C 4,8 km/h (1 Bft)
04.03.2017 02:27 11,1 °C 11,1 °C 38 % 1001,2 hPa 0,0 mm 3,5 km/h (1 Bft) SW 219 ° 0 min 0,000 mm 0,0 UV-I 0 W/m² -2,7 °C 11,1 °C 4,8 km/h (1 Bft)
04.03.2017 02:28 11,2 °C 11,2 °C 37 % 1001,2 hPa 0,0 mm 4,6 km/h (1 Bft) W-SW 255 ° 0 min 0,000 mm 0,0 UV-I 0 W/m² -2,9 °C 11,2 °C 6,4 km/h (2 Bft)
04.03.2017 02:29 11,2 °C 11,2 °C 38 % 1001,2 hPa 0,0 mm 1,9 km/h (1 Bft) W-SW 255 ° 0 min 0,000 mm 0,0 UV-I 0 W/m² -2,6 °C 11,2 °C 4,8 km/h (1 Bft)
04.03.2017 02:30 11,1 °C 11,2 °C 38 % 1001,2 hPa 0,0 mm 1,3 km/h (1 Bft) NW 311 ° 0 min 0,000 mm 0,0 UV-I 0 W/m² -2,7 °C 11,1 °C 4,8 km/h (1 Bft)
04.03.2017 02:31 10,9 °C 11,1 °C 41 % 1001,0 hPa 0,0 mm 4,8 km/h (1 Bft) NW 315 ° 0 min 0,000 mm 0,0 UV-I 0 W/m² -1,8 °C 10,9 °C 6,4 km/h (2 Bft)
04.03.2017 02:32 10,9 °C 10,9 °C 39 % 1001,1 hPa 0,0 mm 2,7 km/h (1 Bft) NW 315 ° 0 min 0,000 mm 0,0 UV-I 0 W/m² -2,5 °C 10,9 °C 4,8 km/h (1 Bft)
04.03.2017 02:33 10,9 °C 10,9 °C 38 % 1001,0 hPa 0,0 mm 0,7 km/h (0 Bft) NW 315 ° 0 min 0,000 mm 0,0 UV-I 0 W/m² -2,8 °C 10,9 °C 1,6 km/h (1 Bft)
04.03.2017 02:34 11,0 °C 11,0 °C 38 % 1001,0 hPa 0,0 mm 0,0 km/h (0 Bft) NW 315 ° 0 min 0,000 mm 0,0 UV-I 0 W/m² -2,8 °C 11,0 °C 0,0 km/h (0 Bft)
04.03.2017 02:35 11,0 °C 11,1 °C 39 % 1001,0 hPa 0,0 mm 0,2 km/h (0 Bft) NW 315 ° 0 min 0,000 mm 0,0 UV-I 0 W/m² -2,4 °C 11,0 °C 1,6 km/h (1 Bft)
04.03.2017 02:36 10,9 °C 11,0 °C 38 % 1001,0 hPa 0,0 mm 1,9 km/h (1 Bft) O-NO 67 ° 0 min 0,000 mm 0,0 UV-I 0 W/m² -2,8 °C 10,9 °C 4,8 km/h (1 Bft)
04.03.2017 02:37 10,7 °C 10,9 °C 41 % 1001,0 hPa 0,0 mm 4,4 km/h (1 Bft) SO 142 ° 0 min 0,000 mm 0,0 UV-I 0 W/m² -2,0 °C 10,7 °C 8,0 km/h (2 Bft)
04.03.2017 02:38 10,7 °C 10,8 °C 39 % 1001,0 hPa 0,0 mm 3,8 km/h (1 Bft) NW 317 ° 0 min 0,000 mm 0,0 UV-I 0 W/m² -2,7 °C 10,7 °C 16,1 km/h (3 Bft)
04.03.2017 02:39 10,6 °C 10,7 °C 41 % 1000,7 hPa 0,0 mm 7,4 km/h (2 Bft) S-SO 167 ° 0 min 0,000 mm 0,0 UV-I 0 W/m² -2,1 °C 10,6 °C 12,9 km/h (3 Bft)
04.03.2017 02:40 10,6 °C 10,6 °C 40 % 1000,9 hPa 0,0 mm 4,7 km/h (1 Bft) S 181 ° 0 min 0,000 mm 0,0 UV-I 0 W/m² -2,4 °C 10,6 °C 6,4 km/h (2 Bft)
04.03.2017 02:41 10,5 °C 10,6 °C 40 % 1000,8 hPa 0,0 mm 2,3 km/h (1 Bft) SO 144 ° 0 min 0,000 mm 0,0 UV-I 0 W/m² -2,5 °C 10,5 °C 3,2 km/h (1 Bft)
04.03.2017 02:42 10,3 °C 10,5 °C 42 % 1000,8 hPa 0,0 mm 2,4 km/h (1 Bft) SO 145 ° 0 min 0,000 mm 0,0 UV-I 0 W/m² -2,0 °C 10,3 °C 3,2 km/h (1 Bft)
04.03.2017 02:43 10,3 °C 10,3 °C 40 % 1000,8 hPa 0,0 mm 6,0 km/h (2 Bft) NW 311 ° 0 min 0,000 mm 0,0 UV-I 0 W/m² -2,7 °C 10,3 °C 11,3 km/h (2 Bft)
04.03.2017 02:44 10,4 °C 10,4 °C 40 % 1000,8 hPa 0,0 mm 3,0 km/h (1 Bft) NO 36 ° 0 min 0,000 mm 0,0 UV-I 0 W/m² -2,6 °C 10,4 °C 4,8 km/h (1 Bft)
04.03.2017 02:45 10,7 °C 10,7 °C 38 % 1000,9 hPa 0,0 mm 3,6 km/h (1 Bft) W 279 ° 0 min 0,000 mm 0,0 UV-I 0 W/m² -3,0 °C 10,7 °C 6,4 km/h (2 Bft)
04.03.2017 02:46 10,9 °C 10,9 °C 37 % 1000,9 hPa 0,0 mm 2,9 km/h (1 Bft) W 279 ° 0 min 0,000 mm 0,0 UV-I 0 W/m² -3,2 °C 10,9 °C 4,8 km/h (1 Bft)
04.03.2017 02:47 11,0 °C 11,0 °C 38 % 1000,9 hPa 0,0 mm 2,3 km/h (1 Bft) W-NW 296 ° 0 min 0,000 mm 0,0 UV-I 0 W/m² -2,8 °C 11,0 °C 4,8 km/h (1 Bft)
04.03.2017 02:48 11,0 °C 11,0 °C 38 % 1000,8 hPa 0,0 mm 3,1 km/h (1 Bft) S-SO 156 ° 0 min 0,000 mm 0,0 UV-I 0 W/m² -2,8 °C 11,0 °C 9,7 km/h (2 Bft)
04.03.2017 02:49 10,9 °C 11,1 °C 39 % 1000,8 hPa 0,0 mm 2,7 km/h (1 Bft) N-NW 333 ° 0 min 0,000 mm 0,0 UV-I 0 W/m² -2,5 °C 10,9 °C 9,7 km/h (2 Bft)
04.03.2017 02:50 10,8 °C 10,9 °C 40 % 1000,7 hPa 0,0 mm 9,8 km/h (2 Bft) W-SW 257 ° 0 min 0,000 mm 0,0 UV-I 0 W/m² -2,2 °C 10,8 °C 17,7 km/h (3 Bft)
04.03.2017 02:51 11,0 °C 11,0 °C 37 % 1000,7 hPa 0,0 mm 15,5 km/h (3 Bft) SW 225 ° 0 min 0,000 mm 0,0 UV-I 0 W/m² -3,1 °C 11,0 °C 30,6 km/h (5 Bft)
04.03.2017 02:52 11,1 °C 11,1 °C 37 % 1000,8 hPa 0,0 mm 7,2 km/h (2 Bft) W 268 ° 0 min 0,000 mm 0,0 UV-I 0 W/m² -3,0 °C 11,1 °C 11,3 km/h (2 Bft)
04.03.2017 02:53 11,2 °C 11,2 °C 37 % 1000,8 hPa 0,0 mm 8,1 km/h (2 Bft) NW 309 ° 0 min 0,000 mm 0,0 UV-I 0 W/m² -2,9 °C 11,2 °C 14,5 km/h (3 Bft)
04.03.2017 02:54 11,3 °C 11,3 °C 36 % 1000,6 hPa 0,0 mm 6,5 km/h (2 Bft) NW 310 ° 0 min 0,000 mm 0,0 UV-I 0 W/m² -3,2 °C 11,3 °C 11,3 km/h (2 Bft)
04.03.2017 02:55 11,4 °C 11,4 °C 36 % 1000,7 hPa 0,0 mm 4,2 km/h (1 Bft) W-SW 244 ° 0 min 0,000 mm 0,0 UV-I 0 W/m² -3,1 °C 11,4 °C 6,4 km/h (2 Bft)
04.03.2017 02:56 11,4 °C 11,4 °C 36 % 1000,8 hPa 0,0 mm 3,1 km/h (1 Bft) NW 323 ° 0 min 0,000 mm 0,0 UV-I 0 W/m² -3,1 °C 11,4 °C 4,8 km/h (1 Bft)
04.03.2017 02:57 11,3 °C 11,4 °C 38 % 1000,7 hPa 0,0 mm 5,2 km/h (1 Bft) NO 54 ° 0 min 0,000 mm 0,0 UV-I 0 W/m² -2,5 °C 11,3 °C 17,7 km/h (3 Bft)
04.03.2017 02:58 11,3 °C 11,3 °C 37 % 1000,5 hPa 0,0 mm 7,9 km/h (2 Bft) W-SW 247 ° 0 min 0,000 mm 0,0 UV-I 0 W/m² -2,8 °C 11,3 °C 17,7 km/h (3 Bft)
04.03.2017 02:59 11,4 °C 11,4 °C 36 % 1000,7 hPa 0,0 mm 10,3 km/h (2 Bft) S-SW 210 ° 0 min 0,000 mm 0,0 UV-I 0 W/m² -3,1 °C 11,4 °C 17,7 km/h (3 Bft)
04.03.2017 03:00 11,5 °C 11,5 °C 36 % 1000,6 hPa 0,0 mm 6,7 km/h (2 Bft) NO 56 ° 0 min 0,077 mm 0,0 UV-I 0 W/m² -3,0 °C 11,5 °C 14,5 km/h (3 Bft)
04.03.2017 03:01 11,5 °C 11,6 °C 39 % 1000,6 hPa 0,0 mm 1,9 km/h (1 Bft) NO 51 ° 0 min 0,000 mm 0,0 UV-I 0 W/m² -2,0 °C 11,5 °C 3,2 km/h (1 Bft)
04.03.2017 03:02 11,4 °C 11,5 °C 38 % 1000,6 hPa 0,0 mm 1,0 km/h (0 Bft) NO 51 ° 0 min 0,000 mm 0,0 UV-I 0 W/m² -2,4 °C 11,4 °C 3,2 km/h (1 Bft)
04.03.2017 03:03 11,3 °C 11,4 °C 38 % 1000,6 hPa 0,0 mm 2,1 km/h (1 Bft) O-NO 61 ° 0 min 0,000 mm 0,0 UV-I 0 W/m² -2,5 °C 11,3 °C 3,2 km/h (1 Bft)
04.03.2017 03:04 11,2 °C 11,3 °C 37 % 1000,6 hPa 0,0 mm 1,8 km/h (1 Bft) O-NO 61 ° 0 min 0,000 mm 0,0 UV-I 0 W/m² -2,9 °C 11,2 °C 3,2 km/h (1 Bft)
04.03.2017 03:05 11,2 °C 11,2 °C 38 % 1000,6 hPa 0,0 mm 9,3 km/h (2 Bft) O 79 ° 0 min 0,000 mm 0,0 UV-I 0 W/m² -2,6 °C 11,2 °C 17,7 km/h (3 Bft)
04.03.2017 03:06 11,1 °C 11,2 °C 37 % 1000,5 hPa 0,0 mm 5,8 km/h (2 Bft) W-NW 300 ° 0 min 0,000 mm 0,0 UV-I 0 W/m² -3,0 °C 11,1 °C 9,7 km/h (2 Bft)
04.03.2017 03:07 11,0 °C 11,1 °C 38 % 1000,5 hPa 0,0 mm 9,0 km/h (2 Bft) W 277 ° 0 min 0,000 mm 0,0 UV-I 0 W/m² -2,8 °C 11,0 °C 19,3 km/h (3 Bft)
04.03.2017 03:08 11,0 °C 11,0 °C 37 % 1000,4 hPa 0,0 mm 8,2 km/h (2 Bft) S-SO 150 ° 0 min 0,000 mm 0,0 UV-I 0 W/m² -3,1 °C 11,0 °C 14,5 km/h (3 Bft)
04.03.2017 03:09 11,1 °C 11,1 °C 37 % 1000,4 hPa 0,0 mm 6,2 km/h (2 Bft) N-NO 24 ° 0 min 0,000 mm 0,0 UV-I 0 W/m² -3,0 °C 11,1 °C 12,9 km/h (3 Bft)
04.03.2017 03:10 11,2 °C 11,2 °C 39 % 1000,4 hPa 0,0 mm 1,3 km/h (1 Bft) W 259 ° 0 min 0,000 mm 0,0 UV-I 0 W/m² -2,2 °C 11,2 °C 6,4 km/h (2 Bft)
04.03.2017 03:11 11,2 °C 11,2 °C 38 % 1000,4 hPa 0,0 mm 3,0 km/h (1 Bft) S-SW 211 ° 0 min 0,000 mm 0,0 UV-I 0 W/m² -2,6 °C 11,2 °C 4,8 km/h (1 Bft)
04.03.2017 03:12 11,3 °C 11,3 °C 36 % 1000,4 hPa 0,0 mm 7,6 km/h (2 Bft) S 176 ° 0 min 0,000 mm 0,0 UV-I 0 W/m² -3,2 °C 11,3 °C 14,5 km/h (3 Bft)
04.03.2017 03:13 11,3 °C 11,3 °C 37 % 1000,4 hPa 0,0 mm 6,3 km/h (2 Bft) O 82 ° 0 min 0,000 mm 0,0 UV-I 0 W/m² -2,8 °C 11,3 °C 12,9 km/h (3 Bft)
04.03.2017 03:14 11,2 °C 11,3 °C 39 % 1000,3 hPa 0,0 mm 5,0 km/h (1 Bft) N-NW 348 ° 0 min 0,000 mm 0,0 UV-I 0 W/m² -2,2 °C 11,2 °C 8,0 km/h (2 Bft)
04.03.2017 03:15 11,0 °C 11,2 °C 39 % 1000,3 hPa 0,0 mm 2,6 km/h (1 Bft) N 360 ° 0 min 0,000 mm 0,0 UV-I 0 W/m² -2,4 °C 11,0 °C 4,8 km/h (1 Bft)
04.03.2017 03:16 10,9 °C 11,0 °C 39 % 1000,4 hPa 0,0 mm 1,0 km/h (0 Bft) N 360 ° 0 min 0,000 mm 0,0 UV-I 0 W/m² -2,5 °C 10,9 °C 1,6 km/h (1 Bft)
04.03.2017 03:17 10,8 °C 10,9 °C 39 % 1000,4 hPa 0,0 mm 4,1 km/h (1 Bft) W 270 ° 0 min 0,000 mm 0,0 UV-I 0 W/m² -2,6 °C 10,8 °C 6,4 km/h (2 Bft)
04.03.2017 03:18 10,8 °C 10,8 °C 39 % 1000,3 hPa 0,0 mm 2,5 km/h (1 Bft) W 269 ° 0 min 0,000 mm 0,0 UV-I 0 W/m² -2,6 °C 10,8 °C 4,8 km/h (1 Bft)
04.03.2017 03:19 10,9 °C 10,9 °C 38 % 1000,2 hPa 0,0 mm 1,3 km/h (1 Bft) W 269 ° 0 min 0,000 mm 0,0 UV-I 0 W/m² -2,8 °C 10,9 °C 3,2 km/h (1 Bft)
04.03.2017 03:20 10,9 °C 10,9 °C 37 % 1000,3 hPa 0,0 mm 2,5 km/h (1 Bft) W 269 ° 0 min 0,000 mm 0,0 UV-I 0 W/m² -3,2 °C 10,9 °C 4,8 km/h (1 Bft)
04.03.2017 03:21 10,9 °C 11,0 °C 38 % 1000,2 hPa 0,0 mm 4,6 km/h (1 Bft) N-NO 24 ° 0 min 0,000 mm 0,0 UV-I 0 W/m² -2,8 °C 10,9 °C 9,7 km/h (2 Bft)
04.03.2017 03:22 10,8 °C 10,9 °C 39 % 1000,3 hPa 0,0 mm 3,2 km/h (1 Bft) S-SW 202 ° 0 min 0,000 mm 0,0 UV-I 0 W/m² -2,6 °C 10,8 °C 8,0 km/h (2 Bft)
04.03.2017 03:23 10,8 °C 10,8 °C 38 % 1000,3 hPa 0,0 mm 7,6 km/h (2 Bft) S-SW 209 ° 0 min 0,000 mm 0,0 UV-I 0 W/m² -2,9 °C 10,8 °C 12,9 km/h (3 Bft)
04.03.2017 03:24 10,9 °C 10,9 °C 38 % 1000,2 hPa 0,0 mm 4,1 km/h (1 Bft) S-SW 211 ° 0 min 0,000 mm 0,0 UV-I 0 W/m² -2,8 °C 10,9 °C 6,4 km/h (2 Bft)
04.03.2017 03:25 11,1 °C 11,1 °C 37 % 1000,3 hPa 0,0 mm 3,0 km/h (1 Bft) W-SW 246 ° 0 min 0,000 mm 0,0 UV-I 0 W/m² -3,0 °C 11,1 °C 4,8 km/h (1 Bft)
04.03.2017 03:26 11,2 °C 11,2 °C 37 % 1000,2 hPa 0,0 mm 0,9 km/h (0 Bft) W-SW 246 ° 0 min 0,000 mm 0,0 UV-I 0 W/m² -2,9 °C 11,2 °C 3,2 km/h (1 Bft)
04.03.2017 03:27 11,2 °C 11,2 °C 37 % 1000,2 hPa 0,0 mm 1,3 km/h (1 Bft) W-SW 245 ° 0 min 0,000 mm 0,0 UV-I 0 W/m² -2,9 °C 11,2 °C 3,2 km/h (1 Bft)
04.03.2017 03:28 11,2 °C 11,2 °C 37 % 1000,2 hPa 0,0 mm 3,8 km/h (1 Bft) NO 49 ° 0 min 0,000 mm 0,0 UV-I 0 W/m² -2,9 °C 11,2 °C 6,4 km/h (2 Bft)
04.03.2017 03:29 11,0 °C 11,2 °C 39 % 1000,2 hPa 0,0 mm 4,7 km/h (1 Bft) W-NW 302 ° 0 min 0,000 mm 0,0 UV-I 0 W/m² -2,4 °C 11,0 °C 6,4 km/h (2 Bft)
04.03.2017 03:30 10,9 °C 11,0 °C 38 % 1000,2 hPa 0,0 mm 2,1 km/h (1 Bft) W-NW 302 ° 0 min 0,000 mm 0,0 UV-I 0 W/m² -2,8 °C 10,9 °C 3,2 km/h (1 Bft)
04.03.2017 03:31 10,8 °C 10,9 °C 39 % 1000,2 hPa 0,0 mm 0,3 km/h (0 Bft) W 265 ° 0 min 0,000 mm 0,0 UV-I 0 W/m² -2,6 °C 10,8 °C 1,6 km/h (1 Bft)
04.03.2017 03:32 10,9 °C 10,9 °C 40 % 1000,2 hPa 0,0 mm 3,4 km/h (1 Bft) S-SW 212 ° 0 min 0,000 mm 0,0 UV-I 0 W/m² -2,2 °C 10,9 °C 6,4 km/h (2 Bft)
04.03.2017 03:33 10,9 °C 10,9 °C 39 % 1000,2 hPa 0,0 mm 0,6 km/h (0 Bft) S-SW 212 ° 0 min 0,000 mm 0,0 UV-I 0 W/m² -2,5 °C 10,9 °C 1,6 km/h (1 Bft)
04.03.2017 03:34 10,8 °C 10,9 °C 40 % 1000,1 hPa 0,0 mm 0,4 km/h (0 Bft) S-SW 212 ° 0 min 0,000 mm 0,0 UV-I 0 W/m² -2,2 °C 10,8 °C 1,6 km/h (1 Bft)
04.03.2017 03:35 10,8 °C 10,8 °C 39 % 1000,2 hPa 0,0 mm 2,0 km/h (1 Bft) S-SW 211 ° 0 min 0,000 mm 0,0 UV-I 0 W/m² -2,6 °C 10,8 °C 3,2 km/h (1 Bft)
04.03.2017 03:36 10,8 °C 10,8 °C 39 % 1000,2 hPa 0,0 mm 1,5 km/h (1 Bft) S-SW 211 ° 0 min 0,000 mm 0,0 UV-I 0 W/m² -2,6 °C 10,8 °C 3,2 km/h (1 Bft)
04.03.2017 03:37 10,8 °C 10,8 °C 38 % 1000,2 hPa 0,0 mm 3,8 km/h (1 Bft) SO 139 ° 0 min 0,000 mm 0,0 UV-I 0 W/m² -2,9 °C 10,8 °C 6,4 km/h (2 Bft)
04.03.2017 03:38 10,8 °C 10,8 °C 40 % 1000,3 hPa 0,0 mm 2,1 km/h (1 Bft) O-NO 70 ° 0 min 0,000 mm 0,0 UV-I 0 W/m² -2,2 °C 10,8 °C 3,2 km/h (1 Bft)
04.03.2017 03:39 10,7 °C 10,8 °C 39 % 1000,2 hPa 0,0 mm 4,9 km/h (1 Bft) O 90 ° 0 min 0,000 mm 0,0 UV-I 0 W/m² -2,7 °C 10,7 °C 9,7 km/h (2 Bft)
04.03.2017 03:40 10,6 °C 10,7 °C 39 % 1000,2 hPa 0,0 mm 2,8 km/h (1 Bft) O 83 ° 0 min 0,000 mm 0,0 UV-I 0 W/m² -2,8 °C 10,6 °C 4,8 km/h (1 Bft)
04.03.2017 03:41 10,4 °C 10,6 °C 41 % 1000,3 hPa 0,0 mm 4,7 km/h (1 Bft) W-SW 243 ° 0 min 0,000 mm 0,0 UV-I 0 W/m² -2,3 °C 10,4 °C 6,4 km/h (2 Bft)
04.03.2017 03:42 10,7 °C 10,7 °C 37 % 1000,3 hPa 0,0 mm 2,8 km/h (1 Bft) NO 40 ° 0 min 0,000 mm 0,0 UV-I 0 W/m² -3,4 °C 10,7 °C 6,4 km/h (2 Bft)
04.03.2017 03:43 10,7 °C 10,8 °C 38 % 1000,2 hPa 0,0 mm 3,7 km/h (1 Bft) O-NO 61 ° 0 min 0,000 mm 0,0 UV-I 0 W/m² -3,0 °C 10,7 °C 4,8 km/h (1 Bft)
04.03.2017 03:44 10,7 °C 10,7 °C 38 % 1000,2 hPa 0,0 mm 2,9 km/h (1 Bft) O-NO 77 ° 0 min 0,000 mm 0,0 UV-I 0 W/m² -3,0 °C 10,7 °C 4,8 km/h (1 Bft)
04.03.2017 03:45 10,7 °C 10,7 °C 39 % 1000,3 hPa 0,0 mm 5,2 km/h (1 Bft) N-NW 345 ° 0 min 0,000 mm 0,0 UV-I 0 W/m² -2,7 °C 10,7 °C 9,7 km/h (2 Bft)
04.03.2017 03:46 10,7 °C 10,7 °C 41 % 1000,1 hPa 0,0 mm 6,0 km/h (2 Bft) O-NO 71 ° 0 min 0,000 mm 0,0 UV-I 0 W/m² -2,0 °C 10,7 °C 9,7 km/h (2 Bft)
04.03.2017 03:47 10,7 °C 10,7 °C 40 % 1000,1 hPa 0,0 mm 2,7 km/h (1 Bft) N-NO 13 ° 0 min 0,000 mm 0,0 UV-I 0 W/m² -2,3 °C 10,7 °C 8,0 km/h (2 Bft)
04.03.2017 03:48 10,7 °C 10,7 °C 39 % 1000,1 hPa 0,0 mm 3,7 km/h (1 Bft) S-SO 165 ° 0 min 0,000 mm 0,0 UV-I 0 W/m² -2,7 °C 10,7 °C 4,8 km/h (1 Bft)
04.03.2017 03:49 10,7 °C 10,7 °C 39 % 1000,0 hPa 0,0 mm 5,0 km/h (1 Bft) O 98 ° 0 min 0,000 mm 0,0 UV-I 0 W/m² -2,7 °C 10,7 °C 6,4 km/h (2 Bft)
04.03.2017 03:50 10,8 °C 10,8 °C 39 % 1000,1 hPa 0,0 mm 4,4 km/h (1 Bft) O 98 ° 0 min 0,000 mm 0,0 UV-I 0 W/m² -2,6 °C 10,8 °C 6,4 km/h (2 Bft)
04.03.2017 03:51 10,7 °C 10,8 °C 42 % 1000,0 hPa 0,0 mm 4,7 km/h (1 Bft) O-NO 76 ° 0 min 0,000 mm 0,0 UV-I 0 W/m² -1,7 °C 10,7 °C 6,4 km/h (2 Bft)
04.03.2017 03:52 10,6 °C 10,7 °C 40 % 999,9 hPa 0,0 mm 3,4 km/h (1 Bft) O-NO 76 ° 0 min 0,000 mm 0,0 UV-I 0 W/m² -2,4 °C 10,6 °C 4,8 km/h (1 Bft)
04.03.2017 03:53 10,4 °C 10,6 °C 43 % 999,9 hPa 0,0 mm 5,7 km/h (1 Bft) O-NO 70 ° 0 min 0,000 mm 0,0 UV-I 0 W/m² -1,6 °C 10,4 °C 6,4 km/h (2 Bft)
04.03.2017 03:54 10,1 °C 10,4 °C 43 % 999,9 hPa 0,0 mm 6,0 km/h (2 Bft) S-SO 155 ° 0 min 0,000 mm 0,0 UV-I 0 W/m² -1,9 °C 10,1 °C 9,7 km/h (2 Bft)
04.03.2017 03:55 10,1 °C 10,1 °C 41 % 1000,1 hPa 0,0 mm 1,3 km/h (1 Bft) S-SW 196 ° 0 min 0,000 mm 0,0 UV-I 0 W/m² -2,5 °C 10,1 °C 4,8 km/h (1 Bft)
04.03.2017 03:56 10,2 °C 10,2 °C 41 % 1000,1 hPa 0,0 mm 3,7 km/h (1 Bft) W 269 ° 0 min 0,000 mm 0,0 UV-I 0 W/m² -2,5 °C 10,2 °C 4,8 km/h (1 Bft)
04.03.2017 03:57 10,2 °C 10,3 °C 43 % 1000,0 hPa 0,0 mm 4,7 km/h (1 Bft) O-NO 64 ° 0 min 0,000 mm 0,0 UV-I 0 W/m² -1,8 °C 10,2 °C 6,4 km/h (2 Bft)
04.03.2017 03:58 10,0 °C 10,2 °C 45 % 1000,0 hPa 0,0 mm 4,2 km/h (1 Bft) O-NO 63 ° 0 min 0,000 mm 0,0 UV-I 0 W/m² -1,4 °C 10,0 °C 6,4 km/h (2 Bft)
04.03.2017 03:59 9,9 °C 10,0 °C 42 % 1000,0 hPa 0,0 mm 1,7 km/h (1 Bft) O-NO 63 ° 0 min 0,000 mm 0,0 UV-I 0 W/m² -2,4 °C 9,9 °C 3,2 km/h (1 Bft)
04.03.2017 04:00 9,9 °C 10,0 °C 42 % 1000,0 hPa 0,0 mm 1,9 km/h (1 Bft) O-NO 63 ° 0 min 0,050 mm 0,0 UV-I 0 W/m² -2,4 °C 9,9 °C 3,2 km/h (1 Bft)
04.03.2017 04:01 9,9 °C 9,9 °C 42 % 1000,0 hPa 0,0 mm 2,0 km/h (1 Bft) O-NO 63 ° 0 min 0,000 mm 0,0 UV-I 0 W/m² -2,4 °C 9,9 °C 3,2 km/h (1 Bft)
04.03.2017 04:02 10,0 °C 10,0 °C 42 % 999,9 hPa 0,0 mm 3,2 km/h (1 Bft) O-NO 63 ° 0 min 0,000 mm 0,0 UV-I 0 W/m² -2,3 °C 10,0 °C 4,8 km/h (1 Bft)
04.03.2017 04:03 10,1 °C 10,1 °C 42 % 999,9 hPa 0,0 mm 0,6 km/h (0 Bft) O-NO 63 ° 0 min 0,000 mm 0,0 UV-I 0 W/m² -2,2 °C 10,1 °C 1,6 km/h (1 Bft)
04.03.2017 04:04 10,1 °C 10,1 °C 41 % 1000,0 hPa 0,0 mm 2,9 km/h (1 Bft) O-NO 63 ° 0 min 0,000 mm 0,0 UV-I 0 W/m² -2,5 °C 10,1 °C 6,4 km/h (2 Bft)
04.03.2017 04:05 9,9 °C 10,1 °C 45 % 999,9 hPa 0,0 mm 4,0 km/h (1 Bft) O-NO 64 ° 0 min 0,000 mm 0,0 UV-I 0 W/m² -1,5 °C 9,9 °C 4,8 km/h (1 Bft)
04.03.2017 04:06 9,8 °C 9,9 °C 44 % 1000,0 hPa 0,0 mm 0,7 km/h (0 Bft) O-NO 64 ° 0 min 0,000 mm 0,0 UV-I 0 W/m² -1,9 °C 9,8 °C 1,6 km/h (1 Bft)
04.03.2017 04:07 9,6 °C 9,8 °C 46 % 999,9 hPa 0,0 mm 6,3 km/h (2 Bft) O-NO 69 ° 0 min 0,000 mm 0,0 UV-I 0 W/m² -1,4 °C 8,9 °C 8,0 km/h (2 Bft)
04.03.2017 04:08 9,3 °C 9,6 °C 46 % 999,8 hPa 0,0 mm 4,2 km/h (1 Bft) O-NO 63 ° 0 min 0,000 mm 0,0 UV-I 0 W/m² -1,7 °C 9,3 °C 6,4 km/h (2 Bft)
04.03.2017 04:09 9,3 °C 9,3 °C 44 % 999,8 hPa 0,0 mm 2,8 km/h (1 Bft) O-NO 64 ° 0 min 0,000 mm 0,0 UV-I 0 W/m² -2,3 °C 9,3 °C 3,2 km/h (1 Bft)
04.03.2017 04:10 9,3 °C 9,3 °C 44 % 999,8 hPa 0,0 mm 3,3 km/h (1 Bft) O 80 ° 0 min 0,000 mm 0,0 UV-I 0 W/m² -2,3 °C 9,3 °C 4,8 km/h (1 Bft)
04.03.2017 04:11 9,5 °C 9,5 °C 43 % 999,9 hPa 0,0 mm 3,2 km/h (1 Bft) O-SO 112 ° 0 min 0,000 mm 0,0 UV-I 0 W/m² -2,4 °C 9,5 °C 4,8 km/h (1 Bft)
04.03.2017 04:12 9,7 °C 9,7 °C 42 % 999,8 hPa 0,0 mm 4,5 km/h (1 Bft) S-SO 149 ° 0 min 0,000 mm 0,0 UV-I 0 W/m² -2,6 °C 9,7 °C 8,0 km/h (2 Bft)
04.03.2017 04:13 9,8 °C 9,8 °C 44 % 999,9 hPa 0,0 mm 6,0 km/h (2 Bft) O-NO 68 ° 0 min 0,000 mm 0,0 UV-I 0 W/m² -1,9 °C 9,2 °C 8,0 km/h (2 Bft)
04.03.2017 04:14 9,8 °C 9,9 °C 43 % 999,8 hPa 0,0 mm 3,6 km/h (1 Bft) O 88 ° 0 min 0,000 mm 0,0 UV-I 0 W/m² -2,2 °C 9,8 °C 9,7 km/h (2 Bft)
04.03.2017 04:15 9,8 °C 9,8 °C 44 % 999,8 hPa 0,0 mm 2,4 km/h (1 Bft) O 88 ° 0 min 0,000 mm 0,0 UV-I 0 W/m² -1,9 °C 9,8 °C 3,2 km/h (1 Bft)
04.03.2017 04:16 9,8 °C 9,8 °C 45 % 999,8 hPa 0,0 mm 2,4 km/h (1 Bft) O 89 ° 0 min 0,000 mm 0,0 UV-I 0 W/m² -1,6 °C 9,8 °C 3,2 km/h (1 Bft)
04.03.2017 04:17 9,7 °C 9,8 °C 43 % 999,9 hPa 0,0 mm 1,9 km/h (1 Bft) O 89 ° 0 min 0,000 mm 0,0 UV-I 0 W/m² -2,3 °C 9,7 °C 3,2 km/h (1 Bft)
04.03.2017 04:18 9,4 °C 9,7 °C 45 % 999,8 hPa 0,0 mm 0,1 km/h (0 Bft) O 89 ° 0 min 0,000 mm 0,0 UV-I 0 W/m² -1,9 °C 9,4 °C 1,6 km/h (1 Bft)
04.03.2017 04:19 9,3 °C 9,4 °C 43 % 999,9 hPa 0,0 mm 2,6 km/h (1 Bft) O 89 ° 0 min 0,000 mm 0,0 UV-I 0 W/m² -2,6 °C 9,3 °C 4,8 km/h (1 Bft)
04.03.2017 04:20 9,5 °C 9,5 °C 43 % 999,9 hPa 0,0 mm 5,0 km/h (1 Bft) O 82 ° 0 min 0,000 mm 0,0 UV-I 0 W/m² -2,4 °C 9,2 °C 6,4 km/h (2 Bft)
04.03.2017 04:21 9,6 °C 9,6 °C 45 % 999,9 hPa 0,0 mm 4,5 km/h (1 Bft) SO 129 ° 0 min 0,000 mm 0,0 UV-I 0 W/m² -1,7 °C 9,6 °C 6,4 km/h (2 Bft)
04.03.2017 04:22 9,7 °C 9,7 °C 43 % 999,9 hPa 0,0 mm 2,7 km/h (1 Bft) SO 131 ° 0 min 0,000 mm 0,0 UV-I 0 W/m² -2,3 °C 9,7 °C 4,8 km/h (1 Bft)
04.03.2017 04:23 9,6 °C 9,7 °C 44 % 999,8 hPa 0,0 mm 2,3 km/h (1 Bft) SO 131 ° 0 min 0,000 mm 0,0 UV-I 0 W/m² -2,0 °C 9,6 °C 4,8 km/h (1 Bft)
04.03.2017 04:24 9,6 °C 9,6 °C 43 % 999,8 hPa 0,0 mm 3,8 km/h (1 Bft) N-NW 340 ° 0 min 0,000 mm 0,0 UV-I 0 W/m² -2,4 °C 9,6 °C 4,8 km/h (1 Bft)
04.03.2017 04:25 9,7 °C 9,7 °C 42 % 999,8 hPa 0,0 mm 3,0 km/h (1 Bft) N 5 ° 0 min 0,000 mm 0,0 UV-I 0 W/m² -2,6 °C 9,7 °C 4,8 km/h (1 Bft)
04.03.2017 04:26 9,6 °C 9,7 °C 46 % 999,8 hPa 0,0 mm 8,2 km/h (2 Bft) S-SO 150 ° 0 min 0,000 mm 0,0 UV-I 0 W/m² -1,4 °C 8,5 °C 12,9 km/h (3 Bft)
04.03.2017 04:27 9,6 °C 9,6 °C 42 % 999,8 hPa 0,0 mm 7,3 km/h (2 Bft) SO 136 ° 0 min 0,000 mm 0,0 UV-I 0 W/m² -2,7 °C 8,7 °C 14,5 km/h (3 Bft)
04.03.2017 04:28 9,7 °C 9,7 °C 43 % 999,8 hPa 0,0 mm 5,9 km/h (2 Bft) SO 127 ° 0 min 0,000 mm 0,0 UV-I 0 W/m² -2,3 °C 9,2 °C 9,7 km/h (2 Bft)
04.03.2017 04:29 9,8 °C 9,8 °C 44 % 999,8 hPa 0,0 mm 6,2 km/h (2 Bft) O-SO 107 ° 0 min 0,000 mm 0,0 UV-I 0 W/m² -1,9 °C 9,2 °C 9,7 km/h (2 Bft)
04.03.2017 04:30 9,8 °C 9,8 °C 42 % 999,8 hPa 0,0 mm 2,8 km/h (1 Bft) O-SO 107 ° 0 min 0,000 mm 0,0 UV-I 0 W/m² -2,5 °C 9,8 °C 4,8 km/h (1 Bft)
04.03.2017 04:31 9,7 °C 9,8 °C 43 % 999,8 hPa 0,0 mm 2,3 km/h (1 Bft) N-NO 19 ° 0 min 0,000 mm 0,0 UV-I 0 W/m² -2,3 °C 9,7 °C 4,8 km/h (1 Bft)
04.03.2017 04:32 9,7 °C 9,7 °C 43 % 999,7 hPa 0,0 mm 2,7 km/h (1 Bft) NO 50 ° 0 min 0,000 mm 0,0 UV-I 0 W/m² -2,3 °C 9,7 °C 4,8 km/h (1 Bft)
04.03.2017 04:33 9,8 °C 9,8 °C 42 % 999,7 hPa 0,0 mm 5,5 km/h (1 Bft) NO 41 ° 0 min 0,000 mm 0,0 UV-I 0 W/m² -2,5 °C 9,4 °C 8,0 km/h (2 Bft)
04.03.2017 04:34 9,6 °C 9,8 °C 46 % 999,6 hPa 0,0 mm 3,6 km/h (1 Bft) S-SO 157 ° 0 min 0,000 mm 0,0 UV-I 0 W/m² -1,4 °C 9,6 °C 6,4 km/h (2 Bft)
04.03.2017 04:35 9,7 °C 9,7 °C 43 % 999,6 hPa 0,0 mm 3,6 km/h (1 Bft) S 175 ° 0 min 0,000 mm 0,0 UV-I 0 W/m² -2,3 °C 9,7 °C 8,0 km/h (2 Bft)
04.03.2017 04:36 9,7 °C 9,7 °C 46 % 999,7 hPa 0,0 mm 4,0 km/h (1 Bft) O-SO 105 ° 0 min 0,000 mm 0,0 UV-I 0 W/m² -1,3 °C 9,7 °C 6,4 km/h (2 Bft)
04.03.2017 04:37 9,7 °C 9,7 °C 45 % 999,7 hPa 0,0 mm 1,9 km/h (1 Bft) O-NO 78 ° 0 min 0,000 mm 0,0 UV-I 0 W/m² -1,6 °C 9,7 °C 4,8 km/h (1 Bft)
04.03.2017 04:38 9,7 °C 9,7 °C 44 % 999,7 hPa 0,0 mm 1,6 km/h (1 Bft) O-NO 78 ° 0 min 0,000 mm 0,0 UV-I 0 W/m² -2,0 °C 9,7 °C 3,2 km/h (1 Bft)
04.03.2017 04:39 9,7 °C 9,7 °C 44 % 999,7 hPa 0,0 mm 3,4 km/h (1 Bft) O-NO 78 ° 0 min 0,000 mm 0,0 UV-I 0 W/m² -2,0 °C 9,7 °C 4,8 km/h (1 Bft)
04.03.2017 04:40 9,7 °C 9,7 °C 44 % 999,7 hPa 0,0 mm 5,0 km/h (1 Bft) N 350 ° 0 min 0,000 mm 0,0 UV-I 0 W/m² -2,0 °C 9,4 °C 8,0 km/h (2 Bft)
04.03.2017 04:41 9,7 °C 9,8 °C 43 % 999,5 hPa 0,0 mm 4,1 km/h (1 Bft) O-NO 68 ° 0 min 0,000 mm 0,0 UV-I 0 W/m² -2,3 °C 9,7 °C 8,0 km/h (2 Bft)
04.03.2017 04:42 9,6 °C 9,7 °C 46 % 999,5 hPa 0,0 mm 5,0 km/h (1 Bft) O-SO 114 ° 0 min 0,000 mm 0,0 UV-I 0 W/m² -1,4 °C 9,3 °C 9,7 km/h (2 Bft)
04.03.2017 04:43 9,4 °C 9,6 °C 45 % 999,5 hPa 0,0 mm 4,7 km/h (1 Bft) W-NW 301 ° 0 min 0,000 mm 0,0 UV-I 0 W/m² -1,9 °C 9,2 °C 14,5 km/h (3 Bft)
04.03.2017 04:44 9,2 °C 9,4 °C 46 % 999,6 hPa 0,0 mm 9,9 km/h (2 Bft) NO 56 ° 0 min 0,000 mm 0,0 UV-I 0 W/m² -1,8 °C 7,7 °C 19,3 km/h (3 Bft)
04.03.2017 04:45 9,3 °C 9,3 °C 45 % 999,6 hPa 0,0 mm 3,0 km/h (1 Bft) N-NW 329 ° 0 min 0,000 mm 0,0 UV-I 0 W/m² -2,0 °C 9,3 °C 8,0 km/h (2 Bft)
04.03.2017 04:46 9,4 °C 9,4 °C 44 % 999,4 hPa 0,0 mm 5,2 km/h (1 Bft) S 178 ° 0 min 0,000 mm 0,0 UV-I 0 W/m² -2,2 °C 9,0 °C 9,7 km/h (2 Bft)
04.03.2017 04:47 9,5 °C 9,5 °C 44 % 999,5 hPa 0,0 mm 6,1 km/h (2 Bft) S-SW 194 ° 0 min 0,000 mm 0,0 UV-I 0 W/m² -2,1 °C 8,9 °C 11,3 km/h (2 Bft)
04.03.2017 04:48 9,7 °C 9,7 °C 45 % 999,4 hPa 0,0 mm 5,4 km/h (1 Bft) O 94 ° 0 min 0,000 mm 0,0 UV-I 0 W/m² -1,6 °C 9,3 °C 8,0 km/h (2 Bft)
04.03.2017 04:49 9,7 °C 9,7 °C 45 % 999,4 hPa 0,0 mm 4,1 km/h (1 Bft) O-NO 71 ° 0 min 0,000 mm 0,0 UV-I 0 W/m² -1,6 °C 9,7 °C 4,8 km/h (1 Bft)
04.03.2017 04:50 9,6 °C 9,7 °C 47 % 999,4 hPa 0,0 mm 3,3 km/h (1 Bft) NO 37 ° 0 min 0,000 mm 0,0 UV-I 0 W/m² -1,1 °C 9,6 °C 4,8 km/h (1 Bft)
04.03.2017 04:51 9,4 °C 9,6 °C 44 % 999,3 hPa 0,0 mm 2,7 km/h (1 Bft) W-NW 289 ° 0 min 0,000 mm 0,0 UV-I 0 W/m² -2,2 °C 9,4 °C 4,8 km/h (1 Bft)
04.03.2017 04:52 9,5 °C 9,5 °C 43 % 999,3 hPa 0,0 mm 3,8 km/h (1 Bft) N 360 ° 0 min 0,000 mm 0,0 UV-I 0 W/m² -2,4 °C 9,5 °C 6,4 km/h (2 Bft)
04.03.2017 04:53 9,8 °C 9,8 °C 43 % 999,6 hPa 0,0 mm 9,2 km/h (2 Bft) S 185 ° 0 min 0,000 mm 0,0 UV-I 0 W/m² -2,2 °C 8,5 °C 17,7 km/h (3 Bft)
04.03.2017 04:54 10,2 °C 10,2 °C 40 % 999,3 hPa 0,0 mm 6,1 km/h (2 Bft) NW 305 ° 0 min 0,000 mm 0,0 UV-I 0 W/m² -2,8 °C 10,2 °C 12,9 km/h (3 Bft)
04.03.2017 04:55 10,5 °C 10,5 °C 40 % 999,4 hPa 0,0 mm 5,4 km/h (1 Bft) W-SW 242 ° 0 min 0,000 mm 0,0 UV-I 0 W/m² -2,5 °C 10,5 °C 11,3 km/h (2 Bft)
04.03.2017 04:56 10,7 °C 10,7 °C 39 % 999,5 hPa 0,0 mm 6,7 km/h (2 Bft) W 267 ° 0 min 0,000 mm 0,0 UV-I 0 W/m² -2,7 °C 10,7 °C 9,7 km/h (2 Bft)
04.03.2017 04:57 10,8 °C 10,8 °C 39 % 999,3 hPa 0,0 mm 1,5 km/h (1 Bft) W 267 ° 0 min 0,000 mm 0,0 UV-I 0 W/m² -2,6 °C 10,8 °C 3,2 km/h (1 Bft)
04.03.2017 04:58 10,7 °C 10,8 °C 42 % 999,3 hPa 0,0 mm 2,2 km/h (1 Bft) O-SO 121 ° 0 min 0,000 mm 0,0 UV-I 0 W/m² -1,7 °C 10,7 °C 4,8 km/h (1 Bft)
04.03.2017 04:59 10,7 °C 10,7 °C 40 % 999,3 hPa 0,0 mm 4,9 km/h (1 Bft) W-SW 252 ° 0 min 0,000 mm 0,0 UV-I 0 W/m² -2,3 °C 10,7 °C 6,4 km/h (2 Bft)
04.03.2017 05:00 10,8 °C 10,8 °C 38 % 999,3 hPa 0,0 mm 8,0 km/h (2 Bft) W-SW 257 ° 0 min 0,051 mm 0,0 UV-I 0 W/m² -2,9 °C 10,8 °C 12,9 km/h (3 Bft)
04.03.2017 05:01 10,9 °C 10,9 °C 39 % 999,2 hPa 0,0 mm 3,2 km/h (1 Bft) W-SW 254 ° 0 min 0,000 mm 0,0 UV-I 0 W/m² -2,5 °C 10,9 °C 4,8 km/h (1 Bft)
04.03.2017 05:02 10,9 °C 10,9 °C 40 % 999,3 hPa 0,0 mm 7,5 km/h (2 Bft) W-NW 289 ° 0 min 0,000 mm 0,0 UV-I 0 W/m² -2,2 °C 10,9 °C 11,3 km/h (2 Bft)
04.03.2017 05:03 10,9 °C 10,9 °C 40 % 999,2 hPa 0,0 mm 10,1 km/h (2 Bft) O 89 ° 0 min 0,000 mm 0,0 UV-I 0 W/m² -2,2 °C 10,9 °C 14,5 km/h (3 Bft)
04.03.2017 05:04 10,9 °C 11,0 °C 38 % 999,3 hPa 0,0 mm 11,5 km/h (2 Bft) N-NO 21 ° 0 min 0,000 mm 0,0 UV-I 0 W/m² -2,8 °C 10,9 °C 20,9 km/h (4 Bft)
04.03.2017 05:05 11,1 °C 11,1 °C 39 % 999,1 hPa 0,0 mm 11,5 km/h (2 Bft) W-SW 244 ° 0 min 0,000 mm 0,0 UV-I 0 W/m² -2,3 °C 11,1 °C 17,7 km/h (3 Bft)
04.03.2017 05:06 11,2 °C 11,2 °C 37 % 999,1 hPa 0,0 mm 9,9 km/h (2 Bft) S-SW 212 ° 0 min 0,000 mm 0,0 UV-I 0 W/m² -2,9 °C 11,2 °C 14,5 km/h (3 Bft)
04.03.2017 05:07 11,2 °C 11,2 °C 40 % 999,0 hPa 0,0 mm 5,0 km/h (1 Bft) N-NW 329 ° 0 min 0,000 mm 0,0 UV-I 0 W/m² -1,9 °C 11,2 °C 9,7 km/h (2 Bft)
04.03.2017 05:08 11,0 °C 11,2 °C 40 % 998,8 hPa 0,0 mm 7,0 km/h (2 Bft) W 271 ° 0 min 0,000 mm 0,0 UV-I 0 W/m² -2,1 °C 11,0 °C 20,9 km/h (4 Bft)
04.03.2017 05:09 11,0 °C 11,0 °C 39 % 999,0 hPa 0,0 mm 6,0 km/h (2 Bft) SO 135 ° 0 min 0,000 mm 0,0 UV-I 0 W/m² -2,4 °C 11,0 °C 12,9 km/h (3 Bft)
04.03.2017 05:10 10,9 °C 11,0 °C 40 % 999,0 hPa 0,0 mm 6,2 km/h (2 Bft) W-SW 239 ° 0 min 0,000 mm 0,0 UV-I 0 W/m² -2,2 °C 10,9 °C 12,9 km/h (3 Bft)
04.03.2017 05:11 10,9 °C 10,9 °C 38 % 998,9 hPa 0,0 mm 7,3 km/h (2 Bft) O-NO 69 ° 0 min 0,000 mm 0,0 UV-I 0 W/m² -2,8 °C 10,9 °C 11,3 km/h (2 Bft)
04.03.2017 05:12 11,1 °C 11,1 °C 38 % 998,8 hPa 0,0 mm 5,1 km/h (1 Bft) O 84 ° 0 min 0,000 mm 0,0 UV-I 0 W/m² -2,7 °C 11,1 °C 14,5 km/h (3 Bft)
04.03.2017 05:13 11,2 °C 11,2 °C 37 % 998,9 hPa 0,0 mm 7,0 km/h (2 Bft) W 269 ° 0 min 0,000 mm 0,0 UV-I 0 W/m² -2,9 °C 11,2 °C 12,9 km/h (3 Bft)
04.03.2017 05:14 11,3 °C 11,3 °C 37 % 998,9 hPa 0,0 mm 6,9 km/h (2 Bft) SW 223 ° 0 min 0,000 mm 0,0 UV-I 0 W/m² -2,8 °C 11,3 °C 12,9 km/h (3 Bft)
04.03.2017 05:15 11,4 °C 11,4 °C 38 % 998,9 hPa 0,0 mm 4,8 km/h (1 Bft) W 280 ° 0 min 0,000 mm 0,0 UV-I 0 W/m² -2,4 °C 11,4 °C 6,4 km/h (2 Bft)
04.03.2017 05:16 11,4 °C 11,5 °C 38 % 998,9 hPa 0,0 mm 4,4 km/h (1 Bft) W-NW 300 ° 0 min 0,000 mm 0,0 UV-I 0 W/m² -2,4 °C 11,4 °C 6,4 km/h (2 Bft)
04.03.2017 05:17 11,2 °C 11,4 °C 39 % 999,0 hPa 0,0 mm 8,4 km/h (2 Bft) SW 221 ° 0 min 0,000 mm 0,0 UV-I 0 W/m² -2,2 °C 11,2 °C 17,7 km/h (3 Bft)
04.03.2017 05:18 11,1 °C 11,2 °C 39 % 999,1 hPa 0,0 mm 7,3 km/h (2 Bft) SW 225 ° 0 min 0,000 mm 0,0 UV-I 0 W/m² -2,3 °C 11,1 °C 12,9 km/h (3 Bft)
04.03.2017 05:19 11,1 °C 11,1 °C 37 % 999,1 hPa 0,0 mm 6,7 km/h (2 Bft) SW 221 ° 0 min 0,000 mm 0,0 UV-I 0 W/m² -3,0 °C 11,1 °C 12,9 km/h (3 Bft)
04.03.2017 05:20 11,2 °C 11,2 °C 38 % 998,8 hPa 0,0 mm 5,1 km/h (1 Bft) S-SW 211 ° 0 min 0,000 mm 0,0 UV-I 0 W/m² -2,6 °C 11,2 °C 9,7 km/h (2 Bft)
04.03.2017 05:21 11,3 °C 11,3 °C 37 % 998,8 hPa 0,0 mm 6,8 km/h (2 Bft) SW 217 ° 0 min 0,000 mm 0,0 UV-I 0 W/m² -2,8 °C 11,3 °C 22,5 km/h (4 Bft)
04.03.2017 05:22 11,5 °C 11,5 °C 37 % 998,8 hPa 0,0 mm 8,3 km/h (2 Bft) O-SO 110 ° 0 min 0,000 mm 0,0 UV-I 0 W/m² -2,7 °C 11,5 °C 11,3 km/h (2 Bft)
04.03.2017 05:23 11,6 °C 11,6 °C 36 % 998,7 hPa 0,0 mm 6,2 km/h (2 Bft) O-SO 111 ° 0 min 0,000 mm 0,0 UV-I 0 W/m² -2,9 °C 11,6 °C 16,1 km/h (3 Bft)
04.03.2017 05:24 11,7 °C 11,7 °C 36 % 998,7 hPa 0,0 mm 8,5 km/h (2 Bft) W-SW 254 ° 0 min 0,000 mm 0,0 UV-I 0 W/m² -2,9 °C 11,7 °C 12,9 km/h (3 Bft)
04.03.2017 05:25 11,8 °C 11,8 °C 36 % 998,7 hPa 0,0 mm 7,6 km/h (2 Bft) SW 225 ° 0 min 0,000 mm 0,0 UV-I 0 W/m² -2,8 °C 11,8 °C 14,5 km/h (3 Bft)
04.03.2017 05:26 11,9 °C 11,9 °C 36 % 998,8 hPa 0,0 mm 7,0 km/h (2 Bft) W-SW 252 ° 0 min 0,000 mm 0,0 UV-I 0 W/m² -2,7 °C 11,9 °C 11,3 km/h (2 Bft)
04.03.2017 05:27 11,8 °C 11,9 °C 37 % 998,7 hPa 0,0 mm 2,1 km/h (1 Bft) W-SW 250 ° 0 min 0,000 mm 0,0 UV-I 0 W/m² -2,4 °C 11,8 °C 4,8 km/h (1 Bft)
04.03.2017 05:28 11,6 °C 11,8 °C 39 % 998,7 hPa 0,0 mm 3,4 km/h (1 Bft) S-SW 209 ° 0 min 0,000 mm 0,0 UV-I 0 W/m² -1,9 °C 11,6 °C 6,4 km/h (2 Bft)
04.03.2017 05:29 11,5 °C 11,6 °C 37 % 998,8 hPa 0,0 mm 2,4 km/h (1 Bft) S-SW 209 ° 0 min 0,000 mm 0,0 UV-I 0 W/m² -2,7 °C 11,5 °C 6,4 km/h (2 Bft)
04.03.2017 05:30 11,3 °C 11,5 °C 38 % 998,7 hPa 0,0 mm 5,1 km/h (1 Bft) O-NO 74 ° 0 min 0,000 mm 0,0 UV-I 0 W/m² -2,5 °C 11,3 °C 6,4 km/h (2 Bft)
04.03.2017 05:31 11,1 °C 11,3 °C 40 % 998,7 hPa 0,0 mm 2,0 km/h (1 Bft) O-NO 73 ° 0 min 0,000 mm 0,0 UV-I 0 W/m² -2,0 °C 11,1 °C 3,2 km/h (1 Bft)
04.03.2017 05:32 10,8 °C 11,1 °C 39 % 998,6 hPa 0,0 mm 4,4 km/h (1 Bft) NW 312 ° 0 min 0,000 mm 0,0 UV-I 0 W/m² -2,6 °C 10,8 °C 4,8 km/h (1 Bft)
04.03.2017 05:33 10,5 °C 10,8 °C 40 % 998,6 hPa 0,0 mm 3,6 km/h (1 Bft) W-SW 243 ° 0 min 0,000 mm 0,0 UV-I 0 W/m² -2,5 °C 10,5 °C 6,4 km/h (2 Bft)
04.03.2017 05:34 10,3 °C 10,5 °C 41 % 998,7 hPa 0,0 mm 8,7 km/h (2 Bft) W-NW 288 ° 0 min 0,000 mm 0,0 UV-I 0 W/m² -2,4 °C 10,3 °C 25,7 km/h (4 Bft)
04.03.2017 05:35 10,3 °C 10,3 °C 40 % 998,6 hPa 0,0 mm 10,7 km/h (2 Bft) S-SO 160 ° 0 min 0,000 mm 0,0 UV-I 0 W/m² -2,7 °C 10,3 °C 22,5 km/h (4 Bft)
04.03.2017 05:36 10,4 °C 10,4 °C 40 % 998,7 hPa 0,0 mm 2,2 km/h (1 Bft) W-NW 287 ° 0 min 0,000 mm 0,0 UV-I 0 W/m² -2,6 °C 10,4 °C 6,4 km/h (2 Bft)
04.03.2017 05:37 10,7 °C 10,7 °C 39 % 998,7 hPa 0,0 mm 9,1 km/h (2 Bft) SW 227 ° 0 min 0,000 mm 0,0 UV-I 0 W/m² -2,7 °C 10,7 °C 16,1 km/h (3 Bft)
04.03.2017 05:38 10,8 °C 10,8 °C 39 % 998,7 hPa 0,0 mm 12,7 km/h (3 Bft) S-SO 161 ° 0 min 0,000 mm 0,0 UV-I 0 W/m² -2,6 °C 10,8 °C 20,9 km/h (4 Bft)
04.03.2017 05:39 11,0 °C 11,0 °C 38 % 998,7 hPa 0,0 mm 9,3 km/h (2 Bft) SW 221 ° 0 min 0,000 mm 0,0 UV-I 0 W/m² -2,8 °C 11,0 °C 19,3 km/h (3 Bft)
04.03.2017 05:40 11,1 °C 11,1 °C 39 % 998,7 hPa 0,0 mm 7,8 km/h (2 Bft) W-SW 254 ° 0 min 0,000 mm 0,0 UV-I 0 W/m² -2,3 °C 11,1 °C 11,3 km/h (2 Bft)
04.03.2017 05:41 11,3 °C 11,3 °C 37 % 998,7 hPa 0,0 mm 6,3 km/h (2 Bft) SW 217 ° 0 min 0,000 mm 0,0 UV-I 0 W/m² -2,8 °C 11,3 °C 9,7 km/h (2 Bft)
04.03.2017 05:42 11,3 °C 11,3 °C 38 % 998,6 hPa 0,0 mm 7,5 km/h (2 Bft) S-SW 209 ° 0 min 0,000 mm 0,0 UV-I 0 W/m² -2,5 °C 11,3 °C 14,5 km/h (3 Bft)
04.03.2017 05:43 11,4 °C 11,4 °C 37 % 998,6 hPa 0,0 mm 6,2 km/h (2 Bft) S-SW 211 ° 0 min 0,000 mm 0,0 UV-I 0 W/m² -2,8 °C 11,4 °C 9,7 km/h (2 Bft)
04.03.2017 05:44 11,4 °C 11,4 °C 39 % 998,6 hPa 0,0 mm 6,0 km/h (2 Bft) W-SW 244 ° 0 min 0,000 mm 0,0 UV-I 0 W/m² -2,0 °C 11,4 °C 8,0 km/h (2 Bft)
04.03.2017 05:45 11,4 °C 11,4 °C 38 % 998,6 hPa 0,0 mm 6,4 km/h (2 Bft) S-SW 207 ° 0 min 0,000 mm 0,0 UV-I 0 W/m² -2,4 °C 11,4 °C 12,9 km/h (3 Bft)
04.03.2017 05:46 11,4 °C 11,4 °C 38 % 998,6 hPa 0,0 mm 13,6 km/h (3 Bft) S-SW 194 ° 0 min 0,000 mm 0,0 UV-I 0 W/m² -2,4 °C 11,4 °C 19,3 km/h (3 Bft)
04.03.2017 05:47 11,3 °C 11,4 °C 37 % 998,6 hPa 0,0 mm 3,7 km/h (1 Bft) S 188 ° 0 min 0,000 mm 0,0 UV-I 0 W/m² -2,8 °C 11,3 °C 6,4 km/h (2 Bft)
04.03.2017 05:48 11,3 °C 11,4 °C 39 % 998,6 hPa 0,0 mm 4,4 km/h (1 Bft) SW 221 ° 0 min 0,000 mm 0,0 UV-I 0 W/m² -2,1 °C 11,3 °C 11,3 km/h (2 Bft)
04.03.2017 05:49 11,4 °C 11,4 °C 37 % 998,6 hPa 0,0 mm 7,7 km/h (2 Bft) S-SW 207 ° 0 min 0,000 mm 0,0 UV-I 0 W/m² -2,8 °C 11,4 °C 11,3 km/h (2 Bft)
04.03.2017 05:50 11,5 °C 11,5 °C 37 % 998,6 hPa 0,0 mm 2,7 km/h (1 Bft) W-SW 254 ° 0 min 0,000 mm 0,0 UV-I 0 W/m² -2,7 °C 11,5 °C 6,4 km/h (2 Bft)
04.03.2017 05:51 11,4 °C 11,5 °C 38 % 998,7 hPa 0,0 mm 5,7 km/h (1 Bft) W-SW 249 ° 0 min 0,000 mm 0,0 UV-I 0 W/m² -2,4 °C 11,4 °C 9,7 km/h (2 Bft)
04.03.2017 05:52 11,4 °C 11,4 °C 38 % 998,6 hPa 0,0 mm 5,3 km/h (1 Bft) W-NW 290 ° 0 min 0,000 mm 0,0 UV-I 0 W/m² -2,4 °C 11,4 °C 8,0 km/h (2 Bft)
04.03.2017 05:53 11,4 °C 11,4 °C 38 % 998,6 hPa 0,0 mm 5,7 km/h (1 Bft) NW 304 ° 0 min 0,000 mm 0,0 UV-I 0 W/m² -2,4 °C 11,4 °C 9,7 km/h (2 Bft)
04.03.2017 05:54 11,3 °C 11,4 °C 38 % 998,5 hPa 0,0 mm 5,5 km/h (1 Bft) NW 321 ° 0 min 0,000 mm 0,0 UV-I 0 W/m² -2,5 °C 11,3 °C 6,4 km/h (2 Bft)
04.03.2017 05:55 11,2 °C 11,3 °C 37 % 998,5 hPa 0,0 mm 3,2 km/h (1 Bft) NW 320 ° 0 min 0,000 mm 0,0 UV-I 0 W/m² -2,9 °C 11,2 °C 6,4 km/h (2 Bft)
04.03.2017 05:56 11,2 °C 11,2 °C 38 % 998,5 hPa 0,0 mm 6,8 km/h (2 Bft) SW 222 ° 0 min 0,000 mm 0,0 UV-I 0 W/m² -2,6 °C 11,2 °C 8,0 km/h (2 Bft)
04.03.2017 05:57 11,2 °C 11,2 °C 37 % 998,6 hPa 0,0 mm 7,7 km/h (2 Bft) SW 220 ° 0 min 0,000 mm 0,0 UV-I 0 W/m² -2,9 °C 11,2 °C 16,1 km/h (3 Bft)
04.03.2017 05:58 11,3 °C 11,3 °C 37 % 998,5 hPa 0,0 mm 8,0 km/h (2 Bft) W-NW 288 ° 0 min 0,000 mm 0,0 UV-I 0 W/m² -2,8 °C 11,3 °C 11,3 km/h (2 Bft)
04.03.2017 05:59 11,3 °C 11,3 °C 37 % 998,6 hPa 0,0 mm 4,6 km/h (1 Bft) W 265 ° 0 min 0,000 mm 0,0 UV-I 0 W/m² -2,8 °C 11,3 °C 6,4 km/h (2 Bft)
04.03.2017 06:00 11,4 °C 11,4 °C 38 % 998,6 hPa 0,0 mm 5,6 km/h (1 Bft) W 270 ° 0 min 0,000 mm 0,0 UV-I 0 W/m² -2,4 °C 11,4 °C 6,4 km/h (2 Bft)
04.03.2017 06:01 11,3 °C 11,4 °C 38 % 998,6 hPa 0,0 mm 3,0 km/h (1 Bft) W 270 ° 0 min 0,076 mm 0,0 UV-I 0 W/m² -2,5 °C 11,3 °C 6,4 km/h (2 Bft)
04.03.2017 06:02 11,3 °C 11,3 °C 37 % 998,6 hPa 0,0 mm 2,2 km/h (1 Bft) W-SW 257 ° 0 min 0,000 mm 0,0 UV-I 0 W/m² -2,8 °C 11,3 °C 4,8 km/h (1 Bft)
04.03.2017 06:03 11,3 °C 11,3 °C 37 % 998,6 hPa 0,0 mm 1,2 km/h (1 Bft) W-SW 257 ° 0 min 0,000 mm 0,0 UV-I 0 W/m² -2,8 °C 11,3 °C 3,2 km/h (1 Bft)
04.03.2017 06:04 11,3 °C 11,3 °C 38 % 998,6 hPa 0,0 mm 1,8 km/h (1 Bft) W-SW 257 ° 0 min 0,000 mm 0,0 UV-I 0 W/m² -2,5 °C 11,3 °C 3,2 km/h (1 Bft)
04.03.2017 06:05 11,1 °C 11,3 °C 39 % 998,5 hPa 0,0 mm 1,3 km/h (1 Bft) W-SW 257 ° 0 min 0,000 mm 0,0 UV-I 0 W/m² -2,3 °C 11,1 °C 3,2 km/h (1 Bft)
04.03.2017 06:06 10,9 °C 11,1 °C 39 % 998,5 hPa 0,0 mm 3,4 km/h (1 Bft) S-SO 159 ° 0 min 0,000 mm 0,0 UV-I 0 W/m² -2,5 °C 10,9 °C 6,4 km/h (2 Bft)
04.03.2017 06:07 10,8 °C 10,9 °C 39 % 998,4 hPa 0,0 mm 5,4 km/h (1 Bft) O-SO 111 ° 0 min 0,000 mm 0,0 UV-I 0 W/m² -2,6 °C 10,8 °C 9,7 km/h (2 Bft)
04.03.2017 06:08 10,8 °C 10,8 °C 39 % 998,5 hPa 0,0 mm 1,5 km/h (1 Bft) O-SO 111 ° 0 min 0,000 mm 0,0 UV-I 0 W/m² -2,6 °C 10,8 °C 4,8 km/h (1 Bft)
04.03.2017 06:09 10,8 °C 10,8 °C 40 % 998,5 hPa 0,0 mm 1,6 km/h (1 Bft) O-SO 111 ° 0 min 0,000 mm 0,0 UV-I 0 W/m² -2,2 °C 10,8 °C 3,2 km/h (1 Bft)
04.03.2017 06:10 10,6 °C 10,8 °C 43 % 998,4 hPa 0,0 mm 2,0 km/h (1 Bft) O-SO 111 ° 0 min 0,000 mm 0,0 UV-I 0 W/m² -1,4 °C 10,6 °C 3,2 km/h (1 Bft)
04.03.2017 06:11 10,1 °C 10,6 °C 43 % 998,5 hPa 0,0 mm 2,7 km/h (1 Bft) O-SO 111 ° 0 min 0,000 mm 0,0 UV-I 0 W/m² -1,9 °C 10,1 °C 3,2 km/h (1 Bft)
04.03.2017 06:12 9,8 °C 10,1 °C 41 % 998,4 hPa 0,0 mm 1,1 km/h (1 Bft) O-SO 111 ° 0 min 0,000 mm 0,0 UV-I 0 W/m² -2,8 °C 9,8 °C 1,6 km/h (1 Bft)
04.03.2017 06:13 9,8 °C 9,9 °C 42 % 998,4 hPa 0,0 mm 1,2 km/h (1 Bft) O-SO 111 ° 0 min 0,000 mm 0,0 UV-I 0 W/m² -2,5 °C 9,8 °C 1,6 km/h (1 Bft)
04.03.2017 06:14 9,8 °C 9,8 °C 43 % 998,5 hPa 0,0 mm 2,4 km/h (1 Bft) O-SO 111 ° 0 min 0,000 mm 0,0 UV-I 0 W/m² -2,2 °C 9,8 °C 4,8 km/h (1 Bft)
04.03.2017 06:15 9,9 °C 9,9 °C 42 % 998,5 hPa 0,0 mm 4,8 km/h (1 Bft) O-SO 111 ° 0 min 0,000 mm 0,0 UV-I 0 W/m² -2,4 °C 9,7 °C 4,8 km/h (1 Bft)
04.03.2017 06:16 9,9 °C 9,9 °C 44 % 998,4 hPa 0,0 mm 3,9 km/h (1 Bft) N-NO 29 ° 0 min 0,000 mm 0,0 UV-I 0 W/m² -1,8 °C 9,9 °C 4,8 km/h (1 Bft)
04.03.2017 06:17 9,9 °C 9,9 °C 41 % 998,4 hPa 0,0 mm 3,0 km/h (1 Bft) N 351 ° 0 min 0,000 mm 0,0 UV-I 0 W/m² -2,7 °C 9,9 °C 4,8 km/h (1 Bft)
04.03.2017 06:18 9,8 °C 9,9 °C 43 % 998,4 hPa 0,0 mm 3,4 km/h (1 Bft) O 89 ° 0 min 0,000 mm 0,0 UV-I 0 W/m² -2,2 °C 9,8 °C 6,4 km/h (2 Bft)
04.03.2017 06:19 9,7 °C 9,8 °C 43 % 998,3 hPa 0,0 mm 2,9 km/h (1 Bft) O-NO 68 ° 0 min 0,000 mm 0,0 UV-I 0 W/m² -2,3 °C 9,7 °C 6,4 km/h (2 Bft)
04.03.2017 06:20 9,6 °C 9,7 °C 45 % 998,3 hPa 0,0 mm 3,3 km/h (1 Bft) O-NO 68 ° 0 min 0,000 mm 0,0 UV-I 0 W/m² -1,7 °C 9,6 °C 6,4 km/h (2 Bft)
04.03.2017 06:21 9,6 °C 9,6 °C 43 % 998,3 hPa 0,0 mm 3,5 km/h (1 Bft) O-SO 122 ° 0 min 0,000 mm 0,0 UV-I 0 W/m² -2,4 °C 9,6 °C 6,4 km/h (2 Bft)
04.03.2017 06:22 9,7 °C 9,7 °C 42 % 998,4 hPa 0,0 mm 3,2 km/h (1 Bft) S-SO 165 ° 0 min 0,000 mm 0,0 UV-I 0 W/m² -2,6 °C 9,7 °C 6,4 km/h (2 Bft)
04.03.2017 06:23 9,7 °C 9,8 °C 45 % 998,3 hPa 0,0 mm 2,6 km/h (1 Bft) NO 42 ° 0 min 0,000 mm 0,0 UV-I 0 W/m² -1,6 °C 9,7 °C 4,8 km/h (1 Bft)
04.03.2017 06:24 9,5 °C 9,7 °C 46 % 998,2 hPa 0,0 mm 6,3 km/h (2 Bft) NO 37 ° 0 min 0,000 mm 0,0 UV-I 0 W/m² -1,5 °C 8,8 °C 12,9 km/h (3 Bft)
04.03.2017 06:25 9,2 °C 9,5 °C 48 % 998,2 hPa 0,0 mm 5,1 km/h (1 Bft) NO 42 ° 0 min 0,000 mm 0,0 UV-I 0 W/m² -1,2 °C 8,8 °C 6,4 km/h (2 Bft)
04.03.2017 06:26 9,2 °C 9,2 °C 45 % 998,2 hPa 0,0 mm 4,6 km/h (1 Bft) W-SW 240 ° 0 min 0,000 mm 0,0 UV-I 0 W/m² -2,1 °C 9,0 °C 6,4 km/h (2 Bft)
04.03.2017 06:27 9,2 °C 9,2 °C 46 % 998,2 hPa 0,0 mm 2,1 km/h (1 Bft) N-NW 348 ° 0 min 0,000 mm 0,0 UV-I 0 W/m² -1,8 °C 9,2 °C 4,8 km/h (1 Bft)
04.03.2017 06:28 9,2 °C 9,2 °C 46 % 998,2 hPa 0,0 mm 2,2 km/h (1 Bft) N-NO 24 ° 0 min 0,000 mm 0,0 UV-I 0 W/m² -1,8 °C 9,2 °C 3,2 km/h (1 Bft)
04.03.2017 06:29 9,2 °C 9,2 °C 46 % 998,2 hPa 0,0 mm 0,3 km/h (0 Bft) N-NO 24 ° 0 min 0,000 mm 0,0 UV-I 0 W/m² -1,8 °C 9,2 °C 1,6 km/h (1 Bft)
04.03.2017 06:30 9,2 °C 9,3 °C 47 % 998,2 hPa 0,0 mm 3,4 km/h (1 Bft) O-NO 63 ° 0 min 0,000 mm 0,0 UV-I 0 W/m² -1,5 °C 9,2 °C 4,8 km/h (1 Bft)
04.03.2017 06:31 9,3 °C 9,3 °C 45 % 998,2 hPa 0,0 mm 3,2 km/h (1 Bft) SO 138 ° 0 min 0,000 mm 0,0 UV-I 0 W/m² -2,0 °C 9,3 °C 4,8 km/h (1 Bft)
04.03.2017 06:32 9,4 °C 9,4 °C 45 % 998,2 hPa 0,0 mm 2,6 km/h (1 Bft) NO 55 ° 0 min 0,000 mm 0,0 UV-I 0 W/m² -1,9 °C 9,4 °C 4,8 km/h (1 Bft)
04.03.2017 06:33 9,4 °C 9,4 °C 47 % 998,2 hPa 0,0 mm 3,0 km/h (1 Bft) NO 55 ° 0 min 0,000 mm 0,0 UV-I 0 W/m² -1,3 °C 9,4 °C 4,8 km/h (1 Bft)
04.03.2017 06:34 9,4 °C 9,4 °C 45 % 998,2 hPa 0,0 mm 2,5 km/h (1 Bft) O-NO 61 ° 0 min 0,000 mm 0,0 UV-I 0 W/m² -1,9 °C 9,4 °C 3,2 km/h (1 Bft)
04.03.2017 06:35 9,4 °C 9,4 °C 45 % 998,2 hPa 0,0 mm 2,8 km/h (1 Bft) O-NO 61 ° 0 min 0,000 mm 0,0 UV-I 0 W/m² -1,9 °C 9,4 °C 3,2 km/h (1 Bft)
04.03.2017 06:36 9,4 °C 9,4 °C 44 % 998,2 hPa 0,0 mm 2,6 km/h (1 Bft) O 80 ° 0 min 0,000 mm 0,0 UV-I 0 W/m² -2,2 °C 9,4 °C 4,8 km/h (1 Bft)
04.03.2017 06:37 9,4 °C 9,6 °C 45 % 998,1 hPa 0,0 mm 2,3 km/h (1 Bft) NW 322 ° 0 min 0,000 mm 0,0 UV-I 0 W/m² -1,9 °C 9,4 °C 4,8 km/h (1 Bft)
04.03.2017 06:38 9,4 °C 9,4 °C 45 % 998,1 hPa 0,0 mm 4,4 km/h (1 Bft) SO 134 ° 0 min 0,000 mm 0,0 UV-I 0 W/m² -1,9 °C 9,4 °C 6,4 km/h (2 Bft)
04.03.2017 06:39 9,3 °C 9,4 °C 45 % 998,0 hPa 0,0 mm 3,9 km/h (1 Bft) O-SO 119 ° 0 min 0,000 mm 0,0 UV-I 0 W/m² -2,0 °C 9,3 °C 6,4 km/h (2 Bft)
04.03.2017 06:40 9,4 °C 9,4 °C 45 % 998,0 hPa 0,0 mm 5,4 km/h (1 Bft) O-SO 106 ° 0 min 0,000 mm 0,0 UV-I 0 W/m² -1,9 °C 9,0 °C 6,4 km/h (2 Bft)
04.03.2017 06:41 9,3 °C 9,4 °C 47 % 997,9 hPa 0,0 mm 7,8 km/h (2 Bft) O-NO 71 ° 0 min 0,000 mm 0,0 UV-I 0 W/m² -1,4 °C 8,2 °C 12,9 km/h (3 Bft)
04.03.2017 06:42 9,1 °C 9,3 °C 48 % 997,9 hPa 0,0 mm 4,8 km/h (1 Bft) O-SO 117 ° 0 min 0,000 mm 0,0 UV-I 0 W/m² -1,3 °C 8,8 °C 6,4 km/h (2 Bft)
04.03.2017 06:43 9,1 °C 9,1 °C 45 % 998,0 hPa 0,0 mm 4,2 km/h (1 Bft) O-SO 105 ° 0 min 0,000 mm 0,0 UV-I 0 W/m² -2,2 °C 9,1 °C 4,8 km/h (1 Bft)
04.03.2017 06:44 9,0 °C 9,1 °C 47 % 997,9 hPa 0,0 mm 3,4 km/h (1 Bft) S-SO 153 ° 0 min 0,000 mm 0,0 UV-I 0 W/m² -1,7 °C 9,0 °C 4,8 km/h (1 Bft)
04.03.2017 06:45 9,0 °C 9,1 °C 46 % 997,9 hPa 0,0 mm 2,4 km/h (1 Bft) S-SO 153 ° 0 min 0,000 mm 0,0 UV-I 0 W/m² -2,0 °C 9,0 °C 4,8 km/h (1 Bft)
04.03.2017 06:46 9,1 °C 9,1 °C 44 % 997,9 hPa 0,0 mm 2,3 km/h (1 Bft) NW 325 ° 0 min 0,000 mm 0,0 UV-I 0 W/m² -2,5 °C 9,1 °C 4,8 km/h (1 Bft)
04.03.2017 06:47 9,2 °C 9,2 °C 45 % 998,0 hPa 0,0 mm 4,2 km/h (1 Bft) O 82 ° 0 min 0,000 mm 0,0 UV-I 0 W/m² -2,1 °C 9,2 °C 6,4 km/h (2 Bft)
04.03.2017 06:48 9,2 °C 9,2 °C 46 % 998,0 hPa 0,0 mm 3,4 km/h (1 Bft) O 82 ° 0 min 0,000 mm 0,0 UV-I 0 W/m² -1,8 °C 9,2 °C 4,8 km/h (1 Bft)
04.03.2017 06:49 9,3 °C 9,3 °C 46 % 998,0 hPa 0,0 mm 3,6 km/h (1 Bft) O 82 ° 0 min 0,000 mm 0,0 UV-I 0 W/m² -1,7 °C 9,3 °C 4,8 km/h (1 Bft)
04.03.2017 06:50 9,3 °C 9,3 °C 45 % 998,0 hPa 0,0 mm 3,2 km/h (1 Bft) O 82 ° 0 min 0,000 mm 0,0 UV-I 0 W/m² -2,0 °C 9,3 °C 4,8 km/h (1 Bft)
04.03.2017 06:51 9,0 °C 9,3 °C 48 % 997,9 hPa 0,0 mm 3,1 km/h (1 Bft) O 82 ° 0 min 0,000 mm 0,0 UV-I 0 W/m² -1,4 °C 9,0 °C 4,8 km/h (1 Bft)
04.03.2017 06:52 8,8 °C 9,0 °C 47 % 997,9 hPa 0,0 mm 2,5 km/h (1 Bft) O 94 ° 0 min 0,000 mm 0,0 UV-I 0 W/m² -1,9 °C 8,8 °C 4,8 km/h (1 Bft)
04.03.2017 06:53 8,7 °C 8,8 °C 45 % 997,9 hPa 0,0 mm 2,3 km/h (1 Bft) O 86 ° 0 min 0,000 mm 0,0 UV-I 5 W/m² -2,6 °C 8,7 °C 4,8 km/h (1 Bft)
04.03.2017 06:54 8,7 °C 8,8 °C 47 % 997,9 hPa 0,0 mm 1,5 km/h (1 Bft) O 86 ° 0 min 0,000 mm 0,0 UV-I 5 W/m² -2,0 °C 8,7 °C 3,2 km/h (1 Bft)
04.03.2017 06:55 8,8 °C 8,8 °C 46 % 997,9 hPa 0,0 mm 1,1 km/h (1 Bft) O 86 ° 0 min 0,000 mm 0,0 UV-I 5 W/m² -2,2 °C 8,8 °C 3,2 km/h (1 Bft)
04.03.2017 06:56 8,8 °C 8,8 °C 47 % 997,8 hPa 0,0 mm 5,7 km/h (1 Bft) O-NO 71 ° 0 min 0,000 mm 0,0 UV-I 5 W/m² -1,9 °C 8,2 °C 6,4 km/h (2 Bft)
04.03.2017 06:57 8,6 °C 8,8 °C 51 % 997,8 hPa 0,0 mm 9,8 km/h (2 Bft) O-SO 105 ° 0 min 0,000 mm 0,0 UV-I 5 W/m² -1,0 °C 7,0 °C 17,7 km/h (3 Bft)
04.03.2017 06:58 8,4 °C 8,6 °C 50 % 997,8 hPa 0,0 mm 9,4 km/h (2 Bft) O-NO 72 ° 0 min 0,000 mm 0,0 UV-I 5 W/m² -1,4 °C 6,8 °C 12,9 km/h (3 Bft)
04.03.2017 06:59 8,3 °C 8,4 °C 49 % 997,8 hPa 0,0 mm 6,0 km/h (2 Bft) SO 146 ° 0 min 0,000 mm 0,0 UV-I 7 W/m² -1,8 °C 7,5 °C 9,7 km/h (2 Bft)
04.03.2017 07:00 8,4 °C 8,4 °C 49 % 997,8 hPa 0,0 mm 0,9 km/h (0 Bft) SO 146 ° 0 min 0,000 mm 0,0 UV-I 7 W/m² -1,7 °C 8,4 °C 1,6 km/h (1 Bft)
04.03.2017 07:01 8,5 °C 8,6 °C 50 % 997,8 hPa 0,0 mm 2,8 km/h (1 Bft) O-NO 57 ° 0 min 0,026 mm 0,0 UV-I 7 W/m² -1,3 °C 8,5 °C 4,8 km/h (1 Bft)
04.03.2017 07:02 8,5 °C 8,5 °C 51 % 997,8 hPa 0,0 mm 5,1 km/h (1 Bft) NO 51 ° 0 min 0,000 mm 0,0 UV-I 7 W/m² -1,0 °C 8,0 °C 9,7 km/h (2 Bft)
04.03.2017 07:03 8,6 °C 8,6 °C 50 % 997,8 hPa 0,0 mm 5,8 km/h (2 Bft) O 89 ° 0 min 0,000 mm 0,0 UV-I 9 W/m² -1,2 °C 7,9 °C 8,0 km/h (2 Bft)
04.03.2017 07:04 8,6 °C 8,6 °C 49 % 997,8 hPa 0,0 mm 4,6 km/h (1 Bft) O 86 ° 0 min 0,000 mm 0,0 UV-I 9 W/m² -1,5 °C 8,3 °C 9,7 km/h (2 Bft)
04.03.2017 07:05 8,6 °C 8,6 °C 50 % 997,8 hPa 0,0 mm 4,7 km/h (1 Bft) O 86 ° 0 min 0,000 mm 0,0 UV-I 9 W/m² -1,2 °C 8,3 °C 4,8 km/h (1 Bft)
04.03.2017 07:06 8,7 °C 8,7 °C 49 % 997,8 hPa 0,0 mm 4,5 km/h (1 Bft) O-NO 73 ° 0 min 0,000 mm 0,0 UV-I 11 W/m² -1,4 °C 8,7 °C 6,4 km/h (2 Bft)
04.03.2017 07:07 8,8 °C 8,8 °C 47 % 997,7 hPa 0,0 mm 2,5 km/h (1 Bft) O-NO 73 ° 0 min 0,000 mm 0,0 UV-I 11 W/m² -1,9 °C 8,8 °C 3,2 km/h (1 Bft)
04.03.2017 07:08 8,9 °C 8,9 °C 47 % 997,8 hPa 0,0 mm 2,8 km/h (1 Bft) O-NO 73 ° 0 min 0,000 mm 0,0 UV-I 11 W/m² -1,8 °C 8,9 °C 4,8 km/h (1 Bft)
04.03.2017 07:09 9,1 °C 9,1 °C 47 % 997,8 hPa 0,0 mm 1,2 km/h (1 Bft) O-NO 73 ° 0 min 0,000 mm 0,0 UV-I 11 W/m² -1,6 °C 9,1 °C 1,6 km/h (1 Bft)
04.03.2017 07:10 9,2 °C 9,2 °C 47 % 997,7 hPa 0,0 mm 5,7 km/h (1 Bft) O-NO 75 ° 0 min 0,000 mm 0,0 UV-I 11 W/m² -1,5 °C 8,6 °C 8,0 km/h (2 Bft)
04.03.2017 07:11 8,9 °C 9,2 °C 50 % 997,6 hPa 0,0 mm 7,5 km/h (2 Bft) NO 56 ° 0 min 0,000 mm 0,0 UV-I 11 W/m² -0,9 °C 7,8 °C 9,7 km/h (2 Bft)
04.03.2017 07:12 8,7 °C 8,9 °C 49 % 997,6 hPa 0,0 mm 3,4 km/h (1 Bft) O 81 ° 0 min 0,000 mm 0,0 UV-I 11 W/m² -1,4 °C 8,7 °C 6,4 km/h (2 Bft)
04.03.2017 07:13 8,7 °C 8,7 °C 47 % 997,7 hPa 0,0 mm 3,0 km/h (1 Bft) O 81 ° 0 min 0,000 mm 0,0 UV-I 11 W/m² -2,0 °C 8,7 °C 3,2 km/h (1 Bft)
04.03.2017 07:14 8,8 °C 8,8 °C 49 % 997,7 hPa 0,0 mm 1,1 km/h (1 Bft) O 81 ° 0 min 0,000 mm 0,0 UV-I 11 W/m² -1,3 °C 8,8 °C 1,6 km/h (1 Bft)
04.03.2017 07:15 8,8 °C 8,8 °C 47 % 997,7 hPa 0,0 mm 2,5 km/h (1 Bft) O 81 ° 0 min 0,000 mm 0,0 UV-I 12 W/m² -1,9 °C 8,8 °C 4,8 km/h (1 Bft)
04.03.2017 07:16 9,0 °C 9,0 °C 47 % 997,7 hPa 0,0 mm 1,1 km/h (1 Bft) O 81 ° 0 min 0,000 mm 0,0 UV-I 12 W/m² -1,7 °C 9,0 °C 1,6 km/h (1 Bft)
04.03.2017 07:17 9,2 °C 9,2 °C 47 % 997,7 hPa 0,0 mm 0,2 km/h (0 Bft) O 81 ° 0 min 0,000 mm 0,0 UV-I 12 W/m² -1,5 °C 9,2 °C 1,6 km/h (1 Bft)
04.03.2017 07:18 9,1 °C 9,2 °C 47 % 997,7 hPa 0,0 mm 0,5 km/h (0 Bft) O 81 ° 0 min 0,000 mm 0,0 UV-I 12 W/m² -1,6 °C 9,1 °C 1,6 km/h (1 Bft)
04.03.2017 07:19 9,0 °C 9,1 °C 48 % 997,7 hPa 0,0 mm 2,5 km/h (1 Bft) O 81 ° 0 min 0,000 mm 0,0 UV-I 12 W/m² -1,4 °C 9,0 °C 4,8 km/h (1 Bft)
04.03.2017 07:20 8,8 °C 9,0 °C 49 % 997,7 hPa 0,0 mm 2,6 km/h (1 Bft) NO 56 ° 0 min 0,000 mm 0,0 UV-I 12 W/m² -1,3 °C 8,8 °C 4,8 km/h (1 Bft)
04.03.2017 07:21 8,6 °C 8,8 °C 47 % 997,7 hPa 0,0 mm 2,4 km/h (1 Bft) O 84 ° 0 min 0,000 mm 0,0 UV-I 12 W/m² -2,1 °C 8,6 °C 4,8 km/h (1 Bft)
04.03.2017 07:22 8,6 °C 8,6 °C 48 % 997,7 hPa 0,0 mm 0,6 km/h (0 Bft) O 84 ° 0 min 0,000 mm 0,0 UV-I 12 W/m² -1,8 °C 8,6 °C 3,2 km/h (1 Bft)
04.03.2017 07:23 8,6 °C 8,6 °C 48 % 997,7 hPa 0,0 mm 1,1 km/h (1 Bft) O 84 ° 0 min 0,000 mm 0,0 UV-I 12 W/m² -1,8 °C 8,6 °C 1,6 km/h (1 Bft)
04.03.2017 07:24 8,6 °C 8,6 °C 47 % 997,7 hPa 0,0 mm 0,7 km/h (0 Bft) O 84 ° 0 min 0,000 mm 0,0 UV-I 12 W/m² -2,1 °C 8,6 °C 1,6 km/h (1 Bft)
04.03.2017 07:25 8,7 °C 8,7 °C 48 % 997,7 hPa 0,0 mm 0,7 km/h (0 Bft) O 84 ° 0 min 0,000 mm 0,0 UV-I 12 W/m² -1,7 °C 8,7 °C 1,6 km/h (1 Bft)
04.03.2017 07:26 8,5 °C 8,7 °C 52 % 997,6 hPa 0,0 mm 1,4 km/h (1 Bft) O 84 ° 0 min 0,000 mm 0,0 UV-I 11 W/m² -0,8 °C 8,5 °C 3,2 km/h (1 Bft)
04.03.2017 07:27 8,4 °C 8,5 °C 49 % 997,6 hPa 0,0 mm 2,7 km/h (1 Bft) O 84 ° 0 min 0,000 mm 0,0 UV-I 11 W/m² -1,7 °C 8,4 °C 3,2 km/h (1 Bft)
04.03.2017 07:28 8,4 °C 8,4 °C 49 % 997,6 hPa 0,0 mm 1,2 km/h (1 Bft) O 84 ° 0 min 0,000 mm 0,0 UV-I 11 W/m² -1,7 °C 8,4 °C 3,2 km/h (1 Bft)
04.03.2017 07:29 8,3 °C 8,4 °C 51 % 997,6 hPa 0,0 mm 0,5 km/h (0 Bft) O 84 ° 0 min 0,000 mm 0,0 UV-I 11 W/m² -1,2 °C 8,3 °C 3,2 km/h (1 Bft)
04.03.2017 07:30 8,4 °C 8,4 °C 49 % 997,6 hPa 0,0 mm 2,4 km/h (1 Bft) O 84 ° 0 min 0,000 mm 0,0 UV-I 12 W/m² -1,7 °C 8,4 °C 3,2 km/h (1 Bft)
04.03.2017 07:31 8,6 °C 8,6 °C 48 % 997,6 hPa 0,0 mm 3,8 km/h (1 Bft) SO 136 ° 0 min 0,000 mm 0,0 UV-I 12 W/m² -1,8 °C 8,6 °C 6,4 km/h (2 Bft)
04.03.2017 07:32 8,8 °C 8,8 °C 48 % 997,7 hPa 0,0 mm 4,0 km/h (1 Bft) O-NO 67 ° 0 min 0,000 mm 0,0 UV-I 12 W/m² -1,6 °C 8,8 °C 6,4 km/h (2 Bft)
04.03.2017 07:33 8,7 °C 8,8 °C 50 % 997,5 hPa 0,0 mm 6,4 km/h (2 Bft) NO 40 ° 0 min 0,000 mm 0,0 UV-I 12 W/m² -1,1 °C 7,9 °C 9,7 km/h (2 Bft)
04.03.2017 07:34 8,6 °C 8,7 °C 49 % 997,5 hPa 0,0 mm 3,0 km/h (1 Bft) NO 40 ° 0 min 0,000 mm 0,0 UV-I 12 W/m² -1,5 °C 8,6 °C 4,8 km/h (1 Bft)
04.03.2017 07:35 8,7 °C 8,7 °C 48 % 997,5 hPa 0,0 mm 4,5 km/h (1 Bft) O-SO 108 ° 0 min 0,000 mm 0,0 UV-I 12 W/m² -1,7 °C 8,7 °C 9,7 km/h (2 Bft)
04.03.2017 07:36 8,7 °C 8,7 °C 49 % 997,4 hPa 0,0 mm 3,3 km/h (1 Bft) O-SO 108 ° 0 min 0,000 mm 0,0 UV-I 12 W/m² -1,4 °C 8,7 °C 4,8 km/h (1 Bft)
04.03.2017 07:37 8,8 °C 8,8 °C 48 % 997,4 hPa 0,0 mm 3,4 km/h (1 Bft) SO 140 ° 0 min 0,000 mm 0,0 UV-I 12 W/m² -1,6 °C 8,8 °C 4,8 km/h (1 Bft)
04.03.2017 07:38 8,8 °C 8,8 °C 50 % 997,5 hPa 0,0 mm 2,4 km/h (1 Bft) O-NO 59 ° 0 min 0,000 mm 0,0 UV-I 12 W/m² -1,0 °C 8,8 °C 6,4 km/h (2 Bft)
04.03.2017 07:39 8,6 °C 8,8 °C 52 % 997,5 hPa 0,0 mm 3,0 km/h (1 Bft) O 90 ° 0 min 0,000 mm 0,0 UV-I 12 W/m² -0,7 °C 8,6 °C 4,8 km/h (1 Bft)
04.03.2017 07:40 8,4 °C 8,6 °C 50 % 997,5 hPa 0,0 mm 6,3 km/h (2 Bft) SO 124 ° 0 min 0,000 mm 0,0 UV-I 14 W/m² -1,4 °C 7,5 °C 8,0 km/h (2 Bft)
04.03.2017 07:41 8,6 °C 8,6 °C 49 % 997,6 hPa 0,0 mm 5,5 km/h (1 Bft) O 101 ° 0 min 0,000 mm 0,0 UV-I 14 W/m² -1,5 °C 8,0 °C 6,4 km/h (2 Bft)
04.03.2017 07:42 8,4 °C 8,6 °C 52 % 997,5 hPa 0,0 mm 9,8 km/h (2 Bft) O-NO 72 ° 0 min 0,000 mm 0,0 UV-I 14 W/m² -0,9 °C 6,8 °C 12,9 km/h (3 Bft)
04.03.2017 07:43 8,2 °C 8,4 °C 52 % 997,4 hPa 0,0 mm 10,9 km/h (2 Bft) O 91 ° 0 min 0,000 mm 0,0 UV-I 14 W/m² -1,1 °C 6,3 °C 12,9 km/h (3 Bft)
04.03.2017 07:44 8,1 °C 8,2 °C 53 % 997,4 hPa 0,0 mm 6,4 km/h (2 Bft) O-NO 68 ° 0 min 0,000 mm 0,0 UV-I 14 W/m² -0,9 °C 7,2 °C 9,7 km/h (2 Bft)
04.03.2017 07:45 8,0 °C 8,1 °C 53 % 997,4 hPa 0,0 mm 5,2 km/h (1 Bft) O-NO 73 ° 0 min 0,000 mm 0,0 UV-I 14 W/m² -1,0 °C 7,4 °C 8,0 km/h (2 Bft)
04.03.2017 07:46 8,1 °C 8,1 °C 51 % 997,4 hPa 0,0 mm 3,7 km/h (1 Bft) O 82 ° 0 min 0,000 mm 0,0 UV-I 16 W/m² -1,4 °C 8,1 °C 6,4 km/h (2 Bft)
04.03.2017 07:47 8,2 °C 8,2 °C 51 % 997,3 hPa 0,0 mm 2,2 km/h (1 Bft) O 82 ° 0 min 0,000 mm 0,0 UV-I 16 W/m² -1,3 °C 8,2 °C 3,2 km/h (1 Bft)
04.03.2017 07:48 8,3 °C 8,3 °C 51 % 997,4 hPa 0,0 mm 1,5 km/h (1 Bft) SW 231 ° 0 min 0,000 mm 0,0 UV-I 16 W/m² -1,2 °C 8,3 °C 3,2 km/h (1 Bft)
04.03.2017 07:49 8,3 °C 8,3 °C 49 % 997,4 hPa 0,0 mm 5,3 km/h (1 Bft) W-SW 244 ° 0 min 0,000 mm 0,0 UV-I 16 W/m² -1,8 °C 7,7 °C 6,4 km/h (2 Bft)
04.03.2017 07:50 8,3 °C 8,4 °C 50 % 997,4 hPa 0,0 mm 7,2 km/h (2 Bft) SW 231 ° 0 min 0,000 mm 0,0 UV-I 16 W/m² -1,5 °C 7,2 °C 11,3 km/h (2 Bft)
04.03.2017 07:51 8,4 °C 8,4 °C 49 % 997,5 hPa 0,0 mm 7,0 km/h (2 Bft) S-SW 197 ° 0 min 0,000 mm 0,0 UV-I 18 W/m² -1,7 °C 7,4 °C 9,7 km/h (2 Bft)
04.03.2017 07:52 8,5 °C 8,5 °C 49 % 997,5 hPa 0,0 mm 2,2 km/h (1 Bft) S-SW 198 ° 0 min 0,000 mm 0,0 UV-I 19 W/m² -1,6 °C 8,5 °C 4,8 km/h (1 Bft)
04.03.2017 07:53 8,4 °C 8,5 °C 50 % 997,5 hPa 0,0 mm 0,6 km/h (0 Bft) S-SW 198 ° 0 min 0,000 mm 0,0 UV-I 19 W/m² -1,4 °C 8,4 °C 1,6 km/h (1 Bft)
04.03.2017 07:54 8,6 °C 8,6 °C 49 % 997,5 hPa 0,0 mm 1,0 km/h (0 Bft) S-SW 198 ° 0 min 0,000 mm 0,0 UV-I 19 W/m² -1,5 °C 8,6 °C 3,2 km/h (1 Bft)
04.03.2017 07:55 8,7 °C 8,7 °C 48 % 997,4 hPa 0,0 mm 1,6 km/h (1 Bft) S 184 ° 0 min 0,000 mm 0,0 UV-I 21 W/m² -1,7 °C 8,7 °C 4,8 km/h (1 Bft)
04.03.2017 07:56 8,9 °C 8,9 °C 49 % 997,4 hPa 0,0 mm 4,3 km/h (1 Bft) SO 139 ° 0 min 0,000 mm 0,0 UV-I 21 W/m² -1,2 °C 8,9 °C 6,4 km/h (2 Bft)
04.03.2017 07:57 8,9 °C 8,9 °C 48 % 997,4 hPa 0,0 mm 5,3 km/h (1 Bft) SO 138 ° 0 min 0,000 mm 0,0 UV-I 21 W/m² -1,5 °C 8,4 °C 6,4 km/h (2 Bft)
04.03.2017 07:58 8,9 °C 8,9 °C 49 % 997,3 hPa 0,0 mm 4,0 km/h (1 Bft) O-SO 123 ° 0 min 0,000 mm 0,0 UV-I 23 W/m² -1,2 °C 8,9 °C 4,8 km/h (1 Bft)
04.03.2017 07:59 8,9 °C 8,9 °C 48 % 997,3 hPa 0,0 mm 1,7 km/h (1 Bft) O-SO 123 ° 0 min 0,000 mm 0,0 UV-I 25 W/m² -1,5 °C 8,9 °C 3,2 km/h (1 Bft)
04.03.2017 08:00 8,8 °C 8,9 °C 49 % 997,3 hPa 0,0 mm 1,7 km/h (1 Bft) O-SO 123 ° 0 min 0,025 mm 0,0 UV-I 25 W/m² -1,3 °C 8,8 °C 3,2 km/h (1 Bft)
04.03.2017 08:01 8,8 °C 8,8 °C 49 % 997,3 hPa 0,0 mm 2,7 km/h (1 Bft) O-SO 123 ° 0 min 0,000 mm 0,0 UV-I 26 W/m² -1,3 °C 8,8 °C 4,8 km/h (1 Bft)
04.03.2017 08:02 8,8 °C 8,8 °C 50 % 997,3 hPa 0,0 mm 3,9 km/h (1 Bft) O-SO 123 ° 0 min 0,000 mm 0,0 UV-I 26 W/m² -1,0 °C 8,8 °C 4,8 km/h (1 Bft)
04.03.2017 08:03 8,8 °C 8,8 °C 49 % 997,3 hPa 0,0 mm 4,8 km/h (1 Bft) O-SO 123 ° 0 min 0,000 mm 0,0 UV-I 28 W/m² -1,3 °C 8,5 °C 4,8 km/h (1 Bft)
04.03.2017 08:04 8,8 °C 8,8 °C 49 % 997,3 hPa 0,0 mm 4,2 km/h (1 Bft) O 93 ° 0 min 0,000 mm 0,0 UV-I 30 W/m² -1,3 °C 8,8 °C 6,4 km/h (2 Bft)
04.03.2017 08:05 8,7 °C 8,8 °C 51 % 997,3 hPa 0,0 mm 3,6 km/h (1 Bft) O-NO 77 ° 0 min 0,000 mm 0,0 UV-I 30 W/m² -0,9 °C 8,7 °C 4,8 km/h (1 Bft)
04.03.2017 08:06 8,7 °C 8,7 °C 48 % 997,3 hPa 0,0 mm 3,0 km/h (1 Bft) S-SO 149 ° 0 min 0,000 mm 0,0 UV-I 32 W/m² -1,7 °C 8,7 °C 6,4 km/h (2 Bft)
04.03.2017 08:07 8,8 °C 8,8 °C 47 % 997,3 hPa 0,0 mm 4,2 km/h (1 Bft) SO 126 ° 0 min 0,000 mm 0,0 UV-I 32 W/m² -1,9 °C 8,8 °C 6,4 km/h (2 Bft)
04.03.2017 08:08 8,7 °C 8,9 °C 50 % 997,4 hPa 0,0 mm 1,8 km/h (1 Bft) O-NO 77 ° 0 min 0,000 mm 0,0 UV-I 32 W/m² -1,1 °C 8,7 °C 4,8 km/h (1 Bft)
04.03.2017 08:09 8,5 °C 8,7 °C 53 % 997,3 hPa 0,0 mm 5,6 km/h (1 Bft) O 80 ° 0 min 0,000 mm 0,0 UV-I 32 W/m² -0,5 °C 7,9 °C 6,4 km/h (2 Bft)
04.03.2017 08:10 8,3 °C 8,5 °C 51 % 997,3 hPa 0,0 mm 5,6 km/h (1 Bft) O 101 ° 0 min 0,000 mm 0,0 UV-I 32 W/m² -1,2 °C 7,6 °C 6,4 km/h (2 Bft)
04.03.2017 08:11 8,3 °C 8,3 °C 50 % 997,3 hPa 0,0 mm 5,3 km/h (1 Bft) O-SO 117 ° 0 min 0,000 mm 0,0 UV-I 32 W/m² -1,5 °C 7,7 °C 6,4 km/h (2 Bft)
04.03.2017 08:12 8,6 °C 8,6 °C 49 % 997,2 hPa 0,0 mm 4,4 km/h (1 Bft) O-SO 103 ° 0 min 0,000 mm 0,0 UV-I 32 W/m² -1,5 °C 8,6 °C 4,8 km/h (1 Bft)
04.03.2017 08:13 8,7 °C 8,7 °C 48 % 997,2 hPa 0,0 mm 3,5 km/h (1 Bft) SO 126 ° 0 min 0,000 mm 0,0 UV-I 32 W/m² -1,7 °C 8,7 °C 4,8 km/h (1 Bft)
04.03.2017 08:14 8,8 °C 8,8 °C 47 % 997,2 hPa 0,0 mm 1,7 km/h (1 Bft) SO 125 ° 0 min 0,000 mm 0,0 UV-I 32 W/m² -1,9 °C 8,8 °C 3,2 km/h (1 Bft)
04.03.2017 08:15 9,0 °C 9,0 °C 47 % 997,2 hPa 0,0 mm 2,3 km/h (1 Bft) O-SO 118 ° 0 min 0,000 mm 0,0 UV-I 32 W/m² -1,7 °C 9,0 °C 4,8 km/h (1 Bft)
04.03.2017 08:16 9,1 °C 9,1 °C 47 % 997,2 hPa 0,0 mm 4,6 km/h (1 Bft) O 88 ° 0 min 0,000 mm 0,0 UV-I 32 W/m² -1,6 °C 8,9 °C 6,4 km/h (2 Bft)
04.03.2017 08:17 9,2 °C 9,2 °C 47 % 997,1 hPa 0,0 mm 3,9 km/h (1 Bft) O-NO 76 ° 0 min 0,000 mm 0,0 UV-I 32 W/m² -1,5 °C 9,2 °C 4,8 km/h (1 Bft)
04.03.2017 08:18 9,0 °C 9,2 °C 48 % 997,1 hPa 0,0 mm 3,1 km/h (1 Bft) O-NO 76 ° 0 min 0,000 mm 0,0 UV-I 32 W/m² -1,4 °C 9,0 °C 4,8 km/h (1 Bft)
04.03.2017 08:19 8,8 °C 9,0 °C 48 % 997,1 hPa 0,0 mm 3,1 km/h (1 Bft) O-NO 76 ° 0 min 0,000 mm 0,0 UV-I 32 W/m² -1,6 °C 8,8 °C 4,8 km/h (1 Bft)
04.03.2017 08:20 8,8 °C 8,8 °C 49 % 997,1 hPa 0,0 mm 2,3 km/h (1 Bft) O-NO 76 ° 0 min 0,000 mm 0,0 UV-I 32 W/m² -1,3 °C 8,8 °C 3,2 km/h (1 Bft)
04.03.2017 08:21 8,7 °C 8,8 °C 50 % 997,1 hPa 0,0 mm 2,5 km/h (1 Bft) O-NO 76 ° 0 min 0,000 mm 0,0 UV-I 32 W/m² -1,1 °C 8,7 °C 3,2 km/h (1 Bft)
04.03.2017 08:22 8,6 °C 8,7 °C 50 % 997,1 hPa 0,0 mm 2,2 km/h (1 Bft) O-NO 76 ° 0 min 0,000 mm 0,0 UV-I 32 W/m² -1,2 °C 8,6 °C 3,2 km/h (1 Bft)
04.03.2017 08:23 8,3 °C 8,6 °C 51 % 997,0 hPa 0,0 mm 1,5 km/h (1 Bft) O-NO 76 ° 0 min 0,000 mm 0,0 UV-I 32 W/m² -1,2 °C 8,3 °C 3,2 km/h (1 Bft)
04.03.2017 08:24 8,2 °C 8,3 °C 51 % 997,0 hPa 0,0 mm 2,9 km/h (1 Bft) S-SO 150 ° 0 min 0,000 mm 0,0 UV-I 30 W/m² -1,3 °C 8,2 °C 4,8 km/h (1 Bft)
04.03.2017 08:25 8,2 °C 8,2 °C 51 % 997,1 hPa 0,0 mm 3,7 km/h (1 Bft) S-SW 196 ° 0 min 0,000 mm 0,0 UV-I 30 W/m² -1,3 °C 8,2 °C 4,8 km/h (1 Bft)
04.03.2017 08:26 8,2 °C 8,2 °C 51 % 997,0 hPa 0,0 mm 2,6 km/h (1 Bft) S-SW 196 ° 0 min 0,000 mm 0,0 UV-I 30 W/m² -1,3 °C 8,2 °C 4,8 km/h (1 Bft)
04.03.2017 08:27 8,3 °C 8,3 °C 51 % 997,0 hPa 0,0 mm 2,2 km/h (1 Bft) S-SW 196 ° 0 min 0,000 mm 0,0 UV-I 32 W/m² -1,2 °C 8,3 °C 3,2 km/h (1 Bft)
04.03.2017 08:28 8,3 °C 8,3 °C 51 % 997,0 hPa 0,0 mm 2,1 km/h (1 Bft) S-SO 155 ° 0 min 0,000 mm 0,0 UV-I 32 W/m² -1,2 °C 8,3 °C 4,8 km/h (1 Bft)
04.03.2017 08:29 8,6 °C 8,6 °C 51 % 996,9 hPa 0,0 mm 1,1 km/h (1 Bft) W-SW 243 ° 0 min 0,000 mm 0,0 UV-I 32 W/m² -1,0 °C 8,6 °C 3,2 km/h (1 Bft)
04.03.2017 08:30 8,5 °C 8,6 °C 51 % 996,9 hPa 0,0 mm 2,9 km/h (1 Bft) O-NO 78 ° 0 min 0,000 mm 0,0 UV-I 32 W/m² -1,0 °C 8,5 °C 6,4 km/h (2 Bft)
04.03.2017 08:31 8,4 °C 8,5 °C 54 % 996,9 hPa 0,0 mm 4,2 km/h (1 Bft) O-NO 78 ° 0 min 0,000 mm 0,0 UV-I 32 W/m² -0,4 °C 8,4 °C 6,4 km/h (2 Bft)
04.03.2017 08:32 8,2 °C 8,4 °C 55 % 996,9 hPa 0,0 mm 5,7 km/h (1 Bft) O-NO 65 ° 0 min 0,000 mm 0,0 UV-I 33 W/m² -0,3 °C 7,5 °C 14,5 km/h (3 Bft)
04.03.2017 08:33 8,0 °C 8,2 °C 55 % 996,9 hPa 0,0 mm 6,1 km/h (2 Bft) O 85 ° 0 min 0,000 mm 0,0 UV-I 33 W/m² -0,5 °C 7,1 °C 8,0 km/h (2 Bft)
04.03.2017 08:34 8,1 °C 8,1 °C 54 % 996,9 hPa 0,0 mm 3,8 km/h (1 Bft) O 85 ° 0 min 0,000 mm 0,0 UV-I 33 W/m² -0,6 °C 8,1 °C 4,8 km/h (1 Bft)
04.03.2017 08:35 8,2 °C 8,2 °C 53 % 996,9 hPa 0,0 mm 3,4 km/h (1 Bft) O-SO 105 ° 0 min 0,000 mm 0,0 UV-I 35 W/m² -0,8 °C 8,2 °C 6,4 km/h (2 Bft)
04.03.2017 08:36 8,4 °C 8,4 °C 53 % 996,8 hPa 0,0 mm 4,3 km/h (1 Bft) O 94 ° 0 min 0,000 mm 0,0 UV-I 35 W/m² -0,6 °C 8,4 °C 6,4 km/h (2 Bft)
04.03.2017 08:37 8,6 °C 8,6 °C 52 % 996,7 hPa 0,0 mm 2,5 km/h (1 Bft) O 94 ° 0 min 0,000 mm 0,0 UV-I 35 W/m² -0,7 °C 8,6 °C 3,2 km/h (1 Bft)
04.03.2017 08:38 8,6 °C 8,7 °C 52 % 996,8 hPa 0,0 mm 1,6 km/h (1 Bft) O 94 ° 0 min 0,000 mm 0,0 UV-I 37 W/m² -0,7 °C 8,6 °C 3,2 km/h (1 Bft)
04.03.2017 08:39 8,7 °C 8,7 °C 51 % 996,8 hPa 0,0 mm 2,5 km/h (1 Bft) O 93 ° 0 min 0,000 mm 0,0 UV-I 37 W/m² -0,9 °C 8,7 °C 4,8 km/h (1 Bft)
04.03.2017 08:40 8,7 °C 8,7 °C 52 % 996,7 hPa 0,0 mm 5,5 km/h (1 Bft) O 82 ° 0 min 0,000 mm 0,0 UV-I 39 W/m² -0,6 °C 8,1 °C 9,7 km/h (2 Bft)
04.03.2017 08:41 8,8 °C 8,8 °C 51 % 996,7 hPa 0,0 mm 3,0 km/h (1 Bft) O 90 ° 0 min 0,000 mm 0,0 UV-I 39 W/m² -0,8 °C 8,8 °C 4,8 km/h (1 Bft)
04.03.2017 08:42 8,9 °C 8,9 °C 50 % 996,8 hPa 0,0 mm 2,7 km/h (1 Bft) SO 128 ° 0 min 0,000 mm 0,0 UV-I 40 W/m² -0,9 °C 8,9 °C 6,4 km/h (2 Bft)
04.03.2017 08:43 8,9 °C 8,9 °C 51 % 996,8 hPa 0,0 mm 0,8 km/h (0 Bft) SO 128 ° 0 min 0,000 mm 0,0 UV-I 40 W/m² -0,7 °C 8,9 °C 3,2 km/h (1 Bft)
04.03.2017 08:44 8,8 °C 8,9 °C 51 % 996,7 hPa 0,0 mm 1,2 km/h (1 Bft) S-SW 192 ° 0 min 0,000 mm 0,0 UV-I 42 W/m² -0,8 °C 8,8 °C 3,2 km/h (1 Bft)
04.03.2017 08:45 8,8 °C 8,8 °C 51 % 996,7 hPa 0,0 mm 2,7 km/h (1 Bft) S 191 ° 0 min 0,000 mm 0,0 UV-I 46 W/m² -0,8 °C 8,8 °C 4,8 km/h (1 Bft)
04.03.2017 08:46 8,9 °C 8,9 °C 49 % 996,7 hPa 0,0 mm 1,3 km/h (1 Bft) S 191 ° 0 min 0,000 mm 0,0 UV-I 47 W/m² -1,2 °C 8,9 °C 3,2 km/h (1 Bft)
04.03.2017 08:47 9,1 °C 9,1 °C 50 % 996,7 hPa 0,0 mm 1,3 km/h (1 Bft) S 191 ° 0 min 0,000 mm 0,0 UV-I 49 W/m² -0,8 °C 9,1 °C 3,2 km/h (1 Bft)
04.03.2017 08:48 9,2 °C 9,2 °C 50 % 996,6 hPa 0,0 mm 0,5 km/h (0 Bft) S 191 ° 0 min 0,000 mm 0,0 UV-I 51 W/m² -0,7 °C 9,2 °C 1,6 km/h (1 Bft)
04.03.2017 08:49 9,3 °C 9,3 °C 49 % 996,7 hPa 0,0 mm 1,3 km/h (1 Bft) S 191 ° 0 min 0,000 mm 0,0 UV-I 53 W/m² -0,9 °C 9,3 °C 3,2 km/h (1 Bft)
04.03.2017 08:50 9,5 °C 9,5 °C 48 % 996,7 hPa 0,0 mm 2,3 km/h (1 Bft) S 191 ° 0 min 0,000 mm 0,0 UV-I 54 W/m² -1,0 °C 9,5 °C 3,2 km/h (1 Bft)
04.03.2017 08:51 9,7 °C 9,7 °C 47 % 996,6 hPa 0,0 mm 2,3 km/h (1 Bft) S 191 ° 0 min 0,000 mm 0,7 UV-I 60 W/m² -1,1 °C 9,7 °C 3,2 km/h (1 Bft)
04.03.2017 08:52 9,8 °C 9,8 °C 47 % 996,6 hPa 0,0 mm 2,6 km/h (1 Bft) S 190 ° 0 min 0,000 mm 0,8 UV-I 62 W/m² -1,0 °C 9,8 °C 4,8 km/h (1 Bft)
04.03.2017 08:53 10,0 °C 10,0 °C 47 % 996,6 hPa 0,0 mm 2,4 km/h (1 Bft) S 191 ° 0 min 0,000 mm 0,8 UV-I 65 W/m² -0,8 °C 10,0 °C 4,8 km/h (1 Bft)
04.03.2017 08:54 10,1 °C 10,1 °C 47 % 996,6 hPa 0,0 mm 2,1 km/h (1 Bft) S 190 ° 0 min 0,000 mm 0,7 UV-I 69 W/m² -0,7 °C 10,1 °C 3,2 km/h (1 Bft)
04.03.2017 08:55 10,1 °C 10,2 °C 46 % 996,6 hPa 0,0 mm 2,3 km/h (1 Bft) S 190 ° 0 min 0,000 mm 0,8 UV-I 72 W/m² -1,0 °C 10,1 °C 4,8 km/h (1 Bft)
04.03.2017 08:56 10,2 °C 10,2 °C 47 % 996,6 hPa 0,0 mm 1,9 km/h (1 Bft) S 190 ° 0 min 0,000 mm 0,8 UV-I 76 W/m² -0,6 °C 10,2 °C 3,2 km/h (1 Bft)
04.03.2017 08:57 10,2 °C 10,2 °C 46 % 996,6 hPa 0,0 mm 3,0 km/h (1 Bft) S 173 ° 0 min 0,000 mm 0,8 UV-I 76 W/m² -0,9 °C 10,2 °C 4,8 km/h (1 Bft)
04.03.2017 08:58 10,2 °C 10,2 °C 47 % 996,5 hPa 0,0 mm 2,8 km/h (1 Bft) SO 138 ° 0 min 0,000 mm 0,8 UV-I 77 W/m² -0,6 °C 10,2 °C 4,8 km/h (1 Bft)
04.03.2017 08:59 10,0 °C 10,2 °C 48 % 996,5 hPa 0,0 mm 2,7 km/h (1 Bft) O-SO 107 ° 0 min 0,000 mm 0,8 UV-I 79 W/m² -0,5 °C 10,0 °C 4,8 km/h (1 Bft)
04.03.2017 09:00 9,9 °C 10,0 °C 48 % 996,5 hPa 0,0 mm 1,1 km/h (1 Bft) O-SO 107 ° 0 min 0,000 mm 0,8 UV-I 79 W/m² -0,6 °C 9,9 °C 3,2 km/h (1 Bft)
04.03.2017 09:01 9,9 °C 9,9 °C 47 % 996,5 hPa 0,0 mm 1,7 km/h (1 Bft) O-SO 107 ° 0 min 0,051 mm 0,8 UV-I 81 W/m² -0,9 °C 9,9 °C 3,2 km/h (1 Bft)
04.03.2017 09:02 9,9 °C 9,9 °C 48 % 996,4 hPa 0,0 mm 2,1 km/h (1 Bft) O-SO 107 ° 0 min 0,000 mm 0,8 UV-I 86 W/m² -0,6 °C 9,9 °C 3,2 km/h (1 Bft)
04.03.2017 09:03 10,0 °C 10,0 °C 47 % 996,5 hPa 0,0 mm 1,3 km/h (1 Bft) O-SO 107 ° 0 min 0,000 mm 0,8 UV-I 88 W/m² -0,8 °C 10,0 °C 3,2 km/h (1 Bft)
04.03.2017 09:04 10,0 °C 10,0 °C 48 % 996,4 hPa 0,0 mm 1,4 km/h (1 Bft) O-SO 107 ° 0 min 0,000 mm 0,8 UV-I 91 W/m² -0,5 °C 10,0 °C 1,6 km/h (1 Bft)
04.03.2017 09:05 10,2 °C 10,2 °C 47 % 996,3 hPa 0,0 mm 3,7 km/h (1 Bft) O-SO 114 ° 0 min 0,000 mm 0,8 UV-I 95 W/m² -0,6 °C 10,2 °C 6,4 km/h (2 Bft)
04.03.2017 09:06 10,3 °C 10,3 °C 47 % 996,3 hPa 0,0 mm 4,2 km/h (1 Bft) O-SO 113 ° 0 min 0,000 mm 0,8 UV-I 97 W/m² -0,5 °C 10,3 °C 4,8 km/h (1 Bft)
04.03.2017 09:07 10,4 °C 10,4 °C 46 % 996,3 hPa 0,0 mm 4,5 km/h (1 Bft) O 101 ° 0 min 0,000 mm 0,9 UV-I 98 W/m² -0,7 °C 10,4 °C 4,8 km/h (1 Bft)
04.03.2017 09:08 10,6 °C 10,6 °C 47 % 996,3 hPa 0,0 mm 1,7 km/h (1 Bft) O 101 ° 0 min 0,000 mm 0,9 UV-I 104 W/m² -0,2 °C 10,6 °C 3,2 km/h (1 Bft)
04.03.2017 09:09 10,5 °C 10,6 °C 48 % 996,3 hPa 0,0 mm 2,3 km/h (1 Bft) O 101 ° 0 min 0,000 mm 0,9 UV-I 105 W/m² -0,0 °C 10,5 °C 3,2 km/h (1 Bft)
04.03.2017 09:10 10,6 °C 10,6 °C 46 % 996,3 hPa 0,0 mm 1,7 km/h (1 Bft) O 101 ° 0 min 0,000 mm 0,9 UV-I 105 W/m² -0,5 °C 10,6 °C 3,2 km/h (1 Bft)
04.03.2017 09:11 10,6 °C 10,6 °C 46 % 996,2 hPa 0,0 mm 2,3 km/h (1 Bft) O 101 ° 0 min 0,000 mm 0,9 UV-I 105 W/m² -0,5 °C 10,6 °C 3,2 km/h (1 Bft)
04.03.2017 09:12 10,6 °C 10,7 °C 46 % 996,3 hPa 0,0 mm 2,3 km/h (1 Bft) O 101 ° 0 min 0,000 mm 0,9 UV-I 104 W/m² -0,5 °C 10,6 °C 3,2 km/h (1 Bft)
04.03.2017 09:13 10,7 °C 10,7 °C 46 % 996,3 hPa 0,0 mm 2,5 km/h (1 Bft) O 101 ° 0 min 0,000 mm 0,9 UV-I 102 W/m² -0,4 °C 10,7 °C 3,2 km/h (1 Bft)
04.03.2017 09:14 10,7 °C 10,8 °C 45 % 996,3 hPa 0,0 mm 3,2 km/h (1 Bft) O 101 ° 0 min 0,000 mm 0,9 UV-I 98 W/m² -0,7 °C 10,7 °C 4,8 km/h (1 Bft)
04.03.2017 09:15 10,8 °C 10,8 °C 46 % 996,2 hPa 0,0 mm 0,8 km/h (0 Bft) O-SO 111 ° 0 min 0,000 mm 0,9 UV-I 97 W/m² -0,3 °C 10,8 °C 3,2 km/h (1 Bft)
04.03.2017 09:16 10,7 °C 10,8 °C 46 % 996,2 hPa 0,0 mm 3,2 km/h (1 Bft) SO 126 ° 0 min 0,000 mm 0,9 UV-I 95 W/m² -0,4 °C 10,7 °C 4,8 km/h (1 Bft)
04.03.2017 09:17 10,7 °C 10,7 °C 46 % 996,3 hPa 0,0 mm 2,8 km/h (1 Bft) SO 138 ° 0 min 0,000 mm 0,9 UV-I 93 W/m² -0,4 °C 10,7 °C 8,0 km/h (2 Bft)
04.03.2017 09:18 10,6 °C 10,7 °C 47 % 996,2 hPa 0,0 mm 3,8 km/h (1 Bft) O-SO 107 ° 0 min 0,000 mm 0,9 UV-I 91 W/m² -0,2 °C 10,6 °C 4,8 km/h (1 Bft)
04.03.2017 09:19 10,5 °C 10,6 °C 47 % 996,2 hPa 0,0 mm 2,7 km/h (1 Bft) O-SO 106 ° 0 min 0,000 mm 0,9 UV-I 91 W/m² -0,3 °C 10,5 °C 4,8 km/h (1 Bft)
04.03.2017 09:20 10,4 °C 10,5 °C 48 % 996,1 hPa 0,0 mm 3,0 km/h (1 Bft) O-SO 106 ° 0 min 0,000 mm 0,9 UV-I 91 W/m² -0,1 °C 10,4 °C 4,8 km/h (1 Bft)
04.03.2017 09:21 10,4 °C 10,4 °C 48 % 996,1 hPa 0,0 mm 1,5 km/h (1 Bft) O-SO 107 ° 0 min 0,000 mm 0,9 UV-I 91 W/m² -0,1 °C 10,4 °C 3,2 km/h (1 Bft)
04.03.2017 09:22 10,4 °C 10,4 °C 49 % 996,1 hPa 0,0 mm 3,1 km/h (1 Bft) O-SO 107 ° 0 min 0,000 mm 0,9 UV-I 93 W/m² 0,2 °C 10,4 °C 3,2 km/h (1 Bft)
04.03.2017 09:23 10,5 °C 10,5 °C 48 % 996,1 hPa 0,0 mm 1,4 km/h (1 Bft) O-SO 107 ° 0 min 0,000 mm 0,9 UV-I 95 W/m² -0,0 °C 10,5 °C 3,2 km/h (1 Bft)
04.03.2017 09:24 10,5 °C 10,5 °C 49 % 996,0 hPa 0,0 mm 1,0 km/h (0 Bft) O-SO 107 ° 0 min 0,000 mm 0,9 UV-I 97 W/m² 0,2 °C 10,5 °C 3,2 km/h (1 Bft)
04.03.2017 09:25 10,4 °C 10,5 °C 48 % 996,0 hPa 0,0 mm 2,9 km/h (1 Bft) O-SO 107 ° 0 min 0,000 mm 1,0 UV-I 100 W/m² -0,1 °C 10,4 °C 4,8 km/h (1 Bft)
04.03.2017 09:26 10,4 °C 10,4 °C 49 % 996,0 hPa 0,0 mm 5,2 km/h (1 Bft) O-SO 117 ° 0 min 0,000 mm 1,0 UV-I 104 W/m² 0,2 °C 10,4 °C 9,7 km/h (2 Bft)
04.03.2017 09:27 10,3 °C 10,4 °C 48 % 995,9 hPa 0,0 mm 4,2 km/h (1 Bft) O 84 ° 0 min 0,000 mm 1,0 UV-I 105 W/m² -0,2 °C 10,3 °C 6,4 km/h (2 Bft)
04.03.2017 09:28 10,3 °C 10,3 °C 49 % 995,8 hPa 0,0 mm 3,4 km/h (1 Bft) O 84 ° 0 min 0,000 mm 1,0 UV-I 105 W/m² 0,1 °C 10,3 °C 6,4 km/h (2 Bft)
04.03.2017 09:29 10,2 °C 10,3 °C 51 % 995,7 hPa 0,0 mm 5,8 km/h (2 Bft) O 82 ° 0 min 0,000 mm 1,1 UV-I 107 W/m² 0,5 °C 10,2 °C 9,7 km/h (2 Bft)
04.03.2017 09:30 10,0 °C 10,2 °C 51 % 995,7 hPa 0,0 mm 2,7 km/h (1 Bft) O 82 ° 0 min 0,000 mm 1,1 UV-I 109 W/m² 0,3 °C 10,0 °C 4,8 km/h (1 Bft)
04.03.2017 09:31 9,9 °C 10,0 °C 52 % 995,7 hPa 0,0 mm 5,0 km/h (1 Bft) O 93 ° 0 min 0,000 mm 1,1 UV-I 116 W/m² 0,5 °C 9,6 °C 6,4 km/h (2 Bft)
04.03.2017 09:32 10,0 °C 10,0 °C 52 % 995,7 hPa 0,0 mm 4,0 km/h (1 Bft) O 93 ° 0 min 0,000 mm 1,1 UV-I 121 W/m² 0,6 °C 10,0 °C 6,4 km/h (2 Bft)
04.03.2017 09:33 10,0 °C 10,0 °C 52 % 995,6 hPa 0,0 mm 4,9 km/h (1 Bft) O-NO 75 ° 0 min 0,000 mm 1,2 UV-I 127 W/m² 0,6 °C 9,8 °C 6,4 km/h (2 Bft)
04.03.2017 09:34 9,8 °C 10,0 °C 54 % 995,6 hPa 0,0 mm 4,2 km/h (1 Bft) O-NO 72 ° 0 min 0,000 mm 1,2 UV-I 132 W/m² 0,9 °C 9,8 °C 6,4 km/h (2 Bft)
04.03.2017 09:35 9,8 °C 9,9 °C 53 % 995,6 hPa 0,0 mm 2,7 km/h (1 Bft) O-NO 72 ° 0 min 0,000 mm 1,3 UV-I 134 W/m² 0,7 °C 9,8 °C 3,2 km/h (1 Bft)
04.03.2017 09:36 9,8 °C 9,8 °C 54 % 995,6 hPa 0,0 mm 2,0 km/h (1 Bft) O-NO 72 ° 0 min 0,000 mm 1,3 UV-I 134 W/m² 0,9 °C 9,8 °C 3,2 km/h (1 Bft)
04.03.2017 09:37 9,9 °C 9,9 °C 51 % 995,7 hPa 0,0 mm 1,5 km/h (1 Bft) O-NO 72 ° 0 min 0,000 mm 1,3 UV-I 151 W/m² 0,2 °C 9,9 °C 3,2 km/h (1 Bft)
04.03.2017 09:38 10,2 °C 10,2 °C 50 % 995,7 hPa 0,0 mm 2,1 km/h (1 Bft) O-NO 72 ° 0 min 0,000 mm 1,3 UV-I 185 W/m² 0,3 °C 10,2 °C 3,2 km/h (1 Bft)
04.03.2017 09:39 10,4 °C 10,4 °C 50 % 995,7 hPa 0,0 mm 3,0 km/h (1 Bft) O-NO 76 ° 1 min 0,000 mm 1,4 UV-I 207 W/m² 0,4 °C 10,4 °C 4,8 km/h (1 Bft)
04.03.2017 09:40 10,6 °C 10,6 °C 49 % 995,7 hPa 0,0 mm 1,1 km/h (1 Bft) O-NO 76 ° 1 min 0,000 mm 1,6 UV-I 255 W/m² 0,3 °C 10,6 °C 3,2 km/h (1 Bft)
04.03.2017 09:41 10,7 °C 10,7 °C 48 % 995,7 hPa 0,0 mm 0,6 km/h (0 Bft) O-NO 76 ° 1 min 0,000 mm 1,5 UV-I 214 W/m² 0,1 °C 10,7 °C 1,6 km/h (1 Bft)
04.03.2017 09:42 10,7 °C 10,7 °C 51 % 995,7 hPa 0,0 mm 0,5 km/h (0 Bft) O-NO 76 ° 1 min 0,000 mm 1,4 UV-I 227 W/m² 1,0 °C 10,7 °C 1,6 km/h (1 Bft)
04.03.2017 09:43 10,7 °C 10,7 °C 52 % 995,7 hPa 0,0 mm 3,2 km/h (1 Bft) O 94 ° 1 min 0,000 mm 1,4 UV-I 200 W/m² 1,3 °C 10,7 °C 4,8 km/h (1 Bft)
04.03.2017 09:44 10,6 °C 10,7 °C 53 % 995,6 hPa 0,0 mm 7,1 km/h (2 Bft) O-NO 76 ° 0 min 0,000 mm 1,4 UV-I 165 W/m² 1,4 °C 10,6 °C 11,3 km/h (2 Bft)
04.03.2017 09:45 10,8 °C 10,8 °C 51 % 995,6 hPa 0,0 mm 3,0 km/h (1 Bft) O-NO 76 ° 0 min 0,000 mm 1,2 UV-I 160 W/m² 1,1 °C 10,8 °C 6,4 km/h (2 Bft)
04.03.2017 09:46 10,9 °C 10,9 °C 49 % 995,5 hPa 0,0 mm 8,8 km/h (2 Bft) O-NO 61 ° 0 min 0,000 mm 1,2 UV-I 163 W/m² 0,6 °C 10,9 °C 12,9 km/h (3 Bft)
04.03.2017 09:47 10,9 °C 10,9 °C 50 % 995,5 hPa 0,0 mm 5,3 km/h (1 Bft) O-NO 60 ° 0 min 0,000 mm 1,2 UV-I 141 W/m² 0,9 °C 10,9 °C 6,4 km/h (2 Bft)
04.03.2017 09:48 10,9 °C 10,9 °C 49 % 995,4 hPa 0,0 mm 4,8 km/h (1 Bft) O-NO 76 ° 0 min 0,000 mm 1,3 UV-I 137 W/m² 0,6 °C 10,9 °C 6,4 km/h (2 Bft)
04.03.2017 09:49 11,2 °C 11,2 °C 46 % 995,4 hPa 0,0 mm 3,1 km/h (1 Bft) O-NO 73 ° 1 min 0,000 mm 1,4 UV-I 244 W/m² 0,0 °C 11,2 °C 4,8 km/h (1 Bft)
04.03.2017 09:50 11,3 °C 11,3 °C 49 % 995,4 hPa 0,0 mm 4,3 km/h (1 Bft) O-NO 58 ° 1 min 0,000 mm 1,5 UV-I 265 W/m² 1,0 °C 11,3 °C 4,8 km/h (1 Bft)
04.03.2017 09:51 11,3 °C 11,3 °C 49 % 995,3 hPa 0,0 mm 5,2 km/h (1 Bft) NO 44 ° 1 min 0,000 mm 1,5 UV-I 272 W/m² 1,0 °C 11,3 °C 6,4 km/h (2 Bft)
04.03.2017 09:52 11,4 °C 11,4 °C 49 % 995,3 hPa 0,0 mm 5,9 km/h (2 Bft) NO 46 ° 1 min 0,000 mm 1,5 UV-I 278 W/m² 1,1 °C 11,4 °C 9,7 km/h (2 Bft)
04.03.2017 09:53 11,7 °C 11,7 °C 47 % 995,3 hPa 0,0 mm 5,3 km/h (1 Bft) NO 49 ° 1 min 0,000 mm 1,6 UV-I 288 W/m² 0,8 °C 11,7 °C 8,0 km/h (2 Bft)
04.03.2017 09:54 11,8 °C 11,8 °C 46 % 995,2 hPa 0,0 mm 6,8 km/h (2 Bft) O-NO 61 ° 1 min 0,000 mm 1,6 UV-I 272 W/m² 0,6 °C 11,8 °C 9,7 km/h (2 Bft)
04.03.2017 09:55 12,0 °C 12,0 °C 47 % 995,2 hPa 0,0 mm 6,2 km/h (2 Bft) N-NO 16 ° 1 min 0,000 mm 1,6 UV-I 248 W/m² 1,0 °C 12,0 °C 9,7 km/h (2 Bft)
04.03.2017 09:56 12,1 °C 12,1 °C 46 % 995,2 hPa 0,0 mm 9,0 km/h (2 Bft) NO 49 ° 1 min 0,000 mm 1,6 UV-I 244 W/m² 0,8 °C 12,1 °C 11,3 km/h (2 Bft)
04.03.2017 09:57 12,2 °C 12,2 °C 46 % 995,3 hPa 0,0 mm 8,7 km/h (2 Bft) O-NO 68 ° 1 min 0,000 mm 1,5 UV-I 206 W/m² 0,9 °C 12,2 °C 11,3 km/h (2 Bft)
04.03.2017 09:58 12,1 °C 12,2 °C 47 % 995,3 hPa 0,0 mm 7,6 km/h (2 Bft) O-NO 65 ° 1 min 0,000 mm 1,5 UV-I 200 W/m² 1,1 °C 12,1 °C 9,7 km/h (2 Bft)
04.03.2017 09:59 11,9 °C 12,1 °C 45 % 995,2 hPa 0,0 mm 5,3 km/h (1 Bft) NO 48 ° 1 min 0,000 mm 1,5 UV-I 211 W/m² 0,4 °C 11,9 °C 8,0 km/h (2 Bft)
04.03.2017 10:00 11,9 °C 11,9 °C 46 % 995,2 hPa 0,0 mm 5,2 km/h (1 Bft) O-NO 61 ° 1 min 0,000 mm 1,6 UV-I 236 W/m² 0,7 °C 11,9 °C 8,0 km/h (2 Bft)
04.03.2017 10:01 11,9 °C 11,9 °C 46 % 995,2 hPa 0,0 mm 3,9 km/h (1 Bft) NO 46 ° 1 min 0,102 mm 1,6 UV-I 278 W/m² 0,7 °C 11,9 °C 4,8 km/h (1 Bft)
04.03.2017 10:02 11,9 °C 11,9 °C 45 % 995,1 hPa 0,0 mm 4,8 km/h (1 Bft) NO 44 ° 1 min 0,000 mm 1,7 UV-I 258 W/m² 0,4 °C 11,9 °C 8,0 km/h (2 Bft)
04.03.2017 10:03 12,0 °C 12,0 °C 44 % 995,1 hPa 0,0 mm 5,7 km/h (1 Bft) NO 49 ° 1 min 0,000 mm 1,7 UV-I 244 W/m² 0,1 °C 12,0 °C 6,4 km/h (2 Bft)
04.03.2017 10:04 12,1 °C 12,1 °C 46 % 995,0 hPa 0,0 mm 3,7 km/h (1 Bft) NO 49 ° 1 min 0,000 mm 1,6 UV-I 211 W/m² 0,8 °C 12,1 °C 4,8 km/h (1 Bft)
04.03.2017 10:05 12,0 °C 12,1 °C 46 % 995,0 hPa 0,0 mm 2,3 km/h (1 Bft) NO 49 ° 0 min 0,000 mm 1,5 UV-I 185 W/m² 0,7 °C 12,0 °C 3,2 km/h (1 Bft)
04.03.2017 10:06 12,0 °C 12,0 °C 46 % 994,9 hPa 0,0 mm 1,7 km/h (1 Bft) NO 49 ° 0 min 0,000 mm 1,5 UV-I 183 W/m² 0,7 °C 12,0 °C 3,2 km/h (1 Bft)
04.03.2017 10:07 11,9 °C 12,0 °C 47 % 994,9 hPa 0,0 mm 1,7 km/h (1 Bft) NO 49 ° 0 min 0,000 mm 1,5 UV-I 188 W/m² 1,0 °C 11,9 °C 3,2 km/h (1 Bft)
04.03.2017 10:08 12,1 °C 12,1 °C 46 % 994,9 hPa 0,0 mm 1,3 km/h (1 Bft) NO 49 ° 0 min 0,000 mm 1,5 UV-I 195 W/m² 0,8 °C 12,1 °C 3,2 km/h (1 Bft)
04.03.2017 10:09 12,1 °C 12,1 °C 46 % 994,8 hPa 0,0 mm 2,4 km/h (1 Bft) NO 49 ° 1 min 0,000 mm 1,6 UV-I 223 W/m² 0,8 °C 12,1 °C 3,2 km/h (1 Bft)
04.03.2017 10:10 12,1 °C 12,1 °C 44 % 994,8 hPa 0,0 mm 2,7 km/h (1 Bft) O-NO 60 ° 1 min 0,000 mm 1,7 UV-I 244 W/m² 0,2 °C 12,1 °C 4,8 km/h (1 Bft)
04.03.2017 10:11 12,1 °C 12,1 °C 46 % 994,7 hPa 0,0 mm 4,7 km/h (1 Bft) NO 47 ° 1 min 0,000 mm 1,7 UV-I 255 W/m² 0,8 °C 12,1 °C 6,4 km/h (2 Bft)
04.03.2017 10:12 12,2 °C 12,2 °C 43 % 994,6 hPa 0,0 mm 5,8 km/h (2 Bft) O-NO 75 ° 1 min 0,000 mm 1,8 UV-I 272 W/m² -0,0 °C 12,2 °C 9,7 km/h (2 Bft)
04.03.2017 10:13 12,4 °C 12,4 °C 46 % 994,6 hPa 0,0 mm 5,2 km/h (1 Bft) O-NO 77 ° 1 min 0,000 mm 1,9 UV-I 360 W/m² 1,1 °C 12,4 °C 8,0 km/h (2 Bft)
04.03.2017 10:14 12,5 °C 12,5 °C 42 % 994,5 hPa 0,0 mm 4,3 km/h (1 Bft) N-NO 13 ° 1 min 0,000 mm 2,1 UV-I 401 W/m² -0,1 °C 12,5 °C 12,9 km/h (3 Bft)
04.03.2017 10:15 12,6 °C 12,6 °C 45 % 994,5 hPa 0,0 mm 6,8 km/h (2 Bft) O-NO 78 ° 1 min 0,000 mm 2,2 UV-I 443 W/m² 1,0 °C 12,6 °C 14,5 km/h (3 Bft)
04.03.2017 10:16 12,8 °C 12,8 °C 42 % 994,5 hPa 0,0 mm 9,4 km/h (2 Bft) NO 53 ° 1 min 0,000 mm 2,2 UV-I 454 W/m² 0,2 °C 12,8 °C 14,5 km/h (3 Bft)
04.03.2017 10:17 12,8 °C 12,8 °C 42 % 994,6 hPa 0,0 mm 6,7 km/h (2 Bft) NO 49 ° 1 min 0,000 mm 2,2 UV-I 462 W/m² 0,2 °C 12,8 °C 11,3 km/h (2 Bft)
04.03.2017 10:18 12,9 °C 12,9 °C 44 % 994,6 hPa 0,0 mm 6,8 km/h (2 Bft) O-NO 78 ° 1 min 0,000 mm 2,3 UV-I 494 W/m² 1,0 °C 12,9 °C 9,7 km/h (2 Bft)
04.03.2017 10:19 13,1 °C 13,1 °C 39 % 994,6 hPa 0,0 mm 4,6 km/h (1 Bft) O 83 ° 1 min 0,000 mm 2,3 UV-I 445 W/m² -0,5 °C 13,1 °C 11,3 km/h (2 Bft)
04.03.2017 10:20 13,2 °C 13,2 °C 38 % 994,5 hPa 0,0 mm 10,0 km/h (2 Bft) O-NO 66 ° 1 min 0,000 mm 2,2 UV-I 406 W/m² -0,8 °C 13,2 °C 16,1 km/h (3 Bft)
04.03.2017 10:21 13,3 °C 13,3 °C 40 % 994,5 hPa 0,0 mm 7,4 km/h (2 Bft) O-NO 67 ° 1 min 0,000 mm 2,2 UV-I 406 W/m² -0,0 °C 13,3 °C 12,9 km/h (3 Bft)
04.03.2017 10:22 13,4 °C 13,4 °C 39 % 994,4 hPa 0,0 mm 9,3 km/h (2 Bft) NO 53 ° 1 min 0,000 mm 2,2 UV-I 381 W/m² -0,3 °C 13,4 °C 12,9 km/h (3 Bft)
04.03.2017 10:23 13,4 °C 13,4 °C 35 % 994,4 hPa 0,0 mm 4,6 km/h (1 Bft) N-NW 333 ° 1 min 0,000 mm 2,2 UV-I 394 W/m² -1,7 °C 13,4 °C 6,4 km/h (2 Bft)
04.03.2017 10:24 13,4 °C 13,4 °C 35 % 994,2 hPa 0,0 mm 2,1 km/h (1 Bft) N-NW 331 ° 1 min 0,000 mm 2,2 UV-I 417 W/m² -1,7 °C 13,4 °C 4,8 km/h (1 Bft)
04.03.2017 10:25 13,4 °C 13,5 °C 37 % 994,2 hPa 0,0 mm 3,0 km/h (1 Bft) O-NO 65 ° 1 min 0,000 mm 2,2 UV-I 397 W/m² -1,0 °C 13,4 °C 6,4 km/h (2 Bft)
04.03.2017 10:26 13,4 °C 13,4 °C 38 % 994,2 hPa 0,0 mm 7,9 km/h (2 Bft) O-NO 73 ° 1 min 0,000 mm 2,2 UV-I 383 W/m² -0,6 °C 13,4 °C 11,3 km/h (2 Bft)
04.03.2017 10:27 13,4 °C 13,4 °C 37 % 994,2 hPa 0,0 mm 5,6 km/h (1 Bft) O 82 ° 1 min 0,000 mm 2,4 UV-I 452 W/m² -1,0 °C 13,4 °C 8,0 km/h (2 Bft)
04.03.2017 10:28 13,4 °C 13,4 °C 39 % 994,2 hPa 0,0 mm 5,2 km/h (1 Bft) NO 47 ° 1 min 0,000 mm 2,4 UV-I 480 W/m² -0,3 °C 13,4 °C 6,4 km/h (2 Bft)
04.03.2017 10:29 13,5 °C 13,5 °C 39 % 994,2 hPa 0,0 mm 9,6 km/h (2 Bft) NO 54 ° 1 min 0,000 mm 2,3 UV-I 420 W/m² -0,2 °C 13,5 °C 16,1 km/h (3 Bft)
04.03.2017 10:30 13,6 °C 13,6 °C 38 % 994,1 hPa 0,0 mm 10,5 km/h (2 Bft) O-NO 63 ° 1 min 0,000 mm 2,2 UV-I 348 W/m² -0,4 °C 13,6 °C 16,1 km/h (3 Bft)
04.03.2017 10:31 13,7 °C 13,7 °C 39 % 994,1 hPa 0,0 mm 10,9 km/h (2 Bft) NO 53 ° 1 min 0,000 mm 2,1 UV-I 343 W/m² 0,0 °C 13,7 °C 16,1 km/h (3 Bft)
04.03.2017 10:32 13,7 °C 13,7 °C 37 % 994,1 hPa 0,0 mm 9,1 km/h (2 Bft) N 5 ° 1 min 0,000 mm 2,2 UV-I 353 W/m² -0,7 °C 13,7 °C 16,1 km/h (3 Bft)
04.03.2017 10:33 13,7 °C 13,7 °C 36 % 994,0 hPa 0,0 mm 7,8 km/h (2 Bft) O-NO 63 ° 1 min 0,000 mm 2,3 UV-I 378 W/m² -1,1 °C 13,7 °C 12,9 km/h (3 Bft)
04.03.2017 10:34 13,7 °C 13,7 °C 36 % 994,0 hPa 0,0 mm 7,9 km/h (2 Bft) O-NO 75 ° 1 min 0,000 mm 2,2 UV-I 381 W/m² -1,1 °C 13,7 °C 14,5 km/h (3 Bft)
04.03.2017 10:35 13,7 °C 13,7 °C 36 % 994,0 hPa 0,0 mm 9,1 km/h (2 Bft) O-NO 67 ° 1 min 0,000 mm 2,1 UV-I 348 W/m² -1,1 °C 13,7 °C 12,9 km/h (3 Bft)
04.03.2017 10:36 13,7 °C 13,7 °C 36 % 993,9 hPa 0,0 mm 8,2 km/h (2 Bft) O-NO 67 ° 1 min 0,000 mm 2,0 UV-I 288 W/m² -1,1 °C 13,7 °C 11,3 km/h (2 Bft)
04.03.2017 10:37 13,7 °C 13,7 °C 35 % 993,8 hPa 0,0 mm 5,3 km/h (1 Bft) O-NO 74 ° 1 min 0,000 mm 1,9 UV-I 279 W/m² -1,5 °C 13,7 °C 9,7 km/h (2 Bft)
04.03.2017 10:38 13,7 °C 13,7 °C 36 % 993,9 hPa 0,0 mm 4,9 km/h (1 Bft) O-NO 73 ° 1 min 0,000 mm 1,9 UV-I 276 W/m² -1,1 °C 13,7 °C 11,3 km/h (2 Bft)
04.03.2017 10:39 13,7 °C 13,7 °C 36 % 993,9 hPa 0,0 mm 6,2 km/h (2 Bft) O-NO 71 ° 1 min 0,000 mm 1,9 UV-I 278 W/m² -1,1 °C 13,7 °C 8,0 km/h (2 Bft)
04.03.2017 10:40 13,7 °C 13,7 °C 36 % 993,9 hPa 0,0 mm 5,1 km/h (1 Bft) O-NO 57 ° 1 min 0,000 mm 1,9 UV-I 276 W/m² -1,1 °C 13,7 °C 8,0 km/h (2 Bft)
04.03.2017 10:41 13,8 °C 13,8 °C 37 % 993,9 hPa 0,0 mm 3,0 km/h (1 Bft) O 84 ° 1 min 0,000 mm 1,9 UV-I 278 W/m² -0,6 °C 13,8 °C 4,8 km/h (1 Bft)
04.03.2017 10:42 13,8 °C 13,8 °C 36 % 993,8 hPa 0,0 mm 5,1 km/h (1 Bft) N-NO 32 ° 1 min 0,000 mm 1,9 UV-I 285 W/m² -1,0 °C 13,8 °C 6,4 km/h (2 Bft)
04.03.2017 10:43 13,8 °C 13,8 °C 35 % 993,8 hPa 0,0 mm 3,0 km/h (1 Bft) O 90 ° 1 min 0,000 mm 1,9 UV-I 297 W/m² -1,4 °C 13,8 °C 4,8 km/h (1 Bft)
04.03.2017 10:44 13,8 °C 13,8 °C 36 % 993,8 hPa 0,0 mm 2,7 km/h (1 Bft) O-NO 57 ° 1 min 0,000 mm 1,9 UV-I 294 W/m² -1,0 °C 13,8 °C 4,8 km/h (1 Bft)
04.03.2017 10:45 13,8 °C 13,8 °C 35 % 993,8 hPa 0,0 mm 6,4 km/h (2 Bft) O-NO 59 ° 1 min 0,000 mm 1,9 UV-I 301 W/m² -1,4 °C 13,8 °C 12,9 km/h (3 Bft)
04.03.2017 10:46 13,9 °C 13,9 °C 35 % 993,8 hPa 0,0 mm 4,9 km/h (1 Bft) N-NO 20 ° 1 min 0,000 mm 1,9 UV-I 302 W/m² -1,3 °C 13,9 °C 6,4 km/h (2 Bft)
04.03.2017 10:47 14,0 °C 14,0 °C 37 % 993,8 hPa 0,0 mm 1,8 km/h (1 Bft) N-NO 20 ° 1 min 0,000 mm 1,9 UV-I 297 W/m² -0,4 °C 14,0 °C 3,2 km/h (1 Bft)
04.03.2017 10:48 14,0 °C 14,0 °C 36 % 993,8 hPa 0,0 mm 4,5 km/h (1 Bft) N-NO 29 ° 1 min 0,000 mm 1,9 UV-I 308 W/m² -0,8 °C 14,0 °C 8,0 km/h (2 Bft)
04.03.2017 10:49 14,1 °C 14,1 °C 36 % 993,8 hPa 0,0 mm 5,1 km/h (1 Bft) O 82 ° 1 min 0,000 mm 2,0 UV-I 318 W/m² -0,7 °C 14,1 °C 6,4 km/h (2 Bft)
04.03.2017 10:50 14,1 °C 14,1 °C 36 % 993,8 hPa 0,0 mm 6,2 km/h (2 Bft) NO 34 ° 1 min 0,000 mm 2,0 UV-I 325 W/m² -0,7 °C 14,1 °C 8,0 km/h (2 Bft)
04.03.2017 10:51 14,1 °C 14,1 °C 35 % 993,9 hPa 0,0 mm 5,4 km/h (1 Bft) NO 38 ° 1 min 0,000 mm 2,0 UV-I 325 W/m² -1,1 °C 14,1 °C 8,0 km/h (2 Bft)
04.03.2017 10:52 14,1 °C 14,1 °C 40 % 993,9 hPa 0,0 mm 6,4 km/h (2 Bft) O 82 ° 1 min 0,000 mm 2,0 UV-I 345 W/m² 0,7 °C 14,1 °C 11,3 km/h (2 Bft)
04.03.2017 10:53 14,1 °C 14,2 °C 36 % 994,0 hPa 0,0 mm 2,3 km/h (1 Bft) O 96 ° 1 min 0,000 mm 2,1 UV-I 336 W/m² -0,7 °C 14,1 °C 3,2 km/h (1 Bft)
04.03.2017 10:54 14,1 °C 14,1 °C 38 % 994,0 hPa 0,0 mm 5,6 km/h (1 Bft) O-NO 69 ° 1 min 0,000 mm 2,0 UV-I 336 W/m² 0,0 °C 14,1 °C 8,0 km/h (2 Bft)
04.03.2017 10:55 14,1 °C 14,1 °C 34 % 994,0 hPa 0,0 mm 7,1 km/h (2 Bft) O-NO 62 ° 1 min 0,000 mm 2,0 UV-I 315 W/m² -1,5 °C 14,1 °C 11,3 km/h (2 Bft)
04.03.2017 10:56 14,1 °C 14,1 °C 35 % 994,0 hPa 0,0 mm 4,2 km/h (1 Bft) O-NO 76 ° 1 min 0,000 mm 2,0 UV-I 315 W/m² -1,1 °C 14,1 °C 6,4 km/h (2 Bft)
04.03.2017 10:57 14,1 °C 14,1 °C 34 % 994,0 hPa 0,0 mm 3,6 km/h (1 Bft) O-NO 65 ° 1 min 0,000 mm 2,0 UV-I 313 W/m² -1,5 °C 14,1 °C 4,8 km/h (1 Bft)
04.03.2017 10:58 14,1 °C 14,1 °C 35 % 994,0 hPa 0,0 mm 3,0 km/h (1 Bft) O-NO 65 ° 1 min 0,000 mm 2,0 UV-I 318 W/m² -1,1 °C 14,1 °C 4,8 km/h (1 Bft)
04.03.2017 10:59 14,1 °C 14,2 °C 34 % 994,0 hPa 0,0 mm 2,3 km/h (1 Bft) O-NO 65 ° 1 min 0,000 mm 2,0 UV-I 320 W/m² -1,5 °C 14,1 °C 4,8 km/h (1 Bft)
04.03.2017 11:00 14,1 °C 14,2 °C 35 % 994,0 hPa 0,0 mm 5,8 km/h (2 Bft) O-NO 67 ° 1 min 0,000 mm 2,0 UV-I 306 W/m² -1,1 °C 14,1 °C 9,7 km/h (2 Bft)
04.03.2017 11:01 14,1 °C 14,1 °C 37 % 994,0 hPa 0,0 mm 7,7 km/h (2 Bft) O 87 ° 1 min 0,203 mm 1,9 UV-I 299 W/m² -0,4 °C 14,1 °C 12,9 km/h (3 Bft)
04.03.2017 11:02 14,1 °C 14,1 °C 35 % 994,0 hPa 0,0 mm 7,5 km/h (2 Bft) N-NO 28 ° 1 min 0,000 mm 1,9 UV-I 295 W/m² -1,1 °C 14,1 °C 11,3 km/h (2 Bft)
04.03.2017 11:03 14,1 °C 14,2 °C 35 % 994,0 hPa 0,0 mm 4,7 km/h (1 Bft) NO 44 ° 1 min 0,000 mm 2,0 UV-I 306 W/m² -1,1 °C 14,1 °C 8,0 km/h (2 Bft)
04.03.2017 11:04 14,1 °C 14,2 °C 35 % 994,0 hPa 0,0 mm 4,1 km/h (1 Bft) NO 42 ° 1 min 0,000 mm 2,0 UV-I 306 W/m² -1,1 °C 14,1 °C 6,4 km/h (2 Bft)
04.03.2017 11:05 14,2 °C 14,2 °C 34 % 994,0 hPa 0,0 mm 5,4 km/h (1 Bft) N-NO 24 ° 1 min 0,000 mm 2,0 UV-I 327 W/m² -1,4 °C 14,2 °C 8,0 km/h (2 Bft)
04.03.2017 11:06 14,2 °C 14,2 °C 34 % 994,0 hPa 0,0 mm 5,2 km/h (1 Bft) NO 48 ° 1 min 0,000 mm 2,1 UV-I 327 W/m² -1,4 °C 14,2 °C 8,0 km/h (2 Bft)
04.03.2017 11:07 14,2 °C 14,2 °C 34 % 993,9 hPa 0,0 mm 2,3 km/h (1 Bft) NO 48 ° 1 min 0,000 mm 2,1 UV-I 327 W/m² -1,4 °C 14,2 °C 4,8 km/h (1 Bft)
04.03.2017 11:08 14,2 °C 14,2 °C 34 % 994,0 hPa 0,0 mm 3,8 km/h (1 Bft) NO 48 ° 1 min 0,000 mm 2,0 UV-I 323 W/m² -1,4 °C 14,2 °C 6,4 km/h (2 Bft)
04.03.2017 11:09 14,2 °C 14,2 °C 34 % 994,0 hPa 0,0 mm 3,9 km/h (1 Bft) NO 34 ° 1 min 0,000 mm 2,0 UV-I 320 W/m² -1,4 °C 14,2 °C 6,4 km/h (2 Bft)
04.03.2017 11:10 14,2 °C 14,2 °C 34 % 993,9 hPa 0,0 mm 2,0 km/h (1 Bft) NO 34 ° 1 min 0,000 mm 2,0 UV-I 313 W/m² -1,4 °C 14,2 °C 3,2 km/h (1 Bft)
04.03.2017 11:11 14,2 °C 14,2 °C 36 % 994,0 hPa 0,0 mm 2,8 km/h (1 Bft) NO 34 ° 1 min 0,000 mm 2,0 UV-I 329 W/m² -0,6 °C 14,2 °C 3,2 km/h (1 Bft)
04.03.2017 11:12 14,2 °C 14,3 °C 35 % 993,8 hPa 0,0 mm 3,2 km/h (1 Bft) NO 34 ° 1 min 0,000 mm 2,1 UV-I 345 W/m² -1,0 °C 14,2 °C 4,8 km/h (1 Bft)
04.03.2017 11:13 14,3 °C 14,3 °C 37 % 993,8 hPa 0,0 mm 3,8 km/h (1 Bft) NO 49 ° 1 min 0,000 mm 2,1 UV-I 345 W/m² -0,2 °C 14,3 °C 4,8 km/h (1 Bft)
04.03.2017 11:14 14,3 °C 14,3 °C 36 % 993,8 hPa 0,0 mm 3,4 km/h (1 Bft) O-NO 63 ° 1 min 0,000 mm 2,1 UV-I 339 W/m² -0,6 °C 14,3 °C 6,4 km/h (2 Bft)
04.03.2017 11:15 14,4 °C 14,4 °C 37 % 993,7 hPa 0,0 mm 5,2 km/h (1 Bft) O-NO 69 ° 1 min 0,000 mm 2,1 UV-I 345 W/m² -0,1 °C 14,4 °C 14,5 km/h (3 Bft)
04.03.2017 11:16 14,4 °C 14,4 °C 34 % 993,8 hPa 0,0 mm 7,2 km/h (2 Bft) N-NO 23 ° 1 min 0,000 mm 2,2 UV-I 373 W/m² -1,3 °C 14,4 °C 16,1 km/h (3 Bft)
04.03.2017 11:17 14,4 °C 14,4 °C 35 % 993,8 hPa 0,0 mm 11,1 km/h (2 Bft) O-NO 59 ° 1 min 0,000 mm 2,3 UV-I 424 W/m² -0,9 °C 14,4 °C 17,7 km/h (3 Bft)
04.03.2017 11:18 14,5 °C 14,5 °C 35 % 993,7 hPa 0,0 mm 12,3 km/h (3 Bft) O-NO 64 ° 1 min 0,000 mm 2,4 UV-I 457 W/m² -0,8 °C 14,5 °C 17,7 km/h (3 Bft)
04.03.2017 11:19 14,6 °C 14,6 °C 35 % 993,7 hPa 0,0 mm 7,9 km/h (2 Bft) O 82 ° 1 min 0,000 mm 2,5 UV-I 462 W/m² -0,7 °C 14,6 °C 11,3 km/h (2 Bft)
04.03.2017 11:20 14,7 °C 14,7 °C 36 % 993,7 hPa 0,0 mm 6,6 km/h (2 Bft) O-NO 72 ° 1 min 0,000 mm 2,4 UV-I 445 W/m² -0,2 °C 14,7 °C 9,7 km/h (2 Bft)
04.03.2017 11:21 14,7 °C 14,7 °C 34 % 993,7 hPa 0,0 mm 4,5 km/h (1 Bft) O-NO 58 ° 1 min 0,000 mm 2,3 UV-I 417 W/m² -1,0 °C 14,7 °C 8,0 km/h (2 Bft)
04.03.2017 11:22 14,6 °C 14,7 °C 34 % 993,7 hPa 0,0 mm 6,2 km/h (2 Bft) O-NO 59 ° 1 min 0,000 mm 2,3 UV-I 410 W/m² -1,1 °C 14,6 °C 8,0 km/h (2 Bft)
04.03.2017 11:23 14,6 °C 14,6 °C 35 % 993,7 hPa 0,0 mm 6,2 km/h (2 Bft) N-NO 32 ° 1 min 0,000 mm 2,2 UV-I 378 W/m² -0,7 °C 14,6 °C 8,0 km/h (2 Bft)
04.03.2017 11:24 14,6 °C 14,6 °C 35 % 993,7 hPa 0,0 mm 6,5 km/h (2 Bft) O 80 ° 1 min 0,000 mm 2,2 UV-I 366 W/m² -0,7 °C 14,6 °C 9,7 km/h (2 Bft)
04.03.2017 11:25 14,6 °C 14,6 °C 37 % 993,8 hPa 0,0 mm 6,7 km/h (2 Bft) NO 34 ° 1 min 0,000 mm 2,2 UV-I 353 W/m² 0,1 °C 14,6 °C 8,0 km/h (2 Bft)
04.03.2017 11:26 14,6 °C 14,6 °C 38 % 993,8 hPa 0,0 mm 5,8 km/h (2 Bft) O 80 ° 1 min 0,000 mm 2,2 UV-I 357 W/m² 0,4 °C 14,6 °C 9,7 km/h (2 Bft)
04.03.2017 11:27 14,6 °C 14,6 °C 36 % 993,8 hPa 0,0 mm 7,1 km/h (2 Bft) O-NO 78 ° 1 min 0,000 mm 2,2 UV-I 357 W/m² -0,3 °C 14,6 °C 11,3 km/h (2 Bft)
04.03.2017 11:28 14,5 °C 14,6 °C 36 % 993,7 hPa 0,0 mm 7,2 km/h (2 Bft) NO 49 ° 1 min 0,000 mm 2,1 UV-I 338 W/m² -0,4 °C 14,5 °C 11,3 km/h (2 Bft)
04.03.2017 11:29 14,4 °C 14,5 °C 37 % 993,8 hPa 0,0 mm 6,6 km/h (2 Bft) N-NO 31 ° 1 min 0,000 mm 2,1 UV-I 330 W/m² -0,1 °C 14,4 °C 11,3 km/h (2 Bft)
04.03.2017 11:30 14,4 °C 14,4 °C 36 % 993,7 hPa 0,0 mm 8,5 km/h (2 Bft) NO 38 ° 1 min 0,000 mm 2,1 UV-I 332 W/m² -0,5 °C 14,4 °C 12,9 km/h (3 Bft)
04.03.2017 11:31 14,4 °C 14,4 °C 36 % 993,6 hPa 0,0 mm 5,1 km/h (1 Bft) O-NO 59 ° 1 min 0,000 mm 2,1 UV-I 339 W/m² -0,5 °C 14,4 °C 9,7 km/h (2 Bft)
04.03.2017 11:32 14,4 °C 14,4 °C 37 % 993,6 hPa 0,0 mm 7,4 km/h (2 Bft) NO 51 ° 1 min 0,000 mm 2,1 UV-I 345 W/m² -0,1 °C 14,4 °C 12,9 km/h (3 Bft)
04.03.2017 11:33 14,4 °C 14,5 °C 37 % 993,5 hPa 0,0 mm 7,8 km/h (2 Bft) NO 55 ° 1 min 0,000 mm 2,1 UV-I 329 W/m² -0,1 °C 14,4 °C 12,9 km/h (3 Bft)
04.03.2017 11:34 14,4 °C 14,4 °C 36 % 993,5 hPa 0,0 mm 10,3 km/h (2 Bft) O-NO 76 ° 1 min 0,000 mm 2,0 UV-I 318 W/m² -0,5 °C 14,4 °C 14,5 km/h (3 Bft)
04.03.2017 11:35 14,4 °C 14,4 °C 36 % 993,5 hPa 0,0 mm 6,0 km/h (2 Bft) O-NO 77 ° 1 min 0,000 mm 2,0 UV-I 316 W/m² -0,5 °C 14,4 °C 11,3 km/h (2 Bft)
04.03.2017 11:36 14,4 °C 14,4 °C 36 % 993,6 hPa 0,0 mm 4,0 km/h (1 Bft) O-NO 76 ° 1 min 0,000 mm 2,0 UV-I 320 W/m² -0,5 °C 14,4 °C 8,0 km/h (2 Bft)
04.03.2017 11:37 14,3 °C 14,4 °C 37 % 993,5 hPa 0,0 mm 6,5 km/h (2 Bft) O-NO 57 ° 1 min 0,000 mm 2,0 UV-I 316 W/m² -0,2 °C 14,3 °C 12,9 km/h (3 Bft)
04.03.2017 11:38 14,4 °C 14,4 °C 36 % 993,5 hPa 0,0 mm 7,8 km/h (2 Bft) N-NO 33 ° 1 min 0,000 mm 2,1 UV-I 325 W/m² -0,5 °C 14,4 °C 12,9 km/h (3 Bft)
04.03.2017 11:39 14,4 °C 14,4 °C 35 % 993,5 hPa 0,0 mm 10,4 km/h (2 Bft) O-NO 67 ° 1 min 0,000 mm 2,0 UV-I 322 W/m² -0,9 °C 14,4 °C 12,9 km/h (3 Bft)
04.03.2017 11:40 14,4 °C 14,4 °C 35 % 993,5 hPa 0,0 mm 8,8 km/h (2 Bft) O-NO 62 ° 1 min 0,000 mm 2,1 UV-I 341 W/m² -0,9 °C 14,4 °C 12,9 km/h (3 Bft)
04.03.2017 11:41 14,4 °C 14,4 °C 35 % 993,5 hPa 0,0 mm 4,7 km/h (1 Bft) O-NO 59 ° 1 min 0,000 mm 2,1 UV-I 346 W/m² -0,9 °C 14,4 °C 9,7 km/h (2 Bft)
04.03.2017 11:42 14,5 °C 14,5 °C 38 % 993,4 hPa 0,0 mm 5,7 km/h (1 Bft) O 86 ° 1 min 0,000 mm 2,1 UV-I 339 W/m² 0,4 °C 14,5 °C 8,0 km/h (2 Bft)
04.03.2017 11:43 14,5 °C 14,6 °C 37 % 993,4 hPa 0,0 mm 4,9 km/h (1 Bft) O-NO 76 ° 1 min 0,000 mm 2,1 UV-I 332 W/m² -0,0 °C 14,5 °C 8,0 km/h (2 Bft)
04.03.2017 11:44 14,5 °C 14,6 °C 35 % 993,4 hPa 0,0 mm 7,9 km/h (2 Bft) N-NO 32 ° 1 min 0,000 mm 2,1 UV-I 332 W/m² -0,8 °C 14,5 °C 14,5 km/h (3 Bft)
04.03.2017 11:45 14,5 °C 14,5 °C 36 % 993,3 hPa 0,0 mm 4,6 km/h (1 Bft) O-NO 72 ° 1 min 0,000 mm 2,1 UV-I 332 W/m² -0,4 °C 14,5 °C 6,4 km/h (2 Bft)
04.03.2017 11:46 14,5 °C 14,5 °C 35 % 993,3 hPa 0,0 mm 5,2 km/h (1 Bft) NO 36 ° 1 min 0,000 mm 2,1 UV-I 336 W/m² -0,8 °C 14,5 °C 6,4 km/h (2 Bft)
04.03.2017 11:47 14,5 °C 14,6 °C 35 % 993,3 hPa 0,0 mm 3,9 km/h (1 Bft) O-NO 64 ° 1 min 0,000 mm 2,1 UV-I 339 W/m² -0,8 °C 14,5 °C 4,8 km/h (1 Bft)
04.03.2017 11:48 14,5 °C 14,6 °C 35 % 993,3 hPa 0,0 mm 2,1 km/h (1 Bft) O-NO 64 ° 1 min 0,000 mm 2,1 UV-I 338 W/m² -0,8 °C 14,5 °C 3,2 km/h (1 Bft)
04.03.2017 11:49 14,5 °C 14,6 °C 35 % 993,3 hPa 0,0 mm 3,0 km/h (1 Bft) N 5 ° 1 min 0,000 mm 2,1 UV-I 341 W/m² -0,8 °C 14,5 °C 4,8 km/h (1 Bft)
04.03.2017 11:50 14,6 °C 14,6 °C 36 % 993,3 hPa 0,0 mm 4,2 km/h (1 Bft) N-NO 24 ° 1 min 0,000 mm 2,1 UV-I 348 W/m² -0,3 °C 14,6 °C 6,4 km/h (2 Bft)
04.03.2017 11:51 14,6 °C 14,6 °C 36 % 993,4 hPa 0,0 mm 3,8 km/h (1 Bft) N-NO 32 ° 1 min 0,000 mm 2,1 UV-I 350 W/m² -0,3 °C 14,6 °C 4,8 km/h (1 Bft)
04.03.2017 11:52 14,6 °C 14,6 °C 36 % 993,3 hPa 0,0 mm 5,8 km/h (2 Bft) N 350 ° 1 min 0,000 mm 2,2 UV-I 362 W/m² -0,3 °C 14,6 °C 6,4 km/h (2 Bft)
04.03.2017 11:53 14,7 °C 14,7 °C 36 % 993,4 hPa 0,0 mm 5,7 km/h (1 Bft) N 355 ° 1 min 0,000 mm 2,2 UV-I 367 W/m² -0,2 °C 14,7 °C 8,0 km/h (2 Bft)
04.03.2017 11:54 14,7 °C 14,7 °C 37 % 993,4 hPa 0,0 mm 7,6 km/h (2 Bft) N 360 ° 1 min 0,000 mm 2,2 UV-I 378 W/m² 0,2 °C 14,7 °C 12,9 km/h (3 Bft)
04.03.2017 11:55 14,8 °C 14,8 °C 36 % 993,4 hPa 0,0 mm 7,1 km/h (2 Bft) N 360 ° 1 min 0,000 mm 2,2 UV-I 371 W/m² -0,1 °C 14,8 °C 8,0 km/h (2 Bft)
04.03.2017 11:56 14,8 °C 14,8 °C 35 % 993,3 hPa 0,0 mm 5,4 km/h (1 Bft) NO 56 ° 1 min 0,000 mm 2,2 UV-I 367 W/m² -0,5 °C 14,8 °C 6,4 km/h (2 Bft)
04.03.2017 11:57 14,7 °C 14,8 °C 34 % 993,3 hPa 0,0 mm 3,8 km/h (1 Bft) N-NO 26 ° 1 min 0,000 mm 2,2 UV-I 367 W/m² -1,0 °C 14,7 °C 4,8 km/h (1 Bft)
04.03.2017 11:58 14,7 °C 14,7 °C 35 % 993,3 hPa 0,0 mm 3,6 km/h (1 Bft) N 9 ° 1 min 0,000 mm 2,3 UV-I 374 W/m² -0,6 °C 14,7 °C 4,8 km/h (1 Bft)
04.03.2017 11:59 14,8 °C 14,8 °C 36 % 993,3 hPa 0,0 mm 3,2 km/h (1 Bft) N 9 ° 1 min 0,000 mm 2,3 UV-I 387 W/m² -0,1 °C 14,8 °C 4,8 km/h (1 Bft)
04.03.2017 12:00 14,8 °C 14,8 °C 35 % 993,2 hPa 0,0 mm 4,0 km/h (1 Bft) N-NO 32 ° 1 min 0,000 mm 2,3 UV-I 392 W/m² -0,5 °C 14,8 °C 6,4 km/h (2 Bft)
04.03.2017 12:01 14,8 °C 14,8 °C 36 % 993,2 hPa 0,0 mm 6,3 km/h (2 Bft) N-NO 13 ° 1 min 0,228 mm 2,3 UV-I 388 W/m² -0,1 °C 14,8 °C 8,0 km/h (2 Bft)
04.03.2017 12:02 14,8 °C 14,8 °C 36 % 993,1 hPa 0,0 mm 3,3 km/h (1 Bft) N-NO 13 ° 1 min 0,000 mm 2,4 UV-I 394 W/m² -0,1 °C 14,8 °C 6,4 km/h (2 Bft)
04.03.2017 12:03 14,9 °C 14,9 °C 36 % 993,1 hPa 0,0 mm 5,4 km/h (1 Bft) N-NW 347 ° 1 min 0,000 mm 2,4 UV-I 427 W/m² -0,0 °C 14,9 °C 8,0 km/h (2 Bft)
04.03.2017 12:04 14,9 °C 14,9 °C 36 % 993,1 hPa 0,0 mm 3,8 km/h (1 Bft) N 5 ° 1 min 0,000 mm 2,6 UV-I 476 W/m² -0,0 °C 14,9 °C 4,8 km/h (1 Bft)
04.03.2017 12:05 14,9 °C 14,9 °C 37 % 992,9 hPa 0,0 mm 4,3 km/h (1 Bft) O 86 ° 1 min 0,000 mm 2,7 UV-I 492 W/m² 0,3 °C 14,9 °C 6,4 km/h (2 Bft)
04.03.2017 12:06 15,0 °C 15,0 °C 36 % 992,9 hPa 0,0 mm 8,2 km/h (2 Bft) O-NO 74 ° 1 min 0,000 mm 2,8 UV-I 506 W/m² 0,1 °C 15,0 °C 11,3 km/h (2 Bft)
04.03.2017 12:07 14,9 °C 15,0 °C 35 % 992,9 hPa 0,0 mm 4,6 km/h (1 Bft) O-NO 71 ° 1 min 0,000 mm 2,9 UV-I 522 W/m² -0,4 °C 14,9 °C 8,0 km/h (2 Bft)
04.03.2017 12:08 14,9 °C 14,9 °C 36 % 992,9 hPa 0,0 mm 4,8 km/h (1 Bft) NO 38 ° 1 min 0,000 mm 2,8 UV-I 513 W/m² -0,0 °C 14,9 °C 9,7 km/h (2 Bft)
04.03.2017 12:09 15,0 °C 15,0 °C 38 % 992,8 hPa 0,0 mm 4,3 km/h (1 Bft) N-NO 18 ° 1 min 0,000 mm 2,8 UV-I 504 W/m² 0,8 °C 15,0 °C 6,4 km/h (2 Bft)
04.03.2017 12:10 15,1 °C 15,1 °C 36 % 992,8 hPa 0,0 mm 5,0 km/h (1 Bft) O-NO 57 ° 1 min 0,000 mm 3,0 UV-I 513 W/m² 0,1 °C 15,1 °C 8,0 km/h (2 Bft)
04.03.2017 12:11 15,0 °C 15,1 °C 35 % 992,8 hPa 0,0 mm 3,4 km/h (1 Bft) O-NO 57 ° 1 min 0,000 mm 2,8 UV-I 478 W/m² -0,3 °C 15,0 °C 4,8 km/h (1 Bft)
04.03.2017 12:12 15,1 °C 15,1 °C 36 % 992,6 hPa 0,0 mm 4,0 km/h (1 Bft) N-NO 19 ° 1 min 0,000 mm 2,8 UV-I 496 W/m² 0,1 °C 15,1 °C 4,8 km/h (1 Bft)
04.03.2017 12:13 15,0 °C 15,1 °C 36 % 992,7 hPa 0,0 mm 2,4 km/h (1 Bft) N-NO 19 ° 1 min 0,000 mm 2,6 UV-I 438 W/m² 0,1 °C 15,0 °C 4,8 km/h (1 Bft)
04.03.2017 12:14 15,0 °C 15,1 °C 37 % 992,7 hPa 0,0 mm 2,7 km/h (1 Bft) NW 323 ° 1 min 0,000 mm 2,5 UV-I 404 W/m² 0,4 °C 15,0 °C 4,8 km/h (1 Bft)
04.03.2017 12:15 15,1 °C 15,1 °C 39 % 992,7 hPa 0,0 mm 1,9 km/h (1 Bft) NW 323 ° 1 min 0,000 mm 2,5 UV-I 401 W/m² 1,3 °C 15,1 °C 3,2 km/h (1 Bft)
04.03.2017 12:16 15,2 °C 15,2 °C 38 % 992,6 hPa 0,0 mm 5,7 km/h (1 Bft) N 5 ° 1 min 0,000 mm 2,4 UV-I 367 W/m² 1,0 °C 15,2 °C 11,3 km/h (2 Bft)
04.03.2017 12:17 15,2 °C 15,2 °C 38 % 992,5 hPa 0,0 mm 6,2 km/h (2 Bft) O-NO 58 ° 1 min 0,000 mm 2,3 UV-I 369 W/m² 1,0 °C 15,2 °C 11,3 km/h (2 Bft)
04.03.2017 12:18 15,2 °C 15,2 °C 38 % 992,5 hPa 0,0 mm 5,8 km/h (2 Bft) NO 49 ° 1 min 0,000 mm 2,3 UV-I 357 W/m² 1,0 °C 15,2 °C 8,0 km/h (2 Bft)
04.03.2017 12:19 15,0 °C 15,2 °C 38 % 992,4 hPa 0,0 mm 4,5 km/h (1 Bft) N-NO 32 ° 1 min 0,000 mm 2,3 UV-I 367 W/m² 0,8 °C 15,0 °C 8,0 km/h (2 Bft)
04.03.2017 12:20 15,0 °C 15,0 °C 39 % 992,4 hPa 0,0 mm 3,3 km/h (1 Bft) NO 44 ° 1 min 0,000 mm 2,3 UV-I 364 W/m² 1,2 °C 15,0 °C 4,8 km/h (1 Bft)
04.03.2017 12:21 14,9 °C 15,0 °C 39 % 992,4 hPa 0,0 mm 3,9 km/h (1 Bft) N-NO 29 ° 1 min 0,000 mm 2,3 UV-I 362 W/m² 1,1 °C 14,9 °C 8,0 km/h (2 Bft)
04.03.2017 12:22 15,0 °C 15,0 °C 38 % 992,3 hPa 0,0 mm 3,8 km/h (1 Bft) N-NO 28 ° 1 min 0,000 mm 2,3 UV-I 364 W/m² 0,8 °C 15,0 °C 4,8 km/h (1 Bft)
04.03.2017 12:23 14,9 °C 15,0 °C 38 % 992,4 hPa 0,0 mm 5,0 km/h (1 Bft) O-NO 63 ° 1 min 0,000 mm 2,3 UV-I 369 W/m² 0,7 °C 14,9 °C 8,0 km/h (2 Bft)
04.03.2017 12:24 14,9 °C 14,9 °C 37 % 992,4 hPa 0,0 mm 5,4 km/h (1 Bft) NO 52 ° 1 min 0,000 mm 2,3 UV-I 373 W/m² 0,3 °C 14,9 °C 9,7 km/h (2 Bft)
04.03.2017 12:25 14,9 °C 15,0 °C 36 % 992,4 hPa 0,0 mm 6,2 km/h (2 Bft) NO 40 ° 1 min 0,000 mm 2,3 UV-I 369 W/m² -0,0 °C 14,9 °C 8,0 km/h (2 Bft)
04.03.2017 12:26 15,0 °C 15,0 °C 37 % 992,4 hPa 0,0 mm 3,4 km/h (1 Bft) NO 38 ° 1 min 0,000 mm 2,2 UV-I 345 W/m² 0,4 °C 15,0 °C 4,8 km/h (1 Bft)
04.03.2017 12:27 15,0 °C 15,0 °C 35 % 992,3 hPa 0,0 mm 4,0 km/h (1 Bft) N-NO 23 ° 1 min 0,000 mm 2,2 UV-I 330 W/m² -0,3 °C 15,0 °C 6,4 km/h (2 Bft)
04.03.2017 12:28 15,0 °C 15,0 °C 36 % 992,3 hPa 0,0 mm 5,0 km/h (1 Bft) N 360 ° 1 min 0,000 mm 2,2 UV-I 348 W/m² 0,1 °C 15,0 °C 8,0 km/h (2 Bft)
04.03.2017 12:29 15,1 °C 15,1 °C 36 % 992,3 hPa 0,0 mm 7,5 km/h (2 Bft) N-NO 18 ° 1 min 0,000 mm 2,2 UV-I 334 W/m² 0,1 °C 15,1 °C 12,9 km/h (3 Bft)
04.03.2017 12:30 15,1 °C 15,1 °C 36 % 992,4 hPa 0,0 mm 4,4 km/h (1 Bft) NO 35 ° 1 min 0,000 mm 2,2 UV-I 343 W/m² 0,1 °C 15,1 °C 11,3 km/h (2 Bft)
04.03.2017 12:31 15,1 °C 15,1 °C 35 % 992,3 hPa 0,0 mm 5,3 km/h (1 Bft) N 5 ° 1 min 0,000 mm 2,3 UV-I 360 W/m² -0,2 °C 15,1 °C 12,9 km/h (3 Bft)
04.03.2017 12:32 15,1 °C 15,1 °C 35 % 992,3 hPa 0,0 mm 9,9 km/h (2 Bft) N-NO 22 ° 1 min 0,000 mm 2,3 UV-I 367 W/m² -0,2 °C 15,1 °C 16,1 km/h (3 Bft)
04.03.2017 12:33 15,1 °C 15,1 °C 34 % 992,2 hPa 0,0 mm 3,7 km/h (1 Bft) N 10 ° 1 min 0,000 mm 2,3 UV-I 373 W/m² -0,6 °C 15,1 °C 6,4 km/h (2 Bft)
04.03.2017 12:34 15,1 °C 15,1 °C 37 % 992,1 hPa 0,0 mm 5,0 km/h (1 Bft) N 9 ° 1 min 0,000 mm 2,3 UV-I 366 W/m² 0,5 °C 15,1 °C 6,4 km/h (2 Bft)
04.03.2017 12:35 15,1 °C 15,1 °C 35 % 992,0 hPa 0,0 mm 5,3 km/h (1 Bft) N-NW 342 ° 1 min 0,000 mm 2,3 UV-I 366 W/m² -0,2 °C 15,1 °C 8,0 km/h (2 Bft)
04.03.2017 12:36 15,2 °C 15,2 °C 35 % 992,1 hPa 0,0 mm 5,1 km/h (1 Bft) N-NW 331 ° 1 min 0,000 mm 2,2 UV-I 353 W/m² -0,2 °C 15,2 °C 8,0 km/h (2 Bft)
04.03.2017 12:37 15,2 °C 15,2 °C 36 % 992,1 hPa 0,0 mm 5,1 km/h (1 Bft) N-NW 345 ° 1 min 0,000 mm 2,3 UV-I 362 W/m² 0,2 °C 15,2 °C 8,0 km/h (2 Bft)
04.03.2017 12:38 15,3 °C 15,3 °C 36 % 992,0 hPa 0,0 mm 3,3 km/h (1 Bft) NO 34 ° 1 min 0,000 mm 2,3 UV-I 373 W/m² 0,3 °C 15,3 °C 4,8 km/h (1 Bft)
04.03.2017 12:39 15,4 °C 15,4 °C 37 % 992,1 hPa 0,0 mm 4,2 km/h (1 Bft) NO 53 ° 1 min 0,000 mm 2,5 UV-I 399 W/m² 0,8 °C 15,4 °C 6,4 km/h (2 Bft)
04.03.2017 12:40 15,4 °C 15,4 °C 35 % 992,1 hPa 0,0 mm 4,9 km/h (1 Bft) O-NO 68 ° 1 min 0,000 mm 2,5 UV-I 429 W/m² 0,0 °C 15,4 °C 6,4 km/h (2 Bft)
04.03.2017 12:41 15,4 °C 15,4 °C 34 % 992,1 hPa 0,0 mm 5,7 km/h (1 Bft) NO 34 ° 1 min 0,000 mm 2,5 UV-I 424 W/m² -0,4 °C 15,4 °C 8,0 km/h (2 Bft)
04.03.2017 12:42 15,4 °C 15,4 °C 34 % 992,0 hPa 0,0 mm 4,8 km/h (1 Bft) N-NO 24 ° 1 min 0,000 mm 2,6 UV-I 429 W/m² -0,4 °C 15,4 °C 6,4 km/h (2 Bft)
04.03.2017 12:43 15,4 °C 15,4 °C 32 % 991,9 hPa 0,0 mm 7,4 km/h (2 Bft) N-NO 17 ° 1 min 0,000 mm 2,6 UV-I 429 W/m² -1,2 °C 15,4 °C 9,7 km/h (2 Bft)
04.03.2017 12:44 15,4 °C 15,4 °C 33 % 991,7 hPa 0,0 mm 3,4 km/h (1 Bft) NW 325 ° 1 min 0,000 mm 2,6 UV-I 441 W/m² -0,8 °C 15,4 °C 6,4 km/h (2 Bft)
04.03.2017 12:45 15,6 °C 15,6 °C 34 % 991,8 hPa 0,0 mm 2,3 km/h (1 Bft) NW 315 ° 1 min 0,000 mm 2,7 UV-I 462 W/m² -0,2 °C 15,6 °C 6,4 km/h (2 Bft)
04.03.2017 12:46 15,6 °C 15,6 °C 33 % 991,7 hPa 0,0 mm 2,9 km/h (1 Bft) N-NW 335 ° 1 min 0,000 mm 3,0 UV-I 548 W/m² -0,6 °C 15,6 °C 4,8 km/h (1 Bft)
04.03.2017 12:47 15,7 °C 15,7 °C 33 % 991,8 hPa 0,0 mm 5,5 km/h (1 Bft) NO 40 ° 1 min 0,000 mm 2,9 UV-I 520 W/m² -0,5 °C 15,7 °C 14,5 km/h (3 Bft)
04.03.2017 12:48 15,8 °C 15,8 °C 33 % 991,6 hPa 0,0 mm 10,3 km/h (2 Bft) O-NO 78 ° 1 min 0,000 mm 2,8 UV-I 482 W/m² -0,4 °C 15,8 °C 14,5 km/h (3 Bft)
04.03.2017 12:49 15,8 °C 15,8 °C 32 % 991,6 hPa 0,0 mm 9,6 km/h (2 Bft) O 84 ° 1 min 0,000 mm 2,9 UV-I 494 W/m² -0,9 °C 15,8 °C 12,9 km/h (3 Bft)
04.03.2017 12:50 15,7 °C 15,8 °C 30 % 991,5 hPa 0,0 mm 6,5 km/h (2 Bft) O-NO 59 ° 1 min 0,000 mm 3,0 UV-I 527 W/m² -1,8 °C 15,7 °C 14,5 km/h (3 Bft)
04.03.2017 12:51 15,7 °C 15,7 °C 31 % 991,5 hPa 0,0 mm 8,0 km/h (2 Bft) O-NO 74 ° 1 min 0,000 mm 3,1 UV-I 555 W/m² -1,4 °C 15,7 °C 12,9 km/h (3 Bft)
04.03.2017 12:52 15,7 °C 15,7 °C 30 % 991,5 hPa 0,0 mm 6,6 km/h (2 Bft) O-NO 58 ° 1 min 0,000 mm 3,1 UV-I 550 W/m² -1,8 °C 15,7 °C 9,7 km/h (2 Bft)
04.03.2017 12:53 15,7 °C 15,7 °C 31 % 991,4 hPa 0,0 mm 5,9 km/h (2 Bft) O-NO 63 ° 1 min 0,000 mm 3,2 UV-I 580 W/m² -1,4 °C 15,7 °C 12,9 km/h (3 Bft)
04.03.2017 12:54 15,7 °C 15,7 °C 31 % 991,3 hPa 0,0 mm 7,2 km/h (2 Bft) NO 55 ° 1 min 0,000 mm 3,4 UV-I 649 W/m² -1,4 °C 15,7 °C 14,5 km/h (3 Bft)
04.03.2017 12:55 15,7 °C 15,7 °C 32 % 991,4 hPa 0,0 mm 4,5 km/h (1 Bft) N 360 ° 1 min 0,000 mm 3,4 UV-I 635 W/m² -0,9 °C 15,7 °C 9,7 km/h (2 Bft)
04.03.2017 12:56 15,8 °C 15,8 °C 30 % 991,4 hPa 0,0 mm 6,0 km/h (2 Bft) O-NO 61 ° 1 min 0,000 mm 3,4 UV-I 647 W/m² -1,7 °C 15,8 °C 8,0 km/h (2 Bft)
04.03.2017 12:57 15,8 °C 15,9 °C 30 % 991,3 hPa 0,0 mm 7,2 km/h (2 Bft) O 86 ° 1 min 0,000 mm 3,4 UV-I 636 W/m² -1,7 °C 15,8 °C 11,3 km/h (2 Bft)
04.03.2017 12:58 15,9 °C 15,9 °C 31 % 991,3 hPa 0,0 mm 8,8 km/h (2 Bft) O-NO 76 ° 1 min 0,000 mm 3,5 UV-I 661 W/m² -1,2 °C 15,9 °C 12,9 km/h (3 Bft)
04.03.2017 12:59 15,9 °C 15,9 °C 30 % 991,2 hPa 0,0 mm 8,1 km/h (2 Bft) N-NO 30 ° 1 min 0,000 mm 3,3 UV-I 606 W/m² -1,6 °C 15,9 °C 12,9 km/h (3 Bft)
04.03.2017 13:00 15,9 °C 15,9 °C 30 % 991,2 hPa 0,0 mm 12,5 km/h (3 Bft) NO 53 ° 1 min 0,000 mm 3,3 UV-I 596 W/m² -1,6 °C 15,9 °C 17,7 km/h (3 Bft)
04.03.2017 13:01 15,8 °C 15,9 °C 30 % 991,2 hPa 0,0 mm 9,9 km/h (2 Bft) O-NO 63 ° 1 min 0,280 mm 3,1 UV-I 555 W/m² -1,7 °C 15,8 °C 16,1 km/h (3 Bft)
04.03.2017 13:02 15,8 °C 15,8 °C 30 % 991,2 hPa 0,0 mm 11,4 km/h (2 Bft) N-NO 24 ° 1 min 0,000 mm 3,1 UV-I 561 W/m² -1,7 °C 15,8 °C 16,1 km/h (3 Bft)
04.03.2017 13:03 15,8 °C 15,8 °C 29 % 991,1 hPa 0,0 mm 8,8 km/h (2 Bft) O-NO 58 ° 1 min 0,000 mm 3,1 UV-I 603 W/m² -2,2 °C 15,8 °C 14,5 km/h (3 Bft)
04.03.2017 13:04 15,9 °C 15,9 °C 31 % 991,1 hPa 0,0 mm 10,6 km/h (2 Bft) NO 36 ° 1 min 0,000 mm 3,3 UV-I 615 W/m² -1,2 °C 15,9 °C 17,7 km/h (3 Bft)
04.03.2017 13:05 15,9 °C 15,9 °C 29 % 991,1 hPa 0,0 mm 8,6 km/h (2 Bft) O-NO 61 ° 1 min 0,000 mm 3,4 UV-I 635 W/m² -2,1 °C 15,9 °C 12,9 km/h (3 Bft)
04.03.2017 13:06 15,9 °C 15,9 °C 29 % 991,1 hPa 0,0 mm 11,8 km/h (2 Bft) N-NO 25 ° 1 min 0,000 mm 3,4 UV-I 638 W/m² -2,1 °C 15,9 °C 16,1 km/h (3 Bft)
04.03.2017 13:07 15,9 °C 15,9 °C 29 % 991,0 hPa 0,0 mm 10,7 km/h (2 Bft) NO 40 ° 1 min 0,000 mm 3,5 UV-I 663 W/m² -2,1 °C 15,9 °C 17,7 km/h (3 Bft)
04.03.2017 13:08 15,8 °C 15,9 °C 29 % 990,9 hPa 0,0 mm 11,3 km/h (2 Bft) O-NO 62 ° 1 min 0,000 mm 3,5 UV-I 686 W/m² -2,2 °C 15,8 °C 17,7 km/h (3 Bft)
04.03.2017 13:09 15,8 °C 15,8 °C 29 % 990,8 hPa 0,0 mm 11,4 km/h (2 Bft) N-NO 23 ° 1 min 0,000 mm 3,5 UV-I 649 W/m² -2,2 °C 15,8 °C 17,7 km/h (3 Bft)
04.03.2017 13:10 15,8 °C 15,8 °C 29 % 990,8 hPa 0,0 mm 6,2 km/h (2 Bft) N 5 ° 1 min 0,000 mm 3,6 UV-I 661 W/m² -2,2 °C 15,8 °C 8,0 km/h (2 Bft)
04.03.2017 13:11 15,9 °C 15,9 °C 30 % 990,8 hPa 0,0 mm 4,8 km/h (1 Bft) NO 35 ° 1 min 0,000 mm 3,4 UV-I 629 W/m² -1,6 °C 15,9 °C 6,4 km/h (2 Bft)
04.03.2017 13:12 16,0 °C 16,0 °C 31 % 990,8 hPa 0,0 mm 6,5 km/h (2 Bft) N-NO 32 ° 1 min 0,000 mm 3,3 UV-I 608 W/m² -1,1 °C 16,0 °C 12,9 km/h (3 Bft)
04.03.2017 13:13 16,1 °C 16,1 °C 30 % 990,8 hPa 0,0 mm 6,6 km/h (2 Bft) O 89 ° 1 min 0,000 mm 3,2 UV-I 541 W/m² -1,5 °C 16,1 °C 11,3 km/h (2 Bft)
04.03.2017 13:14 16,2 °C 16,2 °C 31 % 990,8 hPa 0,0 mm 10,1 km/h (2 Bft) O-NO 72 ° 1 min 0,000 mm 3,2 UV-I 499 W/m² -0,9 °C 16,2 °C 19,3 km/h (3 Bft)
04.03.2017 13:15 16,1 °C 16,2 °C 29 % 990,8 hPa 0,0 mm 11,9 km/h (2 Bft) O 94 ° 1 min 0,000 mm 2,9 UV-I 482 W/m² -1,9 °C 16,1 °C 16,1 km/h (3 Bft)
04.03.2017 13:16 16,1 °C 16,1 °C 30 % 990,7 hPa 0,0 mm 8,3 km/h (2 Bft) N-NO 14 ° 1 min 0,000 mm 2,8 UV-I 445 W/m² -1,5 °C 16,1 °C 12,9 km/h (3 Bft)
04.03.2017 13:17 16,1 °C 16,1 °C 30 % 990,6 hPa 0,0 mm 11,6 km/h (2 Bft) N 5 ° 1 min 0,000 mm 2,7 UV-I 425 W/m² -1,5 °C 16,1 °C 16,1 km/h (3 Bft)
04.03.2017 13:18 16,1 °C 16,1 °C 29 % 990,6 hPa 0,0 mm 10,9 km/h (2 Bft) N-NO 14 ° 1 min 0,000 mm 2,7 UV-I 404 W/m² -1,9 °C 16,1 °C 14,5 km/h (3 Bft)
04.03.2017 13:19 16,1 °C 16,1 °C 29 % 990,6 hPa 0,0 mm 8,5 km/h (2 Bft) N-NW 332 ° 1 min 0,000 mm 2,7 UV-I 415 W/m² -1,9 °C 16,1 °C 11,3 km/h (2 Bft)
04.03.2017 13:20 16,1 °C 16,1 °C 30 % 990,6 hPa 0,0 mm 6,4 km/h (2 Bft) N 9 ° 1 min 0,000 mm 2,5 UV-I 399 W/m² -1,5 °C 16,1 °C 12,9 km/h (3 Bft)
04.03.2017 13:21 16,0 °C 16,1 °C 29 % 990,6 hPa 0,0 mm 5,2 km/h (1 Bft) O-NO 77 ° 1 min 0,000 mm 2,8 UV-I 448 W/m² -2,0 °C 16,0 °C 8,0 km/h (2 Bft)
04.03.2017 13:22 15,9 °C 16,0 °C 29 % 990,6 hPa 0,0 mm 2,7 km/h (1 Bft) NO 55 ° 1 min 0,000 mm 2,8 UV-I 438 W/m² -2,1 °C 15,9 °C 4,8 km/h (1 Bft)
04.03.2017 13:23 15,8 °C 15,9 °C 30 % 990,7 hPa 0,0 mm 4,9 km/h (1 Bft) O-NO 58 ° 1 min 0,000 mm 2,7 UV-I 459 W/m² -1,7 °C 15,8 °C 6,4 km/h (2 Bft)
04.03.2017 13:24 15,8 °C 15,8 °C 31 % 990,7 hPa 0,0 mm 7,2 km/h (2 Bft) O-NO 62 ° 1 min 0,000 mm 2,7 UV-I 420 W/m² -1,3 °C 15,8 °C 12,9 km/h (3 Bft)
04.03.2017 13:25 15,9 °C 15,9 °C 29 % 990,6 hPa 0,0 mm 8,0 km/h (2 Bft) NO 43 ° 1 min 0,000 mm 2,5 UV-I 385 W/m² -2,1 °C 15,9 °C 11,3 km/h (2 Bft)
04.03.2017 13:26 15,8 °C 15,9 °C 29 % 990,6 hPa 0,0 mm 6,8 km/h (2 Bft) O 90 ° 1 min 0,000 mm 2,5 UV-I 380 W/m² -2,2 °C 15,8 °C 12,9 km/h (3 Bft)
04.03.2017 13:27 15,8 °C 15,9 °C 30 % 990,6 hPa 0,0 mm 6,0 km/h (2 Bft) NO 54 ° 1 min 0,000 mm 2,3 UV-I 320 W/m² -1,7 °C 15,8 °C 11,3 km/h (2 Bft)
04.03.2017 13:28 15,8 °C 15,8 °C 29 % 990,6 hPa 0,0 mm 8,5 km/h (2 Bft) N-NO 30 ° 1 min 0,000 mm 2,4 UV-I 332 W/m² -2,2 °C 15,8 °C 12,9 km/h (3 Bft)
04.03.2017 13:29 15,8 °C 15,8 °C 29 % 990,6 hPa 0,0 mm 5,7 km/h (1 Bft) NO 37 ° 1 min 0,000 mm 2,6 UV-I 425 W/m² -2,2 °C 15,8 °C 8,0 km/h (2 Bft)
04.03.2017 13:30 15,8 °C 15,8 °C 29 % 990,6 hPa 0,0 mm 4,9 km/h (1 Bft) NO 51 ° 1 min 0,000 mm 2,6 UV-I 403 W/m² -2,2 °C 15,8 °C 6,4 km/h (2 Bft)
04.03.2017 13:31 15,8 °C 15,8 °C 30 % 990,4 hPa 0,0 mm 5,5 km/h (1 Bft) NO 48 ° 1 min 0,000 mm 2,9 UV-I 478 W/m² -1,7 °C 15,8 °C 8,0 km/h (2 Bft)
04.03.2017 13:32 15,9 °C 15,9 °C 29 % 990,3 hPa 0,0 mm 7,3 km/h (2 Bft) O-NO 62 ° 1 min 0,000 mm 2,7 UV-I 485 W/m² -2,1 °C 15,9 °C 9,7 km/h (2 Bft)
04.03.2017 13:33 15,9 °C 15,9 °C 29 % 990,2 hPa 0,0 mm 8,2 km/h (2 Bft) NO 40 ° 1 min 0,000 mm 3,1 UV-I 529 W/m² -2,1 °C 15,9 °C 9,7 km/h (2 Bft)
04.03.2017 13:34 15,9 °C 15,9 °C 28 % 990,1 hPa 0,0 mm 8,7 km/h (2 Bft) O-NO 69 ° 1 min 0,000 mm 2,9 UV-I 513 W/m² -2,6 °C 15,9 °C 14,5 km/h (3 Bft)
04.03.2017 13:35 15,9 °C 15,9 °C 29 % 990,2 hPa 0,0 mm 2,7 km/h (1 Bft) O-NO 69 ° 1 min 0,000 mm 2,8 UV-I 504 W/m² -2,1 °C 15,9 °C 4,8 km/h (1 Bft)
04.03.2017 13:36 15,9 °C 15,9 °C 28 % 990,3 hPa 0,0 mm 1,0 km/h (0 Bft) O-NO 69 ° 1 min 0,000 mm 2,9 UV-I 497 W/m² -2,6 °C 15,9 °C 3,2 km/h (1 Bft)
04.03.2017 13:37 15,9 °C 15,9 °C 28 % 990,2 hPa 0,0 mm 1,4 km/h (1 Bft) O-NO 65 ° 1 min 0,000 mm 3,2 UV-I 497 W/m² -2,6 °C 15,9 °C 3,2 km/h (1 Bft)
04.03.2017 13:38 15,9 °C 15,9 °C 28 % 990,2 hPa 0,0 mm 3,1 km/h (1 Bft) O-NO 65 ° 1 min 0,000 mm 3,0 UV-I 628 W/m² -2,6 °C 15,9 °C 4,8 km/h (1 Bft)
04.03.2017 13:39 16,0 °C 16,0 °C 30 % 990,3 hPa 0,0 mm 4,4 km/h (1 Bft) O-SO 119 ° 1 min 0,000 mm 3,3 UV-I 550 W/m² -1,6 °C 16,0 °C 6,4 km/h (2 Bft)
04.03.2017 13:40 16,1 °C 16,1 °C 33 % 990,3 hPa 0,0 mm 4,2 km/h (1 Bft) O-NO 68 ° 1 min 0,000 mm 3,5 UV-I 550 W/m² -0,2 °C 16,1 °C 6,4 km/h (2 Bft)
04.03.2017 13:41 16,3 °C 16,3 °C 28 % 990,3 hPa 0,0 mm 9,3 km/h (2 Bft) NO 54 ° 1 min 0,000 mm 3,6 UV-I 712 W/m² -2,2 °C 16,3 °C 12,9 km/h (3 Bft)
04.03.2017 13:42 16,3 °C 16,3 °C 26 % 990,3 hPa 0,0 mm 8,0 km/h (2 Bft) NO 46 ° 1 min 0,000 mm 3,6 UV-I 714 W/m² -3,2 °C 16,3 °C 9,7 km/h (2 Bft)
04.03.2017 13:43 16,3 °C 16,3 °C 26 % 990,2 hPa 0,0 mm 3,8 km/h (1 Bft) NO 41 ° 1 min 0,000 mm 3,6 UV-I 717 W/m² -3,2 °C 16,3 °C 6,4 km/h (2 Bft)
04.03.2017 13:44 16,3 °C 16,3 °C 27 % 990,2 hPa 0,0 mm 2,4 km/h (1 Bft) N-NO 32 ° 1 min 0,000 mm 3,6 UV-I 696 W/m² -2,7 °C 16,3 °C 4,8 km/h (1 Bft)
04.03.2017 13:45 16,5 °C 16,5 °C 29 % 990,2 hPa 0,0 mm 3,1 km/h (1 Bft) NO 49 ° 1 min 0,000 mm 3,5 UV-I 686 W/m² -1,6 °C 16,5 °C 6,4 km/h (2 Bft)
04.03.2017 13:46 16,6 °C 16,6 °C 27 % 990,1 hPa 0,0 mm 4,6 km/h (1 Bft) O-NO 65 ° 1 min 0,000 mm 3,6 UV-I 679 W/m² -2,5 °C 16,6 °C 11,3 km/h (2 Bft)
04.03.2017 13:47 16,7 °C 16,7 °C 27 % 989,9 hPa 0,0 mm 7,6 km/h (2 Bft) O-SO 107 ° 1 min 0,000 mm 3,5 UV-I 673 W/m² -2,4 °C 16,7 °C 9,7 km/h (2 Bft)
04.03.2017 13:48 16,6 °C 16,7 °C 26 % 989,9 hPa 0,0 mm 5,3 km/h (1 Bft) SO 134 ° 1 min 0,000 mm 3,5 UV-I 650 W/m² -3,0 °C 16,6 °C 6,4 km/h (2 Bft)
04.03.2017 13:49 16,5 °C 16,6 °C 26 % 989,9 hPa 0,0 mm 3,3 km/h (1 Bft) O 100 ° 1 min 0,000 mm 3,5 UV-I 650 W/m² -3,1 °C 16,5 °C 4,8 km/h (1 Bft)
04.03.2017 13:50 16,6 °C 16,6 °C 26 % 989,9 hPa 0,0 mm 0,7 km/h (0 Bft) O 100 ° 1 min 0,000 mm 3,3 UV-I 591 W/m² -3,0 °C 16,6 °C 3,2 km/h (1 Bft)
04.03.2017 13:51 16,9 °C 16,9 °C 27 % 989,9 hPa 0,0 mm 3,4 km/h (1 Bft) N-NW 327 ° 1 min 0,000 mm 3,4 UV-I 654 W/m² -2,2 °C 16,9 °C 4,8 km/h (1 Bft)
04.03.2017 13:52 17,1 °C 17,1 °C 26 % 989,8 hPa 0,0 mm 11,8 km/h (2 Bft) O 79 ° 1 min 0,000 mm 3,4 UV-I 647 W/m² -2,5 °C 17,1 °C 24,1 km/h (4 Bft)
04.03.2017 13:53 17,2 °C 17,2 °C 25 % 989,7 hPa 0,0 mm 16,3 km/h (3 Bft) NO 34 ° 1 min 0,000 mm 3,1 UV-I 647 W/m² -3,0 °C 17,2 °C 22,5 km/h (4 Bft)
04.03.2017 13:54 17,1 °C 17,2 °C 27 % 989,5 hPa 0,0 mm 16,6 km/h (3 Bft) O 93 ° 1 min 0,000 mm 3,0 UV-I 512 W/m² -2,0 °C 17,1 °C 22,5 km/h (4 Bft)
04.03.2017 13:55 17,0 °C 17,1 °C 26 % 989,7 hPa 0,0 mm 9,1 km/h (2 Bft) SO 129 ° 1 min 0,000 mm 3,0 UV-I 570 W/m² -2,6 °C 17,0 °C 12,9 km/h (3 Bft)
04.03.2017 13:56 17,0 °C 17,0 °C 26 % 989,5 hPa 0,0 mm 11,1 km/h (2 Bft) O 85 ° 1 min 0,000 mm 3,2 UV-I 608 W/m² -2,6 °C 17,0 °C 14,5 km/h (3 Bft)
04.03.2017 13:57 17,1 °C 17,1 °C 27 % 989,5 hPa 0,0 mm 8,2 km/h (2 Bft) O-NO 59 ° 1 min 0,000 mm 3,5 UV-I 663 W/m² -2,0 °C 17,1 °C 11,3 km/h (2 Bft)
04.03.2017 13:58 17,2 °C 17,2 °C 30 % 989,6 hPa 0,0 mm 6,8 km/h (2 Bft) O-NO 65 ° 1 min 0,000 mm 3,5 UV-I 687 W/m² -0,5 °C 17,2 °C 12,9 km/h (3 Bft)
04.03.2017 13:59 17,2 °C 17,2 °C 26 % 989,7 hPa 0,0 mm 9,3 km/h (2 Bft) O 84 ° 1 min 0,000 mm 3,5 UV-I 687 W/m² -2,5 °C 17,2 °C 14,5 km/h (3 Bft)
04.03.2017 14:00 17,2 °C 17,2 °C 30 % 989,7 hPa 0,0 mm 6,2 km/h (2 Bft) O-SO 102 ° 1 min 0,000 mm 3,3 UV-I 636 W/m² -0,5 °C 17,2 °C 11,3 km/h (2 Bft)
04.03.2017 14:01 17,2 °C 17,2 °C 27 % 989,7 hPa 0,0 mm 7,2 km/h (2 Bft) O 98 ° 1 min 0,381 mm 3,4 UV-I 661 W/m² -2,0 °C 17,2 °C 12,9 km/h (3 Bft)
04.03.2017 14:02 17,0 °C 17,2 °C 28 % 989,6 hPa 0,0 mm 5,5 km/h (1 Bft) O-SO 112 ° 1 min 0,000 mm 3,5 UV-I 664 W/m² -1,6 °C 17,0 °C 8,0 km/h (2 Bft)
04.03.2017 14:03 16,9 °C 17,0 °C 28 % 989,6 hPa 0,0 mm 2,4 km/h (1 Bft) O-NO 71 ° 1 min 0,000 mm 3,4 UV-I 659 W/m² -1,7 °C 16,9 °C 3,2 km/h (1 Bft)
04.03.2017 14:04 16,9 °C 16,9 °C 27 % 989,6 hPa 0,0 mm 5,8 km/h (2 Bft) NO 46 ° 1 min 0,000 mm 3,4 UV-I 654 W/m² -2,2 °C 16,9 °C 11,3 km/h (2 Bft)
04.03.2017 14:05 16,9 °C 16,9 °C 27 % 989,6 hPa 0,0 mm 7,7 km/h (2 Bft) O 80 ° 1 min 0,000 mm 3,4 UV-I 643 W/m² -2,2 °C 16,9 °C 11,3 km/h (2 Bft)
04.03.2017 14:06 16,8 °C 16,9 °C 28 % 989,6 hPa 0,0 mm 8,7 km/h (2 Bft) N-NO 32 ° 1 min 0,000 mm 3,4 UV-I 638 W/m² -1,8 °C 16,8 °C 14,5 km/h (3 Bft)
04.03.2017 14:07 16,9 °C 16,9 °C 28 % 989,6 hPa 0,0 mm 8,2 km/h (2 Bft) NO 43 ° 1 min 0,000 mm 3,3 UV-I 635 W/m² -1,7 °C 16,9 °C 12,9 km/h (3 Bft)
04.03.2017 14:08 16,9 °C 16,9 °C 27 % 989,6 hPa 0,0 mm 6,4 km/h (2 Bft) S 170 ° 1 min 0,000 mm 3,3 UV-I 631 W/m² -2,2 °C 16,9 °C 11,3 km/h (2 Bft)
04.03.2017 14:09 16,9 °C 16,9 °C 28 % 989,6 hPa 0,0 mm 6,2 km/h (2 Bft) N-NO 33 ° 1 min 0,000 mm 3,2 UV-I 578 W/m² -1,7 °C 16,9 °C 9,7 km/h (2 Bft)
04.03.2017 14:10 16,8 °C 16,9 °C 27 % 989,5 hPa 0,0 mm 4,5 km/h (1 Bft) NO 38 ° 1 min 0,000 mm 3,3 UV-I 613 W/m² -2,3 °C 16,8 °C 6,4 km/h (2 Bft)
04.03.2017 14:11 16,7 °C 16,8 °C 27 % 989,5 hPa 0,0 mm 4,6 km/h (1 Bft) NO 40 ° 1 min 0,000 mm 3,2 UV-I 594 W/m² -2,4 °C 16,7 °C 6,4 km/h (2 Bft)
04.03.2017 14:12 16,8 °C 16,8 °C 28 % 989,4 hPa 0,0 mm 5,8 km/h (2 Bft) O-NO 59 ° 1 min 0,000 mm 3,2 UV-I 615 W/m² -1,8 °C 16,8 °C 11,3 km/h (2 Bft)
04.03.2017 14:13 16,8 °C 16,8 °C 26 % 989,4 hPa 0,0 mm 10,3 km/h (2 Bft) O-NO 63 ° 1 min 0,000 mm 3,2 UV-I 541 W/m² -2,8 °C 16,8 °C 14,5 km/h (3 Bft)
04.03.2017 14:14 16,7 °C 16,8 °C 27 % 989,5 hPa 0,0 mm 3,5 km/h (1 Bft) O 93 ° 1 min 0,000 mm 3,1 UV-I 584 W/m² -2,4 °C 16,7 °C 12,9 km/h (3 Bft)
04.03.2017 14:15 16,7 °C 16,7 °C 27 % 989,5 hPa 0,0 mm 0,6 km/h (0 Bft) O 93 ° 1 min 0,000 mm 3,1 UV-I 592 W/m² -2,4 °C 16,7 °C 3,2 km/h (1 Bft)
04.03.2017 14:16 16,8 °C 16,8 °C 27 % 989,5 hPa 0,0 mm 3,9 km/h (1 Bft) N-NO 30 ° 1 min 0,000 mm 3,1 UV-I 584 W/m² -2,3 °C 16,8 °C 6,4 km/h (2 Bft)
04.03.2017 14:17 16,8 °C 16,8 °C 27 % 989,4 hPa 0,0 mm 6,4 km/h (2 Bft) O 84 ° 1 min 0,000 mm 3,1 UV-I 585 W/m² -2,3 °C 16,8 °C 8,0 km/h (2 Bft)
04.03.2017 14:18 16,8 °C 16,8 °C 26 % 989,4 hPa 0,0 mm 9,3 km/h (2 Bft) NO 42 ° 1 min 0,000 mm 3,0 UV-I 582 W/m² -2,8 °C 16,8 °C 14,5 km/h (3 Bft)
04.03.2017 14:19 16,8 °C 16,8 °C 27 % 989,3 hPa 0,0 mm 8,5 km/h (2 Bft) O-NO 61 ° 1 min 0,000 mm 3,0 UV-I 580 W/m² -2,3 °C 16,8 °C 9,7 km/h (2 Bft)
04.03.2017 14:20 16,8 °C 16,8 °C 28 % 989,3 hPa 0,0 mm 6,6 km/h (2 Bft) NO 44 ° 1 min 0,000 mm 2,4 UV-I 408 W/m² -1,8 °C 16,8 °C 12,9 km/h (3 Bft)
04.03.2017 14:21 16,8 °C 16,8 °C 27 % 989,4 hPa 0,0 mm 8,9 km/h (2 Bft) NO 41 ° 1 min 0,000 mm 2,9 UV-I 408 W/m² -2,3 °C 16,8 °C 16,1 km/h (3 Bft)
04.03.2017 14:22 16,8 °C 16,9 °C 28 % 989,4 hPa 0,0 mm 12,6 km/h (3 Bft) O-NO 72 ° 1 min 0,000 mm 2,9 UV-I 573 W/m² -1,8 °C 16,8 °C 19,3 km/h (3 Bft)
04.03.2017 14:23 16,9 °C 16,9 °C 29 % 989,4 hPa 0,0 mm 12,1 km/h (2 Bft) O-NO 71 ° 1 min 0,000 mm 2,9 UV-I 564 W/m² -1,2 °C 16,9 °C 19,3 km/h (3 Bft)
04.03.2017 14:24 16,9 °C 16,9 °C 28 % 989,3 hPa 0,0 mm 12,0 km/h (2 Bft) O-NO 77 ° 1 min 0,000 mm 2,9 UV-I 552 W/m² -1,7 °C 16,9 °C 16,1 km/h (3 Bft)
04.03.2017 14:25 16,8 °C 16,9 °C 29 % 989,3 hPa 0,0 mm 7,2 km/h (2 Bft) SO 126 ° 1 min 0,000 mm 2,8 UV-I 550 W/m² -1,3 °C 16,8 °C 16,1 km/h (3 Bft)
04.03.2017 14:26 16,7 °C 16,8 °C 26 % 989,3 hPa 0,0 mm 4,1 km/h (1 Bft) O-SO 123 ° 1 min 0,000 mm 2,8 UV-I 545 W/m² -2,9 °C 16,7 °C 6,4 km/h (2 Bft)
04.03.2017 14:27 16,6 °C 16,7 °C 26 % 989,1 hPa 0,0 mm 0,6 km/h (0 Bft) O-NO 63 ° 1 min 0,000 mm 2,7 UV-I 540 W/m² -3,0 °C 16,6 °C 1,6 km/h (1 Bft)
04.03.2017 14:28 16,6 °C 16,6 °C 29 % 989,1 hPa 0,0 mm 10,7 km/h (2 Bft) N-NO 18 ° 1 min 0,000 mm 2,7 UV-I 534 W/m² -1,5 °C 16,6 °C 19,3 km/h (3 Bft)
04.03.2017 14:29 16,7 °C 16,7 °C 29 % 989,0 hPa 0,0 mm 17,0 km/h (3 Bft) O-NO 77 ° 1 min 0,000 mm 2,7 UV-I 529 W/m² -1,4 °C 16,7 °C 30,6 km/h (5 Bft)
04.03.2017 14:30 16,7 °C 16,7 °C 29 % 989,0 hPa 0,0 mm 21,3 km/h (4 Bft) O-NO 65 ° 1 min 0,000 mm 2,6 UV-I 520 W/m² -1,4 °C 16,7 °C 29,0 km/h (5 Bft)
04.03.2017 14:31 16,6 °C 16,7 °C 32 % 989,1 hPa 0,0 mm 8,4 km/h (2 Bft) O-SO 117 ° 1 min 0,000 mm 2,6 UV-I 515 W/m² -0,2 °C 16,6 °C 14,5 km/h (3 Bft)
04.03.2017 14:32 16,6 °C 16,6 °C 29 % 989,2 hPa 0,0 mm 3,4 km/h (1 Bft) N-NW 336 ° 1 min 0,000 mm 2,5 UV-I 512 W/m² -1,5 °C 16,6 °C 6,4 km/h (2 Bft)
04.03.2017 14:33 16,6 °C 16,7 °C 29 % 989,2 hPa 0,0 mm 2,9 km/h (1 Bft) N-NO 19 ° 1 min 0,000 mm 2,5 UV-I 506 W/m² -1,5 °C 16,6 °C 4,8 km/h (1 Bft)
04.03.2017 14:34 16,7 °C 16,7 °C 30 % 989,3 hPa 0,0 mm 2,7 km/h (1 Bft) NO 36 ° 1 min 0,000 mm 2,4 UV-I 503 W/m² -0,9 °C 16,7 °C 4,8 km/h (1 Bft)
04.03.2017 14:35 16,8 °C 16,8 °C 29 % 989,3 hPa 0,0 mm 1,9 km/h (1 Bft) NO 47 ° 1 min 0,000 mm 2,3 UV-I 496 W/m² -1,3 °C 16,8 °C 3,2 km/h (1 Bft)
04.03.2017 14:36 16,8 °C 16,8 °C 30 % 989,2 hPa 0,0 mm 2,9 km/h (1 Bft) O 96 ° 1 min 0,000 mm 2,3 UV-I 492 W/m² -0,9 °C 16,8 °C 4,8 km/h (1 Bft)
04.03.2017 14:37 16,7 °C 16,8 °C 29 % 989,2 hPa 0,0 mm 3,4 km/h (1 Bft) O 94 ° 1 min 0,000 mm 2,2 UV-I 489 W/m² -1,4 °C 16,7 °C 4,8 km/h (1 Bft)
04.03.2017 14:38 16,7 °C 16,7 °C 29 % 989,2 hPa 0,0 mm 3,9 km/h (1 Bft) N 360 ° 1 min 0,000 mm 2,2 UV-I 487 W/m² -1,4 °C 16,7 °C 8,0 km/h (2 Bft)
04.03.2017 14:39 16,7 °C 16,7 °C 29 % 989,2 hPa 0,0 mm 9,5 km/h (2 Bft) O-NO 74 ° 1 min 0,000 mm 2,2 UV-I 485 W/m² -1,4 °C 16,7 °C 14,5 km/h (3 Bft)
04.03.2017 14:40 16,8 °C 16,8 °C 28 % 989,3 hPa 0,0 mm 11,5 km/h (2 Bft) O 81 ° 1 min 0,000 mm 2,2 UV-I 485 W/m² -1,8 °C 16,8 °C 17,7 km/h (3 Bft)
04.03.2017 14:41 16,6 °C 16,8 °C 30 % 989,2 hPa 0,0 mm 9,5 km/h (2 Bft) O-NO 72 ° 1 min 0,000 mm 2,2 UV-I 478 W/m² -1,0 °C 16,6 °C 14,5 km/h (3 Bft)
04.03.2017 14:42 16,6 °C 16,6 °C 30 % 989,2 hPa 0,0 mm 4,7 km/h (1 Bft) O-NO 78 ° 1 min 0,000 mm 2,2 UV-I 475 W/m² -1,0 °C 16,6 °C 6,4 km/h (2 Bft)
04.03.2017 14:43 16,7 °C 16,7 °C 30 % 989,3 hPa 0,0 mm 3,0 km/h (1 Bft) S-SW 207 ° 1 min 0,000 mm 2,2 UV-I 473 W/m² -0,9 °C 16,7 °C 6,4 km/h (2 Bft)
04.03.2017 14:44 16,7 °C 16,7 °C 29 % 989,3 hPa 0,0 mm 2,7 km/h (1 Bft) NO 50 ° 1 min 0,000 mm 2,2 UV-I 473 W/m² -1,4 °C 16,7 °C 4,8 km/h (1 Bft)
04.03.2017 14:45 16,7 °C 16,7 °C 27 % 989,3 hPa 0,0 mm 6,4 km/h (2 Bft) O-NO 57 ° 1 min 0,000 mm 2,2 UV-I 471 W/m² -2,4 °C 16,7 °C 11,3 km/h (2 Bft)
04.03.2017 14:46 16,7 °C 16,7 °C 30 % 989,3 hPa 0,0 mm 2,4 km/h (1 Bft) N-NW 335 ° 1 min 0,000 mm 2,2 UV-I 471 W/m² -0,9 °C 16,7 °C 4,8 km/h (1 Bft)
04.03.2017 14:47 16,7 °C 16,7 °C 28 % 989,3 hPa 0,0 mm 3,7 km/h (1 Bft) O 82 ° 1 min 0,000 mm 2,1 UV-I 466 W/m² -1,9 °C 16,7 °C 4,8 km/h (1 Bft)
04.03.2017 14:48 16,6 °C 16,7 °C 33 % 989,4 hPa 0,0 mm 6,9 km/h (2 Bft) O-NO 61 ° 1 min 0,000 mm 2,1 UV-I 462 W/m² 0,3 °C 16,6 °C 12,9 km/h (3 Bft)
04.03.2017 14:49 16,5 °C 16,6 °C 28 % 989,4 hPa 0,0 mm 6,6 km/h (2 Bft) O-NO 72 ° 1 min 0,000 mm 2,1 UV-I 462 W/m² -2,1 °C 16,5 °C 9,7 km/h (2 Bft)
04.03.2017 14:50 16,4 °C 16,5 °C 28 % 989,2 hPa 0,0 mm 6,7 km/h (2 Bft) N-NO 15 ° 1 min 0,000 mm 2,0 UV-I 459 W/m² -2,1 °C 16,4 °C 9,7 km/h (2 Bft)
04.03.2017 14:51 16,6 °C 16,6 °C 29 % 989,1 hPa 0,0 mm 9,5 km/h (2 Bft) NO 42 ° 1 min 0,000 mm 2,0 UV-I 457 W/m² -1,5 °C 16,6 °C 12,9 km/h (3 Bft)
04.03.2017 14:52 16,6 °C 16,6 °C 28 % 989,2 hPa 0,0 mm 4,7 km/h (1 Bft) SO 132 ° 1 min 0,000 mm 2,0 UV-I 455 W/m² -2,0 °C 16,6 °C 8,0 km/h (2 Bft)
04.03.2017 14:53 16,5 °C 16,6 °C 30 % 989,2 hPa 0,0 mm 2,6 km/h (1 Bft) O-SO 111 ° 1 min 0,000 mm 1,9 UV-I 452 W/m² -1,1 °C 16,5 °C 4,8 km/h (1 Bft)
04.03.2017 14:54 16,5 °C 16,5 °C 29 % 989,2 hPa 0,0 mm 3,4 km/h (1 Bft) O-NO 71 ° 1 min 0,000 mm 1,9 UV-I 446 W/m² -1,6 °C 16,5 °C 8,0 km/h (2 Bft)
04.03.2017 14:55 16,4 °C 16,5 °C 31 % 989,2 hPa 0,0 mm 2,9 km/h (1 Bft) O 79 ° 1 min 0,000 mm 1,9 UV-I 446 W/m² -0,8 °C 16,4 °C 6,4 km/h (2 Bft)
04.03.2017 14:56 16,5 °C 16,5 °C 29 % 989,2 hPa 0,0 mm 6,4 km/h (2 Bft) O-NO 77 ° 1 min 0,000 mm 2,0 UV-I 443 W/m² -1,6 °C 16,5 °C 11,3 km/h (2 Bft)
04.03.2017 14:57 16,6 °C 16,6 °C 30 % 989,2 hPa 0,0 mm 3,9 km/h (1 Bft) SO 141 ° 1 min 0,000 mm 2,0 UV-I 441 W/m² -1,0 °C 16,6 °C 8,0 km/h (2 Bft)
04.03.2017 14:58 16,6 °C 16,6 °C 29 % 989,2 hPa 0,0 mm 8,7 km/h (2 Bft) O-NO 69 ° 1 min 0,000 mm 2,0 UV-I 441 W/m² -1,5 °C 16,6 °C 14,5 km/h (3 Bft)
04.03.2017 14:59 16,6 °C 16,6 °C 31 % 989,2 hPa 0,0 mm 7,3 km/h (2 Bft) NO 55 ° 1 min 0,000 mm 2,0 UV-I 441 W/m² -0,6 °C 16,6 °C 11,3 km/h (2 Bft)
04.03.2017 15:00 16,7 °C 16,7 °C 30 % 989,2 hPa 0,0 mm 3,4 km/h (1 Bft) O 90 ° 1 min 0,000 mm 2,0 UV-I 436 W/m² -0,9 °C 16,7 °C 4,8 km/h (1 Bft)
04.03.2017 15:01 16,7 °C 16,7 °C 29 % 989,2 hPa 0,0 mm 1,8 km/h (1 Bft) O 96 ° 1 min 0,355 mm 2,0 UV-I 436 W/m² -1,4 °C 16,7 °C 3,2 km/h (1 Bft)
04.03.2017 15:02 16,7 °C 16,7 °C 31 % 989,2 hPa 0,0 mm 6,4 km/h (2 Bft) N-NO 16 ° 1 min 0,000 mm 2,0 UV-I 432 W/m² -0,5 °C 16,7 °C 14,5 km/h (3 Bft)
04.03.2017 15:03 16,7 °C 16,7 °C 29 % 989,2 hPa 0,0 mm 10,9 km/h (2 Bft) NO 40 ° 1 min 0,000 mm 2,0 UV-I 429 W/m² -1,4 °C 16,7 °C 16,1 km/h (3 Bft)
04.03.2017 15:04 16,6 °C 16,7 °C 31 % 989,1 hPa 0,0 mm 7,5 km/h (2 Bft) NO 46 ° 1 min 0,000 mm 2,0 UV-I 429 W/m² -0,6 °C 16,6 °C 12,9 km/h (3 Bft)
04.03.2017 15:05 16,7 °C 16,7 °C 31 % 989,1 hPa 0,0 mm 6,6 km/h (2 Bft) O 80 ° 1 min 0,000 mm 2,0 UV-I 381 W/m² -0,5 °C 16,7 °C 9,7 km/h (2 Bft)
04.03.2017 15:06 16,7 °C 16,7 °C 32 % 989,0 hPa 0,0 mm 2,6 km/h (1 Bft) S-SO 150 ° 1 min 0,000 mm 1,8 UV-I 394 W/m² -0,1 °C 16,7 °C 4,8 km/h (1 Bft)
04.03.2017 15:07 16,6 °C 16,7 °C 30 % 989,0 hPa 0,0 mm 1,7 km/h (1 Bft) O-NO 77 ° 0 min 0,000 mm 1,4 UV-I 148 W/m² -1,0 °C 16,6 °C 4,8 km/h (1 Bft)
04.03.2017 15:08 16,4 °C 16,6 °C 30 % 989,1 hPa 0,0 mm 2,5 km/h (1 Bft) O-SO 110 ° 0 min 0,000 mm 1,3 UV-I 146 W/m² -1,2 °C 16,4 °C 4,8 km/h (1 Bft)
04.03.2017 15:09 16,4 °C 16,4 °C 29 % 989,2 hPa 0,0 mm 1,7 km/h (1 Bft) O 93 ° 0 min 0,000 mm 1,2 UV-I 158 W/m² -1,7 °C 16,4 °C 3,2 km/h (1 Bft)
04.03.2017 15:10 16,3 °C 16,4 °C 31 % 989,2 hPa 0,0 mm 2,7 km/h (1 Bft) O 93 ° 0 min 0,000 mm 1,1 UV-I 111 W/m² -0,8 °C 16,3 °C 4,8 km/h (1 Bft)
04.03.2017 15:11 16,1 °C 16,3 °C 31 % 989,3 hPa 0,0 mm 6,9 km/h (2 Bft) O-NO 76 ° 0 min 0,000 mm 1,1 UV-I 70 W/m² -1,0 °C 16,1 °C 12,9 km/h (3 Bft)
04.03.2017 15:12 16,0 °C 16,1 °C 30 % 989,3 hPa 0,0 mm 6,0 km/h (2 Bft) O-SO 108 ° 0 min 0,000 mm 1,0 UV-I 69 W/m² -1,6 °C 16,0 °C 9,7 km/h (2 Bft)
04.03.2017 15:13 15,8 °C 16,0 °C 33 % 989,3 hPa 0,0 mm 2,4 km/h (1 Bft) O-SO 108 ° 0 min 0,000 mm 1,0 UV-I 69 W/m² -0,4 °C 15,8 °C 4,8 km/h (1 Bft)
04.03.2017 15:14 15,7 °C 15,8 °C 33 % 989,3 hPa 0,0 mm 2,2 km/h (1 Bft) O 80 ° 0 min 0,000 mm 1,0 UV-I 72 W/m² -0,5 °C 15,7 °C 4,8 km/h (1 Bft)
04.03.2017 15:15 15,5 °C 15,7 °C 34 % 989,3 hPa 0,0 mm 5,7 km/h (1 Bft) O 100 ° 0 min 0,000 mm 1,0 UV-I 81 W/m² -0,3 °C 15,5 °C 9,7 km/h (2 Bft)
04.03.2017 15:16 15,3 °C 15,5 °C 32 % 989,3 hPa 0,0 mm 5,5 km/h (1 Bft) O 88 ° 0 min 0,000 mm 1,1 UV-I 125 W/m² -1,3 °C 15,3 °C 8,0 km/h (2 Bft)
04.03.2017 15:17 15,2 °C 15,3 °C 34 % 989,3 hPa 0,0 mm 9,3 km/h (2 Bft) O 90 ° 1 min 0,000 mm 1,3 UV-I 200 W/m² -0,5 °C 15,2 °C 16,1 km/h (3 Bft)
04.03.2017 15:18 15,2 °C 15,2 °C 34 % 989,2 hPa 0,0 mm 8,4 km/h (2 Bft) O-NO 69 ° 1 min 0,000 mm 1,4 UV-I 295 W/m² -0,5 °C 15,2 °C 14,5 km/h (3 Bft)
04.03.2017 15:19 15,2 °C 15,2 °C 34 % 989,3 hPa 0,0 mm 5,7 km/h (1 Bft) O-NO 60 ° 1 min 0,000 mm 1,3 UV-I 239 W/m² -0,5 °C 15,2 °C 16,1 km/h (3 Bft)
04.03.2017 15:20 15,2 °C 15,2 °C 35 % 989,2 hPa 0,0 mm 7,2 km/h (2 Bft) O-SO 111 ° 1 min 0,000 mm 1,1 UV-I 239 W/m² -0,2 °C 15,2 °C 16,1 km/h (3 Bft)
04.03.2017 15:21 15,2 °C 15,2 °C 33 % 989,2 hPa 0,0 mm 3,8 km/h (1 Bft) O 97 ° 0 min 0,000 mm 1,1 UV-I 113 W/m² -1,0 °C 15,2 °C 4,8 km/h (1 Bft)
04.03.2017 15:22 15,1 °C 15,2 °C 33 % 989,2 hPa 0,0 mm 3,7 km/h (1 Bft) O 90 ° 0 min 0,000 mm 1,3 UV-I 113 W/m² -1,0 °C 15,1 °C 6,4 km/h (2 Bft)
04.03.2017 15:23 15,1 °C 15,1 °C 35 % 989,3 hPa 0,0 mm 5,8 km/h (2 Bft) O-NO 57 ° 1 min 0,000 mm 1,3 UV-I 237 W/m² -0,2 °C 15,1 °C 12,9 km/h (3 Bft)
04.03.2017 15:24 15,1 °C 15,1 °C 34 % 989,3 hPa 0,0 mm 3,8 km/h (1 Bft) O-SO 121 ° 1 min 0,000 mm 1,6 UV-I 399 W/m² -0,6 °C 15,1 °C 11,3 km/h (2 Bft)
04.03.2017 15:25 15,3 °C 15,3 °C 34 % 989,4 hPa 0,0 mm 0,4 km/h (0 Bft) O-SO 121 ° 1 min 0,000 mm 1,7 UV-I 371 W/m² -0,5 °C 15,3 °C 1,6 km/h (1 Bft)
04.03.2017 15:26 15,4 °C 15,4 °C 34 % 989,3 hPa 0,0 mm 2,4 km/h (1 Bft) O 79 ° 1 min 0,000 mm 1,8 UV-I 371 W/m² -0,4 °C 15,4 °C 3,2 km/h (1 Bft)
04.03.2017 15:27 15,6 °C 15,6 °C 35 % 989,3 hPa 0,0 mm 2,1 km/h (1 Bft) O-NO 70 ° 1 min 0,000 mm 1,9 UV-I 499 W/m² 0,2 °C 15,6 °C 4,8 km/h (1 Bft)
04.03.2017 15:28 15,7 °C 15,7 °C 33 % 989,2 hPa 0,0 mm 3,8 km/h (1 Bft) O-NO 59 ° 1 min 0,000 mm 2,0 UV-I 497 W/m² -0,5 °C 15,7 °C 8,0 km/h (2 Bft)
04.03.2017 15:29 15,9 °C 15,9 °C 35 % 989,2 hPa 0,0 mm 1,6 km/h (1 Bft) O-NO 59 ° 1 min 0,000 mm 2,0 UV-I 485 W/m² 0,5 °C 15,9 °C 3,2 km/h (1 Bft)
04.03.2017 15:30 16,1 °C 16,1 °C 35 % 989,3 hPa 0,0 mm 0,5 km/h (0 Bft) O-NO 59 ° 1 min 0,000 mm 2,0 UV-I 475 W/m² 0,6 °C 16,1 °C 1,6 km/h (1 Bft)
04.03.2017 15:31 16,2 °C 16,2 °C 32 % 989,3 hPa 0,0 mm 2,2 km/h (1 Bft) O-NO 74 ° 1 min 0,000 mm 1,9 UV-I 466 W/m² -0,5 °C 16,2 °C 4,8 km/h (1 Bft)
04.03.2017 15:32 16,2 °C 16,2 °C 31 % 989,3 hPa 0,0 mm 7,0 km/h (2 Bft) O-NO 70 ° 1 min 0,000 mm 1,9 UV-I 459 W/m² -0,9 °C 16,2 °C 12,9 km/h (3 Bft)
04.03.2017 15:33 16,3 °C 16,3 °C 33 % 989,3 hPa 0,0 mm 6,4 km/h (2 Bft) O-NO 65 ° 1 min 0,000 mm 1,9 UV-I 425 W/m² 0,0 °C 16,3 °C 9,7 km/h (2 Bft)
04.03.2017 15:34 16,3 °C 16,3 °C 37 % 989,3 hPa 0,0 mm 4,8 km/h (1 Bft) O-NO 74 ° 1 min 0,000 mm 1,8 UV-I 429 W/m² 1,6 °C 16,3 °C 8,0 km/h (2 Bft)
04.03.2017 15:35 16,3 °C 16,3 °C 31 % 989,2 hPa 0,0 mm 6,7 km/h (2 Bft) NO 50 ° 1 min 0,000 mm 1,8 UV-I 411 W/m² -0,8 °C 16,3 °C 11,3 km/h (2 Bft)
04.03.2017 15:36 16,3 °C 16,3 °C 31 % 989,2 hPa 0,0 mm 5,8 km/h (2 Bft) O 80 ° 1 min 0,000 mm 1,7 UV-I 403 W/m² -0,8 °C 16,3 °C 9,7 km/h (2 Bft)
04.03.2017 15:37 16,4 °C 16,4 °C 31 % 989,1 hPa 0,0 mm 6,4 km/h (2 Bft) O-NO 60 ° 1 min 0,000 mm 1,6 UV-I 396 W/m² -0,8 °C 16,4 °C 9,7 km/h (2 Bft)
04.03.2017 15:38 16,5 °C 16,5 °C 33 % 989,1 hPa 0,0 mm 9,7 km/h (2 Bft) O-SO 103 ° 1 min 0,000 mm 1,6 UV-I 390 W/m² 0,2 °C 16,5 °C 12,9 km/h (3 Bft)
04.03.2017 15:39 16,5 °C 16,5 °C 31 % 989,1 hPa 0,0 mm 6,8 km/h (2 Bft) O 100 ° 1 min 0,000 mm 1,5 UV-I 338 W/m² -0,7 °C 16,5 °C 12,9 km/h (3 Bft)
04.03.2017 15:40 16,6 °C 16,6 °C 31 % 989,2 hPa 0,0 mm 3,2 km/h (1 Bft) O-SO 103 ° 1 min 0,000 mm 1,5 UV-I 297 W/m² -0,6 °C 16,6 °C 6,4 km/h (2 Bft)
04.03.2017 15:41 16,6 °C 16,6 °C 31 % 989,3 hPa 0,0 mm 5,1 km/h (1 Bft) O-NO 60 ° 1 min 0,000 mm 1,4 UV-I 265 W/m² -0,6 °C 16,6 °C 8,0 km/h (2 Bft)
04.03.2017 15:42 16,7 °C 16,7 °C 31 % 989,3 hPa 0,0 mm 2,7 km/h (1 Bft) O 80 ° 1 min 0,000 mm 1,4 UV-I 279 W/m² -0,5 °C 16,7 °C 4,8 km/h (1 Bft)
04.03.2017 15:43 16,8 °C 16,8 °C 31 % 989,4 hPa 0,0 mm 2,1 km/h (1 Bft) N 9 ° 1 min 0,000 mm 1,4 UV-I 274 W/m² -0,4 °C 16,8 °C 4,8 km/h (1 Bft)
04.03.2017 15:44 16,9 °C 16,9 °C 32 % 989,4 hPa 0,0 mm 1,8 km/h (1 Bft) N 5 ° 1 min 0,000 mm 1,4 UV-I 257 W/m² 0,1 °C 16,9 °C 4,8 km/h (1 Bft)
04.03.2017 15:45 16,9 °C 16,9 °C 30 % 989,2 hPa 0,0 mm 1,1 km/h (1 Bft) N-NO 17 ° 1 min 0,000 mm 1,3 UV-I 229 W/m² -0,8 °C 16,9 °C 3,2 km/h (1 Bft)
04.03.2017 15:46 17,0 °C 17,0 °C 31 % 989,1 hPa 0,0 mm 4,1 km/h (1 Bft) SW 232 ° 0 min 0,000 mm 1,2 UV-I 172 W/m² -0,2 °C 17,0 °C 8,0 km/h (2 Bft)
04.03.2017 15:47 17,0 °C 17,0 °C 28 % 989,2 hPa 0,0 mm 6,7 km/h (2 Bft) N-NW 333 ° 0 min 0,000 mm 1,2 UV-I 172 W/m² -1,6 °C 17,0 °C 12,9 km/h (3 Bft)
04.03.2017 15:48 17,1 °C 17,1 °C 26 % 988,8 hPa 0,0 mm 10,0 km/h (2 Bft) S-SW 198 ° 0 min 0,000 mm 1,2 UV-I 165 W/m² -2,5 °C 17,1 °C 12,9 km/h (3 Bft)
04.03.2017 15:49 17,0 °C 17,1 °C 28 % 988,8 hPa 0,0 mm 10,0 km/h (2 Bft) S-SO 159 ° 0 min 0,000 mm 1,1 UV-I 156 W/m² -1,6 °C 17,0 °C 16,1 km/h (3 Bft)
04.03.2017 15:50 17,0 °C 17,1 °C 27 % 989,1 hPa 0,0 mm 6,0 km/h (2 Bft) NW 319 ° 0 min 0,000 mm 1,1 UV-I 156 W/m² -2,1 °C 17,0 °C 11,3 km/h (2 Bft)
04.03.2017 15:51 17,0 °C 17,0 °C 32 % 989,3 hPa 0,0 mm 7,2 km/h (2 Bft) NO 48 ° 0 min 0,000 mm 1,1 UV-I 153 W/m² 0,2 °C 17,0 °C 11,3 km/h (2 Bft)
04.03.2017 15:52 17,0 °C 17,0 °C 30 % 989,3 hPa 0,0 mm 7,4 km/h (2 Bft) NW 317 ° 0 min 0,000 mm 1,1 UV-I 113 W/m² -0,7 °C 17,0 °C 17,7 km/h (3 Bft)
04.03.2017 15:53 16,9 °C 17,0 °C 30 % 989,3 hPa 0,0 mm 8,0 km/h (2 Bft) S 176 ° 0 min 0,000 mm 1,0 UV-I 98 W/m² -0,8 °C 16,9 °C 12,9 km/h (3 Bft)
04.03.2017 15:54 16,9 °C 16,9 °C 30 % 989,1 hPa 0,0 mm 3,7 km/h (1 Bft) N-NO 32 ° 0 min 0,000 mm 1,0 UV-I 97 W/m² -0,8 °C 16,9 °C 6,4 km/h (2 Bft)
04.03.2017 15:55 16,9 °C 16,9 °C 29 % 989,0 hPa 0,0 mm 1,3 km/h (1 Bft) O-NO 72 ° 0 min 0,000 mm 1,0 UV-I 86 W/m² -1,2 °C 16,9 °C 3,2 km/h (1 Bft)
04.03.2017 15:56 16,8 °C 16,9 °C 31 % 989,2 hPa 0,0 mm 2,7 km/h (1 Bft) SO 134 ° 0 min 0,000 mm 1,0 UV-I 97 W/m² -0,4 °C 16,8 °C 6,4 km/h (2 Bft)
04.03.2017 15:57 16,8 °C 16,9 °C 29 % 989,3 hPa 0,0 mm 4,7 km/h (1 Bft) SO 124 ° 0 min 0,000 mm 1,0 UV-I 97 W/m² -1,3 °C 16,8 °C 8,0 km/h (2 Bft)
04.03.2017 15:58 16,8 °C 16,8 °C 33 % 989,2 hPa 0,0 mm 1,5 km/h (1 Bft) SO 125 ° 0 min 0,000 mm 0,9 UV-I 65 W/m² 0,4 °C 16,8 °C 3,2 km/h (1 Bft)
04.03.2017 15:59 16,6 °C 16,8 °C 32 % 989,3 hPa 0,0 mm 3,3 km/h (1 Bft) N-NO 29 ° 0 min 0,000 mm 0,9 UV-I 69 W/m² -0,2 °C 16,6 °C 8,0 km/h (2 Bft)
04.03.2017 16:00 16,4 °C 16,6 °C 34 % 989,2 hPa 0,0 mm 1,9 km/h (1 Bft) O-NO 68 ° 0 min 0,000 mm 0,9 UV-I 69 W/m² 0,5 °C 16,4 °C 4,8 km/h (1 Bft)
04.03.2017 16:01 16,4 °C 16,4 °C 33 % 989,2 hPa 0,0 mm 2,0 km/h (1 Bft) NO 42 ° 0 min 0,178 mm 0,9 UV-I 77 W/m² 0,1 °C 16,4 °C 3,2 km/h (1 Bft)
04.03.2017 16:02 16,4 °C 16,4 °C 31 % 989,2 hPa 0,0 mm 1,3 km/h (1 Bft) NO 42 ° 0 min 0,000 mm 0,9 UV-I 58 W/m² -0,8 °C 16,4 °C 3,2 km/h (1 Bft)
04.03.2017 16:03 16,4 °C 16,4 °C 31 % 989,3 hPa 0,0 mm 1,3 km/h (1 Bft) NO 42 ° 0 min 0,000 mm 0,0 UV-I 42 W/m² -0,8 °C 16,4 °C 3,2 km/h (1 Bft)
04.03.2017 16:04 16,3 °C 16,4 °C 33 % 989,3 hPa 0,0 mm 1,2 km/h (1 Bft) NO 42 ° 0 min 0,000 mm 0,0 UV-I 37 W/m² 0,0 °C 16,3 °C 3,2 km/h (1 Bft)
04.03.2017 16:05 16,2 °C 16,3 °C 33 % 989,2 hPa 0,0 mm 2,4 km/h (1 Bft) O 99 ° 0 min 0,000 mm 0,0 UV-I 37 W/m² -0,1 °C 16,2 °C 4,8 km/h (1 Bft)
04.03.2017 16:06 16,1 °C 16,2 °C 32 % 989,3 hPa 0,0 mm 5,6 km/h (1 Bft) SO 143 ° 0 min 0,000 mm 0,0 UV-I 39 W/m² -0,6 °C 16,1 °C 11,3 km/h (2 Bft)
04.03.2017 16:07 16,1 °C 16,1 °C 32 % 989,3 hPa 0,0 mm 3,5 km/h (1 Bft) W 259 ° 0 min 0,000 mm 0,0 UV-I 42 W/m² -0,6 °C 16,1 °C 6,4 km/h (2 Bft)
04.03.2017 16:08 16,1 °C 16,2 °C 31 % 989,3 hPa 0,0 mm 3,6 km/h (1 Bft) SW 226 ° 0 min 0,000 mm 0,0 UV-I 44 W/m² -1,0 °C 16,1 °C 4,8 km/h (1 Bft)
04.03.2017 16:09 16,1 °C 16,1 °C 32 % 989,3 hPa 0,0 mm 2,8 km/h (1 Bft) SW 226 ° 0 min 0,000 mm 0,0 UV-I 42 W/m² -0,6 °C 16,1 °C 4,8 km/h (1 Bft)
04.03.2017 16:10 16,1 °C 16,1 °C 31 % 989,4 hPa 0,0 mm 4,5 km/h (1 Bft) W-SW 256 ° 0 min 0,000 mm 0,0 UV-I 42 W/m² -1,0 °C 16,1 °C 8,0 km/h (2 Bft)
04.03.2017 16:11 16,0 °C 16,1 °C 34 % 989,4 hPa 0,0 mm 3,0 km/h (1 Bft) SW 229 ° 0 min 0,000 mm 0,0 UV-I 40 W/m² 0,2 °C 16,0 °C 4,8 km/h (1 Bft)
04.03.2017 16:12 15,9 °C 16,0 °C 34 % 989,4 hPa 0,0 mm 4,6 km/h (1 Bft) S-SO 159 ° 0 min 0,000 mm 0,0 UV-I 42 W/m² 0,1 °C 15,9 °C 9,7 km/h (2 Bft)
04.03.2017 16:13 15,9 °C 15,9 °C 31 % 989,4 hPa 0,0 mm 5,2 km/h (1 Bft) SO 136 ° 0 min 0,000 mm 0,0 UV-I 42 W/m² -1,2 °C 15,9 °C 8,0 km/h (2 Bft)
04.03.2017 16:14 15,9 °C 15,9 °C 31 % 989,4 hPa 0,0 mm 2,4 km/h (1 Bft) O 82 ° 0 min 0,000 mm 0,0 UV-I 40 W/m² -1,2 °C 15,9 °C 4,8 km/h (1 Bft)
04.03.2017 16:15 15,9 °C 15,9 °C 36 % 989,4 hPa 0,0 mm 4,5 km/h (1 Bft) O 88 ° 0 min 0,000 mm 0,0 UV-I 40 W/m² 0,9 °C 15,9 °C 6,4 km/h (2 Bft)
04.03.2017 16:16 15,7 °C 15,9 °C 34 % 989,4 hPa 0,0 mm 5,2 km/h (1 Bft) N-NO 28 ° 0 min 0,000 mm 0,0 UV-I 42 W/m² -0,1 °C 15,7 °C 8,0 km/h (2 Bft)
04.03.2017 16:17 15,6 °C 15,7 °C 35 % 989,6 hPa 0,0 mm 1,9 km/h (1 Bft) N-NO 29 ° 0 min 0,000 mm 0,0 UV-I 42 W/m² 0,2 °C 15,6 °C 3,2 km/h (1 Bft)
04.03.2017 16:18 15,5 °C 15,6 °C 36 % 989,6 hPa 0,0 mm 5,6 km/h (1 Bft) SW 219 ° 0 min 0,000 mm 0,0 UV-I 42 W/m² 0,5 °C 15,5 °C 9,7 km/h (2 Bft)
04.03.2017 16:19 15,4 °C 15,5 °C 34 % 989,7 hPa 0,0 mm 7,4 km/h (2 Bft) S-SW 200 ° 0 min 0,000 mm 0,0 UV-I 42 W/m² -0,4 °C 15,4 °C 16,1 km/h (3 Bft)
04.03.2017 16:20 15,4 °C 15,4 °C 32 % 989,7 hPa 0,0 mm 5,6 km/h (1 Bft) W-SW 247 ° 0 min 0,000 mm 0,0 UV-I 40 W/m² -1,2 °C 15,4 °C 14,5 km/h (3 Bft)
04.03.2017 16:21 15,4 °C 15,4 °C 34 % 989,6 hPa 0,0 mm 1,4 km/h (1 Bft) N-NW 329 ° 0 min 0,000 mm 0,0 UV-I 42 W/m² -0,4 °C 15,4 °C 1,6 km/h (1 Bft)
04.03.2017 16:22 15,3 °C 15,4 °C 36 % 989,6 hPa 0,0 mm 3,6 km/h (1 Bft) NO 49 ° 0 min 0,000 mm 0,0 UV-I 47 W/m² 0,3 °C 15,3 °C 6,4 km/h (2 Bft)
04.03.2017 16:23 15,3 °C 15,3 °C 33 % 989,6 hPa 0,0 mm 2,9 km/h (1 Bft) NO 50 ° 0 min 0,000 mm 0,7 UV-I 63 W/m² -0,9 °C 15,3 °C 6,4 km/h (2 Bft)
04.03.2017 16:24 15,3 °C 15,3 °C 35 % 989,6 hPa 0,0 mm 0,6 km/h (0 Bft) NO 50 ° 0 min 0,000 mm 0,8 UV-I 81 W/m² -0,1 °C 15,3 °C 1,6 km/h (1 Bft)
04.03.2017 16:25 15,2 °C 15,3 °C 36 % 989,6 hPa 0,0 mm 0,1 km/h (0 Bft) NO 50 ° 0 min 0,000 mm 0,7 UV-I 74 W/m² 0,2 °C 15,2 °C 1,6 km/h (1 Bft)
04.03.2017 16:26 15,1 °C 15,2 °C 36 % 989,6 hPa 0,0 mm 1,3 km/h (1 Bft) NO 50 ° 0 min 0,000 mm 0,7 UV-I 60 W/m² 0,1 °C 15,1 °C 3,2 km/h (1 Bft)
04.03.2017 16:27 15,1 °C 15,1 °C 34 % 989,6 hPa 0,0 mm 3,9 km/h (1 Bft) W 277 ° 0 min 0,000 mm 0,0 UV-I 53 W/m² -0,6 °C 15,1 °C 9,7 km/h (2 Bft)
04.03.2017 16:28 15,1 °C 15,1 °C 34 % 989,6 hPa 0,0 mm 6,2 km/h (2 Bft) S 183 ° 0 min 0,000 mm 0,0 UV-I 51 W/m² -0,6 °C 15,1 °C 11,3 km/h (2 Bft)
04.03.2017 16:29 15,1 °C 15,1 °C 34 % 989,8 hPa 0,0 mm 9,4 km/h (2 Bft) S-SW 207 ° 0 min 0,000 mm 0,7 UV-I 62 W/m² -0,6 °C 15,1 °C 20,9 km/h (4 Bft)
04.03.2017 16:30 15,2 °C 15,2 °C 34 % 989,8 hPa 0,0 mm 7,5 km/h (2 Bft) S 183 ° 0 min 0,000 mm 0,7 UV-I 67 W/m² -0,5 °C 15,2 °C 11,3 km/h (2 Bft)
04.03.2017 16:31 15,2 °C 15,2 °C 34 % 989,7 hPa 0,0 mm 7,8 km/h (2 Bft) W-SW 243 ° 0 min 0,000 mm 0,0 UV-I 46 W/m² -0,5 °C 15,2 °C 14,5 km/h (3 Bft)
04.03.2017 16:32 15,2 °C 15,2 °C 34 % 989,7 hPa 0,0 mm 8,0 km/h (2 Bft) W-SW 247 ° 0 min 0,000 mm 0,0 UV-I 42 W/m² -0,5 °C 15,2 °C 12,9 km/h (3 Bft)
04.03.2017 16:33 15,1 °C 15,2 °C 36 % 989,7 hPa 0,0 mm 6,5 km/h (2 Bft) W 260 ° 0 min 0,000 mm 0,0 UV-I 44 W/m² 0,1 °C 15,1 °C 12,9 km/h (3 Bft)
04.03.2017 16:34 15,0 °C 15,1 °C 35 % 989,8 hPa 0,0 mm 8,2 km/h (2 Bft) S-SW 213 ° 0 min 0,000 mm 0,0 UV-I 49 W/m² -0,3 °C 15,0 °C 14,5 km/h (3 Bft)
04.03.2017 16:35 15,0 °C 15,0 °C 34 % 989,9 hPa 0,0 mm 7,2 km/h (2 Bft) SW 234 ° 0 min 0,000 mm 0,0 UV-I 47 W/m² -0,7 °C 15,0 °C 11,3 km/h (2 Bft)
04.03.2017 16:36 15,0 °C 15,0 °C 33 % 990,0 hPa 0,0 mm 9,1 km/h (2 Bft) W-SW 250 ° 0 min 0,000 mm 0,0 UV-I 39 W/m² -1,1 °C 15,0 °C 16,1 km/h (3 Bft)
04.03.2017 16:37 14,9 °C 15,0 °C 37 % 990,1 hPa 0,0 mm 5,5 km/h (1 Bft) NW 308 ° 0 min 0,000 mm 0,0 UV-I 42 W/m² 0,3 °C 14,9 °C 11,3 km/h (2 Bft)
04.03.2017 16:38 14,8 °C 14,9 °C 37 % 990,0 hPa 0,0 mm 7,1 km/h (2 Bft) W-SW 252 ° 0 min 0,000 mm 0,6 UV-I 62 W/m² 0,3 °C 14,8 °C 11,3 km/h (2 Bft)
04.03.2017 16:39 14,7 °C 14,8 °C 38 % 990,0 hPa 0,0 mm 4,3 km/h (1 Bft) W-NW 290 ° 0 min 0,000 mm 0,6 UV-I 58 W/m² 0,5 °C 14,7 °C 6,4 km/h (2 Bft)
04.03.2017 16:40 14,4 °C 14,7 °C 39 % 990,0 hPa 0,0 mm 2,2 km/h (1 Bft) W-NW 290 ° 0 min 0,000 mm 0,0 UV-I 47 W/m² 0,6 °C 14,4 °C 3,2 km/h (1 Bft)
04.03.2017 16:41 14,4 °C 14,4 °C 37 % 990,0 hPa 0,0 mm 2,8 km/h (1 Bft) S-SW 210 ° 0 min 0,000 mm 0,0 UV-I 42 W/m² -0,1 °C 14,4 °C 4,8 km/h (1 Bft)
04.03.2017 16:42 14,2 °C 14,4 °C 39 % 990,0 hPa 0,0 mm 3,3 km/h (1 Bft) SW 219 ° 0 min 0,000 mm 0,0 UV-I 37 W/m² 0,5 °C 14,2 °C 8,0 km/h (2 Bft)
04.03.2017 16:43 14,2 °C 14,2 °C 38 % 990,1 hPa 0,0 mm 4,3 km/h (1 Bft) S-SW 199 ° 0 min 0,000 mm 0,0 UV-I 42 W/m² 0,1 °C 14,2 °C 6,4 km/h (2 Bft)
04.03.2017 16:44 14,2 °C 14,2 °C 39 % 990,2 hPa 0,0 mm 4,6 km/h (1 Bft) S 171 ° 0 min 0,000 mm 0,0 UV-I 51 W/m² 0,5 °C 14,2 °C 11,3 km/h (2 Bft)
04.03.2017 16:45 14,1 °C 14,2 °C 40 % 990,2 hPa 0,0 mm 4,4 km/h (1 Bft) NW 319 ° 0 min 0,000 mm 0,0 UV-I 54 W/m² 0,7 °C 14,1 °C 11,3 km/h (2 Bft)
04.03.2017 16:46 14,1 °C 14,1 °C 40 % 990,2 hPa 0,0 mm 4,1 km/h (1 Bft) SW 236 ° 0 min 0,000 mm 0,0 UV-I 44 W/m² 0,7 °C 14,1 °C 8,0 km/h (2 Bft)
04.03.2017 16:47 14,1 °C 14,1 °C 38 % 990,1 hPa 0,0 mm 0,2 km/h (0 Bft) SW 234 ° 0 min 0,000 mm 0,0 UV-I 47 W/m² 0,0 °C 14,1 °C 1,6 km/h (1 Bft)
04.03.2017 16:48 13,9 °C 14,1 °C 41 % 990,1 hPa 0,0 mm 0,5 km/h (0 Bft) SW 214 ° 0 min 0,000 mm 0,0 UV-I 42 W/m² 0,9 °C 13,9 °C 3,2 km/h (1 Bft)
04.03.2017 16:49 13,8 °C 13,9 °C 40 % 990,2 hPa 0,0 mm 0,9 km/h (0 Bft) SW 214 ° 0 min 0,000 mm 0,0 UV-I 44 W/m² 0,4 °C 13,8 °C 1,6 km/h (1 Bft)
04.03.2017 16:50 13,8 °C 13,8 °C 40 % 990,2 hPa 0,0 mm 3,6 km/h (1 Bft) NW 323 ° 0 min 0,000 mm 0,0 UV-I 44 W/m² 0,4 °C 13,8 °C 6,4 km/h (2 Bft)
04.03.2017 16:51 13,7 °C 13,8 °C 41 % 990,3 hPa 0,0 mm 2,3 km/h (1 Bft) N-NW 342 ° 0 min 0,000 mm 0,0 UV-I 39 W/m² 0,7 °C 13,7 °C 3,2 km/h (1 Bft)
04.03.2017 16:52 13,7 °C 13,7 °C 40 % 990,3 hPa 0,0 mm 1,7 km/h (1 Bft) N-NW 342 ° 0 min 0,000 mm 0,0 UV-I 40 W/m² 0,4 °C 13,7 °C 3,2 km/h (1 Bft)
04.03.2017 16:53 13,7 °C 13,7 °C 40 % 990,4 hPa 0,0 mm 2,2 km/h (1 Bft) N-NO 31 ° 0 min 0,000 mm 0,0 UV-I 46 W/m² 0,4 °C 13,7 °C 3,2 km/h (1 Bft)
04.03.2017 16:54 13,7 °C 13,7 °C 40 % 990,3 hPa 0,0 mm 3,4 km/h (1 Bft) NO 35 ° 0 min 0,000 mm 0,0 UV-I 60 W/m² 0,4 °C 13,7 °C 6,4 km/h (2 Bft)
04.03.2017 16:55 13,7 °C 13,7 °C 40 % 990,4 hPa 0,0 mm 2,5 km/h (1 Bft) NO 35 ° 0 min 0,000 mm 0,0 UV-I 56 W/m² 0,4 °C 13,7 °C 4,8 km/h (1 Bft)
04.03.2017 16:56 13,7 °C 13,7 °C 41 % 990,4 hPa 0,0 mm 3,9 km/h (1 Bft) O-NO 57 ° 0 min 0,000 mm 0,0 UV-I 49 W/m² 0,7 °C 13,7 °C 6,4 km/h (2 Bft)
04.03.2017 16:57 13,6 °C 13,7 °C 40 % 990,4 hPa 0,0 mm 1,5 km/h (1 Bft) O-NO 57 ° 0 min 0,000 mm 0,0 UV-I 35 W/m² 0,3 °C 13,6 °C 3,2 km/h (1 Bft)
04.03.2017 16:58 13,4 °C 13,6 °C 41 % 990,5 hPa 0,0 mm 1,9 km/h (1 Bft) O-NO 57 ° 0 min 0,000 mm 0,0 UV-I 37 W/m² 0,4 °C 13,4 °C 3,2 km/h (1 Bft)
04.03.2017 16:59 13,4 °C 13,4 °C 40 % 990,5 hPa 0,0 mm 1,4 km/h (1 Bft) O-NO 57 ° 0 min 0,000 mm 0,0 UV-I 42 W/m² 0,1 °C 13,4 °C 3,2 km/h (1 Bft)
04.03.2017 17:00 13,3 °C 13,4 °C 41 % 990,5 hPa 0,0 mm 0,3 km/h (0 Bft) O-NO 57 ° 0 min 0,000 mm 0,0 UV-I 46 W/m² 0,3 °C 13,3 °C 1,6 km/h (1 Bft)
04.03.2017 17:01 13,3 °C 13,4 °C 41 % 990,5 hPa 0,0 mm 1,5 km/h (1 Bft) O-NO 57 ° 0 min 0,076 mm 0,0 UV-I 47 W/m² 0,3 °C 13,3 °C 3,2 km/h (1 Bft)
04.03.2017 17:02 13,4 °C 13,4 °C 42 % 990,5 hPa 0,0 mm 0,0 km/h (0 Bft) O-NO 57 ° 0 min 0,000 mm 0,0 UV-I 47 W/m² 0,8 °C 13,4 °C 0,0 km/h (0 Bft)
04.03.2017 17:03 13,4 °C 13,4 °C 41 % 990,5 hPa 0,0 mm 0,7 km/h (0 Bft) O-NO 57 ° 0 min 0,000 mm 0,0 UV-I 47 W/m² 0,4 °C 13,4 °C 1,6 km/h (1 Bft)
04.03.2017 17:04 13,4 °C 13,4 °C 40 % 990,5 hPa 0,0 mm 1,2 km/h (1 Bft) O-NO 57 ° 0 min 0,000 mm 0,0 UV-I 49 W/m² 0,1 °C 13,4 °C 3,2 km/h (1 Bft)
04.03.2017 17:05 13,4 °C 13,4 °C 41 % 990,5 hPa 0,0 mm 1,8 km/h (1 Bft) O-NO 57 ° 0 min 0,000 mm 0,0 UV-I 51 W/m² 0,4 °C 13,4 °C 3,2 km/h (1 Bft)
04.03.2017 17:06 13,4 °C 13,4 °C 41 % 990,5 hPa 0,0 mm 3,3 km/h (1 Bft) O-NO 58 ° 0 min 0,000 mm 0,0 UV-I 54 W/m² 0,4 °C 13,4 °C 4,8 km/h (1 Bft)
04.03.2017 17:07 13,3 °C 13,4 °C 42 % 990,5 hPa 0,0 mm 2,8 km/h (1 Bft) O-NO 58 ° 0 min 0,000 mm 0,0 UV-I 58 W/m² 0,7 °C 13,3 °C 4,8 km/h (1 Bft)
04.03.2017 17:08 13,3 °C 13,3 °C 41 % 990,5 hPa 0,0 mm 1,8 km/h (1 Bft) O-NO 58 ° 0 min 0,000 mm 0,0 UV-I 60 W/m² 0,3 °C 13,3 °C 4,8 km/h (1 Bft)
04.03.2017 17:09 13,3 °C 13,3 °C 42 % 990,5 hPa 0,0 mm 0,3 km/h (0 Bft) O-NO 58 ° 0 min 0,000 mm 0,0 UV-I 58 W/m² 0,7 °C 13,3 °C 1,6 km/h (1 Bft)
04.03.2017 17:10 13,3 °C 13,3 °C 41 % 990,5 hPa 0,0 mm 0,1 km/h (0 Bft) O-NO 58 ° 0 min 0,000 mm 0,0 UV-I 62 W/m² 0,3 °C 13,3 °C 1,6 km/h (1 Bft)
04.03.2017 17:11 13,2 °C 13,3 °C 41 % 990,5 hPa 0,0 mm 0,1 km/h (0 Bft) O-NO 58 ° 0 min 0,000 mm 0,0 UV-I 63 W/m² 0,2 °C 13,2 °C 1,6 km/h (1 Bft)
04.03.2017 17:12 13,2 °C 13,2 °C 40 % 990,5 hPa 0,0 mm 0,6 km/h (0 Bft) O-NO 58 ° 0 min 0,000 mm 0,0 UV-I 62 W/m² -0,1 °C 13,2 °C 1,6 km/h (1 Bft)
04.03.2017 17:13 13,3 °C 13,3 °C 39 % 990,5 hPa 0,0 mm 1,8 km/h (1 Bft) O-NO 58 ° 0 min 0,000 mm 0,0 UV-I 63 W/m² -0,4 °C 13,3 °C 3,2 km/h (1 Bft)
04.03.2017 17:14 13,4 °C 13,4 °C 41 % 990,4 hPa 0,0 mm 2,2 km/h (1 Bft) O-NO 58 ° 0 min 0,000 mm 0,0 UV-I 67 W/m² 0,4 °C 13,4 °C 3,2 km/h (1 Bft)
04.03.2017 17:15 13,4 °C 13,4 °C 40 % 990,5 hPa 0,0 mm 1,7 km/h (1 Bft) O-NO 58 ° 0 min 0,000 mm 0,0 UV-I 65 W/m² 0,1 °C 13,4 °C 3,2 km/h (1 Bft)
04.03.2017 17:16 13,4 °C 13,4 °C 40 % 990,5 hPa 0,0 mm 1,7 km/h (1 Bft) O-NO 58 ° 0 min 0,000 mm 0,0 UV-I 63 W/m² 0,1 °C 13,4 °C 3,2 km/h (1 Bft)
04.03.2017 17:17 13,4 °C 13,4 °C 41 % 990,5 hPa 0,0 mm 1,4 km/h (1 Bft) O-NO 58 ° 0 min 0,000 mm 0,0 UV-I 58 W/m² 0,4 °C 13,4 °C 3,2 km/h (1 Bft)
04.03.2017 17:18 13,5 °C 13,5 °C 41 % 990,6 hPa 0,0 mm 0,4 km/h (0 Bft) O-NO 58 ° 0 min 0,000 mm 0,0 UV-I 51 W/m² 0,5 °C 13,5 °C 1,6 km/h (1 Bft)
04.03.2017 17:19 13,4 °C 13,5 °C 41 % 990,6 hPa 0,0 mm 1,0 km/h (0 Bft) O-NO 58 ° 0 min 0,000 mm 0,0 UV-I 46 W/m² 0,4 °C 13,4 °C 1,6 km/h (1 Bft)
04.03.2017 17:20 13,4 °C 13,4 °C 42 % 990,7 hPa 0,0 mm 0,5 km/h (0 Bft) O-NO 58 ° 0 min 0,000 mm 0,0 UV-I 42 W/m² 0,8 °C 13,4 °C 1,6 km/h (1 Bft)
04.03.2017 17:21 13,4 °C 13,4 °C 42 % 990,7 hPa 0,0 mm 0,0 km/h (0 Bft) O-NO 58 ° 0 min 0,000 mm 0,0 UV-I 37 W/m² 0,8 °C 13,4 °C 0,0 km/h (0 Bft)
04.03.2017 17:22 13,3 °C 13,4 °C 41 % 990,7 hPa 0,0 mm 0,0 km/h (0 Bft) O-NO 58 ° 0 min 0,000 mm 0,0 UV-I 33 W/m² 0,3 °C 13,3 °C 0,0 km/h (0 Bft)
04.03.2017 17:23 13,3 °C 13,4 °C 41 % 990,6 hPa 0,0 mm 0,1 km/h (0 Bft) O-NO 58 ° 0 min 0,000 mm 0,0 UV-I 26 W/m² 0,3 °C 13,3 °C 1,6 km/h (1 Bft)
04.03.2017 17:24 13,3 °C 13,3 °C 41 % 990,6 hPa 0,0 mm 0,5 km/h (0 Bft) O-NO 58 ° 0 min 0,000 mm 0,0 UV-I 21 W/m² 0,3 °C 13,3 °C 1,6 km/h (1 Bft)
04.03.2017 17:25 13,2 °C 13,3 °C 43 % 990,5 hPa 0,0 mm 2,1 km/h (1 Bft) O-NO 58 ° 0 min 0,000 mm 0,0 UV-I 19 W/m² 0,9 °C 13,2 °C 3,2 km/h (1 Bft)
04.03.2017 17:26 13,0 °C 13,2 °C 43 % 990,5 hPa 0,0 mm 1,5 km/h (1 Bft) O-NO 58 ° 0 min 0,000 mm 0,0 UV-I 18 W/m² 0,7 °C 13,0 °C 3,2 km/h (1 Bft)
04.03.2017 17:27 12,9 °C 13,0 °C 43 % 990,5 hPa 0,0 mm 1,6 km/h (1 Bft) O-NO 58 ° 0 min 0,000 mm 0,0 UV-I 16 W/m² 0,6 °C 12,9 °C 3,2 km/h (1 Bft)
04.03.2017 17:28 12,8 °C 12,9 °C 43 % 990,6 hPa 0,0 mm 1,8 km/h (1 Bft) O-NO 58 ° 0 min 0,000 mm 0,0 UV-I 16 W/m² 0,5 °C 12,8 °C 3,2 km/h (1 Bft)
04.03.2017 17:29 12,7 °C 12,8 °C 44 % 990,6 hPa 0,0 mm 1,1 km/h (1 Bft) O-NO 58 ° 0 min 0,000 mm 0,0 UV-I 14 W/m² 0,8 °C 12,7 °C 3,2 km/h (1 Bft)
04.03.2017 17:30 12,6 °C 12,7 °C 43 % 990,7 hPa 0,0 mm 0,3 km/h (0 Bft) O-NO 58 ° 0 min 0,000 mm 0,0 UV-I 14 W/m² 0,4 °C 12,6 °C 1,6 km/h (1 Bft)
04.03.2017 17:31 12,6 °C 12,6 °C 43 % 990,7 hPa 0,0 mm 0,2 km/h (0 Bft) O-NO 58 ° 0 min 0,000 mm 0,0 UV-I 14 W/m² 0,4 °C 12,6 °C 1,6 km/h (1 Bft)
04.03.2017 17:32 12,6 °C 12,6 °C 44 % 990,7 hPa 0,0 mm 0,6 km/h (0 Bft) O-NO 58 ° 0 min 0,000 mm 0,0 UV-I 14 W/m² 0,7 °C 12,6 °C 1,6 km/h (1 Bft)
04.03.2017 17:33 12,3 °C 12,6 °C 45 % 990,7 hPa 0,0 mm 0,8 km/h (0 Bft) O-NO 58 ° 0 min 0,000 mm 0,0 UV-I 12 W/m² 0,7 °C 12,3 °C 3,2 km/h (1 Bft)
04.03.2017 17:34 12,1 °C 12,3 °C 45 % 990,7 hPa 0,0 mm 2,2 km/h (1 Bft) O-NO 58 ° 0 min 0,000 mm 0,0 UV-I 12 W/m² 0,5 °C 12,1 °C 3,2 km/h (1 Bft)
04.03.2017 17:35 12,1 °C 12,1 °C 44 % 990,7 hPa 0,0 mm 2,1 km/h (1 Bft) O-NO 58 ° 0 min 0,000 mm 0,0 UV-I 12 W/m² 0,2 °C 12,1 °C 3,2 km/h (1 Bft)
04.03.2017 17:36 12,1 °C 12,1 °C 44 % 990,7 hPa 0,0 mm 1,7 km/h (1 Bft) O-NO 58 ° 0 min 0,000 mm 0,0 UV-I 12 W/m² 0,2 °C 12,1 °C 3,2 km/h (1 Bft)
04.03.2017 17:37 12,0 °C 12,1 °C 44 % 990,8 hPa 0,0 mm 0,5 km/h (0 Bft) O-NO 58 ° 0 min 0,000 mm 0,0 UV-I 11 W/m² 0,1 °C 12,0 °C 1,6 km/h (1 Bft)
04.03.2017 17:38 12,1 °C 12,1 °C 44 % 990,8 hPa 0,0 mm 0,0 km/h (0 Bft) O-NO 58 ° 0 min 0,000 mm 0,0 UV-I 11 W/m² 0,2 °C 12,1 °C 0,0 km/h (0 Bft)
04.03.2017 17:39 12,1 °C 12,1 °C 44 % 990,9 hPa 0,0 mm 0,0 km/h (0 Bft) O-NO 58 ° 0 min 0,000 mm 0,0 UV-I 11 W/m² 0,2 °C 12,1 °C 0,0 km/h (0 Bft)
04.03.2017 17:40 11,9 °C 12,1 °C 44 % 990,9 hPa 0,0 mm 1,6 km/h (1 Bft) N-NW 342 ° 0 min 0,000 mm 0,0 UV-I 11 W/m² 0,0 °C 11,9 °C 4,8 km/h (1 Bft)
04.03.2017 17:41 11,7 °C 11,9 °C 45 % 990,9 hPa 0,0 mm 1,4 km/h (1 Bft) NW 321 ° 0 min 0,000 mm 0,0 UV-I 11 W/m² 0,2 °C 11,7 °C 3,2 km/h (1 Bft)
04.03.2017 17:42 11,5 °C 11,7 °C 47 % 990,9 hPa 0,0 mm 0,8 km/h (0 Bft) NW 321 ° 0 min 0,000 mm 0,0 UV-I 11 W/m² 0,6 °C 11,5 °C 3,2 km/h (1 Bft)
04.03.2017 17:43 11,3 °C 11,5 °C 47 % 990,9 hPa 0,0 mm 0,0 km/h (0 Bft) NW 321 ° 0 min 0,000 mm 0,0 UV-I 11 W/m² 0,4 °C 11,3 °C 0,0 km/h (0 Bft)
04.03.2017 17:44 11,3 °C 11,3 °C 46 % 991,0 hPa 0,0 mm 1,9 km/h (1 Bft) S 180 ° 0 min 0,000 mm 0,0 UV-I 11 W/m² 0,1 °C 11,3 °C 3,2 km/h (1 Bft)
04.03.2017 17:45 11,3 °C 11,3 °C 47 % 990,9 hPa 0,0 mm 2,1 km/h (1 Bft) S 182 ° 0 min 0,000 mm 0,0 UV-I 11 W/m² 0,4 °C 11,3 °C 3,2 km/h (1 Bft)
04.03.2017 17:46 11,3 °C 11,3 °C 45 % 990,9 hPa 0,0 mm 2,6 km/h (1 Bft) SW 224 ° 0 min 0,000 mm 0,0 UV-I 9 W/m² -0,2 °C 11,3 °C 4,8 km/h (1 Bft)
04.03.2017 17:47 11,3 °C 11,3 °C 45 % 991,0 hPa 0,0 mm 3,7 km/h (1 Bft) S 172 ° 0 min 0,000 mm 0,0 UV-I 9 W/m² -0,2 °C 11,3 °C 4,8 km/h (1 Bft)
04.03.2017 17:48 11,2 °C 11,3 °C 48 % 991,0 hPa 0,0 mm 0,7 km/h (0 Bft) S 172 ° 0 min 0,000 mm 0,0 UV-I 9 W/m² 0,6 °C 11,2 °C 1,6 km/h (1 Bft)
04.03.2017 17:49 11,2 °C 11,2 °C 47 % 991,0 hPa 0,0 mm 0,4 km/h (0 Bft) S 172 ° 0 min 0,000 mm 0,0 UV-I 7 W/m² 0,3 °C 11,2 °C 1,6 km/h (1 Bft)
04.03.2017 17:50 11,1 °C 11,2 °C 47 % 991,0 hPa 0,0 mm 0,6 km/h (0 Bft) S 172 ° 0 min 0,000 mm 0,0 UV-I 7 W/m² 0,2 °C 11,1 °C 1,6 km/h (1 Bft)
04.03.2017 17:51 11,1 °C 11,1 °C 46 % 991,0 hPa 0,0 mm 1,2 km/h (1 Bft) S 172 ° 0 min 0,000 mm 0,0 UV-I 7 W/m² -0,1 °C 11,1 °C 1,6 km/h (1 Bft)
04.03.2017 17:52 11,1 °C 11,2 °C 47 % 991,0 hPa 0,0 mm 0,3 km/h (0 Bft) S 172 ° 0 min 0,000 mm 0,0 UV-I 7 W/m² 0,2 °C 11,1 °C 1,6 km/h (1 Bft)
04.03.2017 17:53 11,2 °C 11,2 °C 47 % 990,9 hPa 0,0 mm 2,3 km/h (1 Bft) S 172 ° 0 min 0,000 mm 0,0 UV-I 7 W/m² 0,3 °C 11,2 °C 3,2 km/h (1 Bft)
04.03.2017 17:54 11,2 °C 11,2 °C 47 % 990,9 hPa 0,0 mm 2,9 km/h (1 Bft) S 172 ° 0 min 0,000 mm 0,0 UV-I 5 W/m² 0,3 °C 11,2 °C 3,2 km/h (1 Bft)
04.03.2017 17:55 11,2 °C 11,2 °C 46 % 990,9 hPa 0,0 mm 1,8 km/h (1 Bft) S 172 ° 0 min 0,000 mm 0,0 UV-I 5 W/m² 0,0 °C 11,2 °C 3,2 km/h (1 Bft)
04.03.2017 17:56 11,2 °C 11,2 °C 45 % 991,0 hPa 0,0 mm 1,1 km/h (1 Bft) S 172 ° 0 min 0,000 mm 0,0 UV-I 5 W/m² -0,3 °C 11,2 °C 3,2 km/h (1 Bft)
04.03.2017 17:57 11,1 °C 11,2 °C 46 % 991,0 hPa 0,0 mm 2,8 km/h (1 Bft) S 173 ° 0 min 0,000 mm 0,0 UV-I 5 W/m² -0,1 °C 11,1 °C 4,8 km/h (1 Bft)
04.03.2017 17:58 10,9 °C 11,1 °C 46 % 991,0 hPa 0,0 mm 2,8 km/h (1 Bft) S 173 ° 0 min 0,000 mm 0,0 UV-I 5 W/m² -0,3 °C 10,9 °C 3,2 km/h (1 Bft)
04.03.2017 17:59 10,7 °C 10,9 °C 47 % 991,1 hPa 0,0 mm 2,5 km/h (1 Bft) S 182 ° 0 min 0,000 mm 0,0 UV-I 5 W/m² -0,1 °C 10,7 °C 4,8 km/h (1 Bft)
04.03.2017 18:00 10,7 °C 10,7 °C 48 % 991,1 hPa 0,0 mm 3,4 km/h (1 Bft) S 182 ° 0 min 0,000 mm 0,0 UV-I 0 W/m² 0,1 °C 10,7 °C 4,8 km/h (1 Bft)
04.03.2017 18:01 10,7 °C 10,7 °C 49 % 991,2 hPa 0,0 mm 3,0 km/h (1 Bft) S 182 ° 0 min 0,026 mm 0,0 UV-I 0 W/m² 0,4 °C 10,7 °C 4,8 km/h (1 Bft)
04.03.2017 18:02 10,7 °C 10,7 °C 49 % 991,2 hPa 0,0 mm 2,4 km/h (1 Bft) S 182 ° 0 min 0,000 mm 0,0 UV-I 0 W/m² 0,4 °C 10,7 °C 4,8 km/h (1 Bft)
04.03.2017 18:03 10,7 °C 10,7 °C 48 % 991,2 hPa 0,0 mm 1,1 km/h (1 Bft) S 182 ° 0 min 0,000 mm 0,0 UV-I 0 W/m² 0,1 °C 10,7 °C 3,2 km/h (1 Bft)
04.03.2017 18:04 10,6 °C 10,7 °C 47 % 991,3 hPa 0,0 mm 0,8 km/h (0 Bft) S 182 ° 0 min 0,000 mm 0,0 UV-I 0 W/m² -0,2 °C 10,6 °C 1,6 km/h (1 Bft)
04.03.2017 18:05 10,6 °C 10,6 °C 47 % 991,3 hPa 0,0 mm 1,1 km/h (1 Bft) S 182 ° 0 min 0,000 mm 0,0 UV-I 0 W/m² -0,2 °C 10,6 °C 3,2 km/h (1 Bft)
04.03.2017 18:06 10,5 °C 10,6 °C 49 % 991,3 hPa 0,0 mm 1,2 km/h (1 Bft) S 182 ° 0 min 0,000 mm 0,0 UV-I 0 W/m² 0,2 °C 10,5 °C 3,2 km/h (1 Bft)
04.03.2017 18:07 10,3 °C 10,5 °C 51 % 991,3 hPa 0,0 mm 2,0 km/h (1 Bft) S-SO 158 ° 0 min 0,000 mm 0,0 UV-I 0 W/m² 0,6 °C 10,3 °C 4,8 km/h (1 Bft)
04.03.2017 18:08 10,3 °C 10,3 °C 48 % 991,3 hPa 0,0 mm 2,9 km/h (1 Bft) S-SO 158 ° 0 min 0,000 mm 0,0 UV-I 0 W/m² -0,2 °C 10,3 °C 8,0 km/h (2 Bft)
04.03.2017 18:09 10,2 °C 10,3 °C 49 % 991,3 hPa 0,0 mm 2,6 km/h (1 Bft) S-SO 158 ° 0 min 0,000 mm 0,0 UV-I 0 W/m² -0,0 °C 10,2 °C 3,2 km/h (1 Bft)
04.03.2017 18:10 10,2 °C 10,2 °C 48 % 991,2 hPa 0,0 mm 2,0 km/h (1 Bft) S-SO 158 ° 0 min 0,000 mm 0,0 UV-I 0 W/m² -0,3 °C 10,2 °C 3,2 km/h (1 Bft)
04.03.2017 18:11 10,2 °C 10,2 °C 48 % 991,3 hPa 0,0 mm 1,5 km/h (1 Bft) S-SO 158 ° 0 min 0,000 mm 0,0 UV-I 0 W/m² -0,3 °C 10,2 °C 1,6 km/h (1 Bft)
04.03.2017 18:12 10,3 °C 10,3 °C 46 % 991,3 hPa 0,0 mm 1,8 km/h (1 Bft) S-SO 158 ° 0 min 0,000 mm 0,0 UV-I 0 W/m² -0,8 °C 10,3 °C 3,2 km/h (1 Bft)
04.03.2017 18:13 10,3 °C 10,3 °C 47 % 991,3 hPa 0,0 mm 1,2 km/h (1 Bft) S-SO 158 ° 0 min 0,000 mm 0,0 UV-I 0 W/m² -0,5 °C 10,3 °C 3,2 km/h (1 Bft)
04.03.2017 18:14 10,2 °C 10,3 °C 48 % 991,3 hPa 0,0 mm 0,7 km/h (0 Bft) S-SO 158 ° 0 min 0,000 mm 0,0 UV-I 0 W/m² -0,3 °C 10,2 °C 1,6 km/h (1 Bft)
04.03.2017 18:15 10,2 °C 10,2 °C 47 % 991,4 hPa 0,0 mm 1,8 km/h (1 Bft) O-SO 102 ° 0 min 0,000 mm 0,0 UV-I 0 W/m² -0,6 °C 10,2 °C 4,8 km/h (1 Bft)
04.03.2017 18:16 10,2 °C 10,2 °C 45 % 991,3 hPa 0,0 mm 1,3 km/h (1 Bft) O-SO 103 ° 0 min 0,000 mm 0,0 UV-I 0 W/m² -1,2 °C 10,2 °C 1,6 km/h (1 Bft)
04.03.2017 18:17 10,3 °C 10,3 °C 45 % 991,4 hPa 0,0 mm 0,3 km/h (0 Bft) O-SO 103 ° 0 min 0,000 mm 0,0 UV-I 0 W/m² -1,1 °C 10,3 °C 1,6 km/h (1 Bft)
04.03.2017 18:18 10,3 °C 10,4 °C 46 % 991,5 hPa 0,0 mm 2,2 km/h (1 Bft) O-SO 106 ° 0 min 0,000 mm 0,0 UV-I 0 W/m² -0,8 °C 10,3 °C 3,2 km/h (1 Bft)
04.03.2017 18:19 10,3 °C 10,4 °C 47 % 991,5 hPa 0,0 mm 0,6 km/h (0 Bft) O-SO 106 ° 0 min 0,000 mm 0,0 UV-I 0 W/m² -0,5 °C 10,3 °C 1,6 km/h (1 Bft)
04.03.2017 18:20 10,3 °C 10,4 °C 47 % 991,5 hPa 0,0 mm 1,7 km/h (1 Bft) O-SO 106 ° 0 min 0,000 mm 0,0 UV-I 0 W/m² -0,5 °C 10,3 °C 3,2 km/h (1 Bft)
04.03.2017 18:21 10,4 °C 10,4 °C 46 % 991,6 hPa 0,0 mm 2,6 km/h (1 Bft) SW 217 ° 0 min 0,000 mm 0,0 UV-I 0 W/m² -0,7 °C 10,4 °C 8,0 km/h (2 Bft)
04.03.2017 18:22 10,5 °C 10,5 °C 46 % 991,5 hPa 0,0 mm 3,6 km/h (1 Bft) S 177 ° 0 min 0,000 mm 0,0 UV-I 0 W/m² -0,6 °C 10,5 °C 8,0 km/h (2 Bft)
04.03.2017 18:23 10,4 °C 10,5 °C 46 % 991,4 hPa 0,0 mm 0,6 km/h (0 Bft) S 177 ° 0 min 0,000 mm 0,0 UV-I 0 W/m² -0,7 °C 10,4 °C 1,6 km/h (1 Bft)
04.03.2017 18:24 10,5 °C 10,5 °C 45 % 991,5 hPa 0,0 mm 1,6 km/h (1 Bft) S 177 ° 0 min 0,000 mm 0,0 UV-I 0 W/m² -0,9 °C 10,5 °C 3,2 km/h (1 Bft)
04.03.2017 18:25 10,6 °C 10,6 °C 44 % 991,5 hPa 0,0 mm 1,2 km/h (1 Bft) S 177 ° 0 min 0,000 mm 0,0 UV-I 0 W/m² -1,1 °C 10,6 °C 3,2 km/h (1 Bft)
04.03.2017 18:26 10,6 °C 10,6 °C 45 % 991,5 hPa 0,0 mm 0,8 km/h (0 Bft) S 177 ° 0 min 0,000 mm 0,0 UV-I 0 W/m² -0,8 °C 10,6 °C 1,6 km/h (1 Bft)
04.03.2017 18:27 10,7 °C 10,7 °C 46 % 991,5 hPa 0,0 mm 2,6 km/h (1 Bft) S 177 ° 0 min 0,000 mm 0,0 UV-I 0 W/m² -0,4 °C 10,7 °C 4,8 km/h (1 Bft)
04.03.2017 18:28 10,7 °C 10,7 °C 44 % 991,6 hPa 0,0 mm 2,5 km/h (1 Bft) S 177 ° 0 min 0,000 mm 0,0 UV-I 0 W/m² -1,0 °C 10,7 °C 4,8 km/h (1 Bft)
04.03.2017 18:29 10,8 °C 10,8 °C 44 % 991,6 hPa 0,0 mm 2,9 km/h (1 Bft) S 177 ° 0 min 0,000 mm 0,0 UV-I 0 W/m² -1,0 °C 10,8 °C 3,2 km/h (1 Bft)
04.03.2017 18:30 10,9 °C 10,9 °C 45 % 991,6 hPa 0,0 mm 1,5 km/h (1 Bft) S 177 ° 0 min 0,000 mm 0,0 UV-I 0 W/m² -0,6 °C 10,9 °C 3,2 km/h (1 Bft)
04.03.2017 18:31 10,8 °C 10,9 °C 45 % 991,7 hPa 0,0 mm 2,0 km/h (1 Bft) S 177 ° 0 min 0,000 mm 0,0 UV-I 0 W/m² -0,6 °C 10,8 °C 3,2 km/h (1 Bft)
04.03.2017 18:32 10,8 °C 10,8 °C 46 % 991,8 hPa 0,0 mm 1,1 km/h (1 Bft) S 177 ° 0 min 0,000 mm 0,0 UV-I 0 W/m² -0,3 °C 10,8 °C 3,2 km/h (1 Bft)
04.03.2017 18:33 10,8 °C 10,8 °C 45 % 991,8 hPa 0,0 mm 2,3 km/h (1 Bft) S 177 ° 0 min 0,000 mm 0,0 UV-I 0 W/m² -0,6 °C 10,8 °C 3,2 km/h (1 Bft)
04.03.2017 18:34 10,7 °C 10,8 °C 46 % 991,8 hPa 0,0 mm 3,2 km/h (1 Bft) S 177 ° 0 min 0,000 mm 0,0 UV-I 0 W/m² -0,4 °C 10,7 °C 4,8 km/h (1 Bft)
04.03.2017 18:35 10,5 °C 10,7 °C 47 % 991,8 hPa 0,0 mm 2,7 km/h (1 Bft) S 177 ° 0 min 0,000 mm 0,0 UV-I 0 W/m² -0,3 °C 10,5 °C 3,2 km/h (1 Bft)
04.03.2017 18:36 10,4 °C 10,5 °C 45 % 991,9 hPa 0,0 mm 2,3 km/h (1 Bft) S 177 ° 0 min 0,000 mm 0,0 UV-I 0 W/m² -1,0 °C 10,4 °C 3,2 km/h (1 Bft)
04.03.2017 18:37 10,3 °C 10,4 °C 46 % 991,8 hPa 0,0 mm 3,1 km/h (1 Bft) S 177 ° 0 min 0,000 mm 0,0 UV-I 0 W/m² -0,8 °C 10,3 °C 3,2 km/h (1 Bft)
04.03.2017 18:38 10,3 °C 10,3 °C 46 % 991,9 hPa 0,0 mm 2,9 km/h (1 Bft) S 177 ° 0 min 0,000 mm 0,0 UV-I 0 W/m² -0,8 °C 10,3 °C 3,2 km/h (1 Bft)
04.03.2017 18:39 10,1 °C 10,3 °C 48 % 991,9 hPa 0,0 mm 2,5 km/h (1 Bft) S 177 ° 0 min 0,000 mm 0,0 UV-I 0 W/m² -0,4 °C 10,1 °C 3,2 km/h (1 Bft)
04.03.2017 18:40 10,1 °C 10,1 °C 48 % 991,9 hPa 0,0 mm 3,3 km/h (1 Bft) S 177 ° 0 min 0,000 mm 0,0 UV-I 0 W/m² -0,4 °C 10,1 °C 4,8 km/h (1 Bft)
04.03.2017 18:41 10,0 °C 10,1 °C 48 % 991,9 hPa 0,0 mm 2,5 km/h (1 Bft) S 177 ° 0 min 0,000 mm 0,0 UV-I 0 W/m² -0,5 °C 10,0 °C 3,2 km/h (1 Bft)
04.03.2017 18:42 10,0 °C 10,0 °C 47 % 991,9 hPa 0,0 mm 3,2 km/h (1 Bft) S 177 ° 0 min 0,000 mm 0,0 UV-I 0 W/m² -0,8 °C 10,0 °C 3,2 km/h (1 Bft)
04.03.2017 18:43 10,1 °C 10,1 °C 47 % 991,9 hPa 0,0 mm 2,4 km/h (1 Bft) S 177 ° 0 min 0,000 mm 0,0 UV-I 0 W/m² -0,7 °C 10,1 °C 3,2 km/h (1 Bft)
04.03.2017 18:44 10,0 °C 10,1 °C 47 % 991,9 hPa 0,0 mm 4,0 km/h (1 Bft) S 176 ° 0 min 0,000 mm 0,0 UV-I 0 W/m² -0,8 °C 10,0 °C 4,8 km/h (1 Bft)
04.03.2017 18:45 10,0 °C 10,0 °C 47 % 991,9 hPa 0,0 mm 4,0 km/h (1 Bft) S 176 ° 0 min 0,000 mm 0,0 UV-I 0 W/m² -0,8 °C 10,0 °C 4,8 km/h (1 Bft)
04.03.2017 18:46 10,1 °C 10,1 °C 47 % 992,0 hPa 0,0 mm 3,2 km/h (1 Bft) S 176 ° 0 min 0,000 mm 0,0 UV-I 0 W/m² -0,7 °C 10,1 °C 4,8 km/h (1 Bft)
04.03.2017 18:47 10,2 °C 10,2 °C 48 % 992,0 hPa 0,0 mm 2,4 km/h (1 Bft) S 176 ° 0 min 0,000 mm 0,0 UV-I 0 W/m² -0,3 °C 10,2 °C 3,2 km/h (1 Bft)
04.03.2017 18:48 10,1 °C 10,2 °C 48 % 992,0 hPa 0,0 mm 1,7 km/h (1 Bft) S 176 ° 0 min 0,000 mm 0,0 UV-I 0 W/m² -0,4 °C 10,1 °C 3,2 km/h (1 Bft)
04.03.2017 18:49 10,1 °C 10,2 °C 47 % 992,0 hPa 0,0 mm 2,2 km/h (1 Bft) S 176 ° 0 min 0,000 mm 0,0 UV-I 0 W/m² -0,7 °C 10,1 °C 3,2 km/h (1 Bft)
04.03.2017 18:50 10,1 °C 10,2 °C 46 % 992,1 hPa 0,0 mm 2,2 km/h (1 Bft) S 176 ° 0 min 0,000 mm 0,0 UV-I 0 W/m² -1,0 °C 10,1 °C 3,2 km/h (1 Bft)
04.03.2017 18:51 9,9 °C 10,1 °C 48 % 992,1 hPa 0,0 mm 2,3 km/h (1 Bft) S 176 ° 0 min 0,000 mm 0,0 UV-I 0 W/m² -0,6 °C 9,9 °C 4,8 km/h (1 Bft)
04.03.2017 18:52 9,8 °C 9,9 °C 50 % 992,2 hPa 0,0 mm 0,3 km/h (0 Bft) S 176 ° 0 min 0,000 mm 0,0 UV-I 0 W/m² -0,1 °C 9,8 °C 1,6 km/h (1 Bft)
04.03.2017 18:53 9,6 °C 9,8 °C 51 % 992,2 hPa 0,0 mm 0,1 km/h (0 Bft) S 176 ° 0 min 0,000 mm 0,0 UV-I 0 W/m² -0,0 °C 9,6 °C 1,6 km/h (1 Bft)
04.03.2017 18:54 9,3 °C 9,6 °C 52 % 992,1 hPa 0,0 mm 0,0 km/h (0 Bft) S 176 ° 0 min 0,000 mm 0,0 UV-I 0 W/m² -0,0 °C 9,3 °C 0,0 km/h (0 Bft)
04.03.2017 18:55 9,3 °C 9,3 °C 50 % 992,2 hPa 0,0 mm 0,3 km/h (0 Bft) S 176 ° 0 min 0,000 mm 0,0 UV-I 0 W/m² -0,6 °C 9,3 °C 1,6 km/h (1 Bft)
04.03.2017 18:56 9,4 °C 9,4 °C 50 % 992,2 hPa 0,0 mm 0,0 km/h (0 Bft) S 176 ° 0 min 0,000 mm 0,0 UV-I 0 W/m² -0,5 °C 9,4 °C 0,0 km/h (0 Bft)
04.03.2017 18:57 9,6 °C 9,6 °C 50 % 992,2 hPa 0,0 mm 0,0 km/h (0 Bft) S 176 ° 0 min 0,000 mm 0,0 UV-I 0 W/m² -0,3 °C 9,6 °C 0,0 km/h (0 Bft)
04.03.2017 18:58 9,6 °C 9,6 °C 50 % 992,3 hPa 0,0 mm 0,1 km/h (0 Bft) S 176 ° 0 min 0,000 mm 0,0 UV-I 0 W/m² -0,3 °C 9,6 °C 1,6 km/h (1 Bft)
04.03.2017 18:59 9,7 °C 9,7 °C 49 % 992,3 hPa 0,0 mm 0,7 km/h (0 Bft) S 176 ° 0 min 0,000 mm 0,0 UV-I 0 W/m² -0,5 °C 9,7 °C 3,2 km/h (1 Bft)
04.03.2017 19:00 9,5 °C 9,7 °C 51 % 992,3 hPa 0,0 mm 0,3 km/h (0 Bft) S 176 ° 0 min 0,000 mm 0,0 UV-I 0 W/m² -0,1 °C 9,5 °C 1,6 km/h (1 Bft)
04.03.2017 19:01 9,4 °C 9,5 °C 50 % 992,3 hPa 0,0 mm 0,3 km/h (0 Bft) S 176 ° 0 min 0,025 mm 0,0 UV-I 0 W/m² -0,5 °C 9,4 °C 1,6 km/h (1 Bft)
04.03.2017 19:02 9,4 °C 9,4 °C 50 % 992,3 hPa 0,0 mm 0,9 km/h (0 Bft) S 176 ° 0 min 0,000 mm 0,0 UV-I 0 W/m² -0,5 °C 9,4 °C 1,6 km/h (1 Bft)
04.03.2017 19:03 9,3 °C 9,4 °C 52 % 992,4 hPa 0,0 mm 0,1 km/h (0 Bft) S 176 ° 0 min 0,000 mm 0,0 UV-I 0 W/m² -0,0 °C 9,3 °C 1,6 km/h (1 Bft)
04.03.2017 19:04 9,1 °C 9,3 °C 51 % 992,4 hPa 0,0 mm 0,0 km/h (0 Bft) S 176 ° 0 min 0,000 mm 0,0 UV-I 0 W/m² -0,5 °C 9,1 °C 0,0 km/h (0 Bft)
04.03.2017 19:05 9,1 °C 9,2 °C 51 % 992,4 hPa 0,0 mm 0,0 km/h (0 Bft) S 176 ° 0 min 0,000 mm 0,0 UV-I 0 W/m² -0,5 °C 9,1 °C 0,0 km/h (0 Bft)
04.03.2017 19:06 9,1 °C 9,1 °C 52 % 992,5 hPa 0,0 mm 0,0 km/h (0 Bft) S 176 ° 0 min 0,000 mm 0,0 UV-I 0 W/m² -0,2 °C 9,1 °C 0,0 km/h (0 Bft)
04.03.2017 19:07 9,0 °C 9,1 °C 52 % 992,4 hPa 0,0 mm 0,0 km/h (0 Bft) S 176 ° 0 min 0,000 mm 0,0 UV-I 0 W/m² -0,3 °C 9,0 °C 0,0 km/h (0 Bft)
04.03.2017 19:08 9,0 °C 9,0 °C 51 % 992,5 hPa 0,0 mm 0,0 km/h (0 Bft) S 176 ° 0 min 0,000 mm 0,0 UV-I 0 W/m² -0,6 °C 9,0 °C 0,0 km/h (0 Bft)
04.03.2017 19:09 9,1 °C 9,1 °C 51 % 992,5 hPa 0,0 mm 3,0 km/h (1 Bft) S-SW 203 ° 0 min 0,000 mm 0,0 UV-I 0 W/m² -0,5 °C 9,1 °C 4,8 km/h (1 Bft)
04.03.2017 19:10 9,2 °C 9,2 °C 52 % 992,5 hPa 0,0 mm 2,8 km/h (1 Bft) S-SW 203 ° 0 min 0,000 mm 0,0 UV-I 0 W/m² -0,1 °C 9,2 °C 4,8 km/h (1 Bft)
04.03.2017 19:11 9,3 °C 9,3 °C 51 % 992,5 hPa 0,0 mm 2,9 km/h (1 Bft) S 189 ° 0 min 0,000 mm 0,0 UV-I 0 W/m² -0,3 °C 9,3 °C 3,2 km/h (1 Bft)
04.03.2017 19:12 9,4 °C 9,4 °C 51 % 992,7 hPa 0,0 mm 4,5 km/h (1 Bft) S 184 ° 0 min 0,000 mm 0,0 UV-I 0 W/m² -0,2 °C 9,4 °C 4,8 km/h (1 Bft)
04.03.2017 19:13 9,5 °C 9,5 °C 51 % 992,7 hPa 0,0 mm 1,4 km/h (1 Bft) S 184 ° 0 min 0,000 mm 0,0 UV-I 0 W/m² -0,1 °C 9,5 °C 3,2 km/h (1 Bft)
04.03.2017 19:14 9,6 °C 9,6 °C 50 % 992,7 hPa 0,0 mm 2,7 km/h (1 Bft) S 184 ° 0 min 0,000 mm 0,0 UV-I 0 W/m² -0,3 °C 9,6 °C 4,8 km/h (1 Bft)
04.03.2017 19:15 9,6 °C 9,7 °C 50 % 992,8 hPa 0,0 mm 3,8 km/h (1 Bft) S 184 ° 0 min 0,000 mm 0,0 UV-I 0 W/m² -0,3 °C 9,6 °C 4,8 km/h (1 Bft)
04.03.2017 19:16 9,7 °C 9,7 °C 50 % 992,9 hPa 0,0 mm 2,9 km/h (1 Bft) S 184 ° 0 min 0,000 mm 0,0 UV-I 0 W/m² -0,2 °C 9,7 °C 4,8 km/h (1 Bft)
04.03.2017 19:17 9,6 °C 9,7 °C 51 % 992,9 hPa 0,0 mm 2,0 km/h (1 Bft) S 184 ° 0 min 0,000 mm 0,0 UV-I 0 W/m² -0,0 °C 9,6 °C 3,2 km/h (1 Bft)
04.03.2017 19:18 9,6 °C 9,6 °C 52 % 992,9 hPa 0,0 mm 1,3 km/h (1 Bft) S-SO 164 ° 0 min 0,000 mm 0,0 UV-I 0 W/m² 0,2 °C 9,6 °C 8,0 km/h (2 Bft)
04.03.2017 19:19 9,5 °C 9,6 °C 51 % 993,1 hPa 0,0 mm 4,0 km/h (1 Bft) S-SO 164 ° 0 min 0,000 mm 0,0 UV-I 0 W/m² -0,1 °C 9,5 °C 8,0 km/h (2 Bft)
04.03.2017 19:20 9,4 °C 9,5 °C 51 % 993,1 hPa 0,0 mm 1,3 km/h (1 Bft) SO 142 ° 0 min 0,000 mm 0,0 UV-I 0 W/m² -0,2 °C 9,4 °C 3,2 km/h (1 Bft)
04.03.2017 19:21 9,2 °C 9,4 °C 54 % 993,0 hPa 0,0 mm 1,0 km/h (0 Bft) SO 142 ° 0 min 0,000 mm 0,0 UV-I 0 W/m² 0,4 °C 9,2 °C 3,2 km/h (1 Bft)
04.03.2017 19:22 9,0 °C 9,2 °C 54 % 993,0 hPa 0,0 mm 2,9 km/h (1 Bft) SW 221 ° 0 min 0,000 mm 0,0 UV-I 0 W/m² 0,2 °C 9,0 °C 6,4 km/h (2 Bft)
04.03.2017 19:23 9,0 °C 9,0 °C 52 % 993,1 hPa 0,0 mm 4,2 km/h (1 Bft) S-SW 211 ° 0 min 0,000 mm 0,0 UV-I 0 W/m² -0,3 °C 9,0 °C 6,4 km/h (2 Bft)
04.03.2017 19:24 9,1 °C 9,1 °C 52 % 993,1 hPa 0,0 mm 6,8 km/h (2 Bft) S-SW 209 ° 0 min 0,000 mm 0,0 UV-I 0 W/m² -0,2 °C 8,2 °C 19,3 km/h (3 Bft)
04.03.2017 19:25 9,4 °C 9,4 °C 49 % 993,1 hPa 0,0 mm 16,3 km/h (3 Bft) W 264 ° 0 min 0,000 mm 0,0 UV-I 0 W/m² -0,8 °C 7,0 °C 25,7 km/h (4 Bft)
04.03.2017 19:26 9,8 °C 9,8 °C 48 % 993,0 hPa 0,0 mm 8,4 km/h (2 Bft) S-SW 192 ° 0 min 0,000 mm 0,0 UV-I 0 W/m² -0,7 °C 8,7 °C 20,9 km/h (4 Bft)
04.03.2017 19:27 10,2 °C 10,2 °C 47 % 993,0 hPa 0,0 mm 6,3 km/h (2 Bft) S-SW 212 ° 0 min 0,000 mm 0,0 UV-I 0 W/m² -0,6 °C 10,2 °C 9,7 km/h (2 Bft)
04.03.2017 19:28 10,4 °C 10,4 °C 48 % 993,0 hPa 0,0 mm 1,9 km/h (1 Bft) S-SW 209 ° 0 min 0,000 mm 0,0 UV-I 0 W/m² -0,1 °C 10,4 °C 3,2 km/h (1 Bft)
04.03.2017 19:29 10,4 °C 10,4 °C 50 % 992,9 hPa 0,0 mm 5,2 km/h (1 Bft) O 86 ° 0 min 0,000 mm 0,0 UV-I 0 W/m² 0,4 °C 10,4 °C 9,7 km/h (2 Bft)
04.03.2017 19:30 10,4 °C 10,4 °C 49 % 992,9 hPa 0,0 mm 3,8 km/h (1 Bft) NO 36 ° 0 min 0,000 mm 0,0 UV-I 0 W/m² 0,2 °C 10,4 °C 6,4 km/h (2 Bft)
04.03.2017 19:31 10,4 °C 10,4 °C 48 % 992,9 hPa 0,0 mm 4,1 km/h (1 Bft) W-NW 289 ° 0 min 0,000 mm 0,0 UV-I 0 W/m² -0,1 °C 10,4 °C 8,0 km/h (2 Bft)
04.03.2017 19:32 10,4 °C 10,4 °C 49 % 993,1 hPa 0,0 mm 9,0 km/h (2 Bft) NW 308 ° 0 min 0,000 mm 0,0 UV-I 0 W/m² 0,2 °C 10,4 °C 14,5 km/h (3 Bft)
04.03.2017 19:33 10,6 °C 10,6 °C 46 % 992,9 hPa 0,0 mm 18,1 km/h (3 Bft) SW 215 ° 0 min 0,000 mm 0,0 UV-I 0 W/m² -0,5 °C 10,6 °C 41,8 km/h (6 Bft)
04.03.2017 19:34 10,6 °C 10,6 °C 46 % 992,8 hPa 0,0 mm 15,6 km/h (3 Bft) SW 222 ° 0 min 0,000 mm 0,0 UV-I 0 W/m² -0,5 °C 10,6 °C 27,4 km/h (4 Bft)
04.03.2017 19:35 10,7 °C 10,7 °C 47 % 992,8 hPa 0,0 mm 11,0 km/h (2 Bft) SW 225 ° 0 min 0,000 mm 0,0 UV-I 0 W/m² -0,1 °C 10,7 °C 17,7 km/h (3 Bft)
04.03.2017 19:36 10,8 °C 10,8 °C 46 % 992,9 hPa 0,0 mm 12,2 km/h (2 Bft) O-SO 121 ° 0 min 0,000 mm 0,0 UV-I 0 W/m² -0,3 °C 10,8 °C 29,0 km/h (5 Bft)
04.03.2017 19:37 10,8 °C 10,8 °C 47 % 992,9 hPa 0,0 mm 11,9 km/h (2 Bft) W-NW 295 ° 0 min 0,000 mm 0,0 UV-I 0 W/m² -0,1 °C 10,8 °C 30,6 km/h (5 Bft)
04.03.2017 19:38 10,8 °C 10,8 °C 48 % 992,9 hPa 0,0 mm 12,6 km/h (3 Bft) W-SW 243 ° 0 min 0,000 mm 0,0 UV-I 0 W/m² 0,2 °C 10,8 °C 17,7 km/h (3 Bft)
04.03.2017 19:39 10,8 °C 10,8 °C 48 % 993,1 hPa 0,0 mm 15,1 km/h (3 Bft) W-SW 248 ° 0 min 0,000 mm 0,0 UV-I 0 W/m² 0,2 °C 10,8 °C 27,4 km/h (4 Bft)
04.03.2017 19:40 10,9 °C 10,9 °C 48 % 993,1 hPa 0,0 mm 6,9 km/h (2 Bft) W-NW 287 ° 0 min 0,000 mm 0,0 UV-I 0 W/m² 0,3 °C 10,9 °C 12,9 km/h (3 Bft)
04.03.2017 19:41 10,8 °C 10,9 °C 49 % 993,1 hPa 0,0 mm 5,1 km/h (1 Bft) W 274 ° 0 min 0,000 mm 0,0 UV-I 0 W/m² 0,5 °C 10,8 °C 14,5 km/h (3 Bft)
04.03.2017 19:42 10,8 °C 10,8 °C 49 % 993,1 hPa 0,0 mm 6,6 km/h (2 Bft) W-NW 283 ° 0 min 0,000 mm 0,0 UV-I 0 W/m² 0,5 °C 10,8 °C 16,1 km/h (3 Bft)
04.03.2017 19:43 10,7 °C 10,8 °C 50 % 993,1 hPa 0,0 mm 7,4 km/h (2 Bft) W-SW 251 ° 0 min 0,000 mm 0,0 UV-I 0 W/m² 0,7 °C 10,7 °C 12,9 km/h (3 Bft)
04.03.2017 19:44 10,6 °C 10,7 °C 49 % 993,2 hPa 0,0 mm 5,1 km/h (1 Bft) N-NO 30 ° 0 min 0,000 mm 0,0 UV-I 0 W/m² 0,3 °C 10,6 °C 9,7 km/h (2 Bft)
04.03.2017 19:45 10,6 °C 10,6 °C 49 % 993,2 hPa 0,0 mm 6,1 km/h (2 Bft) W-NW 288 ° 0 min 0,000 mm 0,0 UV-I 0 W/m² 0,3 °C 10,6 °C 11,3 km/h (2 Bft)
04.03.2017 19:46 10,6 °C 10,6 °C 48 % 993,2 hPa 0,0 mm 4,7 km/h (1 Bft) W-SW 250 ° 0 min 0,000 mm 0,0 UV-I 0 W/m² 0,1 °C 10,6 °C 9,7 km/h (2 Bft)
04.03.2017 19:47 10,6 °C 10,6 °C 48 % 993,3 hPa 0,0 mm 7,3 km/h (2 Bft) W-NW 299 ° 0 min 0,000 mm 0,0 UV-I 0 W/m² 0,1 °C 10,6 °C 9,7 km/h (2 Bft)
04.03.2017 19:48 10,6 °C 10,6 °C 48 % 993,2 hPa 0,0 mm 5,5 km/h (1 Bft) NW 316 ° 0 min 0,000 mm 0,0 UV-I 0 W/m² 0,1 °C 10,6 °C 9,7 km/h (2 Bft)
04.03.2017 19:49 10,7 °C 10,7 °C 48 % 993,3 hPa 0,0 mm 7,8 km/h (2 Bft) W-SW 254 ° 0 min 0,000 mm 0,0 UV-I 0 W/m² 0,1 °C 10,7 °C 12,9 km/h (3 Bft)
04.03.2017 19:50 10,7 °C 10,7 °C 47 % 993,2 hPa 0,0 mm 8,8 km/h (2 Bft) SW 215 ° 0 min 0,000 mm 0,0 UV-I 0 W/m² -0,1 °C 10,7 °C 12,9 km/h (3 Bft)
04.03.2017 19:51 10,7 °C 10,7 °C 47 % 993,2 hPa 0,0 mm 5,2 km/h (1 Bft) SW 221 ° 0 min 0,000 mm 0,0 UV-I 0 W/m² -0,1 °C 10,7 °C 9,7 km/h (2 Bft)
04.03.2017 19:52 10,7 °C 10,7 °C 47 % 993,1 hPa 0,0 mm 5,0 km/h (1 Bft) W-SW 241 ° 0 min 0,000 mm 0,0 UV-I 0 W/m² -0,1 °C 10,7 °C 6,4 km/h (2 Bft)
04.03.2017 19:53 10,6 °C 10,7 °C 49 % 993,2 hPa 0,0 mm 5,4 km/h (1 Bft) SO 130 ° 0 min 0,000 mm 0,0 UV-I 0 W/m² 0,3 °C 10,6 °C 8,0 km/h (2 Bft)
04.03.2017 19:54 10,5 °C 10,6 °C 49 % 993,2 hPa 0,0 mm 5,1 km/h (1 Bft) NO 37 ° 0 min 0,000 mm 0,0 UV-I 0 W/m² 0,2 °C 10,5 °C 8,0 km/h (2 Bft)
04.03.2017 19:55 10,3 °C 10,5 °C 50 % 993,2 hPa 0,0 mm 6,8 km/h (2 Bft) S-SW 209 ° 0 min 0,000 mm 0,0 UV-I 0 W/m² 0,3 °C 10,3 °C 9,7 km/h (2 Bft)
04.03.2017 19:56 10,3 °C 10,3 °C 49 % 993,3 hPa 0,0 mm 5,1 km/h (1 Bft) W-SW 244 ° 0 min 0,000 mm 0,0 UV-I 0 W/m² 0,1 °C 10,3 °C 9,7 km/h (2 Bft)
04.03.2017 19:57 10,2 °C 10,3 °C 49 % 993,2 hPa 0,0 mm 8,3 km/h (2 Bft) S-SW 202 ° 0 min 0,000 mm 0,0 UV-I 0 W/m² -0,0 °C 10,2 °C 12,9 km/h (3 Bft)
04.03.2017 19:58 10,2 °C 10,2 °C 49 % 993,3 hPa 0,0 mm 8,4 km/h (2 Bft) W-SW 240 ° 0 min 0,000 mm 0,0 UV-I 0 W/m² -0,0 °C 10,2 °C 14,5 km/h (3 Bft)
04.03.2017 19:59 10,2 °C 10,2 °C 50 % 993,3 hPa 0,0 mm 1,5 km/h (1 Bft) W-SW 240 ° 0 min 0,000 mm 0,0 UV-I 0 W/m² 0,3 °C 10,2 °C 3,2 km/h (1 Bft)
04.03.2017 20:00 10,1 °C 10,2 °C 49 % 993,2 hPa 0,0 mm 3,4 km/h (1 Bft) SO 129 ° 0 min 0,000 mm 0,0 UV-I 0 W/m² -0,1 °C 10,1 °C 6,4 km/h (2 Bft)
04.03.2017 20:01 9,9 °C 10,1 °C 50 % 993,2 hPa 0,0 mm 2,7 km/h (1 Bft) O-NO 69 ° 0 min 0,051 mm 0,0 UV-I 0 W/m² -0,0 °C 9,9 °C 4,8 km/h (1 Bft)
04.03.2017 20:02 9,9 °C 9,9 °C 51 % 993,2 hPa 0,0 mm 1,3 km/h (1 Bft) O-NO 68 ° 0 min 0,000 mm 0,0 UV-I 0 W/m² 0,2 °C 9,9 °C 3,2 km/h (1 Bft)
04.03.2017 20:03 9,8 °C 9,9 °C 51 % 993,0 hPa 0,0 mm 6,6 km/h (2 Bft) O-NO 76 ° 0 min 0,000 mm 0,0 UV-I 0 W/m² 0,2 °C 9,1 °C 12,9 km/h (3 Bft)
04.03.2017 20:04 9,7 °C 9,8 °C 52 % 993,1 hPa 0,0 mm 6,6 km/h (2 Bft) W 281 ° 0 min 0,000 mm 0,0 UV-I 0 W/m² 0,3 °C 9,0 °C 9,7 km/h (2 Bft)
04.03.2017 20:05 9,7 °C 9,7 °C 52 % 993,1 hPa 0,0 mm 2,3 km/h (1 Bft) N-NW 333 ° 0 min 0,000 mm 0,0 UV-I 0 W/m² 0,3 °C 9,7 °C 4,8 km/h (1 Bft)
04.03.2017 20:06 9,6 °C 9,7 °C 53 % 993,0 hPa 0,0 mm 4,8 km/h (1 Bft) N 355 ° 0 min 0,000 mm 0,0 UV-I 0 W/m² 0,5 °C 9,4 °C 8,0 km/h (2 Bft)
04.03.2017 20:07 9,4 °C 9,6 °C 53 % 993,0 hPa 0,0 mm 5,5 km/h (1 Bft) W 279 ° 0 min 0,000 mm 0,0 UV-I 0 W/m² 0,3 °C 8,9 °C 11,3 km/h (2 Bft)
04.03.2017 20:08 9,3 °C 9,4 °C 54 % 993,0 hPa 0,0 mm 2,9 km/h (1 Bft) O 94 ° 0 min 0,000 mm 0,0 UV-I 0 W/m² 0,5 °C 9,3 °C 6,4 km/h (2 Bft)
04.03.2017 20:09 9,3 °C 9,3 °C 55 % 993,0 hPa 0,0 mm 5,9 km/h (2 Bft) N 355 ° 0 min 0,000 mm 0,0 UV-I 0 W/m² 0,7 °C 8,7 °C 9,7 km/h (2 Bft)
04.03.2017 20:10 9,2 °C 9,3 °C 55 % 993,0 hPa 0,0 mm 6,4 km/h (2 Bft) N-NW 343 ° 0 min 0,000 mm 0,0 UV-I 0 W/m² 0,6 °C 8,4 °C 9,7 km/h (2 Bft)
04.03.2017 20:11 9,1 °C 9,2 °C 56 % 993,0 hPa 0,0 mm 4,5 km/h (1 Bft) N-NW 348 ° 0 min 0,000 mm 0,0 UV-I 0 W/m² 0,8 °C 9,1 °C 6,4 km/h (2 Bft)
04.03.2017 20:12 9,1 °C 9,1 °C 56 % 993,2 hPa 0,0 mm 3,4 km/h (1 Bft) NO 51 ° 0 min 0,000 mm 0,0 UV-I 0 W/m² 0,8 °C 9,1 °C 6,4 km/h (2 Bft)
04.03.2017 20:13 9,0 °C 9,1 °C 55 % 993,2 hPa 0,0 mm 2,1 km/h (1 Bft) O-SO 107 ° 0 min 0,000 mm 0,0 UV-I 0 W/m² 0,5 °C 9,0 °C 4,8 km/h (1 Bft)
04.03.2017 20:14 8,9 °C 9,0 °C 55 % 993,1 hPa 0,0 mm 4,8 km/h (1 Bft) NW 304 ° 0 min 0,000 mm 0,0 UV-I 0 W/m² 0,4 °C 8,6 °C 9,7 km/h (2 Bft)
04.03.2017 20:15 8,9 °C 8,9 °C 55 % 993,3 hPa 0,0 mm 5,8 km/h (2 Bft) O-SO 121 ° 0 min 0,000 mm 0,0 UV-I 0 W/m² 0,4 °C 8,3 °C 12,9 km/h (3 Bft)
04.03.2017 20:16 8,8 °C 8,9 °C 56 % 993,2 hPa 0,0 mm 4,2 km/h (1 Bft) S-SW 200 ° 0 min 0,000 mm 0,0 UV-I 0 W/m² 0,5 °C 8,8 °C 8,0 km/h (2 Bft)
04.03.2017 20:17 8,8 °C 8,9 °C 56 % 993,3 hPa 0,0 mm 1,7 km/h (1 Bft) O 83 ° 0 min 0,000 mm 0,0 UV-I 0 W/m² 0,5 °C 8,8 °C 4,8 km/h (1 Bft)
04.03.2017 20:18 8,9 °C 8,9 °C 55 % 993,3 hPa 0,0 mm 1,7 km/h (1 Bft) O 82 ° 0 min 0,000 mm 0,0 UV-I 0 W/m² 0,4 °C 8,9 °C 3,2 km/h (1 Bft)
04.03.2017 20:19 8,8 °C 8,9 °C 57 % 993,3 hPa 0,0 mm 3,6 km/h (1 Bft) O-NO 76 ° 0 min 0,000 mm 0,0 UV-I 0 W/m² 0,8 °C 8,8 °C 4,8 km/h (1 Bft)
04.03.2017 20:20 8,6 °C 8,8 °C 57 % 993,4 hPa 0,0 mm 4,1 km/h (1 Bft) N-NW 331 ° 0 min 0,000 mm 0,0 UV-I 0 W/m² 0,6 °C 8,6 °C 6,4 km/h (2 Bft)
04.03.2017 20:21 8,6 °C 8,6 °C 56 % 993,3 hPa 0,0 mm 1,9 km/h (1 Bft) N-NW 333 ° 0 min 0,000 mm 0,0 UV-I 0 W/m² 0,3 °C 8,6 °C 6,4 km/h (2 Bft)
04.03.2017 20:22 8,6 °C 8,6 °C 56 % 993,3 hPa 0,0 mm 2,4 km/h (1 Bft) W 262 ° 0 min 0,000 mm 0,0 UV-I 0 W/m² 0,3 °C 8,6 °C 6,4 km/h (2 Bft)
04.03.2017 20:23 8,6 °C 8,6 °C 55 % 993,3 hPa 0,0 mm 7,8 km/h (2 Bft) S-SW 198 ° 0 min 0,000 mm 0,0 UV-I 0 W/m² 0,1 °C 7,4 °C 14,5 km/h (3 Bft)
04.03.2017 20:24 8,7 °C 8,7 °C 55 % 993,2 hPa 0,0 mm 3,8 km/h (1 Bft) SW 215 ° 0 min 0,000 mm 0,0 UV-I 0 W/m² 0,2 °C 8,7 °C 11,3 km/h (2 Bft)
04.03.2017 20:25 8,9 °C 8,9 °C 55 % 993,2 hPa 0,0 mm 3,2 km/h (1 Bft) S-SW 196 ° 0 min 0,000 mm 0,0 UV-I 0 W/m² 0,4 °C 8,9 °C 3,2 km/h (1 Bft)
04.03.2017 20:26 8,9 °C 8,9 °C 55 % 993,2 hPa 0,0 mm 2,1 km/h (1 Bft) S-SW 196 ° 0 min 0,000 mm 0,0 UV-I 0 W/m² 0,4 °C 8,9 °C 3,2 km/h (1 Bft)
04.03.2017 20:27 8,9 °C 9,0 °C 55 % 993,3 hPa 0,0 mm 0,9 km/h (0 Bft) S-SW 196 ° 0 min 0,000 mm 0,0 UV-I 0 W/m² 0,4 °C 8,9 °C 3,2 km/h (1 Bft)
04.03.2017 20:28 8,8 °C 8,9 °C 56 % 993,2 hPa 0,0 mm 1,5 km/h (1 Bft) S-SW 196 ° 0 min 0,000 mm 0,0 UV-I 0 W/m² 0,5 °C 8,8 °C 3,2 km/h (1 Bft)
04.03.2017 20:29 8,8 °C 8,8 °C 56 % 993,3 hPa 0,0 mm 2,3 km/h (1 Bft) S-SO 164 ° 0 min 0,000 mm 0,0 UV-I 0 W/m² 0,5 °C 8,8 °C 6,4 km/h (2 Bft)
04.03.2017 20:30 8,8 °C 8,8 °C 55 % 993,3 hPa 0,0 mm 6,0 km/h (2 Bft) N 350 ° 0 min 0,000 mm 0,0 UV-I 0 W/m² 0,3 °C 8,1 °C 8,0 km/h (2 Bft)
04.03.2017 20:31 8,8 °C 8,8 °C 55 % 993,2 hPa 0,0 mm 5,6 km/h (1 Bft) NW 315 ° 0 min 0,000 mm 0,0 UV-I 0 W/m² 0,3 °C 8,2 °C 8,0 km/h (2 Bft)
04.03.2017 20:32 8,8 °C 8,8 °C 55 % 993,4 hPa 0,0 mm 7,7 km/h (2 Bft) W 265 ° 0 min 0,000 mm 0,0 UV-I 0 W/m² 0,3 °C 7,7 °C 11,3 km/h (2 Bft)
04.03.2017 20:33 8,8 °C 8,8 °C 53 % 993,5 hPa 0,0 mm 7,2 km/h (2 Bft) W-NW 291 ° 0 min 0,000 mm 0,0 UV-I 0 W/m² -0,2 °C 7,8 °C 12,9 km/h (3 Bft)
04.03.2017 20:34 8,8 °C 8,8 °C 55 % 993,5 hPa 0,0 mm 8,4 km/h (2 Bft) SW 219 ° 0 min 0,000 mm 0,0 UV-I 0 W/m² 0,3 °C 7,5 °C 12,9 km/h (3 Bft)
04.03.2017 20:35 8,9 °C 8,9 °C 52 % 993,5 hPa 0,0 mm 3,6 km/h (1 Bft) W-SW 248 ° 0 min 0,000 mm 0,0 UV-I 0 W/m² -0,4 °C 8,9 °C 8,0 km/h (2 Bft)
04.03.2017 20:36 9,1 °C 9,1 °C 52 % 993,5 hPa 0,0 mm 6,2 km/h (2 Bft) W 267 ° 0 min 0,000 mm 0,0 UV-I 0 W/m² -0,2 °C 8,4 °C 11,3 km/h (2 Bft)
04.03.2017 20:37 9,2 °C 9,2 °C 51 % 993,6 hPa 0,0 mm 6,2 km/h (2 Bft) SW 226 ° 0 min 0,000 mm 0,0 UV-I 0 W/m² -0,4 °C 8,5 °C 11,3 km/h (2 Bft)
04.03.2017 20:38 9,2 °C 9,2 °C 51 % 993,8 hPa 0,0 mm 7,0 km/h (2 Bft) W 265 ° 0 min 0,000 mm 0,0 UV-I 0 W/m² -0,4 °C 8,3 °C 11,3 km/h (2 Bft)
04.03.2017 20:39 9,3 °C 9,3 °C 50 % 993,8 hPa 0,0 mm 14,6 km/h (3 Bft) W 275 ° 0 min 0,000 mm 0,0 UV-I 0 W/m² -0,6 °C 7,1 °C 32,2 km/h (5 Bft)
04.03.2017 20:40 9,3 °C 9,3 °C 50 % 993,8 hPa 0,0 mm 13,1 km/h (3 Bft) W 279 ° 0 min 0,000 mm 0,0 UV-I 0 W/m² -0,6 °C 7,3 °C 17,7 km/h (3 Bft)
04.03.2017 20:41 9,4 °C 9,4 °C 49 % 993,8 hPa 0,0 mm 13,0 km/h (3 Bft) SW 224 ° 0 min 0,000 mm 0,0 UV-I 0 W/m² -0,8 °C 7,4 °C 19,3 km/h (3 Bft)
04.03.2017 20:42 9,6 °C 9,6 °C 49 % 993,8 hPa 0,0 mm 16,1 km/h (3 Bft) W-SW 251 ° 0 min 0,000 mm 0,0 UV-I 0 W/m² -0,6 °C 7,3 °C 25,7 km/h (4 Bft)
04.03.2017 20:43 9,6 °C 9,6 °C 48 % 993,7 hPa 0,0 mm 8,2 km/h (2 Bft) NW 310 ° 0 min 0,000 mm 0,0 UV-I 0 W/m² -0,9 °C 8,5 °C 14,5 km/h (3 Bft)
04.03.2017 20:44 9,7 °C 9,7 °C 49 % 993,8 hPa 0,0 mm 5,5 km/h (1 Bft) S-SW 194 ° 0 min 0,000 mm 0,0 UV-I 0 W/m² -0,5 °C 9,3 °C 8,0 km/h (2 Bft)
04.03.2017 20:45 9,7 °C 9,7 °C 48 % 993,8 hPa 0,0 mm 11,3 km/h (2 Bft) S 174 ° 0 min 0,000 mm 0,0 UV-I 0 W/m² -0,8 °C 8,1 °C 17,7 km/h (3 Bft)
04.03.2017 20:46 9,8 °C 9,8 °C 47 % 993,9 hPa 0,0 mm 6,3 km/h (2 Bft) S-SW 212 ° 0 min 0,000 mm 0,0 UV-I 0 W/m² -1,0 °C 9,2 °C 9,7 km/h (2 Bft)
04.03.2017 20:47 9,9 °C 9,9 °C 48 % 993,9 hPa 0,0 mm 7,0 km/h (2 Bft) SW 215 ° 0 min 0,000 mm 0,0 UV-I 0 W/m² -0,6 °C 9,1 °C 12,9 km/h (3 Bft)
04.03.2017 20:48 10,0 °C 10,0 °C 46 % 993,8 hPa 0,0 mm 7,2 km/h (2 Bft) S 186 ° 0 min 0,000 mm 0,0 UV-I 0 W/m² -1,1 °C 9,2 °C 14,5 km/h (3 Bft)
04.03.2017 20:49 10,1 °C 10,1 °C 46 % 993,8 hPa 0,0 mm 9,3 km/h (2 Bft) W 262 ° 0 min 0,000 mm 0,0 UV-I 0 W/m² -1,0 °C 10,1 °C 14,5 km/h (3 Bft)
04.03.2017 20:50 10,1 °C 10,1 °C 45 % 993,9 hPa 0,0 mm 8,1 km/h (2 Bft) W 267 ° 0 min 0,000 mm 0,0 UV-I 0 W/m² -1,3 °C 10,1 °C 11,3 km/h (2 Bft)
04.03.2017 20:51 10,2 °C 10,2 °C 45 % 993,9 hPa 0,0 mm 6,5 km/h (2 Bft) W-SW 257 ° 0 min 0,000 mm 0,0 UV-I 0 W/m² -1,2 °C 10,2 °C 11,3 km/h (2 Bft)
04.03.2017 20:52 10,2 °C 10,2 °C 45 % 994,0 hPa 0,0 mm 10,5 km/h (2 Bft) S-SW 208 ° 0 min 0,000 mm 0,0 UV-I 0 W/m² -1,2 °C 10,2 °C 19,3 km/h (3 Bft)
04.03.2017 20:53 10,2 °C 10,3 °C 44 % 994,0 hPa 0,0 mm 14,2 km/h (3 Bft) W 272 ° 0 min 0,000 mm 0,0 UV-I 0 W/m² -1,5 °C 10,2 °C 20,9 km/h (4 Bft)
04.03.2017 20:54 10,2 °C 10,2 °C 45 % 994,1 hPa 0,0 mm 10,3 km/h (2 Bft) SW 232 ° 0 min 0,000 mm 0,0 UV-I 0 W/m² -1,2 °C 10,2 °C 20,9 km/h (4 Bft)
04.03.2017 20:55 10,2 °C 10,2 °C 45 % 994,1 hPa 0,0 mm 12,9 km/h (3 Bft) W 270 ° 0 min 0,000 mm 0,0 UV-I 0 W/m² -1,2 °C 10,2 °C 25,7 km/h (4 Bft)
04.03.2017 20:56 10,2 °C 10,2 °C 45 % 994,1 hPa 0,0 mm 10,7 km/h (2 Bft) SW 219 ° 0 min 0,000 mm 0,0 UV-I 0 W/m² -1,2 °C 10,2 °C 22,5 km/h (4 Bft)
04.03.2017 20:57 10,2 °C 10,2 °C 44 % 994,2 hPa 0,0 mm 5,8 km/h (2 Bft) SW 231 ° 0 min 0,000 mm 0,0 UV-I 0 W/m² -1,5 °C 10,2 °C 9,7 km/h (2 Bft)
04.03.2017 20:58 10,2 °C 10,2 °C 44 % 994,1 hPa 0,0 mm 12,9 km/h (3 Bft) NW 309 ° 0 min 0,000 mm 0,0 UV-I 0 W/m² -1,5 °C 10,2 °C 24,1 km/h (4 Bft)
04.03.2017 20:59 10,2 °C 10,3 °C 44 % 994,1 hPa 0,0 mm 16,1 km/h (3 Bft) W-SW 252 ° 0 min 0,000 mm 0,0 UV-I 0 W/m² -1,5 °C 10,2 °C 22,5 km/h (4 Bft)
04.03.2017 21:00 10,3 °C 10,3 °C 44 % 994,1 hPa 0,0 mm 14,8 km/h (3 Bft) W-SW 249 ° 0 min 0,000 mm 0,0 UV-I 0 W/m² -1,4 °C 10,3 °C 25,7 km/h (4 Bft)
04.03.2017 21:01 10,2 °C 10,3 °C 44 % 994,2 hPa 0,0 mm 14,1 km/h (3 Bft) W-NW 284 ° 0 min 0,051 mm 0,0 UV-I 0 W/m² -1,5 °C 10,2 °C 17,7 km/h (3 Bft)
04.03.2017 21:02 10,2 °C 10,3 °C 44 % 994,1 hPa 0,0 mm 13,3 km/h (3 Bft) W 277 ° 0 min 0,000 mm 0,0 UV-I 0 W/m² -1,5 °C 10,2 °C 17,7 km/h (3 Bft)
04.03.2017 21:03 10,2 °C 10,2 °C 45 % 994,2 hPa 0,0 mm 9,9 km/h (2 Bft) W-SW 242 ° 0 min 0,000 mm 0,0 UV-I 0 W/m² -1,2 °C 10,2 °C 16,1 km/h (3 Bft)
04.03.2017 21:04 10,2 °C 10,2 °C 44 % 994,2 hPa 0,0 mm 6,0 km/h (2 Bft) SW 223 ° 0 min 0,000 mm 0,0 UV-I 0 W/m² -1,5 °C 10,2 °C 11,3 km/h (2 Bft)
04.03.2017 21:05 10,2 °C 10,2 °C 44 % 994,3 hPa 0,0 mm 9,1 km/h (2 Bft) S 171 ° 0 min 0,000 mm 0,0 UV-I 0 W/m² -1,5 °C 10,2 °C 12,9 km/h (3 Bft)
04.03.2017 21:06 10,2 °C 10,2 °C 44 % 994,3 hPa 0,0 mm 8,8 km/h (2 Bft) W-NW 288 ° 0 min 0,000 mm 0,0 UV-I 0 W/m² -1,5 °C 10,2 °C 14,5 km/h (3 Bft)
04.03.2017 21:07 10,2 °C 10,2 °C 43 % 994,3 hPa 0,0 mm 7,8 km/h (2 Bft) S-SW 200 ° 0 min 0,000 mm 0,0 UV-I 0 W/m² -1,8 °C 10,2 °C 14,5 km/h (3 Bft)
04.03.2017 21:08 10,3 °C 10,3 °C 43 % 994,4 hPa 0,0 mm 9,7 km/h (2 Bft) W 269 ° 0 min 0,000 mm 0,0 UV-I 0 W/m² -1,7 °C 10,3 °C 16,1 km/h (3 Bft)
04.03.2017 21:09 10,3 °C 10,3 °C 43 % 994,3 hPa 0,0 mm 9,1 km/h (2 Bft) S-SW 202 ° 0 min 0,000 mm 0,0 UV-I 0 W/m² -1,7 °C 10,3 °C 12,9 km/h (3 Bft)
04.03.2017 21:10 10,3 °C 10,3 °C 42 % 994,4 hPa 0,0 mm 8,9 km/h (2 Bft) W-SW 252 ° 0 min 0,000 mm 0,0 UV-I 0 W/m² -2,0 °C 10,3 °C 12,9 km/h (3 Bft)
04.03.2017 21:11 10,3 °C 10,3 °C 43 % 994,4 hPa 0,0 mm 3,5 km/h (1 Bft) SW 234 ° 0 min 0,000 mm 0,0 UV-I 0 W/m² -1,7 °C 10,3 °C 6,4 km/h (2 Bft)
04.03.2017 21:12 10,3 °C 10,3 °C 44 % 994,3 hPa 0,0 mm 4,9 km/h (1 Bft) SW 227 ° 0 min 0,000 mm 0,0 UV-I 0 W/m² -1,4 °C 10,3 °C 8,0 km/h (2 Bft)
04.03.2017 21:13 10,3 °C 10,3 °C 44 % 994,3 hPa 0,0 mm 4,2 km/h (1 Bft) S-SW 206 ° 0 min 0,000 mm 0,0 UV-I 0 W/m² -1,4 °C 10,3 °C 8,0 km/h (2 Bft)
04.03.2017 21:14 10,1 °C 10,3 °C 44 % 994,4 hPa 0,0 mm 7,2 km/h (2 Bft) W 269 ° 0 min 0,000 mm 0,0 UV-I 0 W/m² -1,6 °C 10,1 °C 9,7 km/h (2 Bft)
04.03.2017 21:15 10,0 °C 10,1 °C 43 % 994,6 hPa 0,0 mm 3,1 km/h (1 Bft) W 259 ° 0 min 0,000 mm 0,0 UV-I 0 W/m² -2,0 °C 10,0 °C 4,8 km/h (1 Bft)
04.03.2017 21:16 10,0 °C 10,1 °C 43 % 994,6 hPa 0,0 mm 2,0 km/h (1 Bft) SW 230 ° 0 min 0,000 mm 0,0 UV-I 0 W/m² -2,0 °C 10,0 °C 4,8 km/h (1 Bft)
04.03.2017 21:17 10,0 °C 10,0 °C 43 % 994,6 hPa 0,0 mm 1,5 km/h (1 Bft) SW 230 ° 0 min 0,000 mm 0,0 UV-I 0 W/m² -2,0 °C 10,0 °C 4,8 km/h (1 Bft)
04.03.2017 21:18 9,9 °C 10,0 °C 43 % 994,6 hPa 0,0 mm 2,5 km/h (1 Bft) SW 230 ° 0 min 0,000 mm 0,0 UV-I 0 W/m² -2,1 °C 9,9 °C 4,8 km/h (1 Bft)
04.03.2017 21:19 9,9 °C 9,9 °C 43 % 994,8 hPa 0,0 mm 4,8 km/h (1 Bft) S-SW 210 ° 0 min 0,000 mm 0,0 UV-I 0 W/m² -2,1 °C 9,7 °C 8,0 km/h (2 Bft)
04.03.2017 21:20 9,9 °C 9,9 °C 44 % 994,8 hPa 0,0 mm 3,2 km/h (1 Bft) SW 216 ° 0 min 0,000 mm 0,0 UV-I 0 W/m² -1,8 °C 9,9 °C 4,8 km/h (1 Bft)
04.03.2017 21:21 9,8 °C 9,9 °C 44 % 994,8 hPa 0,0 mm 3,1 km/h (1 Bft) SW 222 ° 0 min 0,000 mm 0,0 UV-I 0 W/m² -1,9 °C 9,8 °C 4,8 km/h (1 Bft)
04.03.2017 21:22 9,8 °C 9,8 °C 44 % 994,9 hPa 0,0 mm 3,4 km/h (1 Bft) W-SW 252 ° 0 min 0,000 mm 0,0 UV-I 0 W/m² -1,9 °C 9,8 °C 4,8 km/h (1 Bft)
04.03.2017 21:23 9,7 °C 9,8 °C 44 % 994,9 hPa 0,0 mm 3,5 km/h (1 Bft) W 267 ° 0 min 0,000 mm 0,0 UV-I 0 W/m² -2,0 °C 9,7 °C 4,8 km/h (1 Bft)
04.03.2017 21:24 9,6 °C 9,7 °C 45 % 995,0 hPa 0,0 mm 2,9 km/h (1 Bft) W 267 ° 0 min 0,000 mm 0,0 UV-I 0 W/m² -1,7 °C 9,6 °C 4,8 km/h (1 Bft)
04.03.2017 21:25 9,5 °C 9,6 °C 45 % 995,0 hPa 0,0 mm 5,8 km/h (2 Bft) W-NW 286 ° 0 min 0,000 mm 0,0 UV-I 0 W/m² -1,8 °C 9,0 °C 9,7 km/h (2 Bft)
04.03.2017 21:26 9,4 °C 9,5 °C 46 % 995,1 hPa 0,0 mm 6,1 km/h (2 Bft) W 264 ° 0 min 0,000 mm 0,0 UV-I 0 W/m² -1,6 °C 8,8 °C 9,7 km/h (2 Bft)
04.03.2017 21:27 9,3 °C 9,4 °C 47 % 995,2 hPa 0,0 mm 4,4 km/h (1 Bft) W-NW 288 ° 0 min 0,000 mm 0,0 UV-I 0 W/m² -1,4 °C 9,3 °C 6,4 km/h (2 Bft)
04.03.2017 21:28 9,3 °C 9,3 °C 48 % 995,2 hPa 0,0 mm 8,3 km/h (2 Bft) W 271 ° 0 min 0,000 mm 0,0 UV-I 0 W/m² -1,1 °C 8,1 °C 12,9 km/h (3 Bft)
04.03.2017 21:29 9,2 °C 9,3 °C 48 % 995,3 hPa 0,0 mm 8,9 km/h (2 Bft) W 275 ° 0 min 0,000 mm 0,0 UV-I 0 W/m² -1,2 °C 7,9 °C 12,9 km/h (3 Bft)
04.03.2017 21:30 9,2 °C 9,2 °C 50 % 995,2 hPa 0,0 mm 9,9 km/h (2 Bft) W 261 ° 0 min 0,000 mm 0,0 UV-I 0 W/m² -0,7 °C 7,7 °C 17,7 km/h (3 Bft)
04.03.2017 21:31 9,2 °C 9,2 °C 51 % 995,3 hPa 0,0 mm 14,1 km/h (3 Bft) SW 217 ° 0 min 0,000 mm 0,0 UV-I 0 W/m² -0,4 °C 7,0 °C 22,5 km/h (4 Bft)
04.03.2017 21:32 9,1 °C 9,2 °C 52 % 995,3 hPa 0,0 mm 14,6 km/h (3 Bft) W 267 ° 0 min 0,000 mm 0,0 UV-I 0 W/m² -0,2 °C 6,9 °C 17,7 km/h (3 Bft)
04.03.2017 21:33 9,1 °C 9,1 °C 52 % 995,3 hPa 0,0 mm 10,5 km/h (2 Bft) W-SW 252 ° 0 min 0,000 mm 0,0 UV-I 0 W/m² -0,2 °C 7,5 °C 12,9 km/h (3 Bft)
04.03.2017 21:34 9,1 °C 9,1 °C 53 % 995,4 hPa 0,0 mm 8,1 km/h (2 Bft) W-SW 248 ° 0 min 0,000 mm 0,0 UV-I 0 W/m² 0,0 °C 7,9 °C 14,5 km/h (3 Bft)
04.03.2017 21:35 9,0 °C 9,1 °C 53 % 995,4 hPa 0,0 mm 11,6 km/h (2 Bft) W-NW 284 ° 0 min 0,000 mm 0,0 UV-I 0 W/m² -0,1 °C 7,2 °C 19,3 km/h (3 Bft)
04.03.2017 21:36 8,9 °C 9,0 °C 54 % 995,4 hPa 0,0 mm 14,8 km/h (3 Bft) W 271 ° 0 min 0,000 mm 0,0 UV-I 0 W/m² 0,1 °C 6,6 °C 20,9 km/h (4 Bft)
04.03.2017 21:37 8,9 °C 8,9 °C 54 % 995,4 hPa 0,0 mm 12,2 km/h (2 Bft) W 265 ° 0 min 0,000 mm 0,0 UV-I 0 W/m² 0,1 °C 7,0 °C 16,1 km/h (3 Bft)
04.03.2017 21:38 8,9 °C 8,9 °C 54 % 995,5 hPa 0,0 mm 14,0 km/h (3 Bft) W-SW 254 ° 0 min 0,000 mm 0,0 UV-I 0 W/m² 0,1 °C 6,7 °C 17,7 km/h (3 Bft)
04.03.2017 21:39 8,9 °C 8,9 °C 54 % 995,6 hPa 0,0 mm 8,7 km/h (2 Bft) W 274 ° 0 min 0,000 mm 0,0 UV-I 0 W/m² 0,1 °C 7,6 °C 12,9 km/h (3 Bft)
04.03.2017 21:40 8,8 °C 8,9 °C 55 % 995,6 hPa 0,0 mm 5,6 km/h (1 Bft) W-SW 250 ° 0 min 0,000 mm 0,0 UV-I 0 W/m² 0,3 °C 8,2 °C 11,3 km/h (2 Bft)
04.03.2017 21:41 8,8 °C 8,8 °C 55 % 995,7 hPa 0,0 mm 8,2 km/h (2 Bft) W-SW 257 ° 0 min 0,000 mm 0,0 UV-I 0 W/m² 0,3 °C 7,6 °C 12,9 km/h (3 Bft)
04.03.2017 21:42 8,7 °C 8,8 °C 55 % 995,7 hPa 0,0 mm 10,1 km/h (2 Bft) W 276 ° 0 min 0,000 mm 0,0 UV-I 0 W/m² 0,2 °C 7,1 °C 16,1 km/h (3 Bft)
04.03.2017 21:43 8,7 °C 8,7 °C 56 % 995,6 hPa 0,0 mm 10,1 km/h (2 Bft) W 262 ° 0 min 0,000 mm 0,0 UV-I 0 W/m² 0,4 °C 7,1 °C 17,7 km/h (3 Bft)
04.03.2017 21:44 8,7 °C 8,7 °C 56 % 995,7 hPa 0,0 mm 14,2 km/h (3 Bft) W 275 ° 0 min 0,000 mm 0,0 UV-I 0 W/m² 0,4 °C 6,4 °C 22,5 km/h (4 Bft)
04.03.2017 21:45 8,7 °C 8,7 °C 56 % 995,7 hPa 0,0 mm 12,3 km/h (3 Bft) W-SW 247 ° 0 min 0,000 mm 0,0 UV-I 0 W/m² 0,4 °C 6,7 °C 16,1 km/h (3 Bft)
04.03.2017 21:46 8,7 °C 8,7 °C 57 % 995,8 hPa 0,0 mm 12,0 km/h (2 Bft) W 278 ° 0 min 0,000 mm 0,0 UV-I 0 W/m² 0,7 °C 6,7 °C 19,3 km/h (3 Bft)
04.03.2017 21:47 8,6 °C 8,7 °C 57 % 995,8 hPa 0,0 mm 11,6 km/h (2 Bft) W 260 ° 0 min 0,000 mm 0,0 UV-I 0 W/m² 0,6 °C 6,7 °C 16,1 km/h (3 Bft)
04.03.2017 21:48 8,6 °C 8,7 °C 57 % 995,9 hPa 0,0 mm 16,0 km/h (3 Bft) NW 307 ° 0 min 0,000 mm 0,0 UV-I 0 W/m² 0,6 °C 6,1 °C 25,7 km/h (4 Bft)
04.03.2017 21:49 8,6 °C 8,6 °C 57 % 996,0 hPa 0,0 mm 20,8 km/h (4 Bft) W 273 ° 0 min 0,000 mm 0,0 UV-I 0 W/m² 0,6 °C 5,5 °C 25,7 km/h (4 Bft)
04.03.2017 21:50 8,6 °C 8,7 °C 57 % 995,9 hPa 0,0 mm 18,9 km/h (3 Bft) W-NW 286 ° 0 min 0,000 mm 0,0 UV-I 0 W/m² 0,6 °C 5,7 °C 27,4 km/h (4 Bft)
04.03.2017 21:51 8,6 °C 8,7 °C 57 % 996,2 hPa 0,0 mm 15,8 km/h (3 Bft) W 265 ° 0 min 0,000 mm 0,0 UV-I 0 W/m² 0,6 °C 6,1 °C 24,1 km/h (4 Bft)
04.03.2017 21:52 8,6 °C 8,6 °C 57 % 996,2 hPa 0,0 mm 16,6 km/h (3 Bft) W 261 ° 0 min 0,000 mm 0,0 UV-I 0 W/m² 0,6 °C 6,0 °C 25,7 km/h (4 Bft)
04.03.2017 21:53 8,6 °C 8,6 °C 57 % 996,3 hPa 0,0 mm 14,7 km/h (3 Bft) NW 322 ° 0 min 0,000 mm 0,0 UV-I 0 W/m² 0,6 °C 6,2 °C 35,4 km/h (5 Bft)
04.03.2017 21:54 8,5 °C 8,6 °C 57 % 996,4 hPa 0,0 mm 27,9 km/h (4 Bft) W 260 ° 0 min 0,000 mm 0,0 UV-I 0 W/m² 0,5 °C 4,8 °C 41,8 km/h (6 Bft)
04.03.2017 21:55 8,4 °C 8,5 °C 57 % 996,4 hPa 0,0 mm 21,6 km/h (4 Bft) SW 229 ° 0 min 0,000 mm 0,0 UV-I 0 W/m² 0,4 °C 5,2 °C 29,0 km/h (5 Bft)
04.03.2017 21:56 8,4 °C 8,4 °C 57 % 996,5 hPa 0,0 mm 16,1 km/h (3 Bft) W 277 ° 0 min 0,000 mm 0,0 UV-I 0 W/m² 0,4 °C 5,8 °C 25,7 km/h (4 Bft)
04.03.2017 21:57 8,4 °C 8,4 °C 57 % 996,5 hPa 0,0 mm 19,2 km/h (3 Bft) W-SW 252 ° 0 min 0,000 mm 0,0 UV-I 0 W/m² 0,4 °C 5,4 °C 29,0 km/h (5 Bft)
04.03.2017 21:58 8,3 °C 8,4 °C 57 % 996,6 hPa 0,0 mm 16,0 km/h (3 Bft) W 280 ° 0 min 0,000 mm 0,0 UV-I 0 W/m² 0,3 °C 5,7 °C 24,1 km/h (4 Bft)
04.03.2017 21:59 8,3 °C 8,3 °C 58 % 996,7 hPa 0,0 mm 18,8 km/h (3 Bft) W-NW 284 ° 0 min 0,000 mm 0,0 UV-I 0 W/m² 0,5 °C 5,4 °C 30,6 km/h (5 Bft)
04.03.2017 22:00 8,3 °C 8,3 °C 58 % 996,6 hPa 0,0 mm 16,5 km/h (3 Bft) W-NW 297 ° 0 min 0,000 mm 0,0 UV-I 0 W/m² 0,5 °C 5,6 °C 24,1 km/h (4 Bft)
04.03.2017 22:01 8,2 °C 8,3 °C 58 % 996,7 hPa 0,0 mm 16,8 km/h (3 Bft) W-NW 282 ° 0 min 0,076 mm 0,0 UV-I 0 W/m² 0,4 °C 5,5 °C 20,9 km/h (4 Bft)
04.03.2017 22:02 8,2 °C 8,3 °C 58 % 997,0 hPa 0,0 mm 18,3 km/h (3 Bft) W-SW 245 ° 0 min 0,000 mm 0,0 UV-I 0 W/m² 0,4 °C 5,3 °C 29,0 km/h (5 Bft)
04.03.2017 22:03 8,1 °C 8,2 °C 58 % 996,9 hPa 0,0 mm 12,7 km/h (3 Bft) W-SW 254 ° 0 min 0,000 mm 0,0 UV-I 0 W/m² 0,3 °C 5,9 °C 19,3 km/h (3 Bft)
04.03.2017 22:04 8,1 °C 8,1 °C 58 % 997,0 hPa 0,0 mm 18,9 km/h (3 Bft) SW 230 ° 0 min 0,000 mm 0,0 UV-I 0 W/m² 0,3 °C 5,1 °C 27,4 km/h (4 Bft)
04.03.2017 22:05 8,0 °C 8,1 °C 59 % 997,1 hPa 0,0 mm 23,4 km/h (4 Bft) W-SW 248 ° 0 min 0,000 mm 0,0 UV-I 0 W/m² 0,5 °C 4,5 °C 35,4 km/h (5 Bft)
04.03.2017 22:06 7,9 °C 8,0 °C 59 % 997,2 hPa 0,0 mm 21,6 km/h (4 Bft) W 268 ° 0 min 0,000 mm 0,0 UV-I 0 W/m² 0,4 °C 4,6 °C 30,6 km/h (5 Bft)
04.03.2017 22:07 7,8 °C 7,9 °C 59 % 997,2 hPa 0,0 mm 25,8 km/h (4 Bft) W 267 ° 0 min 0,000 mm 0,0 UV-I 0 W/m² 0,3 °C 4,0 °C 40,2 km/h (6 Bft)
04.03.2017 22:08 7,7 °C 7,8 °C 60 % 997,2 hPa 0,0 mm 22,6 km/h (4 Bft) W-NW 290 ° 0 min 0,000 mm 0,0 UV-I 0 W/m² 0,4 °C 4,2 °C 32,2 km/h (5 Bft)
04.03.2017 22:09 7,7 °C 7,7 °C 61 % 997,3 hPa 0,0 mm 24,3 km/h (4 Bft) SW 236 ° 0 min 0,000 mm 0,0 UV-I 0 W/m² 0,7 °C 4,0 °C 33,8 km/h (5 Bft)
04.03.2017 22:10 7,5 °C 7,7 °C 61 % 997,3 hPa 0,0 mm 22,0 km/h (4 Bft) W-SW 258 ° 0 min 0,000 mm 0,0 UV-I 0 W/m² 0,5 °C 4,0 °C 35,4 km/h (5 Bft)
04.03.2017 22:11 7,4 °C 7,5 °C 63 % 997,4 hPa 0,0 mm 15,8 km/h (3 Bft) W-SW 248 ° 0 min 0,000 mm 0,0 UV-I 0 W/m² 0,8 °C 4,6 °C 24,1 km/h (4 Bft)
04.03.2017 22:12 7,2 °C 7,4 °C 63 % 997,4 hPa 0,0 mm 19,8 km/h (3 Bft) W-SW 250 ° 0 min 0,000 mm 0,0 UV-I 0 W/m² 0,6 °C 3,9 °C 30,6 km/h (5 Bft)
04.03.2017 22:13 7,1 °C 7,2 °C 64 % 997,5 hPa 0,0 mm 24,4 km/h (4 Bft) W 259 ° 0 min 0,000 mm 0,0 UV-I 0 W/m² 0,8 °C 3,3 °C 35,4 km/h (5 Bft)
04.03.2017 22:14 7,0 °C 7,1 °C 65 % 997,5 hPa 0,0 mm 24,0 km/h (4 Bft) NW 306 ° 0 min 0,000 mm 0,0 UV-I 0 W/m² 0,9 °C 3,2 °C 33,8 km/h (5 Bft)
04.03.2017 22:15 6,9 °C 7,0 °C 65 % 997,5 hPa 0,0 mm 18,0 km/h (3 Bft) S-SW 204 ° 0 min 0,000 mm 0,0 UV-I 0 W/m² 0,8 °C 3,7 °C 25,7 km/h (4 Bft)
04.03.2017 22:16 6,8 °C 6,9 °C 66 % 997,6 hPa 0,0 mm 20,7 km/h (4 Bft) W 267 ° 0 min 0,000 mm 0,0 UV-I 0 W/m² 0,9 °C 3,3 °C 33,8 km/h (5 Bft)
04.03.2017 22:17 6,8 °C 6,8 °C 66 % 997,6 hPa 0,0 mm 16,0 km/h (3 Bft) W-SW 250 ° 0 min 0,000 mm 0,0 UV-I 0 W/m² 0,9 °C 3,8 °C 22,5 km/h (4 Bft)
04.03.2017 22:18 6,7 °C 6,8 °C 67 % 997,7 hPa 0,0 mm 22,3 km/h (4 Bft) NW 313 ° 0 min 0,000 mm 0,0 UV-I 0 W/m² 1,0 °C 3,0 °C 32,2 km/h (5 Bft)
04.03.2017 22:19 6,6 °C 6,7 °C 68 % 997,7 hPa 0,0 mm 18,6 km/h (3 Bft) W 262 ° 0 min 0,000 mm 0,0 UV-I 0 W/m² 1,1 °C 3,2 °C 24,1 km/h (4 Bft)
04.03.2017 22:20 6,5 °C 6,6 °C 68 % 997,7 hPa 0,0 mm 17,8 km/h (3 Bft) SW 236 ° 0 min 0,000 mm 0,0 UV-I 0 W/m² 1,0 °C 3,2 °C 25,7 km/h (4 Bft)
04.03.2017 22:21 6,4 °C 6,5 °C 69 % 997,8 hPa 0,0 mm 16,6 km/h (3 Bft) W 261 ° 0 min 0,000 mm 0,0 UV-I 0 W/m² 1,1 °C 3,3 °C 24,1 km/h (4 Bft)
04.03.2017 22:22 6,3 °C 6,4 °C 69 % 997,8 hPa 0,0 mm 23,2 km/h (4 Bft) W 265 ° 0 min 0,000 mm 0,0 UV-I 0 W/m² 1,0 °C 2,4 °C 30,6 km/h (5 Bft)
04.03.2017 22:23 6,3 °C 6,3 °C 70 % 997,9 hPa 0,0 mm 21,1 km/h (4 Bft) W 277 ° 0 min 0,000 mm 0,0 UV-I 0 W/m² 1,2 °C 2,6 °C 43,5 km/h (6 Bft)
04.03.2017 22:24 6,2 °C 6,3 °C 70 % 997,9 hPa 0,0 mm 23,5 km/h (4 Bft) SW 227 ° 0 min 0,000 mm 0,0 UV-I 0 W/m² 1,1 °C 2,2 °C 35,4 km/h (5 Bft)
04.03.2017 22:25 6,1 °C 6,2 °C 70 % 998,0 hPa 0,0 mm 21,7 km/h (4 Bft) W-SW 246 ° 0 min 0,000 mm 0,0 UV-I 0 W/m² 1,0 °C 2,3 °C 29,0 km/h (5 Bft)
04.03.2017 22:26 6,1 °C 6,1 °C 71 % 998,0 hPa 0,0 mm 21,6 km/h (4 Bft) W-SW 249 ° 0 min 0,000 mm 0,0 UV-I 0 W/m² 1,2 °C 2,3 °C 33,8 km/h (5 Bft)
04.03.2017 22:27 5,9 °C 6,1 °C 71 % 998,0 hPa 0,0 mm 21,9 km/h (4 Bft) W 265 ° 0 min 0,000 mm 0,0 UV-I 0 W/m² 1,1 °C 2,0 °C 37,0 km/h (5 Bft)
04.03.2017 22:28 5,9 °C 5,9 °C 72 % 998,0 hPa 0,0 mm 21,0 km/h (4 Bft) W 259 ° 0 min 0,000 mm 0,0 UV-I 0 W/m² 1,2 °C 2,1 °C 37,0 km/h (5 Bft)
04.03.2017 22:29 5,8 °C 5,9 °C 72 % 998,0 hPa 0,0 mm 22,9 km/h (4 Bft) SW 235 ° 0 min 0,000 mm 0,0 UV-I 0 W/m² 1,2 °C 1,8 °C 35,4 km/h (5 Bft)
04.03.2017 22:30 5,8 °C 5,8 °C 72 % 998,0 hPa 0,0 mm 21,5 km/h (4 Bft) W 269 ° 0 min 0,000 mm 0,0 UV-I 0 W/m² 1,2 °C 1,9 °C 35,4 km/h (5 Bft)
04.03.2017 22:31 5,8 °C 5,8 °C 72 % 998,1 hPa 0,0 mm 20,8 km/h (4 Bft) W-SW 257 ° 0 min 0,000 mm 0,0 UV-I 0 W/m² 1,2 °C 2,0 °C 29,0 km/h (5 Bft)
04.03.2017 22:32 5,7 °C 5,8 °C 73 % 998,1 hPa 0,0 mm 19,6 km/h (3 Bft) W-SW 244 ° 0 min 0,000 mm 0,0 UV-I 0 W/m² 1,2 °C 2,0 °C 25,7 km/h (4 Bft)
04.03.2017 22:33 5,7 °C 5,7 °C 73 % 998,1 hPa 0,0 mm 27,3 km/h (4 Bft) W-SW 251 ° 0 min 0,000 mm 0,0 UV-I 0 W/m² 1,2 °C 1,2 °C 40,2 km/h (6 Bft)
04.03.2017 22:34 5,6 °C 5,7 °C 73 % 998,2 hPa 0,0 mm 16,3 km/h (3 Bft) W 261 ° 0 min 0,000 mm 0,0 UV-I 0 W/m² 1,2 °C 2,3 °C 25,7 km/h (4 Bft)
04.03.2017 22:35 5,6 °C 5,6 °C 73 % 998,1 hPa 0,0 mm 15,6 km/h (3 Bft) W-NW 286 ° 0 min 0,000 mm 0,0 UV-I 0 W/m² 1,2 °C 2,4 °C 20,9 km/h (4 Bft)
04.03.2017 22:36 5,6 °C 5,6 °C 74 % 998,2 hPa 0,0 mm 22,3 km/h (4 Bft) W-NW 292 ° 0 min 0,000 mm 0,0 UV-I 0 W/m² 1,3 °C 1,6 °C 37,0 km/h (5 Bft)
04.03.2017 22:37 5,5 °C 5,6 °C 74 % 998,3 hPa 0,0 mm 19,4 km/h (3 Bft) W-NW 300 ° 0 min 0,000 mm 0,0 UV-I 0 W/m² 1,2 °C 1,8 °C 29,0 km/h (5 Bft)
04.03.2017 22:38 5,4 °C 5,5 °C 74 % 998,2 hPa 0,0 mm 19,0 km/h (3 Bft) W 277 ° 0 min 0,000 mm 0,0 UV-I 0 W/m² 1,1 °C 1,7 °C 25,7 km/h (4 Bft)
04.03.2017 22:39 5,4 °C 5,4 °C 75 % 998,2 hPa 0,0 mm 20,5 km/h (4 Bft) W-NW 298 ° 0 min 0,000 mm 0,0 UV-I 0 W/m² 1,3 °C 1,5 °C 29,0 km/h (5 Bft)
04.03.2017 22:40 5,4 °C 5,4 °C 75 % 998,3 hPa 0,0 mm 20,4 km/h (4 Bft) W-SW 257 ° 0 min 0,000 mm 0,0 UV-I 0 W/m² 1,3 °C 1,5 °C 29,0 km/h (5 Bft)
04.03.2017 22:41 5,4 °C 5,4 °C 75 % 998,3 hPa 0,0 mm 18,2 km/h (3 Bft) W 269 ° 0 min 0,000 mm 0,0 UV-I 0 W/m² 1,3 °C 1,8 °C 25,7 km/h (4 Bft)
04.03.2017 22:42 5,3 °C 5,4 °C 75 % 998,3 hPa 0,0 mm 21,4 km/h (4 Bft) W 275 ° 0 min 0,000 mm 0,0 UV-I 0 W/m² 1,2 °C 1,3 °C 29,0 km/h (5 Bft)
04.03.2017 22:43 5,3 °C 5,3 °C 75 % 998,3 hPa 0,0 mm 17,8 km/h (3 Bft) W-SW 248 ° 0 min 0,000 mm 0,0 UV-I 0 W/m² 1,2 °C 1,7 °C 30,6 km/h (5 Bft)
04.03.2017 22:44 5,3 °C 5,3 °C 75 % 998,4 hPa 0,0 mm 15,5 km/h (3 Bft) W-NW 300 ° 0 min 0,000 mm 0,0 UV-I 0 W/m² 1,2 °C 2,0 °C 25,7 km/h (4 Bft)
04.03.2017 22:45 5,3 °C 5,3 °C 76 % 998,4 hPa 0,0 mm 14,8 km/h (3 Bft) W 272 ° 0 min 0,000 mm 0,0 UV-I 0 W/m² 1,4 °C 2,1 °C 24,1 km/h (4 Bft)
04.03.2017 22:46 5,3 °C 5,3 °C 76 % 998,5 hPa 0,0 mm 19,4 km/h (3 Bft) W 279 ° 0 min 0,000 mm 0,0 UV-I 0 W/m² 1,4 °C 1,5 °C 27,4 km/h (4 Bft)
04.03.2017 22:47 5,2 °C 5,3 °C 76 % 998,5 hPa 0,0 mm 22,5 km/h (4 Bft) W-NW 296 ° 0 min 0,000 mm 0,0 UV-I 0 W/m² 1,3 °C 1,0 °C 32,2 km/h (5 Bft)
04.03.2017 22:48 5,3 °C 5,3 °C 76 % 998,6 hPa 0,0 mm 23,1 km/h (4 Bft) W 261 ° 0 min 0,000 mm 0,0 UV-I 0 W/m² 1,4 °C 1,1 °C 32,2 km/h (5 Bft)
04.03.2017 22:49 5,2 °C 5,3 °C 76 % 998,6 hPa 0,0 mm 20,1 km/h (4 Bft) W-NW 297 ° 0 min 0,000 mm 0,0 UV-I 0 W/m² 1,3 °C 1,3 °C 30,6 km/h (5 Bft)
04.03.2017 22:50 5,2 °C 5,2 °C 76 % 998,5 hPa 0,0 mm 20,2 km/h (4 Bft) W-SW 243 ° 0 min 0,000 mm 0,0 UV-I 0 W/m² 1,3 °C 1,3 °C 33,8 km/h (5 Bft)
04.03.2017 22:51 5,2 °C 5,2 °C 76 % 998,6 hPa 0,0 mm 24,5 km/h (4 Bft) W-NW 296 ° 0 min 0,000 mm 0,0 UV-I 0 W/m² 1,3 °C 0,8 °C 33,8 km/h (5 Bft)
04.03.2017 22:52 5,1 °C 5,2 °C 76 % 998,6 hPa 0,0 mm 20,3 km/h (4 Bft) W-SW 258 ° 0 min 0,000 mm 0,0 UV-I 0 W/m² 1,2 °C 1,2 °C 30,6 km/h (5 Bft)
04.03.2017 22:53 5,1 °C 5,1 °C 77 % 998,8 hPa 0,0 mm 13,9 km/h (3 Bft) SW 231 ° 0 min 0,000 mm 0,0 UV-I 0 W/m² 1,4 °C 2,0 °C 22,5 km/h (4 Bft)
04.03.2017 22:54 5,1 °C 5,1 °C 77 % 998,7 hPa 0,0 mm 18,2 km/h (3 Bft) W-SW 247 ° 0 min 0,000 mm 0,0 UV-I 0 W/m² 1,4 °C 1,4 °C 24,1 km/h (4 Bft)
04.03.2017 22:55 5,1 °C 5,1 °C 77 % 998,8 hPa 0,0 mm 17,9 km/h (3 Bft) W-NW 286 ° 0 min 0,000 mm 0,0 UV-I 0 W/m² 1,4 °C 1,5 °C 24,1 km/h (4 Bft)
04.03.2017 22:56 5,1 °C 5,1 °C 77 % 998,7 hPa 0,0 mm 19,9 km/h (4 Bft) W-SW 252 ° 0 min 0,000 mm 0,0 UV-I 0 W/m² 1,4 °C 1,2 °C 29,0 km/h (5 Bft)
04.03.2017 22:57 5,1 °C 5,1 °C 77 % 998,8 hPa 0,0 mm 18,2 km/h (3 Bft) W-NW 286 ° 0 min 0,000 mm 0,0 UV-I 0 W/m² 1,4 °C 1,4 °C 30,6 km/h (5 Bft)
04.03.2017 22:58 5,1 °C 5,1 °C 77 % 998,9 hPa 0,0 mm 20,2 km/h (4 Bft) W-SW 252 ° 0 min 0,000 mm 0,0 UV-I 0 W/m² 1,4 °C 1,2 °C 32,2 km/h (5 Bft)
04.03.2017 22:59 5,0 °C 5,1 °C 77 % 998,8 hPa 0,0 mm 19,1 km/h (3 Bft) W 261 ° 0 min 0,000 mm 0,0 UV-I 0 W/m² 1,3 °C 1,2 °C 33,8 km/h (5 Bft)
04.03.2017 23:00 4,9 °C 5,0 °C 77 % 999,0 hPa 0,0 mm 22,9 km/h (4 Bft) W 278 ° 0 min 0,000 mm 0,0 UV-I 0 W/m² 1,2 °C 0,6 °C 33,8 km/h (5 Bft)
04.03.2017 23:01 4,9 °C 5,0 °C 77 % 998,9 hPa 0,0 mm 20,4 km/h (4 Bft) NW 313 ° 0 min 0,051 mm 0,0 UV-I 0 W/m² 1,2 °C 0,9 °C 27,4 km/h (4 Bft)
04.03.2017 23:02 4,9 °C 4,9 °C 77 % 999,0 hPa 0,0 mm 19,7 km/h (3 Bft) W-SW 247 ° 0 min 0,000 mm 0,0 UV-I 0 W/m² 1,2 °C 1,0 °C 24,1 km/h (4 Bft)
04.03.2017 23:03 4,9 °C 4,9 °C 77 % 998,9 hPa 0,0 mm 18,1 km/h (3 Bft) W 277 ° 0 min 0,000 mm 0,0 UV-I 0 W/m² 1,2 °C 1,2 °C 27,4 km/h (4 Bft)
04.03.2017 23:04 4,8 °C 4,9 °C 77 % 999,0 hPa 0,0 mm 21,8 km/h (4 Bft) W-SW 244 ° 0 min 0,000 mm 0,0 UV-I 0 W/m² 1,1 °C 0,6 °C 30,6 km/h (5 Bft)
04.03.2017 23:05 4,8 °C 4,8 °C 78 % 999,0 hPa 0,0 mm 23,3 km/h (4 Bft) W 272 ° 0 min 0,000 mm 0,0 UV-I 0 W/m² 1,3 °C 0,4 °C 30,6 km/h (5 Bft)
04.03.2017 23:06 4,8 °C 4,8 °C 78 % 999,0 hPa 0,0 mm 25,6 km/h (4 Bft) W-SW 248 ° 0 min 0,000 mm 0,0 UV-I 0 W/m² 1,3 °C 0,2 °C 35,4 km/h (5 Bft)
04.03.2017 23:07 4,8 °C 4,8 °C 78 % 999,0 hPa 0,0 mm 20,1 km/h (4 Bft) W 273 ° 0 min 0,000 mm 0,0 UV-I 0 W/m² 1,3 °C 0,8 °C 27,4 km/h (4 Bft)
04.03.2017 23:08 4,7 °C 4,8 °C 78 % 999,1 hPa 0,0 mm 18,4 km/h (3 Bft) W 260 ° 0 min 0,000 mm 0,0 UV-I 0 W/m² 1,2 °C 0,9 °C 22,5 km/h (4 Bft)
04.03.2017 23:09 4,7 °C 4,8 °C 77 % 999,2 hPa 0,0 mm 25,1 km/h (4 Bft) W-SW 243 ° 0 min 0,000 mm 0,0 UV-I 0 W/m² 1,0 °C 0,1 °C 40,2 km/h (6 Bft)
04.03.2017 23:10 4,7 °C 4,8 °C 77 % 999,1 hPa 0,0 mm 22,0 km/h (4 Bft) W-SW 247 ° 0 min 0,000 mm 0,0 UV-I 0 W/m² 1,0 °C 0,5 °C 40,2 km/h (6 Bft)
04.03.2017 23:11 4,8 °C 4,8 °C 77 % 999,3 hPa 0,0 mm 24,6 km/h (4 Bft) W 280 ° 0 min 0,000 mm 0,0 UV-I 0 W/m² 1,1 °C 0,3 °C 48,3 km/h (6 Bft)
04.03.2017 23:12 4,8 °C 4,8 °C 76 % 999,2 hPa 0,0 mm 26,8 km/h (4 Bft) W-SW 255 ° 0 min 0,000 mm 0,0 UV-I 0 W/m² 0,9 °C 0,1 °C 37,0 km/h (5 Bft)
04.03.2017 23:13 4,7 °C 4,8 °C 76 % 999,4 hPa 0,0 mm 23,6 km/h (4 Bft) W-SW 254 ° 0 min 0,000 mm 0,0 UV-I 0 W/m² 0,8 °C 0,3 °C 35,4 km/h (5 Bft)
04.03.2017 23:14 4,8 °C 4,8 °C 76 % 999,4 hPa 0,0 mm 31,5 km/h (5 Bft) W 267 ° 0 min 0,000 mm 0,0 UV-I 0 W/m² 0,9 °C -0,3 °C 57,9 km/h (7 Bft)
04.03.2017 23:15 4,8 °C 4,8 °C 75 % 999,5 hPa 0,0 mm 23,5 km/h (4 Bft) W-SW 238 ° 0 min 0,000 mm 0,0 UV-I 0 W/m² 0,8 °C 0,4 °C 33,8 km/h (5 Bft)
04.03.2017 23:16 4,7 °C 4,8 °C 74 % 999,5 hPa 0,0 mm 29,2 km/h (5 Bft) W-SW 249 ° 0 min 0,000 mm 0,0 UV-I 0 W/m² 0,5 °C -0,3 °C 46,7 km/h (6 Bft)
04.03.2017 23:17 4,7 °C 4,7 °C 74 % 999,4 hPa 0,0 mm 22,7 km/h (4 Bft) W-SW 242 ° 0 min 0,000 mm 0,0 UV-I 0 W/m² 0,5 °C 0,4 °C 32,2 km/h (5 Bft)
04.03.2017 23:18 4,7 °C 4,7 °C 74 % 999,4 hPa 0,0 mm 21,6 km/h (4 Bft) W-NW 282 ° 0 min 0,000 mm 0,0 UV-I 0 W/m² 0,5 °C 0,5 °C 32,2 km/h (5 Bft)
04.03.2017 23:19 4,7 °C 4,7 °C 74 % 999,6 hPa 0,0 mm 33,3 km/h (5 Bft) W-SW 252 ° 0 min 0,000 mm 0,0 UV-I 0 W/m² 0,5 °C -0,6 °C 49,9 km/h (6 Bft)
04.03.2017 23:20 4,6 °C 4,7 °C 74 % 999,5 hPa 0,0 mm 24,7 km/h (4 Bft) W-NW 286 ° 0 min 0,000 mm 0,0 UV-I 0 W/m² 0,4 °C 0,0 °C 33,8 km/h (5 Bft)
04.03.2017 23:21 4,6 °C 4,7 °C 73 % 999,5 hPa 0,0 mm 22,7 km/h (4 Bft) W-SW 239 ° 0 min 0,000 mm 0,0 UV-I 0 W/m² 0,2 °C 0,2 °C 35,4 km/h (5 Bft)
04.03.2017 23:22 4,6 °C 4,6 °C 74 % 999,6 hPa 0,0 mm 20,0 km/h (4 Bft) W-SW 254 ° 0 min 0,000 mm 0,0 UV-I 0 W/m² 0,4 °C 0,6 °C 29,0 km/h (5 Bft)
04.03.2017 23:23 4,6 °C 4,6 °C 74 % 999,5 hPa 0,0 mm 31,2 km/h (5 Bft) SW 236 ° 0 min 0,000 mm 0,0 UV-I 0 W/m² 0,4 °C -0,6 °C 43,5 km/h (6 Bft)
04.03.2017 23:24 4,6 °C 4,6 °C 73 % 999,7 hPa 0,0 mm 30,1 km/h (5 Bft) W-NW 286 ° 0 min 0,000 mm 0,0 UV-I 0 W/m² 0,2 °C -0,5 °C 45,1 km/h (6 Bft)
04.03.2017 23:25 4,6 °C 4,6 °C 74 % 999,6 hPa 0,0 mm 18,9 km/h (3 Bft) W 264 ° 0 min 0,000 mm 0,0 UV-I 0 W/m² 0,4 °C 0,7 °C 30,6 km/h (5 Bft)
04.03.2017 23:26 4,5 °C 4,6 °C 74 % 999,5 hPa 0,0 mm 20,9 km/h (4 Bft) W 268 ° 0 min 0,000 mm 0,0 UV-I 0 W/m² 0,3 °C 0,3 °C 37,0 km/h (5 Bft)
04.03.2017 23:27 4,5 °C 4,5 °C 74 % 999,5 hPa 0,0 mm 21,7 km/h (4 Bft) W-SW 248 ° 0 min 0,000 mm 0,0 UV-I 0 W/m² 0,3 °C 0,2 °C 33,8 km/h (5 Bft)
04.03.2017 23:28 4,5 °C 4,5 °C 74 % 999,6 hPa 0,0 mm 22,5 km/h (4 Bft) W 272 ° 0 min 0,000 mm 0,0 UV-I 0 W/m² 0,3 °C 0,1 °C 35,4 km/h (5 Bft)
04.03.2017 23:29 4,4 °C 4,5 °C 74 % 999,6 hPa 0,0 mm 18,8 km/h (3 Bft) W-NW 283 ° 0 min 0,000 mm 0,0 UV-I 0 W/m² 0,2 °C 0,5 °C 25,7 km/h (4 Bft)
04.03.2017 23:30 4,4 °C 4,4 °C 74 % 999,6 hPa 0,0 mm 19,8 km/h (3 Bft) W 273 ° 0 min 0,000 mm 0,0 UV-I 0 W/m² 0,2 °C 0,3 °C 29,0 km/h (5 Bft)
04.03.2017 23:31 4,3 °C 4,4 °C 74 % 999,6 hPa 0,0 mm 16,2 km/h (3 Bft) W-SW 257 ° 0 min 0,000 mm 0,0 UV-I 0 W/m² 0,1 °C 0,7 °C 25,7 km/h (4 Bft)
04.03.2017 23:32 4,3 °C 4,3 °C 74 % 999,7 hPa 0,0 mm 23,2 km/h (4 Bft) W 269 ° 0 min 0,000 mm 0,0 UV-I 0 W/m² 0,1 °C -0,2 °C 32,2 km/h (5 Bft)
04.03.2017 23:33 4,3 °C 4,3 °C 74 % 999,7 hPa 0,0 mm 16,4 km/h (3 Bft) W-NW 283 ° 0 min 0,000 mm 0,0 UV-I 0 W/m² 0,1 °C 0,7 °C 22,5 km/h (4 Bft)
04.03.2017 23:34 4,3 °C 4,3 °C 74 % 999,7 hPa 0,0 mm 17,5 km/h (3 Bft) W-SW 256 ° 0 min 0,000 mm 0,0 UV-I 0 W/m² 0,1 °C 0,5 °C 25,7 km/h (4 Bft)
04.03.2017 23:35 4,2 °C 4,3 °C 74 % 999,7 hPa 0,0 mm 16,8 km/h (3 Bft) W-NW 294 ° 0 min 0,000 mm 0,0 UV-I 0 W/m² -0,0 °C 0,5 °C 25,7 km/h (4 Bft)
04.03.2017 23:36 4,2 °C 4,2 °C 74 % 999,7 hPa 0,0 mm 19,7 km/h (3 Bft) W 269 ° 0 min 0,000 mm 0,0 UV-I 0 W/m² -0,0 °C 0,1 °C 25,7 km/h (4 Bft)
04.03.2017 23:37 4,2 °C 4,2 °C 74 % 999,7 hPa 0,0 mm 18,7 km/h (3 Bft) W-SW 247 ° 0 min 0,000 mm 0,0 UV-I 0 W/m² -0,0 °C 0,2 °C 25,7 km/h (4 Bft)
04.03.2017 23:38 4,2 °C 4,2 °C 74 % 999,8 hPa 0,0 mm 13,6 km/h (3 Bft) W-SW 249 ° 0 min 0,000 mm 0,0 UV-I 0 W/m² -0,0 °C 1,0 °C 17,7 km/h (3 Bft)
04.03.2017 23:39 4,2 °C 4,2 °C 74 % 999,8 hPa 0,0 mm 19,0 km/h (3 Bft) W 270 ° 0 min 0,000 mm 0,0 UV-I 0 W/m² -0,0 °C 0,2 °C 25,7 km/h (4 Bft)
04.03.2017 23:40 4,2 °C 4,2 °C 74 % 999,8 hPa 0,0 mm 13,6 km/h (3 Bft) W-SW 242 ° 0 min 0,000 mm 0,0 UV-I 0 W/m² -0,0 °C 1,0 °C 20,9 km/h (4 Bft)
04.03.2017 23:41 4,2 °C 4,2 °C 74 % 999,8 hPa 0,0 mm 14,0 km/h (3 Bft) W 261 ° 0 min 0,000 mm 0,0 UV-I 0 W/m² -0,0 °C 0,9 °C 24,1 km/h (4 Bft)
04.03.2017 23:42 4,2 °C 4,2 °C 74 % 999,8 hPa 0,0 mm 19,1 km/h (3 Bft) W-SW 246 ° 0 min 0,000 mm 0,0 UV-I 0 W/m² -0,0 °C 0,2 °C 22,5 km/h (4 Bft)
04.03.2017 23:43 4,2 °C 4,2 °C 74 % 999,8 hPa 0,0 mm 20,7 km/h (4 Bft) W 277 ° 0 min 0,000 mm 0,0 UV-I 0 W/m² -0,0 °C -0,0 °C 30,6 km/h (5 Bft)
04.03.2017 23:44 4,2 °C 4,3 °C 74 % 999,9 hPa 0,0 mm 19,4 km/h (3 Bft) W-SW 240 ° 0 min 0,000 mm 0,0 UV-I 0 W/m² -0,0 °C 0,1 °C 25,7 km/h (4 Bft)
04.03.2017 23:45 4,3 °C 4,3 °C 74 % 999,9 hPa 0,0 mm 20,3 km/h (4 Bft) W-NW 286 ° 0 min 0,000 mm 0,0 UV-I 0 W/m² 0,1 °C 0,1 °C 30,6 km/h (5 Bft)
04.03.2017 23:46 4,3 °C 4,3 °C 74 % 999,9 hPa 0,0 mm 25,2 km/h (4 Bft) W 262 ° 0 min 0,000 mm 0,0 UV-I 0 W/m² 0,1 °C -0,4 °C 32,2 km/h (5 Bft)
04.03.2017 23:47 4,3 °C 4,3 °C 74 % 999,8 hPa 0,0 mm 18,6 km/h (3 Bft) SW 235 ° 0 min 0,000 mm 0,0 UV-I 0 W/m² 0,1 °C 0,4 °C 24,1 km/h (4 Bft)
04.03.2017 23:48 4,3 °C 4,3 °C 74 % 999,9 hPa 0,0 mm 17,1 km/h (3 Bft) W-SW 248 ° 0 min 0,000 mm 0,0 UV-I 0 W/m² 0,1 °C 0,6 °C 27,4 km/h (4 Bft)
04.03.2017 23:49 4,3 °C 4,3 °C 73 % 999,9 hPa 0,0 mm 14,1 km/h (3 Bft) W-SW 244 ° 0 min 0,000 mm 0,0 UV-I 0 W/m² -0,1 °C 1,0 °C 22,5 km/h (4 Bft)
04.03.2017 23:50 4,3 °C 4,3 °C 74 % 1000,0 hPa 0,0 mm 17,6 km/h (3 Bft) W 260 ° 0 min 0,000 mm 0,0 UV-I 0 W/m² 0,1 °C 0,5 °C 25,7 km/h (4 Bft)
04.03.2017 23:51 4,3 °C 4,3 °C 74 % 1000,0 hPa 0,0 mm 17,8 km/h (3 Bft) W-NW 303 ° 0 min 0,000 mm 0,0 UV-I 0 W/m² 0,1 °C 0,5 °C 40,2 km/h (6 Bft)
04.03.2017 23:52 4,3 °C 4,3 °C 73 % 1000,0 hPa 0,0 mm 18,7 km/h (3 Bft) W 267 ° 0 min 0,000 mm 0,0 UV-I 0 W/m² -0,1 °C 0,4 °C 27,4 km/h (4 Bft)
04.03.2017 23:53 4,3 °C 4,3 °C 73 % 1000,0 hPa 0,0 mm 13,9 km/h (3 Bft) NW 315 ° 0 min 0,000 mm 0,0 UV-I 0 W/m² -0,1 °C 1,1 °C 20,9 km/h (4 Bft)
04.03.2017 23:54 4,3 °C 4,3 °C 73 % 1000,0 hPa 0,0 mm 16,8 km/h (3 Bft) W-SW 244 ° 0 min 0,000 mm 0,0 UV-I 0 W/m² -0,1 °C 0,6 °C 22,5 km/h (4 Bft)
04.03.2017 23:55 4,3 °C 4,3 °C 73 % 1000,0 hPa 0,0 mm 23,7 km/h (4 Bft) W-NW 294 ° 0 min 0,000 mm 0,0 UV-I 0 W/m² -0,1 °C -0,2 °C 30,6 km/h (5 Bft)
04.03.2017 23:56 4,4 °C 4,4 °C 73 % 1000,0 hPa 0,0 mm 14,8 km/h (3 Bft) W 281 ° 0 min 0,000 mm 0,0 UV-I 0 W/m² -0,0 °C 1,0 °C 22,5 km/h (4 Bft)
04.03.2017 23:57 4,4 °C 4,4 °C 73 % 1000,1 hPa 0,0 mm 23,7 km/h (4 Bft) W-SW 252 ° 0 min 0,000 mm 0,0 UV-I 0 W/m² -0,0 °C -0,1 °C 41,8 km/h (6 Bft)
04.03.2017 23:58 4,4 °C 4,4 °C 73 % 1000,0 hPa 0,0 mm 20,0 km/h (4 Bft) W-NW 287 ° 0 min 0,000 mm 0,0 UV-I 0 W/m² -0,0 °C 0,3 °C 35,4 km/h (5 Bft)
04.03.2017 23:59 4,5 °C 4,5 °C 73 % 1000,0 hPa 0,0 mm 18,8 km/h (3 Bft) W-NW 296 ° 0 min 0,000 mm 0,0 UV-I 0 W/m² 0,1 °C 0,6 °C 33,8 km/h (5 Bft)
_ Min-Zeit 23:44 23:43 13:53 15:49 - 19:08 - - - - - - 03:42 23:19 19:08
Minimum _ 4,2 °C 4,2 °C 25 % 988,8 hPa - 0,0 km/h (0 Bft) - - - - - - -3,4 °C -0,6 °C 0,0 km/h (0 Bft)
_ Max-Zeit 14:01 14:02 23:08 00:04 23:59 23:19 - - 15:45 14:01 13:46 13:43 15:34 14:01 23:14
Maximum _ 17,2 °C 17,2 °C 78 % 1003,4 hPa 0,0 mm 33,3 km/h
W-SW (5 Bft)
- - 1 min 0,381 mm 3,6 UV-I 717 W/m² 1,6 °C 17,2 °C 57,9 km/h
W-SW (7 Bft)
Durchschnitt _ 11,4 °C 11,4 °C 44 % 995,6 hPa #0,0 mm 6,3 km/h (2 Bft) O-NO - #5:46 h #2,591 mm 2,1 UV-I 114 W/m² -1,0 °C 11,0 °C 10,5 km/h (2 Bft)